<?xml version="1.0" encoding="UTF-8" standalone="no" ?>
<gpx xmlns="http://www.topografix.com/GPX/1/1" xmlns:xsi="http://www.w3.org/2001/XMLSchema-instance" xsi:schemaLocation="http://www.topografix.com/GPX/1/1 http://www.topografix.com/GPX/1/1/gpx.xsd" version="1.1" creator="VisuGPX - https://www.visugpx.com">
  <metadata>
    <name>Bernin -&gt; Col du Granier</name>
    <desc><![CDATA[2 points d\'eau:
- cabane de Bellefond
- Habert de St Vincent]]></desc>
  </metadata>
  <trk>
    <name><![CDATA[2012-08-29T04:34:35Z]]></name>
    <trkseg>
      <trkpt lat="45.27153" lon="5.86843">
        <ele>230.6</ele>
        <time>2012-08-29T04:34:41Z</time>
      </trkpt>
      <trkpt lat="45.27142" lon="5.86831">
        <ele>230.6</ele>
        <time>2012-08-29T04:34:46Z</time>
      </trkpt>
      <trkpt lat="45.2714" lon="5.86829">
        <ele>230.6</ele>
        <time>2012-08-29T04:34:47Z</time>
      </trkpt>
      <trkpt lat="45.27128" lon="5.86816">
        <ele>231.2</ele>
        <time>2012-08-29T04:34:53Z</time>
      </trkpt>
      <trkpt lat="45.27113" lon="5.86803">
        <ele>232</ele>
        <time>2012-08-29T04:34:59Z</time>
      </trkpt>
      <trkpt lat="45.27101" lon="5.86795">
        <ele>232.2</ele>
        <time>2012-08-29T04:35:06Z</time>
      </trkpt>
      <trkpt lat="45.27089" lon="5.86783">
        <ele>232.4</ele>
        <time>2012-08-29T04:35:12Z</time>
      </trkpt>
      <trkpt lat="45.27078" lon="5.86773">
        <ele>233.6</ele>
        <time>2012-08-29T04:35:18Z</time>
      </trkpt>
      <trkpt lat="45.27068" lon="5.86764">
        <ele>234</ele>
        <time>2012-08-29T04:35:23Z</time>
      </trkpt>
      <trkpt lat="45.27054" lon="5.86748">
        <ele>234.4</ele>
        <time>2012-08-29T04:35:31Z</time>
      </trkpt>
      <trkpt lat="45.27048" lon="5.8674">
        <ele>234.6</ele>
        <time>2012-08-29T04:35:35Z</time>
      </trkpt>
      <trkpt lat="45.27044" lon="5.86737">
        <ele>234.6</ele>
        <time>2012-08-29T04:35:42Z</time>
      </trkpt>
      <trkpt lat="45.27046" lon="5.86724">
        <ele>234.8</ele>
        <time>2012-08-29T04:35:47Z</time>
      </trkpt>
      <trkpt lat="45.27048" lon="5.86716">
        <ele>235.4</ele>
        <time>2012-08-29T04:35:51Z</time>
      </trkpt>
      <trkpt lat="45.2705" lon="5.8671">
        <ele>235.8</ele>
        <time>2012-08-29T04:35:54Z</time>
      </trkpt>
      <trkpt lat="45.27055" lon="5.867">
        <ele>236.2</ele>
        <time>2012-08-29T04:35:58Z</time>
      </trkpt>
      <trkpt lat="45.27063" lon="5.86682">
        <ele>236.4</ele>
        <time>2012-08-29T04:36:04Z</time>
      </trkpt>
      <trkpt lat="45.27074" lon="5.86668">
        <ele>236.6</ele>
        <time>2012-08-29T04:36:09Z</time>
      </trkpt>
      <trkpt lat="45.27087" lon="5.86656">
        <ele>237.4</ele>
        <time>2012-08-29T04:36:16Z</time>
      </trkpt>
      <trkpt lat="45.27089" lon="5.86654">
        <ele>237.6</ele>
        <time>2012-08-29T04:36:17Z</time>
      </trkpt>
      <trkpt lat="45.2709" lon="5.86652">
        <ele>237.8</ele>
        <time>2012-08-29T04:36:18Z</time>
      </trkpt>
      <trkpt lat="45.27093" lon="5.86631">
        <ele>238.4</ele>
        <time>2012-08-29T04:36:25Z</time>
      </trkpt>
      <trkpt lat="45.27094" lon="5.86628">
        <ele>238.4</ele>
        <time>2012-08-29T04:36:26Z</time>
      </trkpt>
      <trkpt lat="45.27096" lon="5.86613">
        <ele>239.4</ele>
        <time>2012-08-29T04:36:31Z</time>
      </trkpt>
      <trkpt lat="45.27098" lon="5.86596">
        <ele>240.2</ele>
        <time>2012-08-29T04:36:37Z</time>
      </trkpt>
      <trkpt lat="45.27103" lon="5.86583">
        <ele>240.8</ele>
        <time>2012-08-29T04:36:42Z</time>
      </trkpt>
      <trkpt lat="45.27113" lon="5.86569">
        <ele>241.8</ele>
        <time>2012-08-29T04:36:48Z</time>
      </trkpt>
      <trkpt lat="45.27122" lon="5.86555">
        <ele>242.4</ele>
        <time>2012-08-29T04:36:54Z</time>
      </trkpt>
      <trkpt lat="45.27129" lon="5.86548">
        <ele>242.8</ele>
        <time>2012-08-29T04:36:58Z</time>
      </trkpt>
      <trkpt lat="45.27141" lon="5.86534">
        <ele>244</ele>
        <time>2012-08-29T04:37:05Z</time>
      </trkpt>
      <trkpt lat="45.27146" lon="5.86521">
        <ele>244.6</ele>
        <time>2012-08-29T04:37:10Z</time>
      </trkpt>
      <trkpt lat="45.27144" lon="5.86509">
        <ele>244.8</ele>
        <time>2012-08-29T04:37:14Z</time>
      </trkpt>
      <trkpt lat="45.27138" lon="5.8649">
        <ele>245</ele>
        <time>2012-08-29T04:37:21Z</time>
      </trkpt>
      <trkpt lat="45.27131" lon="5.86473">
        <ele>245.4</ele>
        <time>2012-08-29T04:37:28Z</time>
      </trkpt>
      <trkpt lat="45.27126" lon="5.86457">
        <ele>246.4</ele>
        <time>2012-08-29T04:37:35Z</time>
      </trkpt>
      <trkpt lat="45.27119" lon="5.86444">
        <ele>247.6</ele>
        <time>2012-08-29T04:37:41Z</time>
      </trkpt>
      <trkpt lat="45.27112" lon="5.86427">
        <ele>249</ele>
        <time>2012-08-29T04:37:48Z</time>
      </trkpt>
      <trkpt lat="45.2711" lon="5.86422">
        <ele>249.4</ele>
        <time>2012-08-29T04:37:50Z</time>
      </trkpt>
      <trkpt lat="45.27101" lon="5.86399">
        <ele>251.6</ele>
        <time>2012-08-29T04:37:59Z</time>
      </trkpt>
      <trkpt lat="45.271" lon="5.86397">
        <ele>251.8</ele>
        <time>2012-08-29T04:38:00Z</time>
      </trkpt>
      <trkpt lat="45.2709" lon="5.86396">
        <ele>253</ele>
        <time>2012-08-29T04:38:04Z</time>
      </trkpt>
      <trkpt lat="45.27079" lon="5.86399">
        <ele>254.4</ele>
        <time>2012-08-29T04:38:09Z</time>
      </trkpt>
      <trkpt lat="45.27076" lon="5.86399">
        <ele>254.8</ele>
        <time>2012-08-29T04:38:10Z</time>
      </trkpt>
      <trkpt lat="45.27066" lon="5.86395">
        <ele>256</ele>
        <time>2012-08-29T04:38:15Z</time>
      </trkpt>
      <trkpt lat="45.27057" lon="5.86383">
        <ele>257.8</ele>
        <time>2012-08-29T04:38:21Z</time>
      </trkpt>
      <trkpt lat="45.27056" lon="5.8638">
        <ele>258</ele>
        <time>2012-08-29T04:38:22Z</time>
      </trkpt>
      <trkpt lat="45.2705" lon="5.86373">
        <ele>259.4</ele>
        <time>2012-08-29T04:38:26Z</time>
      </trkpt>
      <trkpt lat="45.2704" lon="5.86359">
        <ele>261.6</ele>
        <time>2012-08-29T04:38:33Z</time>
      </trkpt>
      <trkpt lat="45.27031" lon="5.86345">
        <ele>263.2</ele>
        <time>2012-08-29T04:38:39Z</time>
      </trkpt>
      <trkpt lat="45.27025" lon="5.86336">
        <ele>264.4</ele>
        <time>2012-08-29T04:38:44Z</time>
      </trkpt>
      <trkpt lat="45.27028" lon="5.86323">
        <ele>265.8</ele>
        <time>2012-08-29T04:38:49Z</time>
      </trkpt>
      <trkpt lat="45.27034" lon="5.86309">
        <ele>267.2</ele>
        <time>2012-08-29T04:38:55Z</time>
      </trkpt>
      <trkpt lat="45.27039" lon="5.86289">
        <ele>268.8</ele>
        <time>2012-08-29T04:39:02Z</time>
      </trkpt>
      <trkpt lat="45.2704" lon="5.86267">
        <ele>270.8</ele>
        <time>2012-08-29T04:39:10Z</time>
      </trkpt>
      <trkpt lat="45.27039" lon="5.86251">
        <ele>271.4</ele>
        <time>2012-08-29T04:39:15Z</time>
      </trkpt>
      <trkpt lat="45.27038" lon="5.86234">
        <ele>272.8</ele>
        <time>2012-08-29T04:39:21Z</time>
      </trkpt>
      <trkpt lat="45.27038" lon="5.86222">
        <ele>273.6</ele>
        <time>2012-08-29T04:39:26Z</time>
      </trkpt>
      <trkpt lat="45.27035" lon="5.8622">
        <ele>275</ele>
        <time>2012-08-29T04:39:32Z</time>
      </trkpt>
      <trkpt lat="45.27031" lon="5.86216">
        <ele>280.2</ele>
        <time>2012-08-29T04:39:48Z</time>
      </trkpt>
      <trkpt lat="45.2703" lon="5.86216">
        <ele>280.4</ele>
        <time>2012-08-29T04:39:49Z</time>
      </trkpt>
      <trkpt lat="45.27024" lon="5.86214">
        <ele>282.6</ele>
        <time>2012-08-29T04:39:55Z</time>
      </trkpt>
      <trkpt lat="45.27014" lon="5.86212">
        <ele>284.2</ele>
        <time>2012-08-29T04:39:59Z</time>
      </trkpt>
      <trkpt lat="45.27012" lon="5.86212">
        <ele>284.6</ele>
        <time>2012-08-29T04:40:00Z</time>
      </trkpt>
      <trkpt lat="45.26996" lon="5.86207">
        <ele>287</ele>
        <time>2012-08-29T04:40:07Z</time>
      </trkpt>
      <trkpt lat="45.26993" lon="5.86204">
        <ele>288</ele>
        <time>2012-08-29T04:40:10Z</time>
      </trkpt>
      <trkpt lat="45.26991" lon="5.86192">
        <ele>290</ele>
        <time>2012-08-29T04:40:18Z</time>
      </trkpt>
      <trkpt lat="45.26986" lon="5.86179">
        <ele>291.4</ele>
        <time>2012-08-29T04:40:24Z</time>
      </trkpt>
      <trkpt lat="45.26979" lon="5.86166">
        <ele>292.8</ele>
        <time>2012-08-29T04:40:30Z</time>
      </trkpt>
      <trkpt lat="45.26972" lon="5.86152">
        <ele>294.4</ele>
        <time>2012-08-29T04:40:36Z</time>
      </trkpt>
      <trkpt lat="45.26965" lon="5.86138">
        <ele>296.6</ele>
        <time>2012-08-29T04:40:42Z</time>
      </trkpt>
      <trkpt lat="45.26962" lon="5.86128">
        <ele>298.4</ele>
        <time>2012-08-29T04:40:46Z</time>
      </trkpt>
      <trkpt lat="45.26958" lon="5.86113">
        <ele>301.4</ele>
        <time>2012-08-29T04:40:52Z</time>
      </trkpt>
      <trkpt lat="45.26959" lon="5.86095">
        <ele>304.8</ele>
        <time>2012-08-29T04:40:59Z</time>
      </trkpt>
      <trkpt lat="45.26963" lon="5.86081">
        <ele>307.4</ele>
        <time>2012-08-29T04:41:05Z</time>
      </trkpt>
      <trkpt lat="45.26971" lon="5.86062">
        <ele>310.8</ele>
        <time>2012-08-29T04:41:13Z</time>
      </trkpt>
      <trkpt lat="45.26977" lon="5.86049">
        <ele>313.2</ele>
        <time>2012-08-29T04:41:19Z</time>
      </trkpt>
      <trkpt lat="45.26987" lon="5.86031">
        <ele>316</ele>
        <time>2012-08-29T04:41:27Z</time>
      </trkpt>
      <trkpt lat="45.26996" lon="5.86011">
        <ele>318.6</ele>
        <time>2012-08-29T04:41:35Z</time>
      </trkpt>
      <trkpt lat="45.27005" lon="5.85998">
        <ele>320.6</ele>
        <time>2012-08-29T04:41:41Z</time>
      </trkpt>
      <trkpt lat="45.27013" lon="5.85985">
        <ele>322.4</ele>
        <time>2012-08-29T04:41:47Z</time>
      </trkpt>
      <trkpt lat="45.27024" lon="5.85969">
        <ele>324.6</ele>
        <time>2012-08-29T04:41:54Z</time>
      </trkpt>
      <trkpt lat="45.27034" lon="5.85957">
        <ele>326.4</ele>
        <time>2012-08-29T04:42:00Z</time>
      </trkpt>
      <trkpt lat="45.27046" lon="5.85942">
        <ele>328.4</ele>
        <time>2012-08-29T04:42:07Z</time>
      </trkpt>
      <trkpt lat="45.27048" lon="5.85925">
        <ele>330</ele>
        <time>2012-08-29T04:42:12Z</time>
      </trkpt>
      <trkpt lat="45.27046" lon="5.85911">
        <ele>331.2</ele>
        <time>2012-08-29T04:42:17Z</time>
      </trkpt>
      <trkpt lat="45.27043" lon="5.85895">
        <ele>332.6</ele>
        <time>2012-08-29T04:42:23Z</time>
      </trkpt>
      <trkpt lat="45.2704" lon="5.85879">
        <ele>333.8</ele>
        <time>2012-08-29T04:42:29Z</time>
      </trkpt>
      <trkpt lat="45.2704" lon="5.85864">
        <ele>335.4</ele>
        <time>2012-08-29T04:42:36Z</time>
      </trkpt>
      <trkpt lat="45.27043" lon="5.85849">
        <ele>337</ele>
        <time>2012-08-29T04:42:43Z</time>
      </trkpt>
      <trkpt lat="45.27046" lon="5.85833">
        <ele>338.4</ele>
        <time>2012-08-29T04:42:49Z</time>
      </trkpt>
      <trkpt lat="45.27048" lon="5.8582">
        <ele>339.6</ele>
        <time>2012-08-29T04:42:54Z</time>
      </trkpt>
      <trkpt lat="45.27049" lon="5.85805">
        <ele>341.2</ele>
        <time>2012-08-29T04:43:00Z</time>
      </trkpt>
      <trkpt lat="45.27054" lon="5.85788">
        <ele>342.2</ele>
        <time>2012-08-29T04:43:06Z</time>
      </trkpt>
      <trkpt lat="45.27062" lon="5.85776">
        <ele>343.6</ele>
        <time>2012-08-29T04:43:11Z</time>
      </trkpt>
      <trkpt lat="45.27073" lon="5.85765">
        <ele>345</ele>
        <time>2012-08-29T04:43:17Z</time>
      </trkpt>
      <trkpt lat="45.27088" lon="5.85753">
        <ele>346.8</ele>
        <time>2012-08-29T04:43:24Z</time>
      </trkpt>
      <trkpt lat="45.27102" lon="5.85743">
        <ele>348.2</ele>
        <time>2012-08-29T04:43:30Z</time>
      </trkpt>
      <trkpt lat="45.27118" lon="5.85731">
        <ele>350.2</ele>
        <time>2012-08-29T04:43:38Z</time>
      </trkpt>
      <trkpt lat="45.27134" lon="5.8572">
        <ele>352.2</ele>
        <time>2012-08-29T04:43:46Z</time>
      </trkpt>
      <trkpt lat="45.27148" lon="5.85707">
        <ele>353.8</ele>
        <time>2012-08-29T04:43:53Z</time>
      </trkpt>
      <trkpt lat="45.27161" lon="5.85692">
        <ele>354.8</ele>
        <time>2012-08-29T04:44:00Z</time>
      </trkpt>
      <trkpt lat="45.27161" lon="5.85689">
        <ele>355.2</ele>
        <time>2012-08-29T04:44:01Z</time>
      </trkpt>
      <trkpt lat="45.2716" lon="5.85671">
        <ele>356.4</ele>
        <time>2012-08-29T04:44:07Z</time>
      </trkpt>
      <trkpt lat="45.2716" lon="5.85668">
        <ele>356.6</ele>
        <time>2012-08-29T04:44:08Z</time>
      </trkpt>
      <trkpt lat="45.27155" lon="5.8565">
        <ele>357.2</ele>
        <time>2012-08-29T04:44:15Z</time>
      </trkpt>
      <trkpt lat="45.27148" lon="5.85628">
        <ele>358.8</ele>
        <time>2012-08-29T04:44:23Z</time>
      </trkpt>
      <trkpt lat="45.27143" lon="5.85611">
        <ele>359.4</ele>
        <time>2012-08-29T04:44:29Z</time>
      </trkpt>
      <trkpt lat="45.27139" lon="5.85596">
        <ele>359.6</ele>
        <time>2012-08-29T04:44:34Z</time>
      </trkpt>
      <trkpt lat="45.27136" lon="5.85577">
        <ele>359.8</ele>
        <time>2012-08-29T04:44:41Z</time>
      </trkpt>
      <trkpt lat="45.27132" lon="5.85557">
        <ele>360.8</ele>
        <time>2012-08-29T04:44:48Z</time>
      </trkpt>
      <trkpt lat="45.27129" lon="5.85541">
        <ele>361.4</ele>
        <time>2012-08-29T04:44:54Z</time>
      </trkpt>
      <trkpt lat="45.27128" lon="5.85527">
        <ele>362.4</ele>
        <time>2012-08-29T04:44:59Z</time>
      </trkpt>
      <trkpt lat="45.27126" lon="5.85509">
        <ele>363.2</ele>
        <time>2012-08-29T04:45:05Z</time>
      </trkpt>
      <trkpt lat="45.27127" lon="5.85494">
        <ele>364.6</ele>
        <time>2012-08-29T04:45:10Z</time>
      </trkpt>
      <trkpt lat="45.27128" lon="5.85475">
        <ele>366</ele>
        <time>2012-08-29T04:45:17Z</time>
      </trkpt>
      <trkpt lat="45.27128" lon="5.8546">
        <ele>367.2</ele>
        <time>2012-08-29T04:45:23Z</time>
      </trkpt>
      <trkpt lat="45.27127" lon="5.85445">
        <ele>367.8</ele>
        <time>2012-08-29T04:45:29Z</time>
      </trkpt>
      <trkpt lat="45.27126" lon="5.85429">
        <ele>369</ele>
        <time>2012-08-29T04:45:35Z</time>
      </trkpt>
      <trkpt lat="45.27125" lon="5.85411">
        <ele>369.8</ele>
        <time>2012-08-29T04:45:42Z</time>
      </trkpt>
      <trkpt lat="45.27123" lon="5.85396">
        <ele>371</ele>
        <time>2012-08-29T04:45:48Z</time>
      </trkpt>
      <trkpt lat="45.27122" lon="5.85391">
        <ele>371.4</ele>
        <time>2012-08-29T04:45:50Z</time>
      </trkpt>
      <trkpt lat="45.27119" lon="5.85375">
        <ele>372.8</ele>
        <time>2012-08-29T04:45:56Z</time>
      </trkpt>
      <trkpt lat="45.27117" lon="5.85362">
        <ele>374</ele>
        <time>2012-08-29T04:46:01Z</time>
      </trkpt>
      <trkpt lat="45.27116" lon="5.85347">
        <ele>375.4</ele>
        <time>2012-08-29T04:46:07Z</time>
      </trkpt>
      <trkpt lat="45.27115" lon="5.85332">
        <ele>377.2</ele>
        <time>2012-08-29T04:46:13Z</time>
      </trkpt>
      <trkpt lat="45.27117" lon="5.85316">
        <ele>379.2</ele>
        <time>2012-08-29T04:46:20Z</time>
      </trkpt>
      <trkpt lat="45.2712" lon="5.853">
        <ele>381</ele>
        <time>2012-08-29T04:46:27Z</time>
      </trkpt>
      <trkpt lat="45.27123" lon="5.85278">
        <ele>383.2</ele>
        <time>2012-08-29T04:46:35Z</time>
      </trkpt>
      <trkpt lat="45.27123" lon="5.85262">
        <ele>384.8</ele>
        <time>2012-08-29T04:46:41Z</time>
      </trkpt>
      <trkpt lat="45.27123" lon="5.85246">
        <ele>386.8</ele>
        <time>2012-08-29T04:46:48Z</time>
      </trkpt>
      <trkpt lat="45.27124" lon="5.85233">
        <ele>388.4</ele>
        <time>2012-08-29T04:46:54Z</time>
      </trkpt>
      <trkpt lat="45.27125" lon="5.8522">
        <ele>390.2</ele>
        <time>2012-08-29T04:47:00Z</time>
      </trkpt>
      <trkpt lat="45.27125" lon="5.85218">
        <ele>390.4</ele>
        <time>2012-08-29T04:47:01Z</time>
      </trkpt>
      <trkpt lat="45.27127" lon="5.85206">
        <ele>392</ele>
        <time>2012-08-29T04:47:06Z</time>
      </trkpt>
      <trkpt lat="45.27128" lon="5.85196">
        <ele>393.2</ele>
        <time>2012-08-29T04:47:10Z</time>
      </trkpt>
      <trkpt lat="45.27129" lon="5.85179">
        <ele>395.4</ele>
        <time>2012-08-29T04:47:17Z</time>
      </trkpt>
      <trkpt lat="45.27128" lon="5.85158">
        <ele>397.6</ele>
        <time>2012-08-29T04:47:25Z</time>
      </trkpt>
      <trkpt lat="45.27128" lon="5.85138">
        <ele>399.4</ele>
        <time>2012-08-29T04:47:33Z</time>
      </trkpt>
      <trkpt lat="45.27129" lon="5.85122">
        <ele>401</ele>
        <time>2012-08-29T04:47:39Z</time>
      </trkpt>
      <trkpt lat="45.2713" lon="5.85108">
        <ele>402.2</ele>
        <time>2012-08-29T04:47:45Z</time>
      </trkpt>
      <trkpt lat="45.27131" lon="5.85094">
        <ele>403.4</ele>
        <time>2012-08-29T04:47:51Z</time>
      </trkpt>
      <trkpt lat="45.27131" lon="5.85079">
        <ele>404.8</ele>
        <time>2012-08-29T04:47:57Z</time>
      </trkpt>
      <trkpt lat="45.2713" lon="5.85064">
        <ele>405.8</ele>
        <time>2012-08-29T04:48:03Z</time>
      </trkpt>
      <trkpt lat="45.27128" lon="5.85057">
        <ele>406.6</ele>
        <time>2012-08-29T04:48:06Z</time>
      </trkpt>
      <trkpt lat="45.27127" lon="5.85038">
        <ele>408.4</ele>
        <time>2012-08-29T04:48:14Z</time>
      </trkpt>
      <trkpt lat="45.27127" lon="5.8502">
        <ele>410</ele>
        <time>2012-08-29T04:48:22Z</time>
      </trkpt>
      <trkpt lat="45.27129" lon="5.85004">
        <ele>411.8</ele>
        <time>2012-08-29T04:48:29Z</time>
      </trkpt>
      <trkpt lat="45.2713" lon="5.8499">
        <ele>413.2</ele>
        <time>2012-08-29T04:48:34Z</time>
      </trkpt>
      <trkpt lat="45.27133" lon="5.84972">
        <ele>415.2</ele>
        <time>2012-08-29T04:48:41Z</time>
      </trkpt>
      <trkpt lat="45.27134" lon="5.84954">
        <ele>417.2</ele>
        <time>2012-08-29T04:48:48Z</time>
      </trkpt>
      <trkpt lat="45.27136" lon="5.84938">
        <ele>419</ele>
        <time>2012-08-29T04:48:54Z</time>
      </trkpt>
      <trkpt lat="45.27137" lon="5.84921">
        <ele>420.6</ele>
        <time>2012-08-29T04:49:00Z</time>
      </trkpt>
      <trkpt lat="45.27138" lon="5.84906">
        <ele>422.2</ele>
        <time>2012-08-29T04:49:06Z</time>
      </trkpt>
      <trkpt lat="45.27139" lon="5.84893">
        <ele>423.4</ele>
        <time>2012-08-29T04:49:11Z</time>
      </trkpt>
      <trkpt lat="45.27139" lon="5.84878">
        <ele>424.8</ele>
        <time>2012-08-29T04:49:17Z</time>
      </trkpt>
      <trkpt lat="45.27139" lon="5.84863">
        <ele>425.6</ele>
        <time>2012-08-29T04:49:23Z</time>
      </trkpt>
      <trkpt lat="45.2714" lon="5.84843">
        <ele>427.2</ele>
        <time>2012-08-29T04:49:31Z</time>
      </trkpt>
      <trkpt lat="45.27142" lon="5.84829">
        <ele>428.4</ele>
        <time>2012-08-29T04:49:36Z</time>
      </trkpt>
      <trkpt lat="45.27146" lon="5.84815">
        <ele>429.4</ele>
        <time>2012-08-29T04:49:42Z</time>
      </trkpt>
      <trkpt lat="45.27146" lon="5.84812">
        <ele>429.8</ele>
        <time>2012-08-29T04:49:43Z</time>
      </trkpt>
      <trkpt lat="45.27149" lon="5.84799">
        <ele>431</ele>
        <time>2012-08-29T04:49:49Z</time>
      </trkpt>
      <trkpt lat="45.27151" lon="5.84785">
        <ele>431.8</ele>
        <time>2012-08-29T04:49:55Z</time>
      </trkpt>
      <trkpt lat="45.27152" lon="5.84783">
        <ele>432.2</ele>
        <time>2012-08-29T04:49:56Z</time>
      </trkpt>
      <trkpt lat="45.27154" lon="5.84764">
        <ele>433.4</ele>
        <time>2012-08-29T04:50:03Z</time>
      </trkpt>
      <trkpt lat="45.27155" lon="5.84749">
        <ele>434.8</ele>
        <time>2012-08-29T04:50:09Z</time>
      </trkpt>
      <trkpt lat="45.27157" lon="5.84735">
        <ele>436.2</ele>
        <time>2012-08-29T04:50:15Z</time>
      </trkpt>
      <trkpt lat="45.27158" lon="5.84728">
        <ele>436.8</ele>
        <time>2012-08-29T04:50:18Z</time>
      </trkpt>
      <trkpt lat="45.27156" lon="5.84717">
        <ele>438.2</ele>
        <time>2012-08-29T04:50:24Z</time>
      </trkpt>
      <trkpt lat="45.27156" lon="5.84716">
        <ele>438.4</ele>
        <time>2012-08-29T04:50:25Z</time>
      </trkpt>
      <trkpt lat="45.27156" lon="5.84709">
        <ele>439.8</ele>
        <time>2012-08-29T04:50:31Z</time>
      </trkpt>
      <trkpt lat="45.27158" lon="5.84705">
        <ele>440.8</ele>
        <time>2012-08-29T04:50:35Z</time>
      </trkpt>
      <trkpt lat="45.27157" lon="5.84699">
        <ele>441.8</ele>
        <time>2012-08-29T04:50:40Z</time>
      </trkpt>
      <trkpt lat="45.27157" lon="5.84698">
        <ele>442.4</ele>
        <time>2012-08-29T04:50:42Z</time>
      </trkpt>
      <trkpt lat="45.27157" lon="5.84694">
        <ele>443.8</ele>
        <time>2012-08-29T04:50:49Z</time>
      </trkpt>
      <trkpt lat="45.27154" lon="5.84689">
        <ele>452.2</ele>
        <time>2012-08-29T04:51:34Z</time>
      </trkpt>
      <trkpt lat="45.27149" lon="5.84681">
        <ele>456</ele>
        <time>2012-08-29T04:51:54Z</time>
      </trkpt>
      <trkpt lat="45.27148" lon="5.84676">
        <ele>457</ele>
        <time>2012-08-29T04:51:58Z</time>
      </trkpt>
      <trkpt lat="45.27148" lon="5.84666">
        <ele>458.6</ele>
        <time>2012-08-29T04:52:05Z</time>
      </trkpt>
      <trkpt lat="45.27147" lon="5.84657">
        <ele>460.2</ele>
        <time>2012-08-29T04:52:11Z</time>
      </trkpt>
      <trkpt lat="45.27145" lon="5.84651">
        <ele>460.8</ele>
        <time>2012-08-29T04:52:14Z</time>
      </trkpt>
      <trkpt lat="45.27142" lon="5.84638">
        <ele>462.4</ele>
        <time>2012-08-29T04:52:20Z</time>
      </trkpt>
      <trkpt lat="45.27141" lon="5.84637">
        <ele>462.6</ele>
        <time>2012-08-29T04:52:21Z</time>
      </trkpt>
      <trkpt lat="45.27139" lon="5.84624">
        <ele>463.4</ele>
        <time>2012-08-29T04:52:27Z</time>
      </trkpt>
      <trkpt lat="45.27138" lon="5.84622">
        <ele>463.6</ele>
        <time>2012-08-29T04:52:28Z</time>
      </trkpt>
      <trkpt lat="45.27132" lon="5.84606">
        <ele>464.6</ele>
        <time>2012-08-29T04:52:35Z</time>
      </trkpt>
      <trkpt lat="45.27129" lon="5.84598">
        <ele>465.4</ele>
        <time>2012-08-29T04:52:39Z</time>
      </trkpt>
      <trkpt lat="45.27125" lon="5.84591">
        <ele>466.2</ele>
        <time>2012-08-29T04:52:43Z</time>
      </trkpt>
      <trkpt lat="45.27122" lon="5.84574">
        <ele>467.4</ele>
        <time>2012-08-29T04:52:50Z</time>
      </trkpt>
      <trkpt lat="45.27122" lon="5.84572">
        <ele>467.6</ele>
        <time>2012-08-29T04:52:51Z</time>
      </trkpt>
      <trkpt lat="45.27122" lon="5.84565">
        <ele>467.8</ele>
        <time>2012-08-29T04:52:55Z</time>
      </trkpt>
      <trkpt lat="45.27122" lon="5.84552">
        <ele>468.6</ele>
        <time>2012-08-29T04:53:00Z</time>
      </trkpt>
      <trkpt lat="45.27122" lon="5.84549">
        <ele>468.8</ele>
        <time>2012-08-29T04:53:01Z</time>
      </trkpt>
      <trkpt lat="45.27123" lon="5.84537">
        <ele>469.6</ele>
        <time>2012-08-29T04:53:06Z</time>
      </trkpt>
      <trkpt lat="45.27123" lon="5.84533">
        <ele>469.8</ele>
        <time>2012-08-29T04:53:08Z</time>
      </trkpt>
      <trkpt lat="45.27123" lon="5.84518">
        <ele>470.8</ele>
        <time>2012-08-29T04:53:14Z</time>
      </trkpt>
      <trkpt lat="45.27122" lon="5.84515">
        <ele>471.2</ele>
        <time>2012-08-29T04:53:16Z</time>
      </trkpt>
      <trkpt lat="45.27114" lon="5.84502">
        <ele>472</ele>
        <time>2012-08-29T04:53:23Z</time>
      </trkpt>
      <trkpt lat="45.27109" lon="5.84491">
        <ele>472.4</ele>
        <time>2012-08-29T04:53:28Z</time>
      </trkpt>
      <trkpt lat="45.27107" lon="5.84487">
        <ele>472.6</ele>
        <time>2012-08-29T04:53:30Z</time>
      </trkpt>
      <trkpt lat="45.27104" lon="5.84481">
        <ele>473.2</ele>
        <time>2012-08-29T04:53:33Z</time>
      </trkpt>
      <trkpt lat="45.27098" lon="5.84467">
        <ele>474</ele>
        <time>2012-08-29T04:53:40Z</time>
      </trkpt>
      <trkpt lat="45.27095" lon="5.84461">
        <ele>474.2</ele>
        <time>2012-08-29T04:53:43Z</time>
      </trkpt>
      <trkpt lat="45.27094" lon="5.84452">
        <ele>475.2</ele>
        <time>2012-08-29T04:53:47Z</time>
      </trkpt>
      <trkpt lat="45.27089" lon="5.84437">
        <ele>476</ele>
        <time>2012-08-29T04:53:53Z</time>
      </trkpt>
      <trkpt lat="45.27084" lon="5.84424">
        <ele>477.4</ele>
        <time>2012-08-29T04:53:59Z</time>
      </trkpt>
      <trkpt lat="45.27077" lon="5.84409">
        <ele>479</ele>
        <time>2012-08-29T04:54:06Z</time>
      </trkpt>
      <trkpt lat="45.27071" lon="5.84397">
        <ele>480.6</ele>
        <time>2012-08-29T04:54:12Z</time>
      </trkpt>
      <trkpt lat="45.27069" lon="5.84387">
        <ele>481.4</ele>
        <time>2012-08-29T04:54:16Z</time>
      </trkpt>
      <trkpt lat="45.27068" lon="5.84371">
        <ele>483.2</ele>
        <time>2012-08-29T04:54:23Z</time>
      </trkpt>
      <trkpt lat="45.27066" lon="5.84352">
        <ele>484.6</ele>
        <time>2012-08-29T04:54:30Z</time>
      </trkpt>
      <trkpt lat="45.27063" lon="5.84338">
        <ele>485.8</ele>
        <time>2012-08-29T04:54:36Z</time>
      </trkpt>
      <trkpt lat="45.27065" lon="5.84325">
        <ele>486.8</ele>
        <time>2012-08-29T04:54:41Z</time>
      </trkpt>
      <trkpt lat="45.2707" lon="5.84316">
        <ele>488</ele>
        <time>2012-08-29T04:54:46Z</time>
      </trkpt>
      <trkpt lat="45.27076" lon="5.84305">
        <ele>489.2</ele>
        <time>2012-08-29T04:54:52Z</time>
      </trkpt>
      <trkpt lat="45.27081" lon="5.84293">
        <ele>490.2</ele>
        <time>2012-08-29T04:54:57Z</time>
      </trkpt>
      <trkpt lat="45.27083" lon="5.84275">
        <ele>491.4</ele>
        <time>2012-08-29T04:55:04Z</time>
      </trkpt>
      <trkpt lat="45.27084" lon="5.84259">
        <ele>492.4</ele>
        <time>2012-08-29T04:55:10Z</time>
      </trkpt>
      <trkpt lat="45.27085" lon="5.84251">
        <ele>492.6</ele>
        <time>2012-08-29T04:55:13Z</time>
      </trkpt>
      <trkpt lat="45.27085" lon="5.84231">
        <ele>494.2</ele>
        <time>2012-08-29T04:55:21Z</time>
      </trkpt>
      <trkpt lat="45.27086" lon="5.84213">
        <ele>494.8</ele>
        <time>2012-08-29T04:55:28Z</time>
      </trkpt>
      <trkpt lat="45.27086" lon="5.84201">
        <ele>495.6</ele>
        <time>2012-08-29T04:55:33Z</time>
      </trkpt>
      <trkpt lat="45.27086" lon="5.84186">
        <ele>496.6</ele>
        <time>2012-08-29T04:55:39Z</time>
      </trkpt>
      <trkpt lat="45.27086" lon="5.84184">
        <ele>496.6</ele>
        <time>2012-08-29T04:55:40Z</time>
      </trkpt>
      <trkpt lat="45.27085" lon="5.84171">
        <ele>497.4</ele>
        <time>2012-08-29T04:55:45Z</time>
      </trkpt>
      <trkpt lat="45.27081" lon="5.84157">
        <ele>498.8</ele>
        <time>2012-08-29T04:55:51Z</time>
      </trkpt>
      <trkpt lat="45.27078" lon="5.84144">
        <ele>500.2</ele>
        <time>2012-08-29T04:55:57Z</time>
      </trkpt>
      <trkpt lat="45.27075" lon="5.84132">
        <ele>502</ele>
        <time>2012-08-29T04:56:03Z</time>
      </trkpt>
      <trkpt lat="45.27073" lon="5.84117">
        <ele>503.6</ele>
        <time>2012-08-29T04:56:09Z</time>
      </trkpt>
      <trkpt lat="45.27072" lon="5.84102">
        <ele>504.6</ele>
        <time>2012-08-29T04:56:14Z</time>
      </trkpt>
      <trkpt lat="45.27071" lon="5.84088">
        <ele>505.4</ele>
        <time>2012-08-29T04:56:19Z</time>
      </trkpt>
      <trkpt lat="45.27067" lon="5.84072">
        <ele>506.6</ele>
        <time>2012-08-29T04:56:25Z</time>
      </trkpt>
      <trkpt lat="45.27066" lon="5.8407">
        <ele>506.8</ele>
        <time>2012-08-29T04:56:26Z</time>
      </trkpt>
      <trkpt lat="45.27063" lon="5.84064">
        <ele>507.8</ele>
        <time>2012-08-29T04:56:29Z</time>
      </trkpt>
      <trkpt lat="45.27066" lon="5.84043">
        <ele>510</ele>
        <time>2012-08-29T04:56:37Z</time>
      </trkpt>
      <trkpt lat="45.27067" lon="5.84035">
        <ele>510.8</ele>
        <time>2012-08-29T04:56:40Z</time>
      </trkpt>
      <trkpt lat="45.27067" lon="5.84018">
        <ele>512.8</ele>
        <time>2012-08-29T04:56:46Z</time>
      </trkpt>
      <trkpt lat="45.27068" lon="5.84003">
        <ele>514.6</ele>
        <time>2012-08-29T04:56:52Z</time>
      </trkpt>
      <trkpt lat="45.27069" lon="5.84">
        <ele>514.8</ele>
        <time>2012-08-29T04:56:53Z</time>
      </trkpt>
      <trkpt lat="45.2707" lon="5.83987">
        <ele>516</ele>
        <time>2012-08-29T04:56:58Z</time>
      </trkpt>
      <trkpt lat="45.27071" lon="5.83985">
        <ele>516.4</ele>
        <time>2012-08-29T04:56:59Z</time>
      </trkpt>
      <trkpt lat="45.27074" lon="5.8397">
        <ele>517.6</ele>
        <time>2012-08-29T04:57:05Z</time>
      </trkpt>
      <trkpt lat="45.27077" lon="5.83959">
        <ele>518.8</ele>
        <time>2012-08-29T04:57:10Z</time>
      </trkpt>
      <trkpt lat="45.27081" lon="5.83945">
        <ele>519.8</ele>
        <time>2012-08-29T04:57:16Z</time>
      </trkpt>
      <trkpt lat="45.27081" lon="5.83943">
        <ele>520.2</ele>
        <time>2012-08-29T04:57:17Z</time>
      </trkpt>
      <trkpt lat="45.27087" lon="5.83926">
        <ele>521.8</ele>
        <time>2012-08-29T04:57:24Z</time>
      </trkpt>
      <trkpt lat="45.27093" lon="5.83916">
        <ele>523.4</ele>
        <time>2012-08-29T04:57:30Z</time>
      </trkpt>
      <trkpt lat="45.27095" lon="5.83912">
        <ele>524.2</ele>
        <time>2012-08-29T04:57:34Z</time>
      </trkpt>
      <trkpt lat="45.27097" lon="5.83904">
        <ele>525.4</ele>
        <time>2012-08-29T04:57:38Z</time>
      </trkpt>
      <trkpt lat="45.27099" lon="5.83901">
        <ele>525.8</ele>
        <time>2012-08-29T04:57:40Z</time>
      </trkpt>
      <trkpt lat="45.27099" lon="5.83902">
        <ele>526.2</ele>
        <time>2012-08-29T04:57:42Z</time>
      </trkpt>
      <trkpt lat="45.27096" lon="5.83906">
        <ele>526.8</ele>
        <time>2012-08-29T04:57:48Z</time>
      </trkpt>
      <trkpt lat="45.27096" lon="5.8391">
        <ele>527.8</ele>
        <time>2012-08-29T04:57:54Z</time>
      </trkpt>
      <trkpt lat="45.27098" lon="5.83904">
        <ele>528.8</ele>
        <time>2012-08-29T04:58:01Z</time>
      </trkpt>
      <trkpt lat="45.27102" lon="5.83897">
        <ele>529.2</ele>
        <time>2012-08-29T04:58:07Z</time>
      </trkpt>
      <trkpt lat="45.27104" lon="5.83894">
        <ele>529.2</ele>
        <time>2012-08-29T04:58:09Z</time>
      </trkpt>
      <trkpt lat="45.27109" lon="5.83887">
        <ele>529.4</ele>
        <time>2012-08-29T04:58:13Z</time>
      </trkpt>
      <trkpt lat="45.27115" lon="5.83873">
        <ele>529.8</ele>
        <time>2012-08-29T04:58:20Z</time>
      </trkpt>
      <trkpt lat="45.27117" lon="5.83867">
        <ele>530.2</ele>
        <time>2012-08-29T04:58:23Z</time>
      </trkpt>
      <trkpt lat="45.27119" lon="5.83861">
        <ele>530.8</ele>
        <time>2012-08-29T04:58:27Z</time>
      </trkpt>
      <trkpt lat="45.27124" lon="5.83848">
        <ele>531.4</ele>
        <time>2012-08-29T04:58:34Z</time>
      </trkpt>
      <trkpt lat="45.27129" lon="5.83839">
        <ele>531.6</ele>
        <time>2012-08-29T04:58:39Z</time>
      </trkpt>
      <trkpt lat="45.27134" lon="5.8383">
        <ele>532.4</ele>
        <time>2012-08-29T04:58:44Z</time>
      </trkpt>
      <trkpt lat="45.27134" lon="5.83819">
        <ele>533</ele>
        <time>2012-08-29T04:58:49Z</time>
      </trkpt>
      <trkpt lat="45.27135" lon="5.83811">
        <ele>533.4</ele>
        <time>2012-08-29T04:58:52Z</time>
      </trkpt>
      <trkpt lat="45.27136" lon="5.83808">
        <ele>533.6</ele>
        <time>2012-08-29T04:58:53Z</time>
      </trkpt>
      <trkpt lat="45.27141" lon="5.83795">
        <ele>534.8</ele>
        <time>2012-08-29T04:59:00Z</time>
      </trkpt>
      <trkpt lat="45.27142" lon="5.83794">
        <ele>535.2</ele>
        <time>2012-08-29T04:59:01Z</time>
      </trkpt>
      <trkpt lat="45.27146" lon="5.83783">
        <ele>536.6</ele>
        <time>2012-08-29T04:59:07Z</time>
      </trkpt>
      <trkpt lat="45.2715" lon="5.83777">
        <ele>537.4</ele>
        <time>2012-08-29T04:59:11Z</time>
      </trkpt>
      <trkpt lat="45.27151" lon="5.83775">
        <ele>537.8</ele>
        <time>2012-08-29T04:59:12Z</time>
      </trkpt>
      <trkpt lat="45.27153" lon="5.8377">
        <ele>538.2</ele>
        <time>2012-08-29T04:59:14Z</time>
      </trkpt>
      <trkpt lat="45.27155" lon="5.83762">
        <ele>538.8</ele>
        <time>2012-08-29T04:59:18Z</time>
      </trkpt>
      <trkpt lat="45.27156" lon="5.83759">
        <ele>539.6</ele>
        <time>2012-08-29T04:59:20Z</time>
      </trkpt>
      <trkpt lat="45.27159" lon="5.83755">
        <ele>540</ele>
        <time>2012-08-29T04:59:22Z</time>
      </trkpt>
      <trkpt lat="45.27161" lon="5.83743">
        <ele>541.4</ele>
        <time>2012-08-29T04:59:28Z</time>
      </trkpt>
      <trkpt lat="45.27163" lon="5.83735">
        <ele>542.4</ele>
        <time>2012-08-29T04:59:32Z</time>
      </trkpt>
      <trkpt lat="45.27165" lon="5.83728">
        <ele>543.6</ele>
        <time>2012-08-29T04:59:35Z</time>
      </trkpt>
      <trkpt lat="45.27166" lon="5.83719">
        <ele>544.8</ele>
        <time>2012-08-29T04:59:39Z</time>
      </trkpt>
      <trkpt lat="45.27172" lon="5.837">
        <ele>547.8</ele>
        <time>2012-08-29T04:59:48Z</time>
      </trkpt>
      <trkpt lat="45.27176" lon="5.83689">
        <ele>549.4</ele>
        <time>2012-08-29T04:59:53Z</time>
      </trkpt>
      <trkpt lat="45.27182" lon="5.83676">
        <ele>551.2</ele>
        <time>2012-08-29T04:59:59Z</time>
      </trkpt>
      <trkpt lat="45.2719" lon="5.83661">
        <ele>553.4</ele>
        <time>2012-08-29T05:00:07Z</time>
      </trkpt>
      <trkpt lat="45.27199" lon="5.8365">
        <ele>555.4</ele>
        <time>2012-08-29T05:00:14Z</time>
      </trkpt>
      <trkpt lat="45.27206" lon="5.83642">
        <ele>556.8</ele>
        <time>2012-08-29T05:00:19Z</time>
      </trkpt>
      <trkpt lat="45.2721" lon="5.83634">
        <ele>557.8</ele>
        <time>2012-08-29T05:00:24Z</time>
      </trkpt>
      <trkpt lat="45.27213" lon="5.8363">
        <ele>558.8</ele>
        <time>2012-08-29T05:00:27Z</time>
      </trkpt>
      <trkpt lat="45.2722" lon="5.83619">
        <ele>560.6</ele>
        <time>2012-08-29T05:00:34Z</time>
      </trkpt>
      <trkpt lat="45.27221" lon="5.83617">
        <ele>560.8</ele>
        <time>2012-08-29T05:00:35Z</time>
      </trkpt>
      <trkpt lat="45.27225" lon="5.83607">
        <ele>562.2</ele>
        <time>2012-08-29T05:00:41Z</time>
      </trkpt>
      <trkpt lat="45.27228" lon="5.83602">
        <ele>563</ele>
        <time>2012-08-29T05:00:44Z</time>
      </trkpt>
      <trkpt lat="45.27231" lon="5.83592">
        <ele>564.4</ele>
        <time>2012-08-29T05:00:49Z</time>
      </trkpt>
      <trkpt lat="45.27232" lon="5.83589">
        <ele>565</ele>
        <time>2012-08-29T05:00:51Z</time>
      </trkpt>
      <trkpt lat="45.27233" lon="5.83585">
        <ele>565.6</ele>
        <time>2012-08-29T05:00:53Z</time>
      </trkpt>
      <trkpt lat="45.27239" lon="5.83574">
        <ele>567.2</ele>
        <time>2012-08-29T05:01:00Z</time>
      </trkpt>
      <trkpt lat="45.27243" lon="5.83563">
        <ele>568.6</ele>
        <time>2012-08-29T05:01:06Z</time>
      </trkpt>
      <trkpt lat="45.27246" lon="5.83556">
        <ele>569.4</ele>
        <time>2012-08-29T05:01:10Z</time>
      </trkpt>
      <trkpt lat="45.2725" lon="5.83546">
        <ele>570.4</ele>
        <time>2012-08-29T05:01:15Z</time>
      </trkpt>
      <trkpt lat="45.27254" lon="5.83539">
        <ele>571.6</ele>
        <time>2012-08-29T05:01:20Z</time>
      </trkpt>
      <trkpt lat="45.27258" lon="5.83533">
        <ele>572.2</ele>
        <time>2012-08-29T05:01:23Z</time>
      </trkpt>
      <trkpt lat="45.27265" lon="5.83522">
        <ele>573.4</ele>
        <time>2012-08-29T05:01:30Z</time>
      </trkpt>
      <trkpt lat="45.27268" lon="5.83517">
        <ele>574.2</ele>
        <time>2012-08-29T05:01:33Z</time>
      </trkpt>
      <trkpt lat="45.2727" lon="5.83503">
        <ele>575.2</ele>
        <time>2012-08-29T05:01:39Z</time>
      </trkpt>
      <trkpt lat="45.27271" lon="5.83499">
        <ele>575.6</ele>
        <time>2012-08-29T05:01:41Z</time>
      </trkpt>
      <trkpt lat="45.27277" lon="5.83486">
        <ele>576.8</ele>
        <time>2012-08-29T05:01:47Z</time>
      </trkpt>
      <trkpt lat="45.27283" lon="5.83478">
        <ele>578</ele>
        <time>2012-08-29T05:01:52Z</time>
      </trkpt>
      <trkpt lat="45.27292" lon="5.83473">
        <ele>579</ele>
        <time>2012-08-29T05:01:58Z</time>
      </trkpt>
      <trkpt lat="45.27297" lon="5.83465">
        <ele>580.2</ele>
        <time>2012-08-29T05:02:03Z</time>
      </trkpt>
      <trkpt lat="45.273" lon="5.83455">
        <ele>581.2</ele>
        <time>2012-08-29T05:02:08Z</time>
      </trkpt>
      <trkpt lat="45.27303" lon="5.83445">
        <ele>582.2</ele>
        <time>2012-08-29T05:02:13Z</time>
      </trkpt>
      <trkpt lat="45.27304" lon="5.83442">
        <ele>582.6</ele>
        <time>2012-08-29T05:02:15Z</time>
      </trkpt>
      <trkpt lat="45.27304" lon="5.83438">
        <ele>583</ele>
        <time>2012-08-29T05:02:17Z</time>
      </trkpt>
      <trkpt lat="45.27307" lon="5.83424">
        <ele>584.6</ele>
        <time>2012-08-29T05:02:23Z</time>
      </trkpt>
      <trkpt lat="45.27311" lon="5.83412">
        <ele>586</ele>
        <time>2012-08-29T05:02:29Z</time>
      </trkpt>
      <trkpt lat="45.27312" lon="5.8341">
        <ele>586.4</ele>
        <time>2012-08-29T05:02:30Z</time>
      </trkpt>
      <trkpt lat="45.27319" lon="5.83401">
        <ele>587.6</ele>
        <time>2012-08-29T05:02:36Z</time>
      </trkpt>
      <trkpt lat="45.27322" lon="5.83395">
        <ele>588.8</ele>
        <time>2012-08-29T05:02:40Z</time>
      </trkpt>
      <trkpt lat="45.27323" lon="5.83393">
        <ele>589</ele>
        <time>2012-08-29T05:02:41Z</time>
      </trkpt>
      <trkpt lat="45.27327" lon="5.83382">
        <ele>590.4</ele>
        <time>2012-08-29T05:02:47Z</time>
      </trkpt>
      <trkpt lat="45.27329" lon="5.83376">
        <ele>591.2</ele>
        <time>2012-08-29T05:02:50Z</time>
      </trkpt>
      <trkpt lat="45.27335" lon="5.83364">
        <ele>592.6</ele>
        <time>2012-08-29T05:02:57Z</time>
      </trkpt>
      <trkpt lat="45.27336" lon="5.83362">
        <ele>592.8</ele>
        <time>2012-08-29T05:02:58Z</time>
      </trkpt>
      <trkpt lat="45.27337" lon="5.8336">
        <ele>593</ele>
        <time>2012-08-29T05:02:59Z</time>
      </trkpt>
      <trkpt lat="45.27342" lon="5.83352">
        <ele>593.8</ele>
        <time>2012-08-29T05:03:04Z</time>
      </trkpt>
      <trkpt lat="45.27351" lon="5.83346">
        <ele>595.2</ele>
        <time>2012-08-29T05:03:11Z</time>
      </trkpt>
      <trkpt lat="45.27357" lon="5.83341">
        <ele>596</ele>
        <time>2012-08-29T05:03:16Z</time>
      </trkpt>
      <trkpt lat="45.27365" lon="5.83337">
        <ele>596.8</ele>
        <time>2012-08-29T05:03:21Z</time>
      </trkpt>
      <trkpt lat="45.27368" lon="5.83336">
        <ele>597.2</ele>
        <time>2012-08-29T05:03:24Z</time>
      </trkpt>
      <trkpt lat="45.27377" lon="5.83336">
        <ele>598.4</ele>
        <time>2012-08-29T05:03:30Z</time>
      </trkpt>
      <trkpt lat="45.27379" lon="5.83335">
        <ele>598.6</ele>
        <time>2012-08-29T05:03:31Z</time>
      </trkpt>
      <trkpt lat="45.27387" lon="5.8333">
        <ele>599.6</ele>
        <time>2012-08-29T05:03:35Z</time>
      </trkpt>
      <trkpt lat="45.27396" lon="5.83326">
        <ele>601</ele>
        <time>2012-08-29T05:03:41Z</time>
      </trkpt>
      <trkpt lat="45.27406" lon="5.83321">
        <ele>602.2</ele>
        <time>2012-08-29T05:03:47Z</time>
      </trkpt>
      <trkpt lat="45.27408" lon="5.83319">
        <ele>602.8</ele>
        <time>2012-08-29T05:03:49Z</time>
      </trkpt>
      <trkpt lat="45.27417" lon="5.83319">
        <ele>604.2</ele>
        <time>2012-08-29T05:03:55Z</time>
      </trkpt>
      <trkpt lat="45.27422" lon="5.8332">
        <ele>605</ele>
        <time>2012-08-29T05:03:58Z</time>
      </trkpt>
      <trkpt lat="45.27427" lon="5.83321">
        <ele>605.8</ele>
        <time>2012-08-29T05:04:01Z</time>
      </trkpt>
      <trkpt lat="45.27434" lon="5.83322">
        <ele>607</ele>
        <time>2012-08-29T05:04:06Z</time>
      </trkpt>
      <trkpt lat="45.27436" lon="5.83323">
        <ele>607.2</ele>
        <time>2012-08-29T05:04:07Z</time>
      </trkpt>
      <trkpt lat="45.27444" lon="5.83328">
        <ele>608.4</ele>
        <time>2012-08-29T05:04:12Z</time>
      </trkpt>
      <trkpt lat="45.27447" lon="5.8333">
        <ele>608.6</ele>
        <time>2012-08-29T05:04:14Z</time>
      </trkpt>
      <trkpt lat="45.27454" lon="5.83333">
        <ele>609.6</ele>
        <time>2012-08-29T05:04:19Z</time>
      </trkpt>
      <trkpt lat="45.27458" lon="5.83335">
        <ele>610.2</ele>
        <time>2012-08-29T05:04:21Z</time>
      </trkpt>
      <trkpt lat="45.27462" lon="5.83338">
        <ele>610.4</ele>
        <time>2012-08-29T05:04:23Z</time>
      </trkpt>
      <trkpt lat="45.27467" lon="5.8334">
        <ele>610.8</ele>
        <time>2012-08-29T05:04:26Z</time>
      </trkpt>
      <trkpt lat="45.27468" lon="5.83343">
        <ele>611</ele>
        <time>2012-08-29T05:04:28Z</time>
      </trkpt>
      <trkpt lat="45.27479" lon="5.83347">
        <ele>612.4</ele>
        <time>2012-08-29T05:04:33Z</time>
      </trkpt>
      <trkpt lat="45.27488" lon="5.8335">
        <ele>613</ele>
        <time>2012-08-29T05:04:37Z</time>
      </trkpt>
      <trkpt lat="45.27491" lon="5.83353">
        <ele>613.8</ele>
        <time>2012-08-29T05:04:40Z</time>
      </trkpt>
      <trkpt lat="45.27499" lon="5.83354">
        <ele>615.2</ele>
        <time>2012-08-29T05:04:45Z</time>
      </trkpt>
      <trkpt lat="45.27504" lon="5.83354">
        <ele>616.6</ele>
        <time>2012-08-29T05:04:50Z</time>
      </trkpt>
      <trkpt lat="45.27511" lon="5.83355">
        <ele>618</ele>
        <time>2012-08-29T05:04:54Z</time>
      </trkpt>
      <trkpt lat="45.27518" lon="5.83351">
        <ele>619.6</ele>
        <time>2012-08-29T05:05:00Z</time>
      </trkpt>
      <trkpt lat="45.27521" lon="5.83348">
        <ele>620.4</ele>
        <time>2012-08-29T05:05:03Z</time>
      </trkpt>
      <trkpt lat="45.27522" lon="5.83347">
        <ele>620.8</ele>
        <time>2012-08-29T05:05:05Z</time>
      </trkpt>
      <trkpt lat="45.27529" lon="5.83346">
        <ele>621.4</ele>
        <time>2012-08-29T05:05:09Z</time>
      </trkpt>
      <trkpt lat="45.27533" lon="5.83345">
        <ele>621.8</ele>
        <time>2012-08-29T05:05:11Z</time>
      </trkpt>
      <trkpt lat="45.27542" lon="5.83345">
        <ele>622.8</ele>
        <time>2012-08-29T05:05:16Z</time>
      </trkpt>
      <trkpt lat="45.27553" lon="5.83341">
        <ele>623.6</ele>
        <time>2012-08-29T05:05:22Z</time>
      </trkpt>
      <trkpt lat="45.2756" lon="5.83341">
        <ele>624</ele>
        <time>2012-08-29T05:05:26Z</time>
      </trkpt>
      <trkpt lat="45.27563" lon="5.83341">
        <ele>624.6</ele>
        <time>2012-08-29T05:05:29Z</time>
      </trkpt>
      <trkpt lat="45.27569" lon="5.83342">
        <ele>625.4</ele>
        <time>2012-08-29T05:05:33Z</time>
      </trkpt>
      <trkpt lat="45.2758" lon="5.83335">
        <ele>626</ele>
        <time>2012-08-29T05:05:39Z</time>
      </trkpt>
      <trkpt lat="45.27581" lon="5.83335">
        <ele>626.2</ele>
        <time>2012-08-29T05:05:40Z</time>
      </trkpt>
      <trkpt lat="45.27587" lon="5.83332">
        <ele>626.6</ele>
        <time>2012-08-29T05:05:44Z</time>
      </trkpt>
      <trkpt lat="45.27596" lon="5.83325">
        <ele>627.8</ele>
        <time>2012-08-29T05:05:51Z</time>
      </trkpt>
      <trkpt lat="45.27599" lon="5.83323">
        <ele>628</ele>
        <time>2012-08-29T05:05:53Z</time>
      </trkpt>
      <trkpt lat="45.27606" lon="5.83314">
        <ele>628.4</ele>
        <time>2012-08-29T05:05:59Z</time>
      </trkpt>
      <trkpt lat="45.27609" lon="5.83309">
        <ele>628.6</ele>
        <time>2012-08-29T05:06:02Z</time>
      </trkpt>
      <trkpt lat="45.27615" lon="5.83299">
        <ele>629.8</ele>
        <time>2012-08-29T05:06:09Z</time>
      </trkpt>
      <trkpt lat="45.2762" lon="5.8329">
        <ele>630.4</ele>
        <time>2012-08-29T05:06:15Z</time>
      </trkpt>
      <trkpt lat="45.27621" lon="5.83287">
        <ele>630.8</ele>
        <time>2012-08-29T05:06:17Z</time>
      </trkpt>
      <trkpt lat="45.27628" lon="5.83281">
        <ele>632</ele>
        <time>2012-08-29T05:06:23Z</time>
      </trkpt>
      <trkpt lat="45.27629" lon="5.8328">
        <ele>632</ele>
        <time>2012-08-29T05:06:24Z</time>
      </trkpt>
      <trkpt lat="45.27639" lon="5.83278">
        <ele>633.2</ele>
        <time>2012-08-29T05:06:30Z</time>
      </trkpt>
      <trkpt lat="45.27646" lon="5.83275">
        <ele>633.8</ele>
        <time>2012-08-29T05:06:34Z</time>
      </trkpt>
      <trkpt lat="45.27648" lon="5.83275">
        <ele>634.2</ele>
        <time>2012-08-29T05:06:36Z</time>
      </trkpt>
      <trkpt lat="45.2766" lon="5.83272">
        <ele>635.4</ele>
        <time>2012-08-29T05:06:43Z</time>
      </trkpt>
      <trkpt lat="45.27662" lon="5.83271">
        <ele>635.8</ele>
        <time>2012-08-29T05:06:45Z</time>
      </trkpt>
      <trkpt lat="45.27669" lon="5.83269">
        <ele>636.4</ele>
        <time>2012-08-29T05:06:50Z</time>
      </trkpt>
      <trkpt lat="45.27673" lon="5.83269">
        <ele>637</ele>
        <time>2012-08-29T05:06:53Z</time>
      </trkpt>
      <trkpt lat="45.27684" lon="5.83267">
        <ele>638</ele>
        <time>2012-08-29T05:06:59Z</time>
      </trkpt>
      <trkpt lat="45.27688" lon="5.83266">
        <ele>638.2</ele>
        <time>2012-08-29T05:07:02Z</time>
      </trkpt>
      <trkpt lat="45.27694" lon="5.83264">
        <ele>639.2</ele>
        <time>2012-08-29T05:07:06Z</time>
      </trkpt>
      <trkpt lat="45.27697" lon="5.83264">
        <ele>639.8</ele>
        <time>2012-08-29T05:07:09Z</time>
      </trkpt>
      <trkpt lat="45.27705" lon="5.83261">
        <ele>640.6</ele>
        <time>2012-08-29T05:07:14Z</time>
      </trkpt>
      <trkpt lat="45.27715" lon="5.83259">
        <ele>641.8</ele>
        <time>2012-08-29T05:07:20Z</time>
      </trkpt>
      <trkpt lat="45.27725" lon="5.83256">
        <ele>643.2</ele>
        <time>2012-08-29T05:07:26Z</time>
      </trkpt>
      <trkpt lat="45.27735" lon="5.83252">
        <ele>644.4</ele>
        <time>2012-08-29T05:07:32Z</time>
      </trkpt>
      <trkpt lat="45.27741" lon="5.83249">
        <ele>645.4</ele>
        <time>2012-08-29T05:07:36Z</time>
      </trkpt>
      <trkpt lat="45.27747" lon="5.83247">
        <ele>646.4</ele>
        <time>2012-08-29T05:07:40Z</time>
      </trkpt>
      <trkpt lat="45.27755" lon="5.83244">
        <ele>648</ele>
        <time>2012-08-29T05:07:46Z</time>
      </trkpt>
      <trkpt lat="45.27763" lon="5.83244">
        <ele>649.2</ele>
        <time>2012-08-29T05:07:50Z</time>
      </trkpt>
      <trkpt lat="45.27775" lon="5.83244">
        <ele>650.6</ele>
        <time>2012-08-29T05:07:56Z</time>
      </trkpt>
      <trkpt lat="45.27783" lon="5.83245">
        <ele>652</ele>
        <time>2012-08-29T05:08:01Z</time>
      </trkpt>
      <trkpt lat="45.27789" lon="5.83245">
        <ele>653.2</ele>
        <time>2012-08-29T05:08:06Z</time>
      </trkpt>
      <trkpt lat="45.27797" lon="5.83246">
        <ele>654.4</ele>
        <time>2012-08-29T05:08:12Z</time>
      </trkpt>
      <trkpt lat="45.27805" lon="5.83243">
        <ele>655.8</ele>
        <time>2012-08-29T05:08:17Z</time>
      </trkpt>
      <trkpt lat="45.27807" lon="5.83242">
        <ele>656</ele>
        <time>2012-08-29T05:08:18Z</time>
      </trkpt>
      <trkpt lat="45.27813" lon="5.83236">
        <ele>657</ele>
        <time>2012-08-29T05:08:23Z</time>
      </trkpt>
      <trkpt lat="45.27824" lon="5.8323">
        <ele>658.8</ele>
        <time>2012-08-29T05:08:31Z</time>
      </trkpt>
      <trkpt lat="45.27832" lon="5.83226">
        <ele>659.4</ele>
        <time>2012-08-29T05:08:36Z</time>
      </trkpt>
      <trkpt lat="45.27841" lon="5.83222">
        <ele>660.6</ele>
        <time>2012-08-29T05:08:42Z</time>
      </trkpt>
      <trkpt lat="45.27845" lon="5.8322">
        <ele>661.2</ele>
        <time>2012-08-29T05:08:46Z</time>
      </trkpt>
      <trkpt lat="45.27855" lon="5.83217">
        <ele>662.6</ele>
        <time>2012-08-29T05:08:52Z</time>
      </trkpt>
      <trkpt lat="45.27863" lon="5.83216">
        <ele>663.6</ele>
        <time>2012-08-29T05:08:58Z</time>
      </trkpt>
      <trkpt lat="45.27865" lon="5.83216">
        <ele>664.2</ele>
        <time>2012-08-29T05:09:00Z</time>
      </trkpt>
      <trkpt lat="45.27874" lon="5.83216">
        <ele>665.4</ele>
        <time>2012-08-29T05:09:06Z</time>
      </trkpt>
      <trkpt lat="45.27875" lon="5.83216">
        <ele>665.4</ele>
        <time>2012-08-29T05:09:07Z</time>
      </trkpt>
      <trkpt lat="45.27881" lon="5.83218">
        <ele>666.6</ele>
        <time>2012-08-29T05:09:11Z</time>
      </trkpt>
      <trkpt lat="45.2789" lon="5.8322">
        <ele>667.6</ele>
        <time>2012-08-29T05:09:17Z</time>
      </trkpt>
      <trkpt lat="45.27891" lon="5.8322">
        <ele>667.6</ele>
        <time>2012-08-29T05:09:18Z</time>
      </trkpt>
      <trkpt lat="45.27895" lon="5.83221">
        <ele>668.6</ele>
        <time>2012-08-29T05:09:21Z</time>
      </trkpt>
      <trkpt lat="45.27898" lon="5.83221">
        <ele>669</ele>
        <time>2012-08-29T05:09:23Z</time>
      </trkpt>
      <trkpt lat="45.27905" lon="5.83222">
        <ele>669.8</ele>
        <time>2012-08-29T05:09:28Z</time>
      </trkpt>
      <trkpt lat="45.27915" lon="5.83219">
        <ele>671.2</ele>
        <time>2012-08-29T05:09:34Z</time>
      </trkpt>
      <trkpt lat="45.2792" lon="5.83217">
        <ele>671.6</ele>
        <time>2012-08-29T05:09:37Z</time>
      </trkpt>
      <trkpt lat="45.27927" lon="5.83213">
        <ele>672.8</ele>
        <time>2012-08-29T05:09:41Z</time>
      </trkpt>
      <trkpt lat="45.27935" lon="5.8321">
        <ele>673.8</ele>
        <time>2012-08-29T05:09:47Z</time>
      </trkpt>
      <trkpt lat="45.27941" lon="5.8321">
        <ele>675.2</ele>
        <time>2012-08-29T05:09:52Z</time>
      </trkpt>
      <trkpt lat="45.27946" lon="5.83211">
        <ele>675.8</ele>
        <time>2012-08-29T05:09:55Z</time>
      </trkpt>
      <trkpt lat="45.27954" lon="5.83213">
        <ele>677</ele>
        <time>2012-08-29T05:10:00Z</time>
      </trkpt>
      <trkpt lat="45.27959" lon="5.83214">
        <ele>677.8</ele>
        <time>2012-08-29T05:10:03Z</time>
      </trkpt>
      <trkpt lat="45.27969" lon="5.83212">
        <ele>679.2</ele>
        <time>2012-08-29T05:10:09Z</time>
      </trkpt>
      <trkpt lat="45.27976" lon="5.83211">
        <ele>680</ele>
        <time>2012-08-29T05:10:13Z</time>
      </trkpt>
      <trkpt lat="45.27986" lon="5.83206">
        <ele>681.8</ele>
        <time>2012-08-29T05:10:19Z</time>
      </trkpt>
      <trkpt lat="45.27987" lon="5.83205">
        <ele>682</ele>
        <time>2012-08-29T05:10:20Z</time>
      </trkpt>
      <trkpt lat="45.27988" lon="5.83204">
        <ele>682.4</ele>
        <time>2012-08-29T05:10:21Z</time>
      </trkpt>
      <trkpt lat="45.27995" lon="5.832">
        <ele>684</ele>
        <time>2012-08-29T05:10:26Z</time>
      </trkpt>
      <trkpt lat="45.28006" lon="5.83195">
        <ele>686.2</ele>
        <time>2012-08-29T05:10:33Z</time>
      </trkpt>
      <trkpt lat="45.28012" lon="5.83194">
        <ele>688</ele>
        <time>2012-08-29T05:10:38Z</time>
      </trkpt>
      <trkpt lat="45.28012" lon="5.83194">
        <ele>688.8</ele>
        <time>2012-08-29T05:10:40Z</time>
      </trkpt>
      <trkpt lat="45.28016" lon="5.83193">
        <ele>689.6</ele>
        <time>2012-08-29T05:10:43Z</time>
      </trkpt>
      <trkpt lat="45.28022" lon="5.83192">
        <ele>691.4</ele>
        <time>2012-08-29T05:10:48Z</time>
      </trkpt>
      <trkpt lat="45.28031" lon="5.83194">
        <ele>693.8</ele>
        <time>2012-08-29T05:10:55Z</time>
      </trkpt>
      <trkpt lat="45.28032" lon="5.83193">
        <ele>694.2</ele>
        <time>2012-08-29T05:10:56Z</time>
      </trkpt>
      <trkpt lat="45.28041" lon="5.83196">
        <ele>695.8</ele>
        <time>2012-08-29T05:11:01Z</time>
      </trkpt>
      <trkpt lat="45.28047" lon="5.832">
        <ele>697.6</ele>
        <time>2012-08-29T05:11:06Z</time>
      </trkpt>
      <trkpt lat="45.28051" lon="5.83204">
        <ele>699.2</ele>
        <time>2012-08-29T05:11:10Z</time>
      </trkpt>
      <trkpt lat="45.28053" lon="5.83205">
        <ele>699.6</ele>
        <time>2012-08-29T05:11:11Z</time>
      </trkpt>
      <trkpt lat="45.28056" lon="5.83206">
        <ele>700</ele>
        <time>2012-08-29T05:11:13Z</time>
      </trkpt>
      <trkpt lat="45.28061" lon="5.8321">
        <ele>700.8</ele>
        <time>2012-08-29T05:11:16Z</time>
      </trkpt>
      <trkpt lat="45.28062" lon="5.8321">
        <ele>701</ele>
        <time>2012-08-29T05:11:17Z</time>
      </trkpt>
      <trkpt lat="45.28066" lon="5.83213">
        <ele>702.2</ele>
        <time>2012-08-29T05:11:21Z</time>
      </trkpt>
      <trkpt lat="45.28071" lon="5.83215">
        <ele>703.2</ele>
        <time>2012-08-29T05:11:25Z</time>
      </trkpt>
      <trkpt lat="45.28073" lon="5.83215">
        <ele>703.6</ele>
        <time>2012-08-29T05:11:26Z</time>
      </trkpt>
      <trkpt lat="45.28078" lon="5.83215">
        <ele>704.6</ele>
        <time>2012-08-29T05:11:30Z</time>
      </trkpt>
      <trkpt lat="45.28082" lon="5.83214">
        <ele>705.2</ele>
        <time>2012-08-29T05:11:33Z</time>
      </trkpt>
      <trkpt lat="45.28086" lon="5.83212">
        <ele>707</ele>
        <time>2012-08-29T05:11:38Z</time>
      </trkpt>
      <trkpt lat="45.28089" lon="5.83213">
        <ele>708</ele>
        <time>2012-08-29T05:11:41Z</time>
      </trkpt>
      <trkpt lat="45.28096" lon="5.83213">
        <ele>709</ele>
        <time>2012-08-29T05:11:45Z</time>
      </trkpt>
      <trkpt lat="45.28102" lon="5.83213">
        <ele>710.4</ele>
        <time>2012-08-29T05:11:49Z</time>
      </trkpt>
      <trkpt lat="45.28108" lon="5.83212">
        <ele>712</ele>
        <time>2012-08-29T05:11:54Z</time>
      </trkpt>
      <trkpt lat="45.28109" lon="5.8321">
        <ele>712.2</ele>
        <time>2012-08-29T05:11:55Z</time>
      </trkpt>
      <trkpt lat="45.28116" lon="5.83209">
        <ele>713</ele>
        <time>2012-08-29T05:11:58Z</time>
      </trkpt>
      <trkpt lat="45.28119" lon="5.83209">
        <ele>713.8</ele>
        <time>2012-08-29T05:12:00Z</time>
      </trkpt>
      <trkpt lat="45.28124" lon="5.83209">
        <ele>715</ele>
        <time>2012-08-29T05:12:04Z</time>
      </trkpt>
      <trkpt lat="45.28129" lon="5.83209">
        <ele>716.2</ele>
        <time>2012-08-29T05:12:08Z</time>
      </trkpt>
      <trkpt lat="45.28136" lon="5.83209">
        <ele>717.4</ele>
        <time>2012-08-29T05:12:13Z</time>
      </trkpt>
      <trkpt lat="45.28138" lon="5.83209">
        <ele>717.8</ele>
        <time>2012-08-29T05:12:14Z</time>
      </trkpt>
      <trkpt lat="45.28141" lon="5.83208">
        <ele>718.8</ele>
        <time>2012-08-29T05:12:17Z</time>
      </trkpt>
      <trkpt lat="45.28143" lon="5.83208">
        <ele>719</ele>
        <time>2012-08-29T05:12:18Z</time>
      </trkpt>
      <trkpt lat="45.28148" lon="5.83204">
        <ele>720.2</ele>
        <time>2012-08-29T05:12:22Z</time>
      </trkpt>
      <trkpt lat="45.28154" lon="5.832">
        <ele>721.4</ele>
        <time>2012-08-29T05:12:27Z</time>
      </trkpt>
      <trkpt lat="45.28157" lon="5.83197">
        <ele>722.4</ele>
        <time>2012-08-29T05:12:30Z</time>
      </trkpt>
      <trkpt lat="45.28161" lon="5.83192">
        <ele>724.2</ele>
        <time>2012-08-29T05:12:35Z</time>
      </trkpt>
      <trkpt lat="45.28167" lon="5.83188">
        <ele>726</ele>
        <time>2012-08-29T05:12:40Z</time>
      </trkpt>
      <trkpt lat="45.28171" lon="5.83187">
        <ele>727</ele>
        <time>2012-08-29T05:12:43Z</time>
      </trkpt>
      <trkpt lat="45.28175" lon="5.83183">
        <ele>728.6</ele>
        <time>2012-08-29T05:12:47Z</time>
      </trkpt>
      <trkpt lat="45.28181" lon="5.83181">
        <ele>730.2</ele>
        <time>2012-08-29T05:12:51Z</time>
      </trkpt>
      <trkpt lat="45.2819" lon="5.83179">
        <ele>733</ele>
        <time>2012-08-29T05:12:58Z</time>
      </trkpt>
      <trkpt lat="45.28199" lon="5.83176">
        <ele>734.8</ele>
        <time>2012-08-29T05:13:04Z</time>
      </trkpt>
      <trkpt lat="45.28207" lon="5.83175">
        <ele>736.6</ele>
        <time>2012-08-29T05:13:10Z</time>
      </trkpt>
      <trkpt lat="45.28209" lon="5.83176">
        <ele>736.8</ele>
        <time>2012-08-29T05:13:11Z</time>
      </trkpt>
      <trkpt lat="45.28212" lon="5.83175">
        <ele>738</ele>
        <time>2012-08-29T05:13:15Z</time>
      </trkpt>
      <trkpt lat="45.28217" lon="5.83172">
        <ele>739</ele>
        <time>2012-08-29T05:13:19Z</time>
      </trkpt>
      <trkpt lat="45.2822" lon="5.83172">
        <ele>739.2</ele>
        <time>2012-08-29T05:13:21Z</time>
      </trkpt>
      <trkpt lat="45.28227" lon="5.83167">
        <ele>741</ele>
        <time>2012-08-29T05:13:27Z</time>
      </trkpt>
      <trkpt lat="45.28228" lon="5.83166">
        <ele>741.2</ele>
        <time>2012-08-29T05:13:28Z</time>
      </trkpt>
      <trkpt lat="45.28232" lon="5.83162">
        <ele>742</ele>
        <time>2012-08-29T05:13:31Z</time>
      </trkpt>
      <trkpt lat="45.28236" lon="5.83158">
        <ele>743</ele>
        <time>2012-08-29T05:13:35Z</time>
      </trkpt>
      <trkpt lat="45.28237" lon="5.83156">
        <ele>743.6</ele>
        <time>2012-08-29T05:13:37Z</time>
      </trkpt>
      <trkpt lat="45.2824" lon="5.83151">
        <ele>744.6</ele>
        <time>2012-08-29T05:13:40Z</time>
      </trkpt>
      <trkpt lat="45.28241" lon="5.83148">
        <ele>745.4</ele>
        <time>2012-08-29T05:13:42Z</time>
      </trkpt>
      <trkpt lat="45.28247" lon="5.83142">
        <ele>747.8</ele>
        <time>2012-08-29T05:13:48Z</time>
      </trkpt>
      <trkpt lat="45.28248" lon="5.83141">
        <ele>748.2</ele>
        <time>2012-08-29T05:13:49Z</time>
      </trkpt>
      <trkpt lat="45.28252" lon="5.83139">
        <ele>749.4</ele>
        <time>2012-08-29T05:13:52Z</time>
      </trkpt>
      <trkpt lat="45.28257" lon="5.83136">
        <ele>751</ele>
        <time>2012-08-29T05:13:56Z</time>
      </trkpt>
      <trkpt lat="45.28262" lon="5.83135">
        <ele>752.8</ele>
        <time>2012-08-29T05:14:00Z</time>
      </trkpt>
      <trkpt lat="45.28264" lon="5.83134">
        <ele>753.4</ele>
        <time>2012-08-29T05:14:02Z</time>
      </trkpt>
      <trkpt lat="45.28267" lon="5.83134">
        <ele>754.8</ele>
        <time>2012-08-29T05:14:05Z</time>
      </trkpt>
      <trkpt lat="45.28273" lon="5.83138">
        <ele>756.4</ele>
        <time>2012-08-29T05:14:10Z</time>
      </trkpt>
      <trkpt lat="45.28275" lon="5.83138">
        <ele>757.2</ele>
        <time>2012-08-29T05:14:12Z</time>
      </trkpt>
      <trkpt lat="45.28283" lon="5.83143">
        <ele>759.2</ele>
        <time>2012-08-29T05:14:19Z</time>
      </trkpt>
      <trkpt lat="45.28286" lon="5.83143">
        <ele>760</ele>
        <time>2012-08-29T05:14:21Z</time>
      </trkpt>
      <trkpt lat="45.28289" lon="5.83144">
        <ele>760.8</ele>
        <time>2012-08-29T05:14:24Z</time>
      </trkpt>
      <trkpt lat="45.28291" lon="5.83143">
        <ele>761.2</ele>
        <time>2012-08-29T05:14:26Z</time>
      </trkpt>
      <trkpt lat="45.28297" lon="5.83146">
        <ele>762.2</ele>
        <time>2012-08-29T05:14:31Z</time>
      </trkpt>
      <trkpt lat="45.283" lon="5.83147">
        <ele>763.2</ele>
        <time>2012-08-29T05:14:35Z</time>
      </trkpt>
      <trkpt lat="45.28306" lon="5.83151">
        <ele>763.8</ele>
        <time>2012-08-29T05:14:39Z</time>
      </trkpt>
      <trkpt lat="45.28308" lon="5.83153">
        <ele>764.4</ele>
        <time>2012-08-29T05:14:41Z</time>
      </trkpt>
      <trkpt lat="45.2831" lon="5.83156">
        <ele>765</ele>
        <time>2012-08-29T05:14:43Z</time>
      </trkpt>
      <trkpt lat="45.28314" lon="5.83159">
        <ele>765.6</ele>
        <time>2012-08-29T05:14:46Z</time>
      </trkpt>
      <trkpt lat="45.28315" lon="5.8316">
        <ele>765.6</ele>
        <time>2012-08-29T05:14:47Z</time>
      </trkpt>
      <trkpt lat="45.28319" lon="5.83166">
        <ele>767.4</ele>
        <time>2012-08-29T05:14:53Z</time>
      </trkpt>
      <trkpt lat="45.28328" lon="5.8317">
        <ele>768.8</ele>
        <time>2012-08-29T05:14:58Z</time>
      </trkpt>
      <trkpt lat="45.28337" lon="5.83171">
        <ele>770.2</ele>
        <time>2012-08-29T05:15:03Z</time>
      </trkpt>
      <trkpt lat="45.28342" lon="5.8317">
        <ele>771</ele>
        <time>2012-08-29T05:15:06Z</time>
      </trkpt>
      <trkpt lat="45.28354" lon="5.83165">
        <ele>773.2</ele>
        <time>2012-08-29T05:15:13Z</time>
      </trkpt>
      <trkpt lat="45.28355" lon="5.83163">
        <ele>773.4</ele>
        <time>2012-08-29T05:15:14Z</time>
      </trkpt>
      <trkpt lat="45.28359" lon="5.83153">
        <ele>775</ele>
        <time>2012-08-29T05:15:19Z</time>
      </trkpt>
      <trkpt lat="45.28364" lon="5.83147">
        <ele>776.2</ele>
        <time>2012-08-29T05:15:24Z</time>
      </trkpt>
      <trkpt lat="45.28369" lon="5.8314">
        <ele>777.8</ele>
        <time>2012-08-29T05:15:30Z</time>
      </trkpt>
      <trkpt lat="45.28373" lon="5.83138">
        <ele>778.2</ele>
        <time>2012-08-29T05:15:33Z</time>
      </trkpt>
      <trkpt lat="45.28376" lon="5.83133">
        <ele>779.6</ele>
        <time>2012-08-29T05:15:37Z</time>
      </trkpt>
      <trkpt lat="45.28383" lon="5.83129">
        <ele>780.2</ele>
        <time>2012-08-29T05:15:41Z</time>
      </trkpt>
      <trkpt lat="45.28392" lon="5.83125">
        <ele>781.8</ele>
        <time>2012-08-29T05:15:46Z</time>
      </trkpt>
      <trkpt lat="45.28398" lon="5.83124">
        <ele>783.4</ele>
        <time>2012-08-29T05:15:51Z</time>
      </trkpt>
      <trkpt lat="45.284" lon="5.83123">
        <ele>783.8</ele>
        <time>2012-08-29T05:15:52Z</time>
      </trkpt>
      <trkpt lat="45.28402" lon="5.83123">
        <ele>784</ele>
        <time>2012-08-29T05:15:53Z</time>
      </trkpt>
      <trkpt lat="45.2841" lon="5.83124">
        <ele>785.6</ele>
        <time>2012-08-29T05:15:58Z</time>
      </trkpt>
      <trkpt lat="45.2842" lon="5.83122">
        <ele>787.2</ele>
        <time>2012-08-29T05:16:03Z</time>
      </trkpt>
      <trkpt lat="45.28428" lon="5.83122">
        <ele>788.6</ele>
        <time>2012-08-29T05:16:09Z</time>
      </trkpt>
      <trkpt lat="45.2843" lon="5.83121">
        <ele>789</ele>
        <time>2012-08-29T05:16:10Z</time>
      </trkpt>
      <trkpt lat="45.28436" lon="5.8312">
        <ele>790</ele>
        <time>2012-08-29T05:16:13Z</time>
      </trkpt>
      <trkpt lat="45.28449" lon="5.83116">
        <ele>791.4</ele>
        <time>2012-08-29T05:16:20Z</time>
      </trkpt>
      <trkpt lat="45.28455" lon="5.83116">
        <ele>792.2</ele>
        <time>2012-08-29T05:16:23Z</time>
      </trkpt>
      <trkpt lat="45.28459" lon="5.83118">
        <ele>793</ele>
        <time>2012-08-29T05:16:27Z</time>
      </trkpt>
      <trkpt lat="45.28466" lon="5.83118">
        <ele>794.2</ele>
        <time>2012-08-29T05:16:32Z</time>
      </trkpt>
      <trkpt lat="45.28469" lon="5.83118">
        <ele>795</ele>
        <time>2012-08-29T05:16:35Z</time>
      </trkpt>
      <trkpt lat="45.28475" lon="5.83119">
        <ele>795.6</ele>
        <time>2012-08-29T05:16:39Z</time>
      </trkpt>
      <trkpt lat="45.28485" lon="5.83115">
        <ele>797.2</ele>
        <time>2012-08-29T05:16:45Z</time>
      </trkpt>
      <trkpt lat="45.28494" lon="5.83114">
        <ele>798.2</ele>
        <time>2012-08-29T05:16:51Z</time>
      </trkpt>
      <trkpt lat="45.285" lon="5.83115">
        <ele>799.2</ele>
        <time>2012-08-29T05:16:55Z</time>
      </trkpt>
      <trkpt lat="45.28502" lon="5.83116">
        <ele>799.4</ele>
        <time>2012-08-29T05:16:57Z</time>
      </trkpt>
      <trkpt lat="45.2851" lon="5.83117">
        <ele>800.8</ele>
        <time>2012-08-29T05:17:03Z</time>
      </trkpt>
      <trkpt lat="45.28515" lon="5.83118">
        <ele>801.6</ele>
        <time>2012-08-29T05:17:07Z</time>
      </trkpt>
      <trkpt lat="45.28517" lon="5.83119">
        <ele>801.6</ele>
        <time>2012-08-29T05:17:08Z</time>
      </trkpt>
      <trkpt lat="45.28521" lon="5.83119">
        <ele>803</ele>
        <time>2012-08-29T05:17:13Z</time>
      </trkpt>
      <trkpt lat="45.28526" lon="5.83121">
        <ele>803.4</ele>
        <time>2012-08-29T05:17:16Z</time>
      </trkpt>
      <trkpt lat="45.28527" lon="5.83121">
        <ele>803.6</ele>
        <time>2012-08-29T05:17:17Z</time>
      </trkpt>
      <trkpt lat="45.28534" lon="5.83124">
        <ele>805</ele>
        <time>2012-08-29T05:17:22Z</time>
      </trkpt>
      <trkpt lat="45.28535" lon="5.83124">
        <ele>805.2</ele>
        <time>2012-08-29T05:17:23Z</time>
      </trkpt>
      <trkpt lat="45.28542" lon="5.8313">
        <ele>806.6</ele>
        <time>2012-08-29T05:17:27Z</time>
      </trkpt>
      <trkpt lat="45.28545" lon="5.83132">
        <ele>807</ele>
        <time>2012-08-29T05:17:29Z</time>
      </trkpt>
      <trkpt lat="45.28555" lon="5.83133">
        <ele>808.8</ele>
        <time>2012-08-29T05:17:35Z</time>
      </trkpt>
      <trkpt lat="45.28562" lon="5.83133">
        <ele>810.2</ele>
        <time>2012-08-29T05:17:40Z</time>
      </trkpt>
      <trkpt lat="45.28563" lon="5.83133">
        <ele>810.6</ele>
        <time>2012-08-29T05:17:41Z</time>
      </trkpt>
      <trkpt lat="45.28564" lon="5.83132">
        <ele>811.2</ele>
        <time>2012-08-29T05:17:43Z</time>
      </trkpt>
      <trkpt lat="45.28572" lon="5.83129">
        <ele>812.6</ele>
        <time>2012-08-29T05:17:48Z</time>
      </trkpt>
      <trkpt lat="45.28573" lon="5.83129">
        <ele>813</ele>
        <time>2012-08-29T05:17:49Z</time>
      </trkpt>
      <trkpt lat="45.2858" lon="5.83126">
        <ele>814</ele>
        <time>2012-08-29T05:17:53Z</time>
      </trkpt>
      <trkpt lat="45.28582" lon="5.83126">
        <ele>814.8</ele>
        <time>2012-08-29T05:17:55Z</time>
      </trkpt>
      <trkpt lat="45.28586" lon="5.8312">
        <ele>815.8</ele>
        <time>2012-08-29T05:17:59Z</time>
      </trkpt>
      <trkpt lat="45.28589" lon="5.83118">
        <ele>816.8</ele>
        <time>2012-08-29T05:18:01Z</time>
      </trkpt>
      <trkpt lat="45.28592" lon="5.83114">
        <ele>818</ele>
        <time>2012-08-29T05:18:05Z</time>
      </trkpt>
      <trkpt lat="45.28594" lon="5.83113">
        <ele>818.4</ele>
        <time>2012-08-29T05:18:06Z</time>
      </trkpt>
      <trkpt lat="45.28599" lon="5.83109">
        <ele>820.4</ele>
        <time>2012-08-29T05:18:12Z</time>
      </trkpt>
      <trkpt lat="45.286" lon="5.83108">
        <ele>820.8</ele>
        <time>2012-08-29T05:18:13Z</time>
      </trkpt>
      <trkpt lat="45.2861" lon="5.83102">
        <ele>823.2</ele>
        <time>2012-08-29T05:18:20Z</time>
      </trkpt>
      <trkpt lat="45.2862" lon="5.83097">
        <ele>825</ele>
        <time>2012-08-29T05:18:26Z</time>
      </trkpt>
      <trkpt lat="45.28621" lon="5.83098">
        <ele>825.4</ele>
        <time>2012-08-29T05:18:27Z</time>
      </trkpt>
      <trkpt lat="45.28625" lon="5.83097">
        <ele>826.4</ele>
        <time>2012-08-29T05:18:30Z</time>
      </trkpt>
      <trkpt lat="45.28632" lon="5.83095">
        <ele>827.8</ele>
        <time>2012-08-29T05:18:35Z</time>
      </trkpt>
      <trkpt lat="45.28637" lon="5.83094">
        <ele>829</ele>
        <time>2012-08-29T05:18:39Z</time>
      </trkpt>
      <trkpt lat="45.28642" lon="5.83094">
        <ele>830</ele>
        <time>2012-08-29T05:18:43Z</time>
      </trkpt>
      <trkpt lat="45.28647" lon="5.83092">
        <ele>831.4</ele>
        <time>2012-08-29T05:18:48Z</time>
      </trkpt>
      <trkpt lat="45.2865" lon="5.8309">
        <ele>832.8</ele>
        <time>2012-08-29T05:18:52Z</time>
      </trkpt>
      <trkpt lat="45.28654" lon="5.83091">
        <ele>834</ele>
        <time>2012-08-29T05:18:57Z</time>
      </trkpt>
      <trkpt lat="45.28659" lon="5.83093">
        <ele>835.8</ele>
        <time>2012-08-29T05:19:03Z</time>
      </trkpt>
      <trkpt lat="45.2866" lon="5.83096">
        <ele>837.4</ele>
        <time>2012-08-29T05:19:08Z</time>
      </trkpt>
      <trkpt lat="45.28661" lon="5.83098">
        <ele>837.8</ele>
        <time>2012-08-29T05:19:09Z</time>
      </trkpt>
      <trkpt lat="45.28662" lon="5.831">
        <ele>838.4</ele>
        <time>2012-08-29T05:19:11Z</time>
      </trkpt>
      <trkpt lat="45.28665" lon="5.83104">
        <ele>839.6</ele>
        <time>2012-08-29T05:19:15Z</time>
      </trkpt>
      <trkpt lat="45.28671" lon="5.83109">
        <ele>841.6</ele>
        <time>2012-08-29T05:19:22Z</time>
      </trkpt>
      <trkpt lat="45.28672" lon="5.8311">
        <ele>841.8</ele>
        <time>2012-08-29T05:19:23Z</time>
      </trkpt>
      <trkpt lat="45.28673" lon="5.83111">
        <ele>842.2</ele>
        <time>2012-08-29T05:19:25Z</time>
      </trkpt>
      <trkpt lat="45.28673" lon="5.83112">
        <ele>842.4</ele>
        <time>2012-08-29T05:19:26Z</time>
      </trkpt>
      <trkpt lat="45.28677" lon="5.83114">
        <ele>844</ele>
        <time>2012-08-29T05:19:31Z</time>
      </trkpt>
      <trkpt lat="45.28682" lon="5.83112">
        <ele>844.8</ele>
        <time>2012-08-29T05:19:35Z</time>
      </trkpt>
      <trkpt lat="45.28687" lon="5.83111">
        <ele>846.6</ele>
        <time>2012-08-29T05:19:42Z</time>
      </trkpt>
      <trkpt lat="45.2869" lon="5.83111">
        <ele>847.2</ele>
        <time>2012-08-29T05:19:45Z</time>
      </trkpt>
      <trkpt lat="45.28694" lon="5.83108">
        <ele>848.4</ele>
        <time>2012-08-29T05:19:49Z</time>
      </trkpt>
      <trkpt lat="45.28694" lon="5.83109">
        <ele>849</ele>
        <time>2012-08-29T05:19:51Z</time>
      </trkpt>
      <trkpt lat="45.28692" lon="5.83117">
        <ele>851</ele>
        <time>2012-08-29T05:19:57Z</time>
      </trkpt>
      <trkpt lat="45.28687" lon="5.83121">
        <ele>852.4</ele>
        <time>2012-08-29T05:20:01Z</time>
      </trkpt>
      <trkpt lat="45.28686" lon="5.83124">
        <ele>852.8</ele>
        <time>2012-08-29T05:20:03Z</time>
      </trkpt>
      <trkpt lat="45.28684" lon="5.83126">
        <ele>853.6</ele>
        <time>2012-08-29T05:20:05Z</time>
      </trkpt>
      <trkpt lat="45.28678" lon="5.83129">
        <ele>855</ele>
        <time>2012-08-29T05:20:10Z</time>
      </trkpt>
      <trkpt lat="45.28675" lon="5.83132">
        <ele>856</ele>
        <time>2012-08-29T05:20:14Z</time>
      </trkpt>
      <trkpt lat="45.28669" lon="5.83131">
        <ele>857.2</ele>
        <time>2012-08-29T05:20:18Z</time>
      </trkpt>
      <trkpt lat="45.28664" lon="5.8314">
        <ele>858.4</ele>
        <time>2012-08-29T05:20:24Z</time>
      </trkpt>
      <trkpt lat="45.28662" lon="5.83144">
        <ele>859</ele>
        <time>2012-08-29T05:20:26Z</time>
      </trkpt>
      <trkpt lat="45.28658" lon="5.83153">
        <ele>860.8</ele>
        <time>2012-08-29T05:20:33Z</time>
      </trkpt>
      <trkpt lat="45.28656" lon="5.83157">
        <ele>861.6</ele>
        <time>2012-08-29T05:20:36Z</time>
      </trkpt>
      <trkpt lat="45.28652" lon="5.83169">
        <ele>863.4</ele>
        <time>2012-08-29T05:20:43Z</time>
      </trkpt>
      <trkpt lat="45.2865" lon="5.83172">
        <ele>863.8</ele>
        <time>2012-08-29T05:20:45Z</time>
      </trkpt>
      <trkpt lat="45.28641" lon="5.83175">
        <ele>865.2</ele>
        <time>2012-08-29T05:20:51Z</time>
      </trkpt>
      <trkpt lat="45.28639" lon="5.83179">
        <ele>865.8</ele>
        <time>2012-08-29T05:20:53Z</time>
      </trkpt>
      <trkpt lat="45.28636" lon="5.83184">
        <ele>866.4</ele>
        <time>2012-08-29T05:20:57Z</time>
      </trkpt>
      <trkpt lat="45.28637" lon="5.83191">
        <ele>868</ele>
        <time>2012-08-29T05:21:04Z</time>
      </trkpt>
      <trkpt lat="45.28638" lon="5.83191">
        <ele>868.2</ele>
        <time>2012-08-29T05:21:05Z</time>
      </trkpt>
      <trkpt lat="45.28643" lon="5.83187">
        <ele>869.4</ele>
        <time>2012-08-29T05:21:13Z</time>
      </trkpt>
      <trkpt lat="45.28646" lon="5.8319">
        <ele>870.2</ele>
        <time>2012-08-29T05:21:17Z</time>
      </trkpt>
      <trkpt lat="45.2865" lon="5.83189">
        <ele>871</ele>
        <time>2012-08-29T05:21:21Z</time>
      </trkpt>
      <trkpt lat="45.28654" lon="5.83186">
        <ele>872</ele>
        <time>2012-08-29T05:21:25Z</time>
      </trkpt>
      <trkpt lat="45.28655" lon="5.83185">
        <ele>872.2</ele>
        <time>2012-08-29T05:21:26Z</time>
      </trkpt>
      <trkpt lat="45.28662" lon="5.83176">
        <ele>874</ele>
        <time>2012-08-29T05:21:32Z</time>
      </trkpt>
      <trkpt lat="45.28668" lon="5.83171">
        <ele>875.4</ele>
        <time>2012-08-29T05:21:37Z</time>
      </trkpt>
      <trkpt lat="45.28669" lon="5.83171">
        <ele>875.6</ele>
        <time>2012-08-29T05:21:38Z</time>
      </trkpt>
      <trkpt lat="45.28671" lon="5.83169">
        <ele>876</ele>
        <time>2012-08-29T05:21:40Z</time>
      </trkpt>
      <trkpt lat="45.28676" lon="5.83167">
        <ele>877.6</ele>
        <time>2012-08-29T05:21:45Z</time>
      </trkpt>
      <trkpt lat="45.28678" lon="5.8317">
        <ele>878.6</ele>
        <time>2012-08-29T05:21:49Z</time>
      </trkpt>
      <trkpt lat="45.28689" lon="5.83164">
        <ele>880.4</ele>
        <time>2012-08-29T05:21:55Z</time>
      </trkpt>
      <trkpt lat="45.28694" lon="5.8316">
        <ele>881.4</ele>
        <time>2012-08-29T05:21:58Z</time>
      </trkpt>
      <trkpt lat="45.28699" lon="5.83157">
        <ele>882.8</ele>
        <time>2012-08-29T05:22:03Z</time>
      </trkpt>
      <trkpt lat="45.28704" lon="5.83154">
        <ele>884</ele>
        <time>2012-08-29T05:22:07Z</time>
      </trkpt>
      <trkpt lat="45.28709" lon="5.83154">
        <ele>884.6</ele>
        <time>2012-08-29T05:22:10Z</time>
      </trkpt>
      <trkpt lat="45.28711" lon="5.83154">
        <ele>884.8</ele>
        <time>2012-08-29T05:22:11Z</time>
      </trkpt>
      <trkpt lat="45.28719" lon="5.83157">
        <ele>886.4</ele>
        <time>2012-08-29T05:22:17Z</time>
      </trkpt>
      <trkpt lat="45.28721" lon="5.83157">
        <ele>887</ele>
        <time>2012-08-29T05:22:19Z</time>
      </trkpt>
      <trkpt lat="45.28727" lon="5.83143">
        <ele>888.4</ele>
        <time>2012-08-29T05:22:25Z</time>
      </trkpt>
      <trkpt lat="45.28732" lon="5.83136">
        <ele>889.2</ele>
        <time>2012-08-29T05:22:29Z</time>
      </trkpt>
      <trkpt lat="45.28734" lon="5.83135">
        <ele>889.6</ele>
        <time>2012-08-29T05:22:31Z</time>
      </trkpt>
      <trkpt lat="45.28734" lon="5.83138">
        <ele>890.4</ele>
        <time>2012-08-29T05:22:35Z</time>
      </trkpt>
      <trkpt lat="45.28734" lon="5.83139">
        <ele>890.6</ele>
        <time>2012-08-29T05:22:36Z</time>
      </trkpt>
      <trkpt lat="45.28734" lon="5.83142">
        <ele>891.4</ele>
        <time>2012-08-29T05:22:39Z</time>
      </trkpt>
      <trkpt lat="45.28733" lon="5.83148">
        <ele>892.8</ele>
        <time>2012-08-29T05:22:44Z</time>
      </trkpt>
      <trkpt lat="45.28731" lon="5.83157">
        <ele>894.2</ele>
        <time>2012-08-29T05:22:49Z</time>
      </trkpt>
      <trkpt lat="45.28729" lon="5.83159">
        <ele>895</ele>
        <time>2012-08-29T05:22:52Z</time>
      </trkpt>
      <trkpt lat="45.28723" lon="5.83158">
        <ele>896.2</ele>
        <time>2012-08-29T05:22:56Z</time>
      </trkpt>
      <trkpt lat="45.28721" lon="5.83159">
        <ele>896.8</ele>
        <time>2012-08-29T05:22:58Z</time>
      </trkpt>
      <trkpt lat="45.28717" lon="5.83167">
        <ele>898.6</ele>
        <time>2012-08-29T05:23:04Z</time>
      </trkpt>
      <trkpt lat="45.28711" lon="5.83172">
        <ele>899.8</ele>
        <time>2012-08-29T05:23:09Z</time>
      </trkpt>
      <trkpt lat="45.28707" lon="5.83179">
        <ele>901.2</ele>
        <time>2012-08-29T05:23:14Z</time>
      </trkpt>
      <trkpt lat="45.28706" lon="5.8318">
        <ele>901.6</ele>
        <time>2012-08-29T05:23:16Z</time>
      </trkpt>
      <trkpt lat="45.28705" lon="5.83184">
        <ele>902.2</ele>
        <time>2012-08-29T05:23:19Z</time>
      </trkpt>
      <trkpt lat="45.28699" lon="5.83194">
        <ele>903.6</ele>
        <time>2012-08-29T05:23:25Z</time>
      </trkpt>
      <trkpt lat="45.28698" lon="5.83195">
        <ele>903.8</ele>
        <time>2012-08-29T05:23:26Z</time>
      </trkpt>
      <trkpt lat="45.28695" lon="5.83202">
        <ele>905</ele>
        <time>2012-08-29T05:23:30Z</time>
      </trkpt>
      <trkpt lat="45.28689" lon="5.83213">
        <ele>906.8</ele>
        <time>2012-08-29T05:23:36Z</time>
      </trkpt>
      <trkpt lat="45.28688" lon="5.83214">
        <ele>907.2</ele>
        <time>2012-08-29T05:23:37Z</time>
      </trkpt>
      <trkpt lat="45.28685" lon="5.83216">
        <ele>907.8</ele>
        <time>2012-08-29T05:23:39Z</time>
      </trkpt>
      <trkpt lat="45.28681" lon="5.8322">
        <ele>909.4</ele>
        <time>2012-08-29T05:23:43Z</time>
      </trkpt>
      <trkpt lat="45.28675" lon="5.83226">
        <ele>911.4</ele>
        <time>2012-08-29T05:23:48Z</time>
      </trkpt>
      <trkpt lat="45.28674" lon="5.83227">
        <ele>911.8</ele>
        <time>2012-08-29T05:23:49Z</time>
      </trkpt>
      <trkpt lat="45.28673" lon="5.83229">
        <ele>912.6</ele>
        <time>2012-08-29T05:23:51Z</time>
      </trkpt>
      <trkpt lat="45.2867" lon="5.83237">
        <ele>914.2</ele>
        <time>2012-08-29T05:23:55Z</time>
      </trkpt>
      <trkpt lat="45.28667" lon="5.83243">
        <ele>915.8</ele>
        <time>2012-08-29T05:23:59Z</time>
      </trkpt>
      <trkpt lat="45.2866" lon="5.83246">
        <ele>917.4</ele>
        <time>2012-08-29T05:24:03Z</time>
      </trkpt>
      <trkpt lat="45.28659" lon="5.83248">
        <ele>917.8</ele>
        <time>2012-08-29T05:24:04Z</time>
      </trkpt>
      <trkpt lat="45.28651" lon="5.83257">
        <ele>920</ele>
        <time>2012-08-29T05:24:10Z</time>
      </trkpt>
      <trkpt lat="45.2865" lon="5.8326">
        <ele>920.4</ele>
        <time>2012-08-29T05:24:11Z</time>
      </trkpt>
      <trkpt lat="45.28648" lon="5.83267">
        <ele>921.4</ele>
        <time>2012-08-29T05:24:15Z</time>
      </trkpt>
      <trkpt lat="45.28647" lon="5.83268">
        <ele>921.8</ele>
        <time>2012-08-29T05:24:16Z</time>
      </trkpt>
      <trkpt lat="45.28646" lon="5.83269">
        <ele>922.2</ele>
        <time>2012-08-29T05:24:17Z</time>
      </trkpt>
      <trkpt lat="45.2864" lon="5.83274">
        <ele>923.2</ele>
        <time>2012-08-29T05:24:21Z</time>
      </trkpt>
      <trkpt lat="45.2864" lon="5.83276">
        <ele>923.6</ele>
        <time>2012-08-29T05:24:22Z</time>
      </trkpt>
      <trkpt lat="45.28638" lon="5.83278">
        <ele>923.8</ele>
        <time>2012-08-29T05:24:24Z</time>
      </trkpt>
      <trkpt lat="45.28636" lon="5.83284">
        <ele>925.2</ele>
        <time>2012-08-29T05:24:28Z</time>
      </trkpt>
      <trkpt lat="45.28635" lon="5.83286">
        <ele>925.6</ele>
        <time>2012-08-29T05:24:30Z</time>
      </trkpt>
      <trkpt lat="45.28633" lon="5.83288">
        <ele>926</ele>
        <time>2012-08-29T05:24:32Z</time>
      </trkpt>
      <trkpt lat="45.28631" lon="5.8329">
        <ele>926.6</ele>
        <time>2012-08-29T05:24:34Z</time>
      </trkpt>
      <trkpt lat="45.2863" lon="5.83295">
        <ele>928</ele>
        <time>2012-08-29T05:24:40Z</time>
      </trkpt>
      <trkpt lat="45.28634" lon="5.83295">
        <ele>929</ele>
        <time>2012-08-29T05:24:44Z</time>
      </trkpt>
      <trkpt lat="45.28636" lon="5.83294">
        <ele>929.6</ele>
        <time>2012-08-29T05:24:46Z</time>
      </trkpt>
      <trkpt lat="45.28642" lon="5.83292">
        <ele>930.4</ele>
        <time>2012-08-29T05:24:51Z</time>
      </trkpt>
      <trkpt lat="45.28645" lon="5.8329">
        <ele>931.6</ele>
        <time>2012-08-29T05:24:55Z</time>
      </trkpt>
      <trkpt lat="45.28646" lon="5.8329">
        <ele>932</ele>
        <time>2012-08-29T05:24:57Z</time>
      </trkpt>
      <trkpt lat="45.28653" lon="5.83284">
        <ele>933.2</ele>
        <time>2012-08-29T05:25:03Z</time>
      </trkpt>
      <trkpt lat="45.28657" lon="5.83281">
        <ele>934</ele>
        <time>2012-08-29T05:25:06Z</time>
      </trkpt>
      <trkpt lat="45.28661" lon="5.83281">
        <ele>934.6</ele>
        <time>2012-08-29T05:25:09Z</time>
      </trkpt>
      <trkpt lat="45.28665" lon="5.83284">
        <ele>936.2</ele>
        <time>2012-08-29T05:25:14Z</time>
      </trkpt>
      <trkpt lat="45.28667" lon="5.83283">
        <ele>936.6</ele>
        <time>2012-08-29T05:25:16Z</time>
      </trkpt>
      <trkpt lat="45.28669" lon="5.8328">
        <ele>937.2</ele>
        <time>2012-08-29T05:25:19Z</time>
      </trkpt>
      <trkpt lat="45.28672" lon="5.83276">
        <ele>938.2</ele>
        <time>2012-08-29T05:25:22Z</time>
      </trkpt>
      <trkpt lat="45.28674" lon="5.83273">
        <ele>938.6</ele>
        <time>2012-08-29T05:25:24Z</time>
      </trkpt>
      <trkpt lat="45.28682" lon="5.83269">
        <ele>939.8</ele>
        <time>2012-08-29T05:25:30Z</time>
      </trkpt>
      <trkpt lat="45.28684" lon="5.83268">
        <ele>940.2</ele>
        <time>2012-08-29T05:25:31Z</time>
      </trkpt>
      <trkpt lat="45.2869" lon="5.83265">
        <ele>941</ele>
        <time>2012-08-29T05:25:35Z</time>
      </trkpt>
      <trkpt lat="45.28692" lon="5.83264">
        <ele>941.2</ele>
        <time>2012-08-29T05:25:36Z</time>
      </trkpt>
      <trkpt lat="45.28698" lon="5.83265">
        <ele>942.4</ele>
        <time>2012-08-29T05:25:41Z</time>
      </trkpt>
      <trkpt lat="45.28703" lon="5.83263">
        <ele>943.2</ele>
        <time>2012-08-29T05:25:45Z</time>
      </trkpt>
      <trkpt lat="45.28709" lon="5.83258">
        <ele>944.4</ele>
        <time>2012-08-29T05:25:49Z</time>
      </trkpt>
      <trkpt lat="45.28714" lon="5.83252">
        <ele>945.6</ele>
        <time>2012-08-29T05:25:54Z</time>
      </trkpt>
      <trkpt lat="45.28715" lon="5.83251">
        <ele>946</ele>
        <time>2012-08-29T05:25:55Z</time>
      </trkpt>
      <trkpt lat="45.2872" lon="5.83249">
        <ele>947</ele>
        <time>2012-08-29T05:25:59Z</time>
      </trkpt>
      <trkpt lat="45.28722" lon="5.83248">
        <ele>947.2</ele>
        <time>2012-08-29T05:26:00Z</time>
      </trkpt>
      <trkpt lat="45.28728" lon="5.83243">
        <ele>948.4</ele>
        <time>2012-08-29T05:26:04Z</time>
      </trkpt>
      <trkpt lat="45.2873" lon="5.83242">
        <ele>948.6</ele>
        <time>2012-08-29T05:26:05Z</time>
      </trkpt>
      <trkpt lat="45.28735" lon="5.83242">
        <ele>949.6</ele>
        <time>2012-08-29T05:26:10Z</time>
      </trkpt>
      <trkpt lat="45.28742" lon="5.83243">
        <ele>951</ele>
        <time>2012-08-29T05:26:15Z</time>
      </trkpt>
      <trkpt lat="45.28744" lon="5.83242">
        <ele>951.4</ele>
        <time>2012-08-29T05:26:17Z</time>
      </trkpt>
      <trkpt lat="45.28754" lon="5.83236">
        <ele>952.8</ele>
        <time>2012-08-29T05:26:23Z</time>
      </trkpt>
      <trkpt lat="45.28755" lon="5.83234">
        <ele>953</ele>
        <time>2012-08-29T05:26:24Z</time>
      </trkpt>
      <trkpt lat="45.28761" lon="5.83228">
        <ele>954</ele>
        <time>2012-08-29T05:26:29Z</time>
      </trkpt>
      <trkpt lat="45.28766" lon="5.83219">
        <ele>955.2</ele>
        <time>2012-08-29T05:26:34Z</time>
      </trkpt>
      <trkpt lat="45.28768" lon="5.83217">
        <ele>955.6</ele>
        <time>2012-08-29T05:26:36Z</time>
      </trkpt>
      <trkpt lat="45.28776" lon="5.8321">
        <ele>956.8</ele>
        <time>2012-08-29T05:26:42Z</time>
      </trkpt>
      <trkpt lat="45.28779" lon="5.83201">
        <ele>958</ele>
        <time>2012-08-29T05:26:47Z</time>
      </trkpt>
      <trkpt lat="45.2878" lon="5.83199">
        <ele>958.4</ele>
        <time>2012-08-29T05:26:48Z</time>
      </trkpt>
      <trkpt lat="45.28782" lon="5.83195">
        <ele>959</ele>
        <time>2012-08-29T05:26:50Z</time>
      </trkpt>
      <trkpt lat="45.28786" lon="5.83198">
        <ele>960.2</ele>
        <time>2012-08-29T05:26:55Z</time>
      </trkpt>
      <trkpt lat="45.28786" lon="5.83201">
        <ele>961.2</ele>
        <time>2012-08-29T05:26:58Z</time>
      </trkpt>
      <trkpt lat="45.28785" lon="5.83207">
        <ele>962.4</ele>
        <time>2012-08-29T05:27:03Z</time>
      </trkpt>
      <trkpt lat="45.28785" lon="5.8321">
        <ele>962.8</ele>
        <time>2012-08-29T05:27:06Z</time>
      </trkpt>
      <trkpt lat="45.28783" lon="5.83222">
        <ele>963.6</ele>
        <time>2012-08-29T05:27:13Z</time>
      </trkpt>
      <trkpt lat="45.28782" lon="5.83226">
        <ele>963.6</ele>
        <time>2012-08-29T05:27:15Z</time>
      </trkpt>
      <trkpt lat="45.28781" lon="5.83229">
        <ele>964.2</ele>
        <time>2012-08-29T05:27:17Z</time>
      </trkpt>
      <trkpt lat="45.2878" lon="5.83235">
        <ele>965</ele>
        <time>2012-08-29T05:27:22Z</time>
      </trkpt>
      <trkpt lat="45.28779" lon="5.83235">
        <ele>965</ele>
        <time>2012-08-29T05:27:23Z</time>
      </trkpt>
      <trkpt lat="45.28771" lon="5.83238">
        <ele>965.6</ele>
        <time>2012-08-29T05:27:28Z</time>
      </trkpt>
      <trkpt lat="45.28768" lon="5.8324">
        <ele>965.6</ele>
        <time>2012-08-29T05:27:30Z</time>
      </trkpt>
      <trkpt lat="45.28764" lon="5.83245">
        <ele>965.8</ele>
        <time>2012-08-29T05:27:35Z</time>
      </trkpt>
      <trkpt lat="45.28762" lon="5.83249">
        <ele>966.4</ele>
        <time>2012-08-29T05:27:37Z</time>
      </trkpt>
      <trkpt lat="45.28761" lon="5.83251">
        <ele>966.8</ele>
        <time>2012-08-29T05:27:39Z</time>
      </trkpt>
      <trkpt lat="45.28757" lon="5.83258">
        <ele>967.2</ele>
        <time>2012-08-29T05:27:43Z</time>
      </trkpt>
      <trkpt lat="45.28753" lon="5.83263">
        <ele>967.6</ele>
        <time>2012-08-29T05:27:46Z</time>
      </trkpt>
      <trkpt lat="45.28749" lon="5.83268">
        <ele>968.2</ele>
        <time>2012-08-29T05:27:50Z</time>
      </trkpt>
      <trkpt lat="45.28747" lon="5.8327">
        <ele>968.6</ele>
        <time>2012-08-29T05:27:52Z</time>
      </trkpt>
      <trkpt lat="45.28743" lon="5.83281">
        <ele>969.4</ele>
        <time>2012-08-29T05:27:58Z</time>
      </trkpt>
      <trkpt lat="45.28736" lon="5.83291">
        <ele>971</ele>
        <time>2012-08-29T05:28:04Z</time>
      </trkpt>
      <trkpt lat="45.28733" lon="5.83292">
        <ele>971.2</ele>
        <time>2012-08-29T05:28:06Z</time>
      </trkpt>
      <trkpt lat="45.28727" lon="5.83298">
        <ele>971.8</ele>
        <time>2012-08-29T05:28:11Z</time>
      </trkpt>
      <trkpt lat="45.28724" lon="5.83304">
        <ele>972.2</ele>
        <time>2012-08-29T05:28:15Z</time>
      </trkpt>
      <trkpt lat="45.28723" lon="5.83307">
        <ele>972.8</ele>
        <time>2012-08-29T05:28:17Z</time>
      </trkpt>
      <trkpt lat="45.28723" lon="5.83316">
        <ele>973.6</ele>
        <time>2012-08-29T05:28:22Z</time>
      </trkpt>
      <trkpt lat="45.28717" lon="5.8332">
        <ele>974</ele>
        <time>2012-08-29T05:28:26Z</time>
      </trkpt>
      <trkpt lat="45.28715" lon="5.83321">
        <ele>974</ele>
        <time>2012-08-29T05:28:27Z</time>
      </trkpt>
      <trkpt lat="45.28711" lon="5.83324">
        <ele>974.8</ele>
        <time>2012-08-29T05:28:30Z</time>
      </trkpt>
      <trkpt lat="45.2871" lon="5.83325">
        <ele>975</ele>
        <time>2012-08-29T05:28:31Z</time>
      </trkpt>
      <trkpt lat="45.28707" lon="5.83331">
        <ele>975.4</ele>
        <time>2012-08-29T05:28:34Z</time>
      </trkpt>
      <trkpt lat="45.28702" lon="5.83339">
        <ele>976</ele>
        <time>2012-08-29T05:28:40Z</time>
      </trkpt>
      <trkpt lat="45.287" lon="5.83344">
        <ele>976.4</ele>
        <time>2012-08-29T05:28:44Z</time>
      </trkpt>
      <trkpt lat="45.28691" lon="5.83353">
        <ele>977.6</ele>
        <time>2012-08-29T05:28:51Z</time>
      </trkpt>
      <trkpt lat="45.28688" lon="5.83358">
        <ele>978</ele>
        <time>2012-08-29T05:28:55Z</time>
      </trkpt>
      <trkpt lat="45.28685" lon="5.83363">
        <ele>979</ele>
        <time>2012-08-29T05:29:00Z</time>
      </trkpt>
      <trkpt lat="45.28686" lon="5.83368">
        <ele>979.4</ele>
        <time>2012-08-29T05:29:03Z</time>
      </trkpt>
      <trkpt lat="45.28688" lon="5.83366">
        <ele>980.8</ele>
        <time>2012-08-29T05:29:09Z</time>
      </trkpt>
      <trkpt lat="45.2869" lon="5.83367">
        <ele>981.6</ele>
        <time>2012-08-29T05:29:13Z</time>
      </trkpt>
      <trkpt lat="45.28693" lon="5.83368">
        <ele>983</ele>
        <time>2012-08-29T05:29:18Z</time>
      </trkpt>
      <trkpt lat="45.28697" lon="5.83369">
        <ele>984</ele>
        <time>2012-08-29T05:29:22Z</time>
      </trkpt>
      <trkpt lat="45.28701" lon="5.83369">
        <ele>985.4</ele>
        <time>2012-08-29T05:29:27Z</time>
      </trkpt>
      <trkpt lat="45.28702" lon="5.83369">
        <ele>985.6</ele>
        <time>2012-08-29T05:29:28Z</time>
      </trkpt>
      <trkpt lat="45.28705" lon="5.83366">
        <ele>986.4</ele>
        <time>2012-08-29T05:29:31Z</time>
      </trkpt>
      <trkpt lat="45.28707" lon="5.83364">
        <ele>987</ele>
        <time>2012-08-29T05:29:33Z</time>
      </trkpt>
      <trkpt lat="45.28709" lon="5.83362">
        <ele>987.8</ele>
        <time>2012-08-29T05:29:36Z</time>
      </trkpt>
      <trkpt lat="45.28711" lon="5.83361">
        <ele>988.4</ele>
        <time>2012-08-29T05:29:38Z</time>
      </trkpt>
      <trkpt lat="45.28714" lon="5.83359">
        <ele>989.4</ele>
        <time>2012-08-29T05:29:42Z</time>
      </trkpt>
      <trkpt lat="45.28716" lon="5.83357">
        <ele>990.2</ele>
        <time>2012-08-29T05:29:44Z</time>
      </trkpt>
      <trkpt lat="45.28723" lon="5.83359">
        <ele>991.6</ele>
        <time>2012-08-29T05:29:49Z</time>
      </trkpt>
      <trkpt lat="45.28724" lon="5.83359">
        <ele>992.2</ele>
        <time>2012-08-29T05:29:50Z</time>
      </trkpt>
      <trkpt lat="45.28726" lon="5.83359">
        <ele>992.6</ele>
        <time>2012-08-29T05:29:51Z</time>
      </trkpt>
      <trkpt lat="45.28727" lon="5.83358">
        <ele>993</ele>
        <time>2012-08-29T05:29:52Z</time>
      </trkpt>
      <trkpt lat="45.2873" lon="5.83352">
        <ele>993.8</ele>
        <time>2012-08-29T05:29:55Z</time>
      </trkpt>
      <trkpt lat="45.28735" lon="5.83346">
        <ele>995.4</ele>
        <time>2012-08-29T05:29:59Z</time>
      </trkpt>
      <trkpt lat="45.28737" lon="5.83344">
        <ele>995.8</ele>
        <time>2012-08-29T05:30:01Z</time>
      </trkpt>
      <trkpt lat="45.28743" lon="5.83338">
        <ele>997.8</ele>
        <time>2012-08-29T05:30:07Z</time>
      </trkpt>
      <trkpt lat="45.2875" lon="5.83333">
        <ele>999</ele>
        <time>2012-08-29T05:30:12Z</time>
      </trkpt>
      <trkpt lat="45.28751" lon="5.83333">
        <ele>999.4</ele>
        <time>2012-08-29T05:30:13Z</time>
      </trkpt>
      <trkpt lat="45.28755" lon="5.83331">
        <ele>1000.8</ele>
        <time>2012-08-29T05:30:18Z</time>
      </trkpt>
      <trkpt lat="45.28763" lon="5.83331">
        <ele>1002.6</ele>
        <time>2012-08-29T05:30:24Z</time>
      </trkpt>
      <trkpt lat="45.28769" lon="5.83328">
        <ele>1004.4</ele>
        <time>2012-08-29T05:30:30Z</time>
      </trkpt>
      <trkpt lat="45.28774" lon="5.83322">
        <ele>1005.6</ele>
        <time>2012-08-29T05:30:34Z</time>
      </trkpt>
      <trkpt lat="45.28775" lon="5.83321">
        <ele>1006</ele>
        <time>2012-08-29T05:30:35Z</time>
      </trkpt>
      <trkpt lat="45.28786" lon="5.83312">
        <ele>1008.6</ele>
        <time>2012-08-29T05:30:43Z</time>
      </trkpt>
      <trkpt lat="45.28788" lon="5.83306">
        <ele>1009.6</ele>
        <time>2012-08-29T05:30:46Z</time>
      </trkpt>
      <trkpt lat="45.28794" lon="5.83304">
        <ele>1012</ele>
        <time>2012-08-29T05:30:53Z</time>
      </trkpt>
      <trkpt lat="45.28797" lon="5.833">
        <ele>1013.2</ele>
        <time>2012-08-29T05:30:57Z</time>
      </trkpt>
      <trkpt lat="45.28804" lon="5.83295">
        <ele>1014.6</ele>
        <time>2012-08-29T05:31:01Z</time>
      </trkpt>
      <trkpt lat="45.28811" lon="5.83287">
        <ele>1016.6</ele>
        <time>2012-08-29T05:31:07Z</time>
      </trkpt>
      <trkpt lat="45.28818" lon="5.83283">
        <ele>1018</ele>
        <time>2012-08-29T05:31:13Z</time>
      </trkpt>
      <trkpt lat="45.2882" lon="5.83282">
        <ele>1019.2</ele>
        <time>2012-08-29T05:31:17Z</time>
      </trkpt>
      <trkpt lat="45.28821" lon="5.83283">
        <ele>1020.6</ele>
        <time>2012-08-29T05:31:24Z</time>
      </trkpt>
      <trkpt lat="45.28817" lon="5.83286">
        <ele>1021.2</ele>
        <time>2012-08-29T05:31:27Z</time>
      </trkpt>
      <trkpt lat="45.28814" lon="5.83289">
        <ele>1022.2</ele>
        <time>2012-08-29T05:31:32Z</time>
      </trkpt>
      <trkpt lat="45.28812" lon="5.83294">
        <ele>1022.8</ele>
        <time>2012-08-29T05:31:36Z</time>
      </trkpt>
      <trkpt lat="45.28808" lon="5.83299">
        <ele>1023.4</ele>
        <time>2012-08-29T05:31:41Z</time>
      </trkpt>
      <trkpt lat="45.28807" lon="5.83301">
        <ele>1023.6</ele>
        <time>2012-08-29T05:31:42Z</time>
      </trkpt>
      <trkpt lat="45.28803" lon="5.83302">
        <ele>1024.4</ele>
        <time>2012-08-29T05:31:46Z</time>
      </trkpt>
      <trkpt lat="45.28799" lon="5.83308">
        <ele>1025</ele>
        <time>2012-08-29T05:31:50Z</time>
      </trkpt>
      <trkpt lat="45.28798" lon="5.83312">
        <ele>1025.2</ele>
        <time>2012-08-29T05:31:53Z</time>
      </trkpt>
      <trkpt lat="45.28795" lon="5.83321">
        <ele>1026.2</ele>
        <time>2012-08-29T05:31:59Z</time>
      </trkpt>
      <trkpt lat="45.28795" lon="5.83323">
        <ele>1026.4</ele>
        <time>2012-08-29T05:32:00Z</time>
      </trkpt>
      <trkpt lat="45.28794" lon="5.83328">
        <ele>1027</ele>
        <time>2012-08-29T05:32:03Z</time>
      </trkpt>
      <trkpt lat="45.28792" lon="5.83335">
        <ele>1027.4</ele>
        <time>2012-08-29T05:32:07Z</time>
      </trkpt>
      <trkpt lat="45.28785" lon="5.83343">
        <ele>1028.6</ele>
        <time>2012-08-29T05:32:13Z</time>
      </trkpt>
      <trkpt lat="45.28779" lon="5.83347">
        <ele>1029.2</ele>
        <time>2012-08-29T05:32:17Z</time>
      </trkpt>
      <trkpt lat="45.28775" lon="5.83349">
        <ele>1029.6</ele>
        <time>2012-08-29T05:32:20Z</time>
      </trkpt>
      <trkpt lat="45.28771" lon="5.83352">
        <ele>1029.8</ele>
        <time>2012-08-29T05:32:23Z</time>
      </trkpt>
      <trkpt lat="45.2877" lon="5.83354">
        <ele>1030.2</ele>
        <time>2012-08-29T05:32:25Z</time>
      </trkpt>
      <trkpt lat="45.28769" lon="5.83364">
        <ele>1031.2</ele>
        <time>2012-08-29T05:32:31Z</time>
      </trkpt>
      <trkpt lat="45.28768" lon="5.83372">
        <ele>1031.6</ele>
        <time>2012-08-29T05:32:36Z</time>
      </trkpt>
      <trkpt lat="45.2877" lon="5.83379">
        <ele>1031.8</ele>
        <time>2012-08-29T05:32:39Z</time>
      </trkpt>
      <trkpt lat="45.28768" lon="5.83383">
        <ele>1032.4</ele>
        <time>2012-08-29T05:32:41Z</time>
      </trkpt>
      <trkpt lat="45.28764" lon="5.83385">
        <ele>1032.8</ele>
        <time>2012-08-29T05:32:44Z</time>
      </trkpt>
      <trkpt lat="45.28761" lon="5.83386">
        <ele>1033.2</ele>
        <time>2012-08-29T05:32:47Z</time>
      </trkpt>
      <trkpt lat="45.28756" lon="5.83399">
        <ele>1034.4</ele>
        <time>2012-08-29T05:32:54Z</time>
      </trkpt>
      <trkpt lat="45.28754" lon="5.83402">
        <ele>1034.8</ele>
        <time>2012-08-29T05:32:56Z</time>
      </trkpt>
      <trkpt lat="45.28752" lon="5.83404">
        <ele>1035</ele>
        <time>2012-08-29T05:32:58Z</time>
      </trkpt>
      <trkpt lat="45.28749" lon="5.83412">
        <ele>1035.6</ele>
        <time>2012-08-29T05:33:03Z</time>
      </trkpt>
      <trkpt lat="45.28747" lon="5.83413">
        <ele>1035.8</ele>
        <time>2012-08-29T05:33:04Z</time>
      </trkpt>
      <trkpt lat="45.28746" lon="5.83414">
        <ele>1036.2</ele>
        <time>2012-08-29T05:33:05Z</time>
      </trkpt>
      <trkpt lat="45.28739" lon="5.83421">
        <ele>1037</ele>
        <time>2012-08-29T05:33:10Z</time>
      </trkpt>
      <trkpt lat="45.2873" lon="5.83422">
        <ele>1037.8</ele>
        <time>2012-08-29T05:33:15Z</time>
      </trkpt>
      <trkpt lat="45.2873" lon="5.83424">
        <ele>1038.2</ele>
        <time>2012-08-29T05:33:16Z</time>
      </trkpt>
      <trkpt lat="45.2873" lon="5.83425">
        <ele>1038.6</ele>
        <time>2012-08-29T05:33:18Z</time>
      </trkpt>
      <trkpt lat="45.28732" lon="5.83428">
        <ele>1039.2</ele>
        <time>2012-08-29T05:33:22Z</time>
      </trkpt>
      <trkpt lat="45.28733" lon="5.83428">
        <ele>1040</ele>
        <time>2012-08-29T05:33:24Z</time>
      </trkpt>
      <trkpt lat="45.28737" lon="5.83429">
        <ele>1040.8</ele>
        <time>2012-08-29T05:33:28Z</time>
      </trkpt>
      <trkpt lat="45.28743" lon="5.8343">
        <ele>1042</ele>
        <time>2012-08-29T05:33:33Z</time>
      </trkpt>
      <trkpt lat="45.28744" lon="5.83429">
        <ele>1042.4</ele>
        <time>2012-08-29T05:33:34Z</time>
      </trkpt>
      <trkpt lat="45.28746" lon="5.83429">
        <ele>1042.8</ele>
        <time>2012-08-29T05:33:36Z</time>
      </trkpt>
      <trkpt lat="45.28753" lon="5.83427">
        <ele>1044</ele>
        <time>2012-08-29T05:33:42Z</time>
      </trkpt>
      <trkpt lat="45.28757" lon="5.83426">
        <ele>1044.8</ele>
        <time>2012-08-29T05:33:45Z</time>
      </trkpt>
      <trkpt lat="45.28759" lon="5.83423">
        <ele>1045.2</ele>
        <time>2012-08-29T05:33:47Z</time>
      </trkpt>
      <trkpt lat="45.28761" lon="5.83418">
        <ele>1045.6</ele>
        <time>2012-08-29T05:33:50Z</time>
      </trkpt>
      <trkpt lat="45.28763" lon="5.83416">
        <ele>1045.8</ele>
        <time>2012-08-29T05:33:52Z</time>
      </trkpt>
      <trkpt lat="45.28768" lon="5.83413">
        <ele>1047</ele>
        <time>2012-08-29T05:33:58Z</time>
      </trkpt>
      <trkpt lat="45.28769" lon="5.83413">
        <ele>1047.2</ele>
        <time>2012-08-29T05:33:59Z</time>
      </trkpt>
      <trkpt lat="45.28775" lon="5.8341">
        <ele>1048.4</ele>
        <time>2012-08-29T05:34:05Z</time>
      </trkpt>
      <trkpt lat="45.28777" lon="5.83398">
        <ele>1049.4</ele>
        <time>2012-08-29T05:34:10Z</time>
      </trkpt>
      <trkpt lat="45.28781" lon="5.83389">
        <ele>1050.6</ele>
        <time>2012-08-29T05:34:15Z</time>
      </trkpt>
      <trkpt lat="45.28784" lon="5.83389">
        <ele>1051.2</ele>
        <time>2012-08-29T05:34:18Z</time>
      </trkpt>
      <trkpt lat="45.28785" lon="5.83391">
        <ele>1051.6</ele>
        <time>2012-08-29T05:34:20Z</time>
      </trkpt>
      <trkpt lat="45.28793" lon="5.83389">
        <ele>1053.2</ele>
        <time>2012-08-29T05:34:26Z</time>
      </trkpt>
      <trkpt lat="45.28797" lon="5.83388">
        <ele>1053.8</ele>
        <time>2012-08-29T05:34:29Z</time>
      </trkpt>
      <trkpt lat="45.28803" lon="5.83385">
        <ele>1054.8</ele>
        <time>2012-08-29T05:34:33Z</time>
      </trkpt>
      <trkpt lat="45.28813" lon="5.8338">
        <ele>1056.4</ele>
        <time>2012-08-29T05:34:39Z</time>
      </trkpt>
      <trkpt lat="45.28818" lon="5.8338">
        <ele>1057.2</ele>
        <time>2012-08-29T05:34:42Z</time>
      </trkpt>
      <trkpt lat="45.28824" lon="5.83371">
        <ele>1058.4</ele>
        <time>2012-08-29T05:34:48Z</time>
      </trkpt>
      <trkpt lat="45.28825" lon="5.83369">
        <ele>1058.8</ele>
        <time>2012-08-29T05:34:49Z</time>
      </trkpt>
      <trkpt lat="45.28827" lon="5.83367">
        <ele>1059.4</ele>
        <time>2012-08-29T05:34:51Z</time>
      </trkpt>
      <trkpt lat="45.28828" lon="5.83363">
        <ele>1059.8</ele>
        <time>2012-08-29T05:34:53Z</time>
      </trkpt>
      <trkpt lat="45.28832" lon="5.83358">
        <ele>1060.8</ele>
        <time>2012-08-29T05:34:58Z</time>
      </trkpt>
      <trkpt lat="45.28831" lon="5.83361">
        <ele>1061.8</ele>
        <time>2012-08-29T05:35:01Z</time>
      </trkpt>
      <trkpt lat="45.28831" lon="5.83363">
        <ele>1062.6</ele>
        <time>2012-08-29T05:35:05Z</time>
      </trkpt>
      <trkpt lat="45.2883" lon="5.83372">
        <ele>1064</ele>
        <time>2012-08-29T05:35:12Z</time>
      </trkpt>
      <trkpt lat="45.28828" lon="5.83381">
        <ele>1064.8</ele>
        <time>2012-08-29T05:35:17Z</time>
      </trkpt>
      <trkpt lat="45.28822" lon="5.83385">
        <ele>1066.2</ele>
        <time>2012-08-29T05:35:23Z</time>
      </trkpt>
      <trkpt lat="45.28816" lon="5.83392">
        <ele>1067</ele>
        <time>2012-08-29T05:35:28Z</time>
      </trkpt>
      <trkpt lat="45.28811" lon="5.83398">
        <ele>1068</ele>
        <time>2012-08-29T05:35:33Z</time>
      </trkpt>
      <trkpt lat="45.2881" lon="5.83399">
        <ele>1068.2</ele>
        <time>2012-08-29T05:35:34Z</time>
      </trkpt>
      <trkpt lat="45.28806" lon="5.83401">
        <ele>1068.8</ele>
        <time>2012-08-29T05:35:37Z</time>
      </trkpt>
      <trkpt lat="45.28806" lon="5.83403">
        <ele>1069.6</ele>
        <time>2012-08-29T05:35:42Z</time>
      </trkpt>
      <trkpt lat="45.28811" lon="5.83404">
        <ele>1070.6</ele>
        <time>2012-08-29T05:35:46Z</time>
      </trkpt>
      <trkpt lat="45.28815" lon="5.83405">
        <ele>1071.2</ele>
        <time>2012-08-29T05:35:49Z</time>
      </trkpt>
      <trkpt lat="45.2882" lon="5.83404">
        <ele>1072.2</ele>
        <time>2012-08-29T05:35:53Z</time>
      </trkpt>
      <trkpt lat="45.28822" lon="5.83404">
        <ele>1072.6</ele>
        <time>2012-08-29T05:35:55Z</time>
      </trkpt>
      <trkpt lat="45.28826" lon="5.83403">
        <ele>1073.4</ele>
        <time>2012-08-29T05:35:59Z</time>
      </trkpt>
      <trkpt lat="45.28832" lon="5.834">
        <ele>1074.8</ele>
        <time>2012-08-29T05:36:04Z</time>
      </trkpt>
      <trkpt lat="45.28832" lon="5.83398">
        <ele>1075</ele>
        <time>2012-08-29T05:36:05Z</time>
      </trkpt>
      <trkpt lat="45.28837" lon="5.83395">
        <ele>1076.4</ele>
        <time>2012-08-29T05:36:09Z</time>
      </trkpt>
      <trkpt lat="45.28839" lon="5.83391">
        <ele>1076.8</ele>
        <time>2012-08-29T05:36:11Z</time>
      </trkpt>
      <trkpt lat="45.28845" lon="5.83372">
        <ele>1079.4</ele>
        <time>2012-08-29T05:36:19Z</time>
      </trkpt>
      <trkpt lat="45.28846" lon="5.83369">
        <ele>1080.2</ele>
        <time>2012-08-29T05:36:21Z</time>
      </trkpt>
      <trkpt lat="45.28849" lon="5.83366">
        <ele>1082</ele>
        <time>2012-08-29T05:36:26Z</time>
      </trkpt>
      <trkpt lat="45.2885" lon="5.83366">
        <ele>1082.4</ele>
        <time>2012-08-29T05:36:27Z</time>
      </trkpt>
      <trkpt lat="45.28851" lon="5.83367">
        <ele>1082.6</ele>
        <time>2012-08-29T05:36:28Z</time>
      </trkpt>
      <trkpt lat="45.28853" lon="5.83368">
        <ele>1083.6</ele>
        <time>2012-08-29T05:36:31Z</time>
      </trkpt>
      <trkpt lat="45.28851" lon="5.83368">
        <ele>1084.4</ele>
        <time>2012-08-29T05:36:33Z</time>
      </trkpt>
      <trkpt lat="45.28848" lon="5.8337">
        <ele>1085.2</ele>
        <time>2012-08-29T05:36:36Z</time>
      </trkpt>
      <trkpt lat="45.28847" lon="5.83378">
        <ele>1087.2</ele>
        <time>2012-08-29T05:36:42Z</time>
      </trkpt>
      <trkpt lat="45.28847" lon="5.83382">
        <ele>1087.8</ele>
        <time>2012-08-29T05:36:45Z</time>
      </trkpt>
      <trkpt lat="45.28847" lon="5.83388">
        <ele>1088.6</ele>
        <time>2012-08-29T05:36:48Z</time>
      </trkpt>
      <trkpt lat="45.28843" lon="5.83399">
        <ele>1090.2</ele>
        <time>2012-08-29T05:36:54Z</time>
      </trkpt>
      <trkpt lat="45.28843" lon="5.83401">
        <ele>1090.4</ele>
        <time>2012-08-29T05:36:55Z</time>
      </trkpt>
      <trkpt lat="45.2884" lon="5.83403">
        <ele>1090.6</ele>
        <time>2012-08-29T05:36:57Z</time>
      </trkpt>
      <trkpt lat="45.28835" lon="5.83412">
        <ele>1092.2</ele>
        <time>2012-08-29T05:37:04Z</time>
      </trkpt>
      <trkpt lat="45.28831" lon="5.83418">
        <ele>1093</ele>
        <time>2012-08-29T05:37:09Z</time>
      </trkpt>
      <trkpt lat="45.28826" lon="5.83423">
        <ele>1094.2</ele>
        <time>2012-08-29T05:37:14Z</time>
      </trkpt>
      <trkpt lat="45.28823" lon="5.83425">
        <ele>1094.6</ele>
        <time>2012-08-29T05:37:16Z</time>
      </trkpt>
      <trkpt lat="45.28821" lon="5.83429">
        <ele>1094.8</ele>
        <time>2012-08-29T05:37:18Z</time>
      </trkpt>
      <trkpt lat="45.28818" lon="5.83432">
        <ele>1095.2</ele>
        <time>2012-08-29T05:37:21Z</time>
      </trkpt>
      <trkpt lat="45.28819" lon="5.83437">
        <ele>1095.8</ele>
        <time>2012-08-29T05:37:27Z</time>
      </trkpt>
      <trkpt lat="45.28821" lon="5.83436">
        <ele>1096.2</ele>
        <time>2012-08-29T05:37:29Z</time>
      </trkpt>
      <trkpt lat="45.28821" lon="5.83435">
        <ele>1096.6</ele>
        <time>2012-08-29T05:37:31Z</time>
      </trkpt>
      <trkpt lat="45.28824" lon="5.83431">
        <ele>1097.4</ele>
        <time>2012-08-29T05:37:35Z</time>
      </trkpt>
      <trkpt lat="45.28826" lon="5.8343">
        <ele>1097.8</ele>
        <time>2012-08-29T05:37:37Z</time>
      </trkpt>
      <trkpt lat="45.2883" lon="5.83429">
        <ele>1099.2</ele>
        <time>2012-08-29T05:37:43Z</time>
      </trkpt>
      <trkpt lat="45.2883" lon="5.83427">
        <ele>1099.6</ele>
        <time>2012-08-29T05:37:44Z</time>
      </trkpt>
      <trkpt lat="45.28837" lon="5.83423">
        <ele>1101.2</ele>
        <time>2012-08-29T05:37:49Z</time>
      </trkpt>
      <trkpt lat="45.28838" lon="5.83422">
        <ele>1101.8</ele>
        <time>2012-08-29T05:37:51Z</time>
      </trkpt>
      <trkpt lat="45.28847" lon="5.83422">
        <ele>1103.8</ele>
        <time>2012-08-29T05:37:57Z</time>
      </trkpt>
      <trkpt lat="45.28849" lon="5.83421">
        <ele>1104.4</ele>
        <time>2012-08-29T05:37:59Z</time>
      </trkpt>
      <trkpt lat="45.28854" lon="5.83415">
        <ele>1105.6</ele>
        <time>2012-08-29T05:38:03Z</time>
      </trkpt>
      <trkpt lat="45.28858" lon="5.83413">
        <ele>1106.2</ele>
        <time>2012-08-29T05:38:05Z</time>
      </trkpt>
      <trkpt lat="45.28864" lon="5.83409">
        <ele>1107.2</ele>
        <time>2012-08-29T05:38:10Z</time>
      </trkpt>
      <trkpt lat="45.28868" lon="5.83406">
        <ele>1108.4</ele>
        <time>2012-08-29T05:38:13Z</time>
      </trkpt>
      <trkpt lat="45.28875" lon="5.83405">
        <ele>1110</ele>
        <time>2012-08-29T05:38:19Z</time>
      </trkpt>
      <trkpt lat="45.28878" lon="5.83405">
        <ele>1111.2</ele>
        <time>2012-08-29T05:38:23Z</time>
      </trkpt>
      <trkpt lat="45.2888" lon="5.83405">
        <ele>1112</ele>
        <time>2012-08-29T05:38:25Z</time>
      </trkpt>
      <trkpt lat="45.2888" lon="5.83407">
        <ele>1114</ele>
        <time>2012-08-29T05:38:31Z</time>
      </trkpt>
      <trkpt lat="45.28878" lon="5.83407">
        <ele>1115</ele>
        <time>2012-08-29T05:38:34Z</time>
      </trkpt>
      <trkpt lat="45.28874" lon="5.8341">
        <ele>1116.8</ele>
        <time>2012-08-29T05:38:39Z</time>
      </trkpt>
      <trkpt lat="45.28874" lon="5.83411">
        <ele>1117.2</ele>
        <time>2012-08-29T05:38:40Z</time>
      </trkpt>
      <trkpt lat="45.28872" lon="5.83415">
        <ele>1118.4</ele>
        <time>2012-08-29T05:38:44Z</time>
      </trkpt>
      <trkpt lat="45.2887" lon="5.83416">
        <ele>1119</ele>
        <time>2012-08-29T05:38:46Z</time>
      </trkpt>
      <trkpt lat="45.28868" lon="5.83418">
        <ele>1119.8</ele>
        <time>2012-08-29T05:38:50Z</time>
      </trkpt>
      <trkpt lat="45.28865" lon="5.83428">
        <ele>1121.2</ele>
        <time>2012-08-29T05:38:56Z</time>
      </trkpt>
      <trkpt lat="45.28862" lon="5.83436">
        <ele>1122.2</ele>
        <time>2012-08-29T05:39:01Z</time>
      </trkpt>
      <trkpt lat="45.28858" lon="5.83441">
        <ele>1122.8</ele>
        <time>2012-08-29T05:39:05Z</time>
      </trkpt>
      <trkpt lat="45.28857" lon="5.83442">
        <ele>1122.8</ele>
        <time>2012-08-29T05:39:06Z</time>
      </trkpt>
      <trkpt lat="45.28855" lon="5.83447">
        <ele>1123.6</ele>
        <time>2012-08-29T05:39:09Z</time>
      </trkpt>
      <trkpt lat="45.28853" lon="5.83451">
        <ele>1124.2</ele>
        <time>2012-08-29T05:39:12Z</time>
      </trkpt>
      <trkpt lat="45.2885" lon="5.83456">
        <ele>1124.8</ele>
        <time>2012-08-29T05:39:16Z</time>
      </trkpt>
      <trkpt lat="45.28848" lon="5.83466">
        <ele>1125.8</ele>
        <time>2012-08-29T05:39:22Z</time>
      </trkpt>
      <trkpt lat="45.28846" lon="5.83472">
        <ele>1126.4</ele>
        <time>2012-08-29T05:39:25Z</time>
      </trkpt>
      <trkpt lat="45.28843" lon="5.83478">
        <ele>1127</ele>
        <time>2012-08-29T05:39:30Z</time>
      </trkpt>
      <trkpt lat="45.28842" lon="5.83481">
        <ele>1127.4</ele>
        <time>2012-08-29T05:39:32Z</time>
      </trkpt>
      <trkpt lat="45.28833" lon="5.83488">
        <ele>1128.6</ele>
        <time>2012-08-29T05:39:38Z</time>
      </trkpt>
      <trkpt lat="45.28831" lon="5.83488">
        <ele>1128.8</ele>
        <time>2012-08-29T05:39:39Z</time>
      </trkpt>
      <trkpt lat="45.28829" lon="5.83491">
        <ele>1129.4</ele>
        <time>2012-08-29T05:39:41Z</time>
      </trkpt>
      <trkpt lat="45.28826" lon="5.83492">
        <ele>1130</ele>
        <time>2012-08-29T05:39:43Z</time>
      </trkpt>
      <trkpt lat="45.28827" lon="5.83496">
        <ele>1130.6</ele>
        <time>2012-08-29T05:39:46Z</time>
      </trkpt>
      <trkpt lat="45.28829" lon="5.83496">
        <ele>1131.2</ele>
        <time>2012-08-29T05:39:48Z</time>
      </trkpt>
      <trkpt lat="45.28835" lon="5.83494">
        <ele>1132.6</ele>
        <time>2012-08-29T05:39:54Z</time>
      </trkpt>
      <trkpt lat="45.28836" lon="5.83493">
        <ele>1133</ele>
        <time>2012-08-29T05:39:55Z</time>
      </trkpt>
      <trkpt lat="45.28842" lon="5.8349">
        <ele>1134.6</ele>
        <time>2012-08-29T05:40:00Z</time>
      </trkpt>
      <trkpt lat="45.28845" lon="5.83484">
        <ele>1136</ele>
        <time>2012-08-29T05:40:04Z</time>
      </trkpt>
      <trkpt lat="45.28846" lon="5.83482">
        <ele>1136.4</ele>
        <time>2012-08-29T05:40:06Z</time>
      </trkpt>
      <trkpt lat="45.2885" lon="5.83479">
        <ele>1137.8</ele>
        <time>2012-08-29T05:40:10Z</time>
      </trkpt>
      <trkpt lat="45.28854" lon="5.83478">
        <ele>1138.8</ele>
        <time>2012-08-29T05:40:14Z</time>
      </trkpt>
      <trkpt lat="45.28856" lon="5.83474">
        <ele>1139.8</ele>
        <time>2012-08-29T05:40:17Z</time>
      </trkpt>
      <trkpt lat="45.28863" lon="5.83473">
        <ele>1141.2</ele>
        <time>2012-08-29T05:40:23Z</time>
      </trkpt>
      <trkpt lat="45.28864" lon="5.83473">
        <ele>1142.4</ele>
        <time>2012-08-29T05:40:26Z</time>
      </trkpt>
      <trkpt lat="45.28864" lon="5.83473">
        <ele>1142.8</ele>
        <time>2012-08-29T05:40:28Z</time>
      </trkpt>
      <trkpt lat="45.28872" lon="5.83469">
        <ele>1144.6</ele>
        <time>2012-08-29T05:40:34Z</time>
      </trkpt>
      <trkpt lat="45.28878" lon="5.83465">
        <ele>1145.6</ele>
        <time>2012-08-29T05:40:39Z</time>
      </trkpt>
      <trkpt lat="45.28883" lon="5.83463">
        <ele>1147.2</ele>
        <time>2012-08-29T05:40:44Z</time>
      </trkpt>
      <trkpt lat="45.28891" lon="5.83461">
        <ele>1148.4</ele>
        <time>2012-08-29T05:40:48Z</time>
      </trkpt>
      <trkpt lat="45.28893" lon="5.8346">
        <ele>1148.8</ele>
        <time>2012-08-29T05:40:49Z</time>
      </trkpt>
      <trkpt lat="45.28899" lon="5.83457">
        <ele>1150.2</ele>
        <time>2012-08-29T05:40:54Z</time>
      </trkpt>
      <trkpt lat="45.28903" lon="5.83453">
        <ele>1151.6</ele>
        <time>2012-08-29T05:40:58Z</time>
      </trkpt>
      <trkpt lat="45.28907" lon="5.83456">
        <ele>1153</ele>
        <time>2012-08-29T05:41:02Z</time>
      </trkpt>
      <trkpt lat="45.28906" lon="5.83459">
        <ele>1153.6</ele>
        <time>2012-08-29T05:41:04Z</time>
      </trkpt>
      <trkpt lat="45.28906" lon="5.83462">
        <ele>1154.2</ele>
        <time>2012-08-29T05:41:06Z</time>
      </trkpt>
      <trkpt lat="45.28904" lon="5.83465">
        <ele>1155.6</ele>
        <time>2012-08-29T05:41:10Z</time>
      </trkpt>
      <trkpt lat="45.28903" lon="5.83466">
        <ele>1155.8</ele>
        <time>2012-08-29T05:41:11Z</time>
      </trkpt>
      <trkpt lat="45.28899" lon="5.83468">
        <ele>1156.6</ele>
        <time>2012-08-29T05:41:14Z</time>
      </trkpt>
      <trkpt lat="45.28896" lon="5.83473">
        <ele>1158</ele>
        <time>2012-08-29T05:41:19Z</time>
      </trkpt>
      <trkpt lat="45.28894" lon="5.83476">
        <ele>1158.6</ele>
        <time>2012-08-29T05:41:21Z</time>
      </trkpt>
      <trkpt lat="45.2889" lon="5.83482">
        <ele>1159.2</ele>
        <time>2012-08-29T05:41:25Z</time>
      </trkpt>
      <trkpt lat="45.2889" lon="5.83483">
        <ele>1159.4</ele>
        <time>2012-08-29T05:41:26Z</time>
      </trkpt>
      <trkpt lat="45.28888" lon="5.83486">
        <ele>1160</ele>
        <time>2012-08-29T05:41:29Z</time>
      </trkpt>
      <trkpt lat="45.28886" lon="5.83492">
        <ele>1161</ele>
        <time>2012-08-29T05:41:33Z</time>
      </trkpt>
      <trkpt lat="45.28886" lon="5.83495">
        <ele>1161.4</ele>
        <time>2012-08-29T05:41:35Z</time>
      </trkpt>
      <trkpt lat="45.28884" lon="5.83503">
        <ele>1162.2</ele>
        <time>2012-08-29T05:41:41Z</time>
      </trkpt>
      <trkpt lat="45.28881" lon="5.83508">
        <ele>1163</ele>
        <time>2012-08-29T05:41:44Z</time>
      </trkpt>
      <trkpt lat="45.28877" lon="5.83511">
        <ele>1163.4</ele>
        <time>2012-08-29T05:41:47Z</time>
      </trkpt>
      <trkpt lat="45.28872" lon="5.83521">
        <ele>1164.4</ele>
        <time>2012-08-29T05:41:52Z</time>
      </trkpt>
      <trkpt lat="45.28868" lon="5.83525">
        <ele>1165.4</ele>
        <time>2012-08-29T05:41:56Z</time>
      </trkpt>
      <trkpt lat="45.28866" lon="5.83527">
        <ele>1165.6</ele>
        <time>2012-08-29T05:41:58Z</time>
      </trkpt>
      <trkpt lat="45.2886" lon="5.83533">
        <ele>1166.6</ele>
        <time>2012-08-29T05:42:04Z</time>
      </trkpt>
      <trkpt lat="45.28854" lon="5.83542">
        <ele>1167.8</ele>
        <time>2012-08-29T05:42:10Z</time>
      </trkpt>
      <trkpt lat="45.28851" lon="5.8355">
        <ele>1168.2</ele>
        <time>2012-08-29T05:42:14Z</time>
      </trkpt>
      <trkpt lat="45.28849" lon="5.83553">
        <ele>1168.4</ele>
        <time>2012-08-29T05:42:16Z</time>
      </trkpt>
      <trkpt lat="45.28848" lon="5.83563">
        <ele>1169.6</ele>
        <time>2012-08-29T05:42:21Z</time>
      </trkpt>
      <trkpt lat="45.28846" lon="5.83567">
        <ele>1169.8</ele>
        <time>2012-08-29T05:42:23Z</time>
      </trkpt>
      <trkpt lat="45.28841" lon="5.83576">
        <ele>1171.2</ele>
        <time>2012-08-29T05:42:29Z</time>
      </trkpt>
      <trkpt lat="45.28837" lon="5.83584">
        <ele>1172.6</ele>
        <time>2012-08-29T05:42:33Z</time>
      </trkpt>
      <trkpt lat="45.28836" lon="5.83588">
        <ele>1173.2</ele>
        <time>2012-08-29T05:42:35Z</time>
      </trkpt>
      <trkpt lat="45.28829" lon="5.836">
        <ele>1175.8</ele>
        <time>2012-08-29T05:42:42Z</time>
      </trkpt>
      <trkpt lat="45.28827" lon="5.83602">
        <ele>1176.2</ele>
        <time>2012-08-29T05:42:43Z</time>
      </trkpt>
      <trkpt lat="45.28826" lon="5.83603">
        <ele>1176.6</ele>
        <time>2012-08-29T05:42:44Z</time>
      </trkpt>
      <trkpt lat="45.28823" lon="5.83611">
        <ele>1178.6</ele>
        <time>2012-08-29T05:42:49Z</time>
      </trkpt>
      <trkpt lat="45.28817" lon="5.83621">
        <ele>1181.2</ele>
        <time>2012-08-29T05:42:55Z</time>
      </trkpt>
      <trkpt lat="45.28813" lon="5.83627">
        <ele>1183.2</ele>
        <time>2012-08-29T05:42:59Z</time>
      </trkpt>
      <trkpt lat="45.28806" lon="5.83631">
        <ele>1185.2</ele>
        <time>2012-08-29T05:43:04Z</time>
      </trkpt>
      <trkpt lat="45.28803" lon="5.83634">
        <ele>1186.2</ele>
        <time>2012-08-29T05:43:07Z</time>
      </trkpt>
      <trkpt lat="45.28796" lon="5.83647">
        <ele>1188.8</ele>
        <time>2012-08-29T05:43:14Z</time>
      </trkpt>
      <trkpt lat="45.28792" lon="5.83652">
        <ele>1189.4</ele>
        <time>2012-08-29T05:43:16Z</time>
      </trkpt>
      <trkpt lat="45.28787" lon="5.83663">
        <ele>1191.2</ele>
        <time>2012-08-29T05:43:22Z</time>
      </trkpt>
      <trkpt lat="45.28778" lon="5.83679">
        <ele>1193.6</ele>
        <time>2012-08-29T05:43:31Z</time>
      </trkpt>
      <trkpt lat="45.28773" lon="5.83691">
        <ele>1195.4</ele>
        <time>2012-08-29T05:43:37Z</time>
      </trkpt>
      <trkpt lat="45.28771" lon="5.83698">
        <ele>1196</ele>
        <time>2012-08-29T05:43:41Z</time>
      </trkpt>
      <trkpt lat="45.28768" lon="5.83703">
        <ele>1197</ele>
        <time>2012-08-29T05:43:44Z</time>
      </trkpt>
      <trkpt lat="45.28765" lon="5.83705">
        <ele>1197.6</ele>
        <time>2012-08-29T05:43:46Z</time>
      </trkpt>
      <trkpt lat="45.28764" lon="5.83707">
        <ele>1198</ele>
        <time>2012-08-29T05:43:48Z</time>
      </trkpt>
      <trkpt lat="45.28763" lon="5.83719">
        <ele>1199.6</ele>
        <time>2012-08-29T05:43:54Z</time>
      </trkpt>
      <trkpt lat="45.2877" lon="5.8373">
        <ele>1200.6</ele>
        <time>2012-08-29T05:43:59Z</time>
      </trkpt>
      <trkpt lat="45.28774" lon="5.83739">
        <ele>1201</ele>
        <time>2012-08-29T05:44:03Z</time>
      </trkpt>
      <trkpt lat="45.28776" lon="5.83743">
        <ele>1201.2</ele>
        <time>2012-08-29T05:44:05Z</time>
      </trkpt>
      <trkpt lat="45.2878" lon="5.83749">
        <ele>1201.4</ele>
        <time>2012-08-29T05:44:08Z</time>
      </trkpt>
      <trkpt lat="45.28786" lon="5.83754">
        <ele>1201.6</ele>
        <time>2012-08-29T05:44:13Z</time>
      </trkpt>
      <trkpt lat="45.2879" lon="5.83756">
        <ele>1202.2</ele>
        <time>2012-08-29T05:44:17Z</time>
      </trkpt>
      <trkpt lat="45.28799" lon="5.8376">
        <ele>1202.8</ele>
        <time>2012-08-29T05:44:22Z</time>
      </trkpt>
      <trkpt lat="45.28801" lon="5.83762">
        <ele>1203.2</ele>
        <time>2012-08-29T05:44:24Z</time>
      </trkpt>
      <trkpt lat="45.28805" lon="5.83764">
        <ele>1203.4</ele>
        <time>2012-08-29T05:44:29Z</time>
      </trkpt>
      <trkpt lat="45.2881" lon="5.83764">
        <ele>1204.4</ele>
        <time>2012-08-29T05:44:33Z</time>
      </trkpt>
      <trkpt lat="45.28815" lon="5.83765">
        <ele>1205</ele>
        <time>2012-08-29T05:44:38Z</time>
      </trkpt>
      <trkpt lat="45.28816" lon="5.83766">
        <ele>1205.2</ele>
        <time>2012-08-29T05:44:39Z</time>
      </trkpt>
      <trkpt lat="45.28817" lon="5.83766">
        <ele>1205.2</ele>
        <time>2012-08-29T05:44:40Z</time>
      </trkpt>
      <trkpt lat="45.2882" lon="5.83766">
        <ele>1205.8</ele>
        <time>2012-08-29T05:44:42Z</time>
      </trkpt>
      <trkpt lat="45.28828" lon="5.83764">
        <ele>1206.6</ele>
        <time>2012-08-29T05:44:46Z</time>
      </trkpt>
      <trkpt lat="45.28832" lon="5.83762">
        <ele>1207.4</ele>
        <time>2012-08-29T05:44:52Z</time>
      </trkpt>
      <trkpt lat="45.28836" lon="5.83757">
        <ele>1208.2</ele>
        <time>2012-08-29T05:44:57Z</time>
      </trkpt>
      <trkpt lat="45.28838" lon="5.83755">
        <ele>1208.8</ele>
        <time>2012-08-29T05:45:00Z</time>
      </trkpt>
      <trkpt lat="45.28839" lon="5.83753">
        <ele>1209</ele>
        <time>2012-08-29T05:45:02Z</time>
      </trkpt>
      <trkpt lat="45.28841" lon="5.8375">
        <ele>1210.4</ele>
        <time>2012-08-29T05:45:11Z</time>
      </trkpt>
      <trkpt lat="45.28843" lon="5.83747">
        <ele>1211</ele>
        <time>2012-08-29T05:45:15Z</time>
      </trkpt>
      <trkpt lat="45.28845" lon="5.83743">
        <ele>1211.8</ele>
        <time>2012-08-29T05:45:20Z</time>
      </trkpt>
      <trkpt lat="45.28847" lon="5.8374">
        <ele>1212.4</ele>
        <time>2012-08-29T05:45:23Z</time>
      </trkpt>
      <trkpt lat="45.28852" lon="5.83737">
        <ele>1213.4</ele>
        <time>2012-08-29T05:45:31Z</time>
      </trkpt>
      <trkpt lat="45.28852" lon="5.83729">
        <ele>1215.2</ele>
        <time>2012-08-29T05:45:44Z</time>
      </trkpt>
      <trkpt lat="45.28854" lon="5.83727">
        <ele>1215.8</ele>
        <time>2012-08-29T05:45:49Z</time>
      </trkpt>
      <trkpt lat="45.28857" lon="5.83723">
        <ele>1216.8</ele>
        <time>2012-08-29T05:45:55Z</time>
      </trkpt>
      <trkpt lat="45.28861" lon="5.83721">
        <ele>1217.6</ele>
        <time>2012-08-29T05:46:01Z</time>
      </trkpt>
      <trkpt lat="45.28867" lon="5.83721">
        <ele>1218.8</ele>
        <time>2012-08-29T05:46:06Z</time>
      </trkpt>
      <trkpt lat="45.28869" lon="5.83721">
        <ele>1219</ele>
        <time>2012-08-29T05:46:08Z</time>
      </trkpt>
      <trkpt lat="45.28873" lon="5.8372">
        <ele>1219.6</ele>
        <time>2012-08-29T05:46:12Z</time>
      </trkpt>
      <trkpt lat="45.28877" lon="5.8372">
        <ele>1220.2</ele>
        <time>2012-08-29T05:46:16Z</time>
      </trkpt>
      <trkpt lat="45.28882" lon="5.8372">
        <ele>1221</ele>
        <time>2012-08-29T05:46:20Z</time>
      </trkpt>
      <trkpt lat="45.28885" lon="5.8372">
        <ele>1221.2</ele>
        <time>2012-08-29T05:46:22Z</time>
      </trkpt>
      <trkpt lat="45.28887" lon="5.8372">
        <ele>1221.6</ele>
        <time>2012-08-29T05:46:24Z</time>
      </trkpt>
      <trkpt lat="45.28898" lon="5.83718">
        <ele>1224</ele>
        <time>2012-08-29T05:46:35Z</time>
      </trkpt>
      <trkpt lat="45.28899" lon="5.83716">
        <ele>1224.6</ele>
        <time>2012-08-29T05:46:37Z</time>
      </trkpt>
      <trkpt lat="45.28901" lon="5.83711">
        <ele>1225.8</ele>
        <time>2012-08-29T05:46:42Z</time>
      </trkpt>
      <trkpt lat="45.28904" lon="5.83703">
        <ele>1227.8</ele>
        <time>2012-08-29T05:46:49Z</time>
      </trkpt>
      <trkpt lat="45.28905" lon="5.83702">
        <ele>1228.2</ele>
        <time>2012-08-29T05:46:50Z</time>
      </trkpt>
      <trkpt lat="45.28907" lon="5.83697">
        <ele>1229.4</ele>
        <time>2012-08-29T05:46:54Z</time>
      </trkpt>
      <trkpt lat="45.28909" lon="5.8369">
        <ele>1232.2</ele>
        <time>2012-08-29T05:47:01Z</time>
      </trkpt>
      <trkpt lat="45.2891" lon="5.83686">
        <ele>1233.2</ele>
        <time>2012-08-29T05:47:03Z</time>
      </trkpt>
      <trkpt lat="45.2891" lon="5.83685">
        <ele>1233.6</ele>
        <time>2012-08-29T05:47:04Z</time>
      </trkpt>
      <trkpt lat="45.28915" lon="5.83678">
        <ele>1236.4</ele>
        <time>2012-08-29T05:47:10Z</time>
      </trkpt>
      <trkpt lat="45.28919" lon="5.83673">
        <ele>1239.4</ele>
        <time>2012-08-29T05:47:16Z</time>
      </trkpt>
      <trkpt lat="45.28921" lon="5.83667">
        <ele>1242.4</ele>
        <time>2012-08-29T05:47:22Z</time>
      </trkpt>
      <trkpt lat="45.28924" lon="5.83661">
        <ele>1245.8</ele>
        <time>2012-08-29T05:47:29Z</time>
      </trkpt>
      <trkpt lat="45.28926" lon="5.83656">
        <ele>1248.2</ele>
        <time>2012-08-29T05:47:34Z</time>
      </trkpt>
      <trkpt lat="45.28928" lon="5.83652">
        <ele>1250</ele>
        <time>2012-08-29T05:47:38Z</time>
      </trkpt>
      <trkpt lat="45.28932" lon="5.83649">
        <ele>1252</ele>
        <time>2012-08-29T05:47:43Z</time>
      </trkpt>
      <trkpt lat="45.28935" lon="5.83645">
        <ele>1255</ele>
        <time>2012-08-29T05:47:50Z</time>
      </trkpt>
      <trkpt lat="45.28939" lon="5.83641">
        <ele>1257</ele>
        <time>2012-08-29T05:47:55Z</time>
      </trkpt>
      <trkpt lat="45.2894" lon="5.8364">
        <ele>1257.8</ele>
        <time>2012-08-29T05:47:57Z</time>
      </trkpt>
      <trkpt lat="45.28944" lon="5.8364">
        <ele>1259.8</ele>
        <time>2012-08-29T05:48:02Z</time>
      </trkpt>
      <trkpt lat="45.28945" lon="5.8364">
        <ele>1260.6</ele>
        <time>2012-08-29T05:48:04Z</time>
      </trkpt>
      <trkpt lat="45.2895" lon="5.83638">
        <ele>1262.6</ele>
        <time>2012-08-29T05:48:10Z</time>
      </trkpt>
      <trkpt lat="45.28952" lon="5.83634">
        <ele>1264.4</ele>
        <time>2012-08-29T05:48:16Z</time>
      </trkpt>
      <trkpt lat="45.28955" lon="5.83629">
        <ele>1266.4</ele>
        <time>2012-08-29T05:48:22Z</time>
      </trkpt>
      <trkpt lat="45.28955" lon="5.83627">
        <ele>1267</ele>
        <time>2012-08-29T05:48:24Z</time>
      </trkpt>
      <trkpt lat="45.28955" lon="5.83623">
        <ele>1267.8</ele>
        <time>2012-08-29T05:48:26Z</time>
      </trkpt>
      <trkpt lat="45.28956" lon="5.83622">
        <ele>1268.4</ele>
        <time>2012-08-29T05:48:28Z</time>
      </trkpt>
      <trkpt lat="45.28957" lon="5.8362">
        <ele>1269.4</ele>
        <time>2012-08-29T05:48:31Z</time>
      </trkpt>
      <trkpt lat="45.28962" lon="5.83616">
        <ele>1272.4</ele>
        <time>2012-08-29T05:48:39Z</time>
      </trkpt>
      <trkpt lat="45.28964" lon="5.83613">
        <ele>1274.2</ele>
        <time>2012-08-29T05:48:44Z</time>
      </trkpt>
      <trkpt lat="45.28966" lon="5.83614">
        <ele>1275.4</ele>
        <time>2012-08-29T05:48:49Z</time>
      </trkpt>
      <trkpt lat="45.28969" lon="5.83617">
        <ele>1277.4</ele>
        <time>2012-08-29T05:48:55Z</time>
      </trkpt>
      <trkpt lat="45.28971" lon="5.8362">
        <ele>1278.4</ele>
        <time>2012-08-29T05:48:59Z</time>
      </trkpt>
      <trkpt lat="45.28975" lon="5.83621">
        <ele>1280</ele>
        <time>2012-08-29T05:49:06Z</time>
      </trkpt>
      <trkpt lat="45.28979" lon="5.8362">
        <ele>1281.4</ele>
        <time>2012-08-29T05:49:12Z</time>
      </trkpt>
      <trkpt lat="45.28989" lon="5.83621">
        <ele>1284.2</ele>
        <time>2012-08-29T05:49:26Z</time>
      </trkpt>
      <trkpt lat="45.28993" lon="5.83623">
        <ele>1286</ele>
        <time>2012-08-29T05:49:33Z</time>
      </trkpt>
      <trkpt lat="45.28999" lon="5.83625">
        <ele>1286.8</ele>
        <time>2012-08-29T05:49:39Z</time>
      </trkpt>
      <trkpt lat="45.29" lon="5.83626">
        <ele>1287</ele>
        <time>2012-08-29T05:49:40Z</time>
      </trkpt>
      <trkpt lat="45.29001" lon="5.83626">
        <ele>1287.6</ele>
        <time>2012-08-29T05:49:42Z</time>
      </trkpt>
      <trkpt lat="45.29003" lon="5.83627">
        <ele>1288</ele>
        <time>2012-08-29T05:49:44Z</time>
      </trkpt>
      <trkpt lat="45.29006" lon="5.83628">
        <ele>1289.8</ele>
        <time>2012-08-29T05:49:52Z</time>
      </trkpt>
      <trkpt lat="45.29008" lon="5.83629">
        <ele>1290.2</ele>
        <time>2012-08-29T05:49:54Z</time>
      </trkpt>
      <trkpt lat="45.29013" lon="5.83627">
        <ele>1291.8</ele>
        <time>2012-08-29T05:50:00Z</time>
      </trkpt>
      <trkpt lat="45.29015" lon="5.83624">
        <ele>1293</ele>
        <time>2012-08-29T05:50:05Z</time>
      </trkpt>
      <trkpt lat="45.29019" lon="5.83623">
        <ele>1294.6</ele>
        <time>2012-08-29T05:50:11Z</time>
      </trkpt>
      <trkpt lat="45.29023" lon="5.8362">
        <ele>1296.4</ele>
        <time>2012-08-29T05:50:17Z</time>
      </trkpt>
      <trkpt lat="45.29026" lon="5.83618">
        <ele>1299.2</ele>
        <time>2012-08-29T05:50:25Z</time>
      </trkpt>
      <trkpt lat="45.29027" lon="5.83618">
        <ele>1300.2</ele>
        <time>2012-08-29T05:50:28Z</time>
      </trkpt>
      <trkpt lat="45.29032" lon="5.8362">
        <ele>1302.2</ele>
        <time>2012-08-29T05:50:34Z</time>
      </trkpt>
      <trkpt lat="45.29037" lon="5.83621">
        <ele>1304.6</ele>
        <time>2012-08-29T05:50:41Z</time>
      </trkpt>
      <trkpt lat="45.29041" lon="5.8362">
        <ele>1306.6</ele>
        <time>2012-08-29T05:50:46Z</time>
      </trkpt>
      <trkpt lat="45.29046" lon="5.83618">
        <ele>1308.6</ele>
        <time>2012-08-29T05:50:52Z</time>
      </trkpt>
      <trkpt lat="45.29049" lon="5.83618">
        <ele>1310.2</ele>
        <time>2012-08-29T05:50:56Z</time>
      </trkpt>
      <trkpt lat="45.2905" lon="5.83618">
        <ele>1310.4</ele>
        <time>2012-08-29T05:50:57Z</time>
      </trkpt>
      <trkpt lat="45.29056" lon="5.83624">
        <ele>1312.8</ele>
        <time>2012-08-29T05:51:04Z</time>
      </trkpt>
      <trkpt lat="45.29057" lon="5.83624">
        <ele>1313</ele>
        <time>2012-08-29T05:51:05Z</time>
      </trkpt>
      <trkpt lat="45.29058" lon="5.83624">
        <ele>1313.4</ele>
        <time>2012-08-29T05:51:06Z</time>
      </trkpt>
      <trkpt lat="45.2906" lon="5.83625">
        <ele>1314</ele>
        <time>2012-08-29T05:51:08Z</time>
      </trkpt>
      <trkpt lat="45.29067" lon="5.83623">
        <ele>1315.8</ele>
        <time>2012-08-29T05:51:14Z</time>
      </trkpt>
      <trkpt lat="45.29069" lon="5.83624">
        <ele>1316.6</ele>
        <time>2012-08-29T05:51:16Z</time>
      </trkpt>
      <trkpt lat="45.29077" lon="5.83629">
        <ele>1318.2</ele>
        <time>2012-08-29T05:51:22Z</time>
      </trkpt>
      <trkpt lat="45.29086" lon="5.83631">
        <ele>1320</ele>
        <time>2012-08-29T05:51:29Z</time>
      </trkpt>
      <trkpt lat="45.29087" lon="5.83632">
        <ele>1320.2</ele>
        <time>2012-08-29T05:51:30Z</time>
      </trkpt>
      <trkpt lat="45.29088" lon="5.83632">
        <ele>1320.4</ele>
        <time>2012-08-29T05:51:31Z</time>
      </trkpt>
      <trkpt lat="45.29092" lon="5.83632">
        <ele>1321.2</ele>
        <time>2012-08-29T05:51:36Z</time>
      </trkpt>
      <trkpt lat="45.29099" lon="5.83631">
        <ele>1322.4</ele>
        <time>2012-08-29T05:51:43Z</time>
      </trkpt>
      <trkpt lat="45.291" lon="5.83631">
        <ele>1322.6</ele>
        <time>2012-08-29T05:51:44Z</time>
      </trkpt>
      <trkpt lat="45.29105" lon="5.83631">
        <ele>1323.2</ele>
        <time>2012-08-29T05:51:48Z</time>
      </trkpt>
      <trkpt lat="45.29108" lon="5.83631">
        <ele>1323.6</ele>
        <time>2012-08-29T05:51:52Z</time>
      </trkpt>
      <trkpt lat="45.29109" lon="5.8363">
        <ele>1324</ele>
        <time>2012-08-29T05:51:54Z</time>
      </trkpt>
      <trkpt lat="45.29113" lon="5.8363">
        <ele>1324.8</ele>
        <time>2012-08-29T05:51:58Z</time>
      </trkpt>
      <trkpt lat="45.29116" lon="5.8363">
        <ele>1325.4</ele>
        <time>2012-08-29T05:52:02Z</time>
      </trkpt>
      <trkpt lat="45.29121" lon="5.83631">
        <ele>1326.2</ele>
        <time>2012-08-29T05:52:06Z</time>
      </trkpt>
      <trkpt lat="45.29126" lon="5.83632">
        <ele>1327.2</ele>
        <time>2012-08-29T05:52:11Z</time>
      </trkpt>
      <trkpt lat="45.29136" lon="5.83634">
        <ele>1328.6</ele>
        <time>2012-08-29T05:52:17Z</time>
      </trkpt>
      <trkpt lat="45.29138" lon="5.83634">
        <ele>1329</ele>
        <time>2012-08-29T05:52:19Z</time>
      </trkpt>
      <trkpt lat="45.29142" lon="5.83634">
        <ele>1329.6</ele>
        <time>2012-08-29T05:52:22Z</time>
      </trkpt>
      <trkpt lat="45.29147" lon="5.83634">
        <ele>1331</ele>
        <time>2012-08-29T05:52:28Z</time>
      </trkpt>
      <trkpt lat="45.29153" lon="5.83634">
        <ele>1332.8</ele>
        <time>2012-08-29T05:52:34Z</time>
      </trkpt>
      <trkpt lat="45.29154" lon="5.83635">
        <ele>1333</ele>
        <time>2012-08-29T05:52:35Z</time>
      </trkpt>
      <trkpt lat="45.29155" lon="5.83635">
        <ele>1333.2</ele>
        <time>2012-08-29T05:52:36Z</time>
      </trkpt>
      <trkpt lat="45.29164" lon="5.83634">
        <ele>1334.2</ele>
        <time>2012-08-29T05:52:41Z</time>
      </trkpt>
      <trkpt lat="45.29166" lon="5.83634">
        <ele>1334.8</ele>
        <time>2012-08-29T05:52:43Z</time>
      </trkpt>
      <trkpt lat="45.29174" lon="5.8363">
        <ele>1335.8</ele>
        <time>2012-08-29T05:52:49Z</time>
      </trkpt>
      <trkpt lat="45.29176" lon="5.8363">
        <ele>1336.4</ele>
        <time>2012-08-29T05:52:52Z</time>
      </trkpt>
      <trkpt lat="45.29179" lon="5.83631">
        <ele>1337.2</ele>
        <time>2012-08-29T05:52:56Z</time>
      </trkpt>
      <trkpt lat="45.29181" lon="5.8363">
        <ele>1337.6</ele>
        <time>2012-08-29T05:52:58Z</time>
      </trkpt>
      <trkpt lat="45.29186" lon="5.83628">
        <ele>1338.2</ele>
        <time>2012-08-29T05:53:04Z</time>
      </trkpt>
      <trkpt lat="45.29187" lon="5.83627">
        <ele>1338.8</ele>
        <time>2012-08-29T05:53:06Z</time>
      </trkpt>
      <trkpt lat="45.29196" lon="5.83624">
        <ele>1339.8</ele>
        <time>2012-08-29T05:53:11Z</time>
      </trkpt>
      <trkpt lat="45.29198" lon="5.83624">
        <ele>1340</ele>
        <time>2012-08-29T05:53:13Z</time>
      </trkpt>
      <trkpt lat="45.29204" lon="5.83624">
        <ele>1340.8</ele>
        <time>2012-08-29T05:53:17Z</time>
      </trkpt>
      <trkpt lat="45.29214" lon="5.83625">
        <ele>1342.2</ele>
        <time>2012-08-29T05:53:24Z</time>
      </trkpt>
      <trkpt lat="45.29217" lon="5.83625">
        <ele>1343</ele>
        <time>2012-08-29T05:53:26Z</time>
      </trkpt>
      <trkpt lat="45.29229" lon="5.83624">
        <ele>1344.8</ele>
        <time>2012-08-29T05:53:34Z</time>
      </trkpt>
      <trkpt lat="45.29233" lon="5.83622">
        <ele>1345.8</ele>
        <time>2012-08-29T05:53:39Z</time>
      </trkpt>
      <trkpt lat="45.29239" lon="5.83624">
        <ele>1347.4</ele>
        <time>2012-08-29T05:53:45Z</time>
      </trkpt>
      <trkpt lat="45.29241" lon="5.83625">
        <ele>1347.8</ele>
        <time>2012-08-29T05:53:47Z</time>
      </trkpt>
      <trkpt lat="45.29243" lon="5.83625">
        <ele>1348.2</ele>
        <time>2012-08-29T05:53:49Z</time>
      </trkpt>
      <trkpt lat="45.29244" lon="5.83625">
        <ele>1348.4</ele>
        <time>2012-08-29T05:53:51Z</time>
      </trkpt>
      <trkpt lat="45.29248" lon="5.83626">
        <ele>1349</ele>
        <time>2012-08-29T05:53:55Z</time>
      </trkpt>
      <trkpt lat="45.29253" lon="5.83627">
        <ele>1350.2</ele>
        <time>2012-08-29T05:54:01Z</time>
      </trkpt>
      <trkpt lat="45.29258" lon="5.83628">
        <ele>1350.8</ele>
        <time>2012-08-29T05:54:06Z</time>
      </trkpt>
      <trkpt lat="45.29268" lon="5.83631">
        <ele>1352.4</ele>
        <time>2012-08-29T05:54:15Z</time>
      </trkpt>
      <trkpt lat="45.2927" lon="5.83632">
        <ele>1352.6</ele>
        <time>2012-08-29T05:54:16Z</time>
      </trkpt>
      <trkpt lat="45.29273" lon="5.83632">
        <ele>1353</ele>
        <time>2012-08-29T05:54:19Z</time>
      </trkpt>
      <trkpt lat="45.29277" lon="5.83634">
        <ele>1353.8</ele>
        <time>2012-08-29T05:54:22Z</time>
      </trkpt>
      <trkpt lat="45.29281" lon="5.83636">
        <ele>1355</ele>
        <time>2012-08-29T05:54:27Z</time>
      </trkpt>
      <trkpt lat="45.2928" lon="5.83625">
        <ele>1357.4</ele>
        <time>2012-08-29T05:54:36Z</time>
      </trkpt>
      <trkpt lat="45.29279" lon="5.83623">
        <ele>1357.6</ele>
        <time>2012-08-29T05:54:37Z</time>
      </trkpt>
      <trkpt lat="45.29283" lon="5.83622">
        <ele>1358.6</ele>
        <time>2012-08-29T05:54:42Z</time>
      </trkpt>
      <trkpt lat="45.29283" lon="5.83623">
        <ele>1359</ele>
        <time>2012-08-29T05:54:43Z</time>
      </trkpt>
      <trkpt lat="45.29289" lon="5.83625">
        <ele>1360.6</ele>
        <time>2012-08-29T05:54:49Z</time>
      </trkpt>
      <trkpt lat="45.29292" lon="5.83626">
        <ele>1361.6</ele>
        <time>2012-08-29T05:54:54Z</time>
      </trkpt>
      <trkpt lat="45.29297" lon="5.83627">
        <ele>1362.8</ele>
        <time>2012-08-29T05:54:59Z</time>
      </trkpt>
      <trkpt lat="45.29299" lon="5.83628">
        <ele>1363</ele>
        <time>2012-08-29T05:55:01Z</time>
      </trkpt>
      <trkpt lat="45.29302" lon="5.83627">
        <ele>1365</ele>
        <time>2012-08-29T05:55:09Z</time>
      </trkpt>
      <trkpt lat="45.29301" lon="5.8362">
        <ele>1365.6</ele>
        <time>2012-08-29T05:55:14Z</time>
      </trkpt>
      <trkpt lat="45.29305" lon="5.8362">
        <ele>1366</ele>
        <time>2012-08-29T05:55:19Z</time>
      </trkpt>
      <trkpt lat="45.29308" lon="5.83621">
        <ele>1366</ele>
        <time>2012-08-29T05:55:22Z</time>
      </trkpt>
      <trkpt lat="45.29313" lon="5.83624">
        <ele>1367</ele>
        <time>2012-08-29T05:55:26Z</time>
      </trkpt>
      <trkpt lat="45.2932" lon="5.83628">
        <ele>1368</ele>
        <time>2012-08-29T05:55:36Z</time>
      </trkpt>
      <trkpt lat="45.29323" lon="5.8363">
        <ele>1368.2</ele>
        <time>2012-08-29T05:55:41Z</time>
      </trkpt>
      <trkpt lat="45.29328" lon="5.83633">
        <ele>1368.4</ele>
        <time>2012-08-29T05:55:48Z</time>
      </trkpt>
      <trkpt lat="45.29329" lon="5.83634">
        <ele>1368.4</ele>
        <time>2012-08-29T05:55:49Z</time>
      </trkpt>
      <trkpt lat="45.29334" lon="5.83639">
        <ele>1369</ele>
        <time>2012-08-29T05:55:56Z</time>
      </trkpt>
      <trkpt lat="45.29337" lon="5.83641">
        <ele>1369.6</ele>
        <time>2012-08-29T05:56:00Z</time>
      </trkpt>
      <trkpt lat="45.29342" lon="5.83644">
        <ele>1370</ele>
        <time>2012-08-29T05:56:07Z</time>
      </trkpt>
      <trkpt lat="45.29346" lon="5.83644">
        <ele>1370.4</ele>
        <time>2012-08-29T05:56:13Z</time>
      </trkpt>
      <trkpt lat="45.2935" lon="5.83646">
        <ele>1371.4</ele>
        <time>2012-08-29T05:56:18Z</time>
      </trkpt>
      <trkpt lat="45.29353" lon="5.83647">
        <ele>1371.8</ele>
        <time>2012-08-29T05:56:22Z</time>
      </trkpt>
      <trkpt lat="45.29354" lon="5.83647">
        <ele>1371.8</ele>
        <time>2012-08-29T05:56:23Z</time>
      </trkpt>
      <trkpt lat="45.2936" lon="5.83647">
        <ele>1372.2</ele>
        <time>2012-08-29T05:56:27Z</time>
      </trkpt>
      <trkpt lat="45.29361" lon="5.83647">
        <ele>1372.6</ele>
        <time>2012-08-29T05:56:28Z</time>
      </trkpt>
      <trkpt lat="45.29362" lon="5.83647">
        <ele>1372.8</ele>
        <time>2012-08-29T05:56:30Z</time>
      </trkpt>
      <trkpt lat="45.29366" lon="5.83648">
        <ele>1373.4</ele>
        <time>2012-08-29T05:56:34Z</time>
      </trkpt>
      <trkpt lat="45.29369" lon="5.83645">
        <ele>1375</ele>
        <time>2012-08-29T05:56:41Z</time>
      </trkpt>
      <trkpt lat="45.29371" lon="5.83645">
        <ele>1375.2</ele>
        <time>2012-08-29T05:56:42Z</time>
      </trkpt>
      <trkpt lat="45.29373" lon="5.83644">
        <ele>1375.6</ele>
        <time>2012-08-29T05:56:45Z</time>
      </trkpt>
      <trkpt lat="45.29376" lon="5.83642">
        <ele>1376.2</ele>
        <time>2012-08-29T05:56:48Z</time>
      </trkpt>
      <trkpt lat="45.29381" lon="5.83639">
        <ele>1377.4</ele>
        <time>2012-08-29T05:56:53Z</time>
      </trkpt>
      <trkpt lat="45.29385" lon="5.83637">
        <ele>1378.4</ele>
        <time>2012-08-29T05:56:57Z</time>
      </trkpt>
      <trkpt lat="45.29389" lon="5.83635">
        <ele>1379.2</ele>
        <time>2012-08-29T05:57:00Z</time>
      </trkpt>
      <trkpt lat="45.29392" lon="5.83634">
        <ele>1379.8</ele>
        <time>2012-08-29T05:57:02Z</time>
      </trkpt>
      <trkpt lat="45.29394" lon="5.83631">
        <ele>1380.8</ele>
        <time>2012-08-29T05:57:05Z</time>
      </trkpt>
      <trkpt lat="45.294" lon="5.83628">
        <ele>1382.8</ele>
        <time>2012-08-29T05:57:11Z</time>
      </trkpt>
      <trkpt lat="45.294" lon="5.83627">
        <ele>1383</ele>
        <time>2012-08-29T05:57:12Z</time>
      </trkpt>
      <trkpt lat="45.29402" lon="5.83624">
        <ele>1384.4</ele>
        <time>2012-08-29T05:57:15Z</time>
      </trkpt>
      <trkpt lat="45.29408" lon="5.83618">
        <ele>1386.8</ele>
        <time>2012-08-29T05:57:21Z</time>
      </trkpt>
      <trkpt lat="45.29409" lon="5.83617">
        <ele>1387</ele>
        <time>2012-08-29T05:57:22Z</time>
      </trkpt>
      <trkpt lat="45.29414" lon="5.83613">
        <ele>1389</ele>
        <time>2012-08-29T05:57:27Z</time>
      </trkpt>
      <trkpt lat="45.29416" lon="5.83612">
        <ele>1389.4</ele>
        <time>2012-08-29T05:57:28Z</time>
      </trkpt>
      <trkpt lat="45.2942" lon="5.83608">
        <ele>1390.6</ele>
        <time>2012-08-29T05:57:32Z</time>
      </trkpt>
      <trkpt lat="45.29421" lon="5.83607">
        <ele>1391.2</ele>
        <time>2012-08-29T05:57:33Z</time>
      </trkpt>
      <trkpt lat="45.29427" lon="5.83601">
        <ele>1393.4</ele>
        <time>2012-08-29T05:57:39Z</time>
      </trkpt>
      <trkpt lat="45.29428" lon="5.836">
        <ele>1393.6</ele>
        <time>2012-08-29T05:57:40Z</time>
      </trkpt>
      <trkpt lat="45.29433" lon="5.83594">
        <ele>1395.4</ele>
        <time>2012-08-29T05:57:45Z</time>
      </trkpt>
      <trkpt lat="45.29435" lon="5.83591">
        <ele>1396</ele>
        <time>2012-08-29T05:57:47Z</time>
      </trkpt>
      <trkpt lat="45.29441" lon="5.83585">
        <ele>1397.6</ele>
        <time>2012-08-29T05:57:51Z</time>
      </trkpt>
      <trkpt lat="45.29446" lon="5.8358">
        <ele>1399.2</ele>
        <time>2012-08-29T05:57:55Z</time>
      </trkpt>
      <trkpt lat="45.29446" lon="5.83578">
        <ele>1399.6</ele>
        <time>2012-08-29T05:57:56Z</time>
      </trkpt>
      <trkpt lat="45.2945" lon="5.83576">
        <ele>1401</ele>
        <time>2012-08-29T05:57:59Z</time>
      </trkpt>
      <trkpt lat="45.29457" lon="5.83573">
        <ele>1403.2</ele>
        <time>2012-08-29T05:58:04Z</time>
      </trkpt>
      <trkpt lat="45.29459" lon="5.83572">
        <ele>1403.6</ele>
        <time>2012-08-29T05:58:05Z</time>
      </trkpt>
      <trkpt lat="45.29463" lon="5.83565">
        <ele>1406</ele>
        <time>2012-08-29T05:58:11Z</time>
      </trkpt>
      <trkpt lat="45.29467" lon="5.83562">
        <ele>1407.2</ele>
        <time>2012-08-29T05:58:14Z</time>
      </trkpt>
      <trkpt lat="45.29469" lon="5.83559">
        <ele>1408.2</ele>
        <time>2012-08-29T05:58:16Z</time>
      </trkpt>
      <trkpt lat="45.29474" lon="5.83553">
        <ele>1409.6</ele>
        <time>2012-08-29T05:58:20Z</time>
      </trkpt>
      <trkpt lat="45.29477" lon="5.8355">
        <ele>1410.4</ele>
        <time>2012-08-29T05:58:22Z</time>
      </trkpt>
      <trkpt lat="45.29481" lon="5.83543">
        <ele>1411.6</ele>
        <time>2012-08-29T05:58:26Z</time>
      </trkpt>
      <trkpt lat="45.29486" lon="5.83534">
        <ele>1413.4</ele>
        <time>2012-08-29T05:58:31Z</time>
      </trkpt>
      <trkpt lat="45.29488" lon="5.83531">
        <ele>1413.6</ele>
        <time>2012-08-29T05:58:33Z</time>
      </trkpt>
      <trkpt lat="45.29494" lon="5.8352">
        <ele>1415</ele>
        <time>2012-08-29T05:58:39Z</time>
      </trkpt>
      <trkpt lat="45.29495" lon="5.83519">
        <ele>1415</ele>
        <time>2012-08-29T05:58:41Z</time>
      </trkpt>
      <trkpt lat="45.29497" lon="5.83515">
        <ele>1415.8</ele>
        <time>2012-08-29T05:58:44Z</time>
      </trkpt>
      <trkpt lat="45.29498" lon="5.83511">
        <ele>1416.6</ele>
        <time>2012-08-29T05:58:47Z</time>
      </trkpt>
      <trkpt lat="45.295" lon="5.83509">
        <ele>1416.8</ele>
        <time>2012-08-29T05:58:49Z</time>
      </trkpt>
      <trkpt lat="45.29496" lon="5.83508">
        <ele>1417.4</ele>
        <time>2012-08-29T05:58:52Z</time>
      </trkpt>
      <trkpt lat="45.29493" lon="5.83507">
        <ele>1418.6</ele>
        <time>2012-08-29T05:58:57Z</time>
      </trkpt>
      <trkpt lat="45.29491" lon="5.83509">
        <ele>1419.2</ele>
        <time>2012-08-29T05:59:02Z</time>
      </trkpt>
      <trkpt lat="45.29489" lon="5.83512">
        <ele>1420.4</ele>
        <time>2012-08-29T05:59:07Z</time>
      </trkpt>
      <trkpt lat="45.29487" lon="5.83517">
        <ele>1421.2</ele>
        <time>2012-08-29T05:59:12Z</time>
      </trkpt>
      <trkpt lat="45.29483" lon="5.83518">
        <ele>1422.4</ele>
        <time>2012-08-29T05:59:15Z</time>
      </trkpt>
      <trkpt lat="45.29479" lon="5.83519">
        <ele>1423.2</ele>
        <time>2012-08-29T05:59:19Z</time>
      </trkpt>
      <trkpt lat="45.29475" lon="5.83518">
        <ele>1424.2</ele>
        <time>2012-08-29T05:59:23Z</time>
      </trkpt>
      <trkpt lat="45.29472" lon="5.83521">
        <ele>1425</ele>
        <time>2012-08-29T05:59:27Z</time>
      </trkpt>
      <trkpt lat="45.29465" lon="5.83521">
        <ele>1426.6</ele>
        <time>2012-08-29T05:59:32Z</time>
      </trkpt>
      <trkpt lat="45.29463" lon="5.8352">
        <ele>1427</ele>
        <time>2012-08-29T05:59:33Z</time>
      </trkpt>
      <trkpt lat="45.29455" lon="5.83517">
        <ele>1428.4</ele>
        <time>2012-08-29T05:59:37Z</time>
      </trkpt>
      <trkpt lat="45.29449" lon="5.83519">
        <ele>1429.8</ele>
        <time>2012-08-29T05:59:42Z</time>
      </trkpt>
      <trkpt lat="45.29444" lon="5.83522">
        <ele>1430.8</ele>
        <time>2012-08-29T05:59:46Z</time>
      </trkpt>
      <trkpt lat="45.29444" lon="5.83519">
        <ele>1431.8</ele>
        <time>2012-08-29T05:59:51Z</time>
      </trkpt>
      <trkpt lat="45.29448" lon="5.83512">
        <ele>1433.2</ele>
        <time>2012-08-29T05:59:57Z</time>
      </trkpt>
      <trkpt lat="45.29449" lon="5.83511">
        <ele>1433.6</ele>
        <time>2012-08-29T05:59:59Z</time>
      </trkpt>
      <trkpt lat="45.29453" lon="5.83508">
        <ele>1434.2</ele>
        <time>2012-08-29T06:00:04Z</time>
      </trkpt>
      <trkpt lat="45.29453" lon="5.83507">
        <ele>1434.4</ele>
        <time>2012-08-29T06:00:06Z</time>
      </trkpt>
      <trkpt lat="45.29459" lon="5.83503">
        <ele>1435.4</ele>
        <time>2012-08-29T06:00:13Z</time>
      </trkpt>
      <trkpt lat="45.29459" lon="5.83502">
        <ele>1435.6</ele>
        <time>2012-08-29T06:00:14Z</time>
      </trkpt>
      <trkpt lat="45.29461" lon="5.83499">
        <ele>1436.2</ele>
        <time>2012-08-29T06:00:18Z</time>
      </trkpt>
      <trkpt lat="45.29461" lon="5.83496">
        <ele>1436.8</ele>
        <time>2012-08-29T06:00:22Z</time>
      </trkpt>
      <trkpt lat="45.29459" lon="5.83496">
        <ele>1437</ele>
        <time>2012-08-29T06:00:23Z</time>
      </trkpt>
      <trkpt lat="45.29456" lon="5.83496">
        <ele>1437.6</ele>
        <time>2012-08-29T06:00:26Z</time>
      </trkpt>
      <trkpt lat="45.29455" lon="5.8349">
        <ele>1439.8</ele>
        <time>2012-08-29T06:00:36Z</time>
      </trkpt>
      <trkpt lat="45.29459" lon="5.83487">
        <ele>1440.6</ele>
        <time>2012-08-29T06:00:42Z</time>
      </trkpt>
      <trkpt lat="45.2946" lon="5.83483">
        <ele>1442</ele>
        <time>2012-08-29T06:00:47Z</time>
      </trkpt>
      <trkpt lat="45.29462" lon="5.8348">
        <ele>1443.2</ele>
        <time>2012-08-29T06:00:52Z</time>
      </trkpt>
      <trkpt lat="45.29464" lon="5.83476">
        <ele>1444</ele>
        <time>2012-08-29T06:00:55Z</time>
      </trkpt>
      <trkpt lat="45.29465" lon="5.83471">
        <ele>1445.2</ele>
        <time>2012-08-29T06:00:59Z</time>
      </trkpt>
      <trkpt lat="45.29463" lon="5.83469">
        <ele>1446.8</ele>
        <time>2012-08-29T06:01:05Z</time>
      </trkpt>
      <trkpt lat="45.29458" lon="5.83468">
        <ele>1448.6</ele>
        <time>2012-08-29T06:01:11Z</time>
      </trkpt>
      <trkpt lat="45.2946" lon="5.83466">
        <ele>1449.6</ele>
        <time>2012-08-29T06:01:14Z</time>
      </trkpt>
      <trkpt lat="45.29463" lon="5.8346">
        <ele>1450.8</ele>
        <time>2012-08-29T06:01:18Z</time>
      </trkpt>
      <trkpt lat="45.29467" lon="5.83456">
        <ele>1451.8</ele>
        <time>2012-08-29T06:01:21Z</time>
      </trkpt>
      <trkpt lat="45.29468" lon="5.83453">
        <ele>1452.6</ele>
        <time>2012-08-29T06:01:23Z</time>
      </trkpt>
      <trkpt lat="45.29471" lon="5.83448">
        <ele>1454</ele>
        <time>2012-08-29T06:01:27Z</time>
      </trkpt>
      <trkpt lat="45.29479" lon="5.83439">
        <ele>1455.8</ele>
        <time>2012-08-29T06:01:33Z</time>
      </trkpt>
      <trkpt lat="45.29485" lon="5.83432">
        <ele>1457.6</ele>
        <time>2012-08-29T06:01:37Z</time>
      </trkpt>
      <trkpt lat="45.29495" lon="5.83421">
        <ele>1460</ele>
        <time>2012-08-29T06:01:44Z</time>
      </trkpt>
      <trkpt lat="45.29506" lon="5.83411">
        <ele>1461.4</ele>
        <time>2012-08-29T06:01:51Z</time>
      </trkpt>
      <trkpt lat="45.29508" lon="5.8341">
        <ele>1461.8</ele>
        <time>2012-08-29T06:01:52Z</time>
      </trkpt>
      <trkpt lat="45.29514" lon="5.83408">
        <ele>1462.8</ele>
        <time>2012-08-29T06:01:56Z</time>
      </trkpt>
      <trkpt lat="45.29515" lon="5.83408">
        <ele>1463</ele>
        <time>2012-08-29T06:01:57Z</time>
      </trkpt>
      <trkpt lat="45.29516" lon="5.83408">
        <ele>1463.2</ele>
        <time>2012-08-29T06:01:58Z</time>
      </trkpt>
      <trkpt lat="45.29516" lon="5.83408">
        <ele>1463.4</ele>
        <time>2012-08-29T06:01:59Z</time>
      </trkpt>
      <trkpt lat="45.29519" lon="5.83409">
        <ele>1464</ele>
        <time>2012-08-29T06:02:01Z</time>
      </trkpt>
      <trkpt lat="45.29523" lon="5.83409">
        <ele>1464.8</ele>
        <time>2012-08-29T06:02:04Z</time>
      </trkpt>
      <trkpt lat="45.29533" lon="5.83417">
        <ele>1466.4</ele>
        <time>2012-08-29T06:02:11Z</time>
      </trkpt>
      <trkpt lat="45.29538" lon="5.83425">
        <ele>1467.8</ele>
        <time>2012-08-29T06:02:17Z</time>
      </trkpt>
      <trkpt lat="45.29541" lon="5.83432">
        <ele>1469</ele>
        <time>2012-08-29T06:02:21Z</time>
      </trkpt>
      <trkpt lat="45.29548" lon="5.83441">
        <ele>1470.6</ele>
        <time>2012-08-29T06:02:27Z</time>
      </trkpt>
      <trkpt lat="45.29551" lon="5.83444">
        <ele>1471.2</ele>
        <time>2012-08-29T06:02:29Z</time>
      </trkpt>
      <trkpt lat="45.29564" lon="5.83449">
        <ele>1473.6</ele>
        <time>2012-08-29T06:02:37Z</time>
      </trkpt>
      <trkpt lat="45.29572" lon="5.83453">
        <ele>1475</ele>
        <time>2012-08-29T06:02:42Z</time>
      </trkpt>
      <trkpt lat="45.29572" lon="5.83453">
        <ele>1475.4</ele>
        <time>2012-08-29T06:02:43Z</time>
      </trkpt>
      <trkpt lat="45.29573" lon="5.83454">
        <ele>1475.6</ele>
        <time>2012-08-29T06:02:44Z</time>
      </trkpt>
      <trkpt lat="45.29575" lon="5.83455">
        <ele>1476.4</ele>
        <time>2012-08-29T06:02:46Z</time>
      </trkpt>
      <trkpt lat="45.29586" lon="5.83457">
        <ele>1478.6</ele>
        <time>2012-08-29T06:02:53Z</time>
      </trkpt>
      <trkpt lat="45.29598" lon="5.83457">
        <ele>1480.8</ele>
        <time>2012-08-29T06:03:00Z</time>
      </trkpt>
      <trkpt lat="45.29599" lon="5.83457">
        <ele>1481.2</ele>
        <time>2012-08-29T06:03:01Z</time>
      </trkpt>
      <trkpt lat="45.29605" lon="5.83454">
        <ele>1482.4</ele>
        <time>2012-08-29T06:03:05Z</time>
      </trkpt>
      <trkpt lat="45.29612" lon="5.83451">
        <ele>1483.8</ele>
        <time>2012-08-29T06:03:10Z</time>
      </trkpt>
      <trkpt lat="45.29615" lon="5.83451">
        <ele>1484</ele>
        <time>2012-08-29T06:03:11Z</time>
      </trkpt>
      <trkpt lat="45.29624" lon="5.83452">
        <ele>1485</ele>
        <time>2012-08-29T06:03:15Z</time>
      </trkpt>
      <trkpt lat="45.29633" lon="5.83451">
        <ele>1485.8</ele>
        <time>2012-08-29T06:03:20Z</time>
      </trkpt>
      <trkpt lat="45.29647" lon="5.83459">
        <ele>1487.4</ele>
        <time>2012-08-29T06:03:27Z</time>
      </trkpt>
      <trkpt lat="45.29658" lon="5.83463">
        <ele>1488</ele>
        <time>2012-08-29T06:03:31Z</time>
      </trkpt>
      <trkpt lat="45.29669" lon="5.83475">
        <ele>1489.2</ele>
        <time>2012-08-29T06:03:36Z</time>
      </trkpt>
      <trkpt lat="45.29682" lon="5.83489">
        <ele>1490.2</ele>
        <time>2012-08-29T06:03:42Z</time>
      </trkpt>
      <trkpt lat="45.29691" lon="5.83506">
        <ele>1491.6</ele>
        <time>2012-08-29T06:03:47Z</time>
      </trkpt>
      <trkpt lat="45.29696" lon="5.83517">
        <ele>1492</ele>
        <time>2012-08-29T06:03:51Z</time>
      </trkpt>
      <trkpt lat="45.29704" lon="5.83536">
        <ele>1492.4</ele>
        <time>2012-08-29T06:03:57Z</time>
      </trkpt>
      <trkpt lat="45.29711" lon="5.83552">
        <ele>1492.6</ele>
        <time>2012-08-29T06:04:02Z</time>
      </trkpt>
      <trkpt lat="45.2972" lon="5.8357">
        <ele>1492.8</ele>
        <time>2012-08-29T06:04:08Z</time>
      </trkpt>
      <trkpt lat="45.29731" lon="5.83585">
        <ele>1492.2</ele>
        <time>2012-08-29T06:04:14Z</time>
      </trkpt>
      <trkpt lat="45.29732" lon="5.83588">
        <ele>1492</ele>
        <time>2012-08-29T06:04:15Z</time>
      </trkpt>
      <trkpt lat="45.29744" lon="5.83605">
        <ele>1491</ele>
        <time>2012-08-29T06:04:22Z</time>
      </trkpt>
      <trkpt lat="45.29754" lon="5.83619">
        <ele>1490</ele>
        <time>2012-08-29T06:04:27Z</time>
      </trkpt>
      <trkpt lat="45.29766" lon="5.83628">
        <ele>1488.4</ele>
        <time>2012-08-29T06:04:32Z</time>
      </trkpt>
      <trkpt lat="45.29776" lon="5.83633">
        <ele>1487.2</ele>
        <time>2012-08-29T06:04:37Z</time>
      </trkpt>
      <trkpt lat="45.29789" lon="5.83641">
        <ele>1486</ele>
        <time>2012-08-29T06:04:42Z</time>
      </trkpt>
      <trkpt lat="45.29802" lon="5.83651">
        <ele>1484.6</ele>
        <time>2012-08-29T06:04:47Z</time>
      </trkpt>
      <trkpt lat="45.29815" lon="5.83657">
        <ele>1483.6</ele>
        <time>2012-08-29T06:04:51Z</time>
      </trkpt>
      <trkpt lat="45.29831" lon="5.83663">
        <ele>1482.8</ele>
        <time>2012-08-29T06:04:57Z</time>
      </trkpt>
      <trkpt lat="45.29843" lon="5.83668">
        <ele>1481.6</ele>
        <time>2012-08-29T06:05:01Z</time>
      </trkpt>
      <trkpt lat="45.2986" lon="5.83674">
        <ele>1480.6</ele>
        <time>2012-08-29T06:05:07Z</time>
      </trkpt>
      <trkpt lat="45.2987" lon="5.83679">
        <ele>1479.6</ele>
        <time>2012-08-29T06:05:12Z</time>
      </trkpt>
      <trkpt lat="45.29884" lon="5.83685">
        <ele>1478.8</ele>
        <time>2012-08-29T06:05:17Z</time>
      </trkpt>
      <trkpt lat="45.299" lon="5.83696">
        <ele>1477.6</ele>
        <time>2012-08-29T06:05:24Z</time>
      </trkpt>
      <trkpt lat="45.29907" lon="5.83699">
        <ele>1477.2</ele>
        <time>2012-08-29T06:05:27Z</time>
      </trkpt>
      <trkpt lat="45.2991" lon="5.83701">
        <ele>1476.2</ele>
        <time>2012-08-29T06:05:32Z</time>
      </trkpt>
      <trkpt lat="45.29921" lon="5.83705">
        <ele>1475.2</ele>
        <time>2012-08-29T06:05:37Z</time>
      </trkpt>
      <trkpt lat="45.29935" lon="5.83713">
        <ele>1474.6</ele>
        <time>2012-08-29T06:05:41Z</time>
      </trkpt>
      <trkpt lat="45.29945" lon="5.83722">
        <ele>1473.8</ele>
        <time>2012-08-29T06:05:45Z</time>
      </trkpt>
      <trkpt lat="45.29956" lon="5.83733">
        <ele>1472.8</ele>
        <time>2012-08-29T06:05:51Z</time>
      </trkpt>
      <trkpt lat="45.29961" lon="5.83736">
        <ele>1472.6</ele>
        <time>2012-08-29T06:05:52Z</time>
      </trkpt>
      <trkpt lat="45.29965" lon="5.83738">
        <ele>1472.4</ele>
        <time>2012-08-29T06:05:55Z</time>
      </trkpt>
      <trkpt lat="45.29976" lon="5.83742">
        <ele>1472</ele>
        <time>2012-08-29T06:05:59Z</time>
      </trkpt>
      <trkpt lat="45.29978" lon="5.83741">
        <ele>1471.8</ele>
        <time>2012-08-29T06:06:00Z</time>
      </trkpt>
      <trkpt lat="45.29988" lon="5.83743">
        <ele>1470.8</ele>
        <time>2012-08-29T06:06:05Z</time>
      </trkpt>
      <trkpt lat="45.29998" lon="5.83741">
        <ele>1470.2</ele>
        <time>2012-08-29T06:06:09Z</time>
      </trkpt>
      <trkpt lat="45.3001" lon="5.83739">
        <ele>1469.2</ele>
        <time>2012-08-29T06:06:13Z</time>
      </trkpt>
      <trkpt lat="45.30024" lon="5.83734">
        <ele>1468.6</ele>
        <time>2012-08-29T06:06:18Z</time>
      </trkpt>
      <trkpt lat="45.30039" lon="5.83728">
        <ele>1467.4</ele>
        <time>2012-08-29T06:06:24Z</time>
      </trkpt>
      <trkpt lat="45.30064" lon="5.83721">
        <ele>1466</ele>
        <time>2012-08-29T06:06:35Z</time>
      </trkpt>
      <trkpt lat="45.3008" lon="5.83716">
        <ele>1465.8</ele>
        <time>2012-08-29T06:06:41Z</time>
      </trkpt>
      <trkpt lat="45.30093" lon="5.83711">
        <ele>1465.6</ele>
        <time>2012-08-29T06:06:45Z</time>
      </trkpt>
      <trkpt lat="45.30106" lon="5.83706">
        <ele>1465.6</ele>
        <time>2012-08-29T06:06:51Z</time>
      </trkpt>
      <trkpt lat="45.30116" lon="5.83704">
        <ele>1465.6</ele>
        <time>2012-08-29T06:06:55Z</time>
      </trkpt>
      <trkpt lat="45.30126" lon="5.83705">
        <ele>1465.6</ele>
        <time>2012-08-29T06:06:59Z</time>
      </trkpt>
      <trkpt lat="45.30138" lon="5.83707">
        <ele>1465.6</ele>
        <time>2012-08-29T06:07:03Z</time>
      </trkpt>
      <trkpt lat="45.30142" lon="5.83708">
        <ele>1465.6</ele>
        <time>2012-08-29T06:07:06Z</time>
      </trkpt>
      <trkpt lat="45.3015" lon="5.8371">
        <ele>1465.6</ele>
        <time>2012-08-29T06:07:09Z</time>
      </trkpt>
      <trkpt lat="45.30158" lon="5.8371">
        <ele>1466</ele>
        <time>2012-08-29T06:07:12Z</time>
      </trkpt>
      <trkpt lat="45.30166" lon="5.83712">
        <ele>1466.6</ele>
        <time>2012-08-29T06:07:17Z</time>
      </trkpt>
      <trkpt lat="45.30179" lon="5.83716">
        <ele>1467</ele>
        <time>2012-08-29T06:07:21Z</time>
      </trkpt>
      <trkpt lat="45.30187" lon="5.83717">
        <ele>1467</ele>
        <time>2012-08-29T06:07:25Z</time>
      </trkpt>
      <trkpt lat="45.302" lon="5.83716">
        <ele>1467.2</ele>
        <time>2012-08-29T06:07:30Z</time>
      </trkpt>
      <trkpt lat="45.30202" lon="5.83715">
        <ele>1467.2</ele>
        <time>2012-08-29T06:07:31Z</time>
      </trkpt>
      <trkpt lat="45.30208" lon="5.83713">
        <ele>1467.4</ele>
        <time>2012-08-29T06:07:33Z</time>
      </trkpt>
      <trkpt lat="45.30224" lon="5.83712">
        <ele>1468.2</ele>
        <time>2012-08-29T06:07:38Z</time>
      </trkpt>
      <trkpt lat="45.30238" lon="5.83713">
        <ele>1468.8</ele>
        <time>2012-08-29T06:07:43Z</time>
      </trkpt>
      <trkpt lat="45.30243" lon="5.83713">
        <ele>1469.2</ele>
        <time>2012-08-29T06:07:45Z</time>
      </trkpt>
      <trkpt lat="45.30246" lon="5.83712">
        <ele>1470.4</ele>
        <time>2012-08-29T06:07:51Z</time>
      </trkpt>
      <trkpt lat="45.30251" lon="5.83703">
        <ele>1471</ele>
        <time>2012-08-29T06:07:57Z</time>
      </trkpt>
      <trkpt lat="45.30253" lon="5.83696">
        <ele>1472.2</ele>
        <time>2012-08-29T06:08:02Z</time>
      </trkpt>
      <trkpt lat="45.30254" lon="5.83696">
        <ele>1472.4</ele>
        <time>2012-08-29T06:08:03Z</time>
      </trkpt>
      <trkpt lat="45.30259" lon="5.83692">
        <ele>1477.4</ele>
        <time>2012-08-29T06:08:47Z</time>
      </trkpt>
      <trkpt lat="45.30264" lon="5.8369">
        <ele>1477.6</ele>
        <time>2012-08-29T06:08:52Z</time>
      </trkpt>
      <trkpt lat="45.30269" lon="5.8369">
        <ele>1477.6</ele>
        <time>2012-08-29T06:08:55Z</time>
      </trkpt>
      <trkpt lat="45.30276" lon="5.83696">
        <ele>1477.8</ele>
        <time>2012-08-29T06:09:00Z</time>
      </trkpt>
      <trkpt lat="45.30276" lon="5.83695">
        <ele>1478</ele>
        <time>2012-08-29T06:09:01Z</time>
      </trkpt>
      <trkpt lat="45.30276" lon="5.83693">
        <ele>1479</ele>
        <time>2012-08-29T06:09:07Z</time>
      </trkpt>
      <trkpt lat="45.30277" lon="5.83694">
        <ele>1479.4</ele>
        <time>2012-08-29T06:09:12Z</time>
      </trkpt>
      <trkpt lat="45.30279" lon="5.83695">
        <ele>1479.4</ele>
        <time>2012-08-29T06:09:17Z</time>
      </trkpt>
      <trkpt lat="45.30281" lon="5.83699">
        <ele>1478.8</ele>
        <time>2012-08-29T06:09:23Z</time>
      </trkpt>
      <trkpt lat="45.30282" lon="5.83701">
        <ele>1478.8</ele>
        <time>2012-08-29T06:09:24Z</time>
      </trkpt>
      <trkpt lat="45.30288" lon="5.83707">
        <ele>1477.6</ele>
        <time>2012-08-29T06:09:29Z</time>
      </trkpt>
      <trkpt lat="45.30295" lon="5.83712">
        <ele>1476.6</ele>
        <time>2012-08-29T06:09:33Z</time>
      </trkpt>
      <trkpt lat="45.30295" lon="5.83713">
        <ele>1476.2</ele>
        <time>2012-08-29T06:09:34Z</time>
      </trkpt>
      <trkpt lat="45.30297" lon="5.83716">
        <ele>1475.6</ele>
        <time>2012-08-29T06:09:36Z</time>
      </trkpt>
      <trkpt lat="45.30305" lon="5.83721">
        <ele>1474.6</ele>
        <time>2012-08-29T06:09:40Z</time>
      </trkpt>
      <trkpt lat="45.30313" lon="5.83723">
        <ele>1473.4</ele>
        <time>2012-08-29T06:09:44Z</time>
      </trkpt>
      <trkpt lat="45.30315" lon="5.83724">
        <ele>1473</ele>
        <time>2012-08-29T06:09:45Z</time>
      </trkpt>
      <trkpt lat="45.30321" lon="5.83723">
        <ele>1471.4</ele>
        <time>2012-08-29T06:09:50Z</time>
      </trkpt>
      <trkpt lat="45.30322" lon="5.83722">
        <ele>1470.8</ele>
        <time>2012-08-29T06:09:52Z</time>
      </trkpt>
      <trkpt lat="45.30324" lon="5.83721">
        <ele>1470.2</ele>
        <time>2012-08-29T06:09:54Z</time>
      </trkpt>
      <trkpt lat="45.30331" lon="5.83723">
        <ele>1468.8</ele>
        <time>2012-08-29T06:09:59Z</time>
      </trkpt>
      <trkpt lat="45.30336" lon="5.83725">
        <ele>1468</ele>
        <time>2012-08-29T06:10:03Z</time>
      </trkpt>
      <trkpt lat="45.30338" lon="5.83726">
        <ele>1468</ele>
        <time>2012-08-29T06:10:04Z</time>
      </trkpt>
      <trkpt lat="45.30341" lon="5.83725">
        <ele>1467.6</ele>
        <time>2012-08-29T06:10:07Z</time>
      </trkpt>
      <trkpt lat="45.30348" lon="5.83727">
        <ele>1467.2</ele>
        <time>2012-08-29T06:10:12Z</time>
      </trkpt>
      <trkpt lat="45.3035" lon="5.83727">
        <ele>1467.2</ele>
        <time>2012-08-29T06:10:13Z</time>
      </trkpt>
      <trkpt lat="45.30357" lon="5.83728">
        <ele>1467</ele>
        <time>2012-08-29T06:10:18Z</time>
      </trkpt>
      <trkpt lat="45.30363" lon="5.83727">
        <ele>1466.8</ele>
        <time>2012-08-29T06:10:22Z</time>
      </trkpt>
      <trkpt lat="45.30365" lon="5.8373">
        <ele>1466.8</ele>
        <time>2012-08-29T06:10:23Z</time>
      </trkpt>
      <trkpt lat="45.30373" lon="5.83729">
        <ele>1466.8</ele>
        <time>2012-08-29T06:10:30Z</time>
      </trkpt>
      <trkpt lat="45.30378" lon="5.8373">
        <ele>1466.8</ele>
        <time>2012-08-29T06:10:34Z</time>
      </trkpt>
      <trkpt lat="45.3038" lon="5.8373">
        <ele>1466.8</ele>
        <time>2012-08-29T06:10:35Z</time>
      </trkpt>
      <trkpt lat="45.30384" lon="5.83732">
        <ele>1466.8</ele>
        <time>2012-08-29T06:10:38Z</time>
      </trkpt>
      <trkpt lat="45.30386" lon="5.83732">
        <ele>1466.8</ele>
        <time>2012-08-29T06:10:40Z</time>
      </trkpt>
      <trkpt lat="45.30393" lon="5.83734">
        <ele>1466.8</ele>
        <time>2012-08-29T06:10:44Z</time>
      </trkpt>
      <trkpt lat="45.30395" lon="5.83734">
        <ele>1466.8</ele>
        <time>2012-08-29T06:10:46Z</time>
      </trkpt>
      <trkpt lat="45.30403" lon="5.83734">
        <ele>1466.8</ele>
        <time>2012-08-29T06:10:51Z</time>
      </trkpt>
      <trkpt lat="45.30404" lon="5.83734">
        <ele>1466.8</ele>
        <time>2012-08-29T06:10:52Z</time>
      </trkpt>
      <trkpt lat="45.30406" lon="5.83735">
        <ele>1466.8</ele>
        <time>2012-08-29T06:10:53Z</time>
      </trkpt>
      <trkpt lat="45.3041" lon="5.83734">
        <ele>1466.8</ele>
        <time>2012-08-29T06:10:56Z</time>
      </trkpt>
      <trkpt lat="45.3042" lon="5.83735">
        <ele>1466.8</ele>
        <time>2012-08-29T06:11:02Z</time>
      </trkpt>
      <trkpt lat="45.30422" lon="5.83736">
        <ele>1466.8</ele>
        <time>2012-08-29T06:11:03Z</time>
      </trkpt>
      <trkpt lat="45.30423" lon="5.83735">
        <ele>1466.8</ele>
        <time>2012-08-29T06:11:04Z</time>
      </trkpt>
      <trkpt lat="45.30425" lon="5.83734">
        <ele>1466.8</ele>
        <time>2012-08-29T06:11:07Z</time>
      </trkpt>
      <trkpt lat="45.30428" lon="5.83735">
        <ele>1466.8</ele>
        <time>2012-08-29T06:11:10Z</time>
      </trkpt>
      <trkpt lat="45.3043" lon="5.83736">
        <ele>1466.8</ele>
        <time>2012-08-29T06:11:12Z</time>
      </trkpt>
      <trkpt lat="45.30441" lon="5.83738">
        <ele>1466.6</ele>
        <time>2012-08-29T06:11:18Z</time>
      </trkpt>
      <trkpt lat="45.30446" lon="5.83737">
        <ele>1467</ele>
        <time>2012-08-29T06:11:20Z</time>
      </trkpt>
      <trkpt lat="45.30459" lon="5.83737">
        <ele>1468</ele>
        <time>2012-08-29T06:11:26Z</time>
      </trkpt>
      <trkpt lat="45.30462" lon="5.83738">
        <ele>1468</ele>
        <time>2012-08-29T06:11:28Z</time>
      </trkpt>
      <trkpt lat="45.30467" lon="5.83736">
        <ele>1468.8</ele>
        <time>2012-08-29T06:11:32Z</time>
      </trkpt>
      <trkpt lat="45.30468" lon="5.83736">
        <ele>1469</ele>
        <time>2012-08-29T06:11:33Z</time>
      </trkpt>
      <trkpt lat="45.30477" lon="5.83736">
        <ele>1469.8</ele>
        <time>2012-08-29T06:11:37Z</time>
      </trkpt>
      <trkpt lat="45.30491" lon="5.83741">
        <ele>1470.4</ele>
        <time>2012-08-29T06:11:44Z</time>
      </trkpt>
      <trkpt lat="45.30492" lon="5.83741">
        <ele>1470.4</ele>
        <time>2012-08-29T06:11:45Z</time>
      </trkpt>
      <trkpt lat="45.30498" lon="5.83739">
        <ele>1471.4</ele>
        <time>2012-08-29T06:11:49Z</time>
      </trkpt>
      <trkpt lat="45.30501" lon="5.8374">
        <ele>1471.8</ele>
        <time>2012-08-29T06:11:51Z</time>
      </trkpt>
      <trkpt lat="45.30506" lon="5.83739">
        <ele>1472.2</ele>
        <time>2012-08-29T06:11:55Z</time>
      </trkpt>
      <trkpt lat="45.30515" lon="5.83745">
        <ele>1472.6</ele>
        <time>2012-08-29T06:12:00Z</time>
      </trkpt>
      <trkpt lat="45.30514" lon="5.83746">
        <ele>1472.6</ele>
        <time>2012-08-29T06:12:01Z</time>
      </trkpt>
      <trkpt lat="45.30519" lon="5.8375">
        <ele>1472.8</ele>
        <time>2012-08-29T06:12:04Z</time>
      </trkpt>
      <trkpt lat="45.30524" lon="5.83755">
        <ele>1473.4</ele>
        <time>2012-08-29T06:12:07Z</time>
      </trkpt>
      <trkpt lat="45.30526" lon="5.83757">
        <ele>1473.6</ele>
        <time>2012-08-29T06:12:09Z</time>
      </trkpt>
      <trkpt lat="45.30528" lon="5.83757">
        <ele>1473.8</ele>
        <time>2012-08-29T06:12:10Z</time>
      </trkpt>
      <trkpt lat="45.30535" lon="5.83763">
        <ele>1474.4</ele>
        <time>2012-08-29T06:12:15Z</time>
      </trkpt>
      <trkpt lat="45.30545" lon="5.8377">
        <ele>1475.8</ele>
        <time>2012-08-29T06:12:21Z</time>
      </trkpt>
      <trkpt lat="45.30547" lon="5.83774">
        <ele>1476</ele>
        <time>2012-08-29T06:12:23Z</time>
      </trkpt>
      <trkpt lat="45.30552" lon="5.8378">
        <ele>1476.4</ele>
        <time>2012-08-29T06:12:27Z</time>
      </trkpt>
      <trkpt lat="45.30552" lon="5.8378">
        <ele>1476.6</ele>
        <time>2012-08-29T06:12:28Z</time>
      </trkpt>
      <trkpt lat="45.30553" lon="5.83781">
        <ele>1476.6</ele>
        <time>2012-08-29T06:12:29Z</time>
      </trkpt>
      <trkpt lat="45.3056" lon="5.83789">
        <ele>1477.6</ele>
        <time>2012-08-29T06:12:34Z</time>
      </trkpt>
      <trkpt lat="45.30564" lon="5.83794">
        <ele>1478.2</ele>
        <time>2012-08-29T06:12:37Z</time>
      </trkpt>
      <trkpt lat="45.30565" lon="5.83794">
        <ele>1478.6</ele>
        <time>2012-08-29T06:12:40Z</time>
      </trkpt>
      <trkpt lat="45.30565" lon="5.83793">
        <ele>1478.8</ele>
        <time>2012-08-29T06:12:42Z</time>
      </trkpt>
      <trkpt lat="45.30571" lon="5.83789">
        <ele>1479</ele>
        <time>2012-08-29T06:12:47Z</time>
      </trkpt>
      <trkpt lat="45.30573" lon="5.8379">
        <ele>1479.2</ele>
        <time>2012-08-29T06:12:50Z</time>
      </trkpt>
      <trkpt lat="45.30574" lon="5.83796">
        <ele>1479.4</ele>
        <time>2012-08-29T06:12:55Z</time>
      </trkpt>
      <trkpt lat="45.30576" lon="5.83799">
        <ele>1479.4</ele>
        <time>2012-08-29T06:12:57Z</time>
      </trkpt>
      <trkpt lat="45.30577" lon="5.83801">
        <ele>1479.4</ele>
        <time>2012-08-29T06:13:00Z</time>
      </trkpt>
      <trkpt lat="45.30578" lon="5.83802">
        <ele>1479.4</ele>
        <time>2012-08-29T06:13:02Z</time>
      </trkpt>
      <trkpt lat="45.3058" lon="5.83804">
        <ele>1479.2</ele>
        <time>2012-08-29T06:13:05Z</time>
      </trkpt>
      <trkpt lat="45.30588" lon="5.8381">
        <ele>1478.6</ele>
        <time>2012-08-29T06:13:10Z</time>
      </trkpt>
      <trkpt lat="45.30593" lon="5.83812">
        <ele>1478.4</ele>
        <time>2012-08-29T06:13:12Z</time>
      </trkpt>
      <trkpt lat="45.30606" lon="5.83819">
        <ele>1476.8</ele>
        <time>2012-08-29T06:13:19Z</time>
      </trkpt>
      <trkpt lat="45.30612" lon="5.83823">
        <ele>1476.4</ele>
        <time>2012-08-29T06:13:22Z</time>
      </trkpt>
      <trkpt lat="45.30621" lon="5.83838">
        <ele>1475</ele>
        <time>2012-08-29T06:13:27Z</time>
      </trkpt>
      <trkpt lat="45.3063" lon="5.83848">
        <ele>1473.6</ele>
        <time>2012-08-29T06:13:34Z</time>
      </trkpt>
      <trkpt lat="45.30631" lon="5.8385">
        <ele>1473.4</ele>
        <time>2012-08-29T06:13:35Z</time>
      </trkpt>
      <trkpt lat="45.30639" lon="5.83855">
        <ele>1472</ele>
        <time>2012-08-29T06:13:40Z</time>
      </trkpt>
      <trkpt lat="45.30646" lon="5.8386">
        <ele>1471</ele>
        <time>2012-08-29T06:13:44Z</time>
      </trkpt>
      <trkpt lat="45.30647" lon="5.8386">
        <ele>1470.6</ele>
        <time>2012-08-29T06:13:45Z</time>
      </trkpt>
      <trkpt lat="45.30655" lon="5.83864">
        <ele>1470</ele>
        <time>2012-08-29T06:13:49Z</time>
      </trkpt>
      <trkpt lat="45.30664" lon="5.83873">
        <ele>1469</ele>
        <time>2012-08-29T06:13:55Z</time>
      </trkpt>
      <trkpt lat="45.30664" lon="5.83873">
        <ele>1468.8</ele>
        <time>2012-08-29T06:13:56Z</time>
      </trkpt>
      <trkpt lat="45.30667" lon="5.83875">
        <ele>1468.4</ele>
        <time>2012-08-29T06:13:58Z</time>
      </trkpt>
      <trkpt lat="45.30679" lon="5.83886">
        <ele>1467.6</ele>
        <time>2012-08-29T06:14:04Z</time>
      </trkpt>
      <trkpt lat="45.30687" lon="5.83894">
        <ele>1467.2</ele>
        <time>2012-08-29T06:14:08Z</time>
      </trkpt>
      <trkpt lat="45.30692" lon="5.83902">
        <ele>1467</ele>
        <time>2012-08-29T06:14:12Z</time>
      </trkpt>
      <trkpt lat="45.30697" lon="5.83908">
        <ele>1466.8</ele>
        <time>2012-08-29T06:14:16Z</time>
      </trkpt>
      <trkpt lat="45.30699" lon="5.83912">
        <ele>1466.4</ele>
        <time>2012-08-29T06:14:18Z</time>
      </trkpt>
      <trkpt lat="45.30707" lon="5.83919">
        <ele>1465.6</ele>
        <time>2012-08-29T06:14:23Z</time>
      </trkpt>
      <trkpt lat="45.30715" lon="5.8393">
        <ele>1464.6</ele>
        <time>2012-08-29T06:14:27Z</time>
      </trkpt>
      <trkpt lat="45.3072" lon="5.83935">
        <ele>1464.2</ele>
        <time>2012-08-29T06:14:30Z</time>
      </trkpt>
      <trkpt lat="45.30727" lon="5.83939">
        <ele>1463.8</ele>
        <time>2012-08-29T06:14:32Z</time>
      </trkpt>
      <trkpt lat="45.30734" lon="5.83953">
        <ele>1463.2</ele>
        <time>2012-08-29T06:14:37Z</time>
      </trkpt>
      <trkpt lat="45.30738" lon="5.83955">
        <ele>1463</ele>
        <time>2012-08-29T06:14:39Z</time>
      </trkpt>
      <trkpt lat="45.30747" lon="5.83962">
        <ele>1462.4</ele>
        <time>2012-08-29T06:14:43Z</time>
      </trkpt>
      <trkpt lat="45.30752" lon="5.83973">
        <ele>1461.6</ele>
        <time>2012-08-29T06:14:48Z</time>
      </trkpt>
      <trkpt lat="45.30757" lon="5.83983">
        <ele>1461</ele>
        <time>2012-08-29T06:14:53Z</time>
      </trkpt>
      <trkpt lat="45.30758" lon="5.83985">
        <ele>1461</ele>
        <time>2012-08-29T06:14:54Z</time>
      </trkpt>
      <trkpt lat="45.30759" lon="5.83986">
        <ele>1461</ele>
        <time>2012-08-29T06:14:55Z</time>
      </trkpt>
      <trkpt lat="45.30763" lon="5.83991">
        <ele>1460.8</ele>
        <time>2012-08-29T06:14:58Z</time>
      </trkpt>
      <trkpt lat="45.30771" lon="5.83997">
        <ele>1460.6</ele>
        <time>2012-08-29T06:15:02Z</time>
      </trkpt>
      <trkpt lat="45.30773" lon="5.83998">
        <ele>1460.6</ele>
        <time>2012-08-29T06:15:03Z</time>
      </trkpt>
      <trkpt lat="45.30783" lon="5.8401">
        <ele>1460.4</ele>
        <time>2012-08-29T06:15:09Z</time>
      </trkpt>
      <trkpt lat="45.30786" lon="5.84015">
        <ele>1460.6</ele>
        <time>2012-08-29T06:15:11Z</time>
      </trkpt>
      <trkpt lat="45.30792" lon="5.84035">
        <ele>1461.6</ele>
        <time>2012-08-29T06:15:18Z</time>
      </trkpt>
      <trkpt lat="45.30797" lon="5.8404">
        <ele>1462.2</ele>
        <time>2012-08-29T06:15:21Z</time>
      </trkpt>
      <trkpt lat="45.30806" lon="5.84047">
        <ele>1463.2</ele>
        <time>2012-08-29T06:15:26Z</time>
      </trkpt>
      <trkpt lat="45.3081" lon="5.84062">
        <ele>1464.6</ele>
        <time>2012-08-29T06:15:31Z</time>
      </trkpt>
      <trkpt lat="45.30818" lon="5.84075">
        <ele>1466</ele>
        <time>2012-08-29T06:15:36Z</time>
      </trkpt>
      <trkpt lat="45.30824" lon="5.84083">
        <ele>1467</ele>
        <time>2012-08-29T06:15:40Z</time>
      </trkpt>
      <trkpt lat="45.30829" lon="5.84091">
        <ele>1468.8</ele>
        <time>2012-08-29T06:15:45Z</time>
      </trkpt>
      <trkpt lat="45.3083" lon="5.84094">
        <ele>1469</ele>
        <time>2012-08-29T06:15:46Z</time>
      </trkpt>
      <trkpt lat="45.3084" lon="5.84108">
        <ele>1471.4</ele>
        <time>2012-08-29T06:15:53Z</time>
      </trkpt>
      <trkpt lat="45.30848" lon="5.84116">
        <ele>1473.4</ele>
        <time>2012-08-29T06:15:59Z</time>
      </trkpt>
      <trkpt lat="45.30856" lon="5.84122">
        <ele>1476</ele>
        <time>2012-08-29T06:16:06Z</time>
      </trkpt>
      <trkpt lat="45.30857" lon="5.84124">
        <ele>1476.4</ele>
        <time>2012-08-29T06:16:07Z</time>
      </trkpt>
      <trkpt lat="45.30858" lon="5.84128">
        <ele>1477.6</ele>
        <time>2012-08-29T06:16:10Z</time>
      </trkpt>
      <trkpt lat="45.30859" lon="5.84133">
        <ele>1478.6</ele>
        <time>2012-08-29T06:16:13Z</time>
      </trkpt>
      <trkpt lat="45.30864" lon="5.84137">
        <ele>1480.4</ele>
        <time>2012-08-29T06:16:19Z</time>
      </trkpt>
      <trkpt lat="45.30869" lon="5.84146">
        <ele>1481.8</ele>
        <time>2012-08-29T06:16:23Z</time>
      </trkpt>
      <trkpt lat="45.30875" lon="5.84151">
        <ele>1483</ele>
        <time>2012-08-29T06:16:27Z</time>
      </trkpt>
      <trkpt lat="45.30881" lon="5.84158">
        <ele>1484.2</ele>
        <time>2012-08-29T06:16:33Z</time>
      </trkpt>
      <trkpt lat="45.30882" lon="5.84159">
        <ele>1484.6</ele>
        <time>2012-08-29T06:16:34Z</time>
      </trkpt>
      <trkpt lat="45.30888" lon="5.8417">
        <ele>1486</ele>
        <time>2012-08-29T06:16:41Z</time>
      </trkpt>
      <trkpt lat="45.30889" lon="5.84172">
        <ele>1486.4</ele>
        <time>2012-08-29T06:16:42Z</time>
      </trkpt>
      <trkpt lat="45.30892" lon="5.84177">
        <ele>1487.4</ele>
        <time>2012-08-29T06:16:47Z</time>
      </trkpt>
      <trkpt lat="45.30894" lon="5.84179">
        <ele>1487.8</ele>
        <time>2012-08-29T06:16:49Z</time>
      </trkpt>
      <trkpt lat="45.30901" lon="5.8419">
        <ele>1490.2</ele>
        <time>2012-08-29T06:16:59Z</time>
      </trkpt>
      <trkpt lat="45.30902" lon="5.84193">
        <ele>1490.8</ele>
        <time>2012-08-29T06:17:01Z</time>
      </trkpt>
      <trkpt lat="45.30907" lon="5.84198">
        <ele>1492.4</ele>
        <time>2012-08-29T06:17:08Z</time>
      </trkpt>
      <trkpt lat="45.30907" lon="5.84199">
        <ele>1492.8</ele>
        <time>2012-08-29T06:17:09Z</time>
      </trkpt>
      <trkpt lat="45.30909" lon="5.842">
        <ele>1493.2</ele>
        <time>2012-08-29T06:17:11Z</time>
      </trkpt>
      <trkpt lat="45.30912" lon="5.84205">
        <ele>1494.8</ele>
        <time>2012-08-29T06:17:17Z</time>
      </trkpt>
      <trkpt lat="45.30919" lon="5.84208">
        <ele>1496.2</ele>
        <time>2012-08-29T06:17:24Z</time>
      </trkpt>
      <trkpt lat="45.30928" lon="5.8421">
        <ele>1498.2</ele>
        <time>2012-08-29T06:17:32Z</time>
      </trkpt>
      <trkpt lat="45.30938" lon="5.84211">
        <ele>1500.4</ele>
        <time>2012-08-29T06:17:41Z</time>
      </trkpt>
      <trkpt lat="45.30947" lon="5.84213">
        <ele>1502.2</ele>
        <time>2012-08-29T06:17:48Z</time>
      </trkpt>
      <trkpt lat="45.30955" lon="5.84217">
        <ele>1503.8</ele>
        <time>2012-08-29T06:17:55Z</time>
      </trkpt>
      <trkpt lat="45.30959" lon="5.84217">
        <ele>1504.6</ele>
        <time>2012-08-29T06:17:59Z</time>
      </trkpt>
      <trkpt lat="45.30966" lon="5.84215">
        <ele>1506.6</ele>
        <time>2012-08-29T06:18:06Z</time>
      </trkpt>
      <trkpt lat="45.30972" lon="5.84213">
        <ele>1508.4</ele>
        <time>2012-08-29T06:18:12Z</time>
      </trkpt>
      <trkpt lat="45.30972" lon="5.84213">
        <ele>1508.8</ele>
        <time>2012-08-29T06:18:13Z</time>
      </trkpt>
      <trkpt lat="45.30977" lon="5.84213">
        <ele>1510.2</ele>
        <time>2012-08-29T06:18:17Z</time>
      </trkpt>
      <trkpt lat="45.30979" lon="5.84212">
        <ele>1510.6</ele>
        <time>2012-08-29T06:18:19Z</time>
      </trkpt>
      <trkpt lat="45.30982" lon="5.84213">
        <ele>1511.8</ele>
        <time>2012-08-29T06:18:21Z</time>
      </trkpt>
      <trkpt lat="45.30994" lon="5.84217">
        <ele>1515.6</ele>
        <time>2012-08-29T06:18:35Z</time>
      </trkpt>
      <trkpt lat="45.30995" lon="5.84217">
        <ele>1516</ele>
        <time>2012-08-29T06:18:36Z</time>
      </trkpt>
      <trkpt lat="45.31002" lon="5.84219">
        <ele>1517.6</ele>
        <time>2012-08-29T06:18:42Z</time>
      </trkpt>
      <trkpt lat="45.31004" lon="5.84226">
        <ele>1519.4</ele>
        <time>2012-08-29T06:18:48Z</time>
      </trkpt>
      <trkpt lat="45.31002" lon="5.84229">
        <ele>1519.8</ele>
        <time>2012-08-29T06:18:50Z</time>
      </trkpt>
      <trkpt lat="45.31" lon="5.84239">
        <ele>1521.6</ele>
        <time>2012-08-29T06:18:56Z</time>
      </trkpt>
      <trkpt lat="45.30999" lon="5.84248">
        <ele>1522.6</ele>
        <time>2012-08-29T06:19:01Z</time>
      </trkpt>
      <trkpt lat="45.30998" lon="5.84253">
        <ele>1523.6</ele>
        <time>2012-08-29T06:19:04Z</time>
      </trkpt>
      <trkpt lat="45.30998" lon="5.84258">
        <ele>1524.4</ele>
        <time>2012-08-29T06:19:09Z</time>
      </trkpt>
      <trkpt lat="45.30998" lon="5.84261">
        <ele>1525.2</ele>
        <time>2012-08-29T06:19:15Z</time>
      </trkpt>
      <trkpt lat="45.31" lon="5.84271">
        <ele>1527</ele>
        <time>2012-08-29T06:19:27Z</time>
      </trkpt>
      <trkpt lat="45.31001" lon="5.84281">
        <ele>1527.8</ele>
        <time>2012-08-29T06:19:32Z</time>
      </trkpt>
      <trkpt lat="45.31002" lon="5.84293">
        <ele>1529.6</ele>
        <time>2012-08-29T06:19:40Z</time>
      </trkpt>
      <trkpt lat="45.31002" lon="5.84294">
        <ele>1529.8</ele>
        <time>2012-08-29T06:19:41Z</time>
      </trkpt>
      <trkpt lat="45.31003" lon="5.84299">
        <ele>1531.2</ele>
        <time>2012-08-29T06:19:45Z</time>
      </trkpt>
      <trkpt lat="45.31005" lon="5.84304">
        <ele>1532.6</ele>
        <time>2012-08-29T06:19:49Z</time>
      </trkpt>
      <trkpt lat="45.31009" lon="5.84315">
        <ele>1535.8</ele>
        <time>2012-08-29T06:19:57Z</time>
      </trkpt>
      <trkpt lat="45.31009" lon="5.84317">
        <ele>1536.2</ele>
        <time>2012-08-29T06:19:59Z</time>
      </trkpt>
      <trkpt lat="45.31011" lon="5.84325">
        <ele>1538.4</ele>
        <time>2012-08-29T06:20:05Z</time>
      </trkpt>
      <trkpt lat="45.31008" lon="5.84337">
        <ele>1542</ele>
        <time>2012-08-29T06:20:14Z</time>
      </trkpt>
      <trkpt lat="45.31007" lon="5.84342">
        <ele>1543.8</ele>
        <time>2012-08-29T06:20:19Z</time>
      </trkpt>
      <trkpt lat="45.31006" lon="5.84348">
        <ele>1545.2</ele>
        <time>2012-08-29T06:20:23Z</time>
      </trkpt>
      <trkpt lat="45.31004" lon="5.84355">
        <ele>1547</ele>
        <time>2012-08-29T06:20:27Z</time>
      </trkpt>
      <trkpt lat="45.31004" lon="5.84364">
        <ele>1550.2</ele>
        <time>2012-08-29T06:20:36Z</time>
      </trkpt>
      <trkpt lat="45.31003" lon="5.84371">
        <ele>1552.8</ele>
        <time>2012-08-29T06:20:43Z</time>
      </trkpt>
      <trkpt lat="45.31002" lon="5.84377">
        <ele>1555</ele>
        <time>2012-08-29T06:20:50Z</time>
      </trkpt>
      <trkpt lat="45.31004" lon="5.84383">
        <ele>1556.8</ele>
        <time>2012-08-29T06:20:56Z</time>
      </trkpt>
      <trkpt lat="45.31005" lon="5.84389">
        <ele>1558.6</ele>
        <time>2012-08-29T06:21:02Z</time>
      </trkpt>
      <trkpt lat="45.31007" lon="5.84395">
        <ele>1561.2</ele>
        <time>2012-08-29T06:21:10Z</time>
      </trkpt>
      <trkpt lat="45.31007" lon="5.844">
        <ele>1563</ele>
        <time>2012-08-29T06:21:15Z</time>
      </trkpt>
      <trkpt lat="45.31008" lon="5.84405">
        <ele>1565</ele>
        <time>2012-08-29T06:21:20Z</time>
      </trkpt>
      <trkpt lat="45.31009" lon="5.84409">
        <ele>1566.6</ele>
        <time>2012-08-29T06:21:25Z</time>
      </trkpt>
      <trkpt lat="45.3101" lon="5.84413">
        <ele>1568.6</ele>
        <time>2012-08-29T06:21:30Z</time>
      </trkpt>
      <trkpt lat="45.31008" lon="5.84417">
        <ele>1570.4</ele>
        <time>2012-08-29T06:21:34Z</time>
      </trkpt>
      <trkpt lat="45.31011" lon="5.84421">
        <ele>1572.4</ele>
        <time>2012-08-29T06:21:39Z</time>
      </trkpt>
      <trkpt lat="45.31017" lon="5.84426">
        <ele>1574.8</ele>
        <time>2012-08-29T06:21:45Z</time>
      </trkpt>
      <trkpt lat="45.31021" lon="5.84431">
        <ele>1577.2</ele>
        <time>2012-08-29T06:21:51Z</time>
      </trkpt>
      <trkpt lat="45.31022" lon="5.84432">
        <ele>1577.6</ele>
        <time>2012-08-29T06:21:52Z</time>
      </trkpt>
      <trkpt lat="45.31028" lon="5.84436">
        <ele>1579.8</ele>
        <time>2012-08-29T06:21:57Z</time>
      </trkpt>
      <trkpt lat="45.31034" lon="5.84442">
        <ele>1582</ele>
        <time>2012-08-29T06:22:04Z</time>
      </trkpt>
      <trkpt lat="45.31039" lon="5.84447">
        <ele>1584</ele>
        <time>2012-08-29T06:22:10Z</time>
      </trkpt>
      <trkpt lat="45.31035" lon="5.8445">
        <ele>1585.2</ele>
        <time>2012-08-29T06:22:14Z</time>
      </trkpt>
      <trkpt lat="45.31032" lon="5.84452">
        <ele>1586.6</ele>
        <time>2012-08-29T06:22:18Z</time>
      </trkpt>
      <trkpt lat="45.31024" lon="5.84456">
        <ele>1589</ele>
        <time>2012-08-29T06:22:26Z</time>
      </trkpt>
      <trkpt lat="45.31023" lon="5.84456">
        <ele>1589.4</ele>
        <time>2012-08-29T06:22:27Z</time>
      </trkpt>
      <trkpt lat="45.31024" lon="5.84461">
        <ele>1591.2</ele>
        <time>2012-08-29T06:22:32Z</time>
      </trkpt>
      <trkpt lat="45.31026" lon="5.84465">
        <ele>1592</ele>
        <time>2012-08-29T06:22:35Z</time>
      </trkpt>
      <trkpt lat="45.31027" lon="5.84466">
        <ele>1593</ele>
        <time>2012-08-29T06:22:38Z</time>
      </trkpt>
      <trkpt lat="45.31034" lon="5.84472">
        <ele>1595.2</ele>
        <time>2012-08-29T06:22:45Z</time>
      </trkpt>
      <trkpt lat="45.31041" lon="5.8448">
        <ele>1597.2</ele>
        <time>2012-08-29T06:22:52Z</time>
      </trkpt>
      <trkpt lat="45.31043" lon="5.84482">
        <ele>1597.8</ele>
        <time>2012-08-29T06:22:54Z</time>
      </trkpt>
      <trkpt lat="45.31047" lon="5.8449">
        <ele>1599.8</ele>
        <time>2012-08-29T06:23:01Z</time>
      </trkpt>
      <trkpt lat="45.31049" lon="5.84491">
        <ele>1600</ele>
        <time>2012-08-29T06:23:02Z</time>
      </trkpt>
      <trkpt lat="45.31055" lon="5.84496">
        <ele>1601.8</ele>
        <time>2012-08-29T06:23:08Z</time>
      </trkpt>
      <trkpt lat="45.31055" lon="5.84497">
        <ele>1602</ele>
        <time>2012-08-29T06:23:09Z</time>
      </trkpt>
      <trkpt lat="45.31056" lon="5.84498">
        <ele>1602.2</ele>
        <time>2012-08-29T06:23:10Z</time>
      </trkpt>
      <trkpt lat="45.31051" lon="5.84501">
        <ele>1603.4</ele>
        <time>2012-08-29T06:23:15Z</time>
      </trkpt>
      <trkpt lat="45.31049" lon="5.84501">
        <ele>1604</ele>
        <time>2012-08-29T06:23:17Z</time>
      </trkpt>
      <trkpt lat="45.31045" lon="5.84502">
        <ele>1604.8</ele>
        <time>2012-08-29T06:23:20Z</time>
      </trkpt>
      <trkpt lat="45.31038" lon="5.84502">
        <ele>1606.6</ele>
        <time>2012-08-29T06:23:27Z</time>
      </trkpt>
      <trkpt lat="45.31038" lon="5.84506">
        <ele>1608.2</ele>
        <time>2012-08-29T06:23:32Z</time>
      </trkpt>
      <trkpt lat="45.31038" lon="5.84507">
        <ele>1608.4</ele>
        <time>2012-08-29T06:23:33Z</time>
      </trkpt>
      <trkpt lat="45.31044" lon="5.84514">
        <ele>1610.2</ele>
        <time>2012-08-29T06:23:40Z</time>
      </trkpt>
      <trkpt lat="45.31048" lon="5.8452">
        <ele>1611.8</ele>
        <time>2012-08-29T06:23:45Z</time>
      </trkpt>
      <trkpt lat="45.31051" lon="5.84522">
        <ele>1612.8</ele>
        <time>2012-08-29T06:23:49Z</time>
      </trkpt>
      <trkpt lat="45.31047" lon="5.84526">
        <ele>1614.4</ele>
        <time>2012-08-29T06:23:54Z</time>
      </trkpt>
      <trkpt lat="45.31044" lon="5.84526">
        <ele>1615.2</ele>
        <time>2012-08-29T06:23:58Z</time>
      </trkpt>
      <trkpt lat="45.31039" lon="5.84527">
        <ele>1616.8</ele>
        <time>2012-08-29T06:24:03Z</time>
      </trkpt>
      <trkpt lat="45.31037" lon="5.8453">
        <ele>1618.4</ele>
        <time>2012-08-29T06:24:09Z</time>
      </trkpt>
      <trkpt lat="45.3104" lon="5.84534">
        <ele>1619.4</ele>
        <time>2012-08-29T06:24:13Z</time>
      </trkpt>
      <trkpt lat="45.31042" lon="5.84537">
        <ele>1620.6</ele>
        <time>2012-08-29T06:24:17Z</time>
      </trkpt>
      <trkpt lat="45.31046" lon="5.84543">
        <ele>1622.4</ele>
        <time>2012-08-29T06:24:22Z</time>
      </trkpt>
      <trkpt lat="45.31049" lon="5.84548">
        <ele>1623.6</ele>
        <time>2012-08-29T06:24:27Z</time>
      </trkpt>
      <trkpt lat="45.3105" lon="5.8455">
        <ele>1624.4</ele>
        <time>2012-08-29T06:24:30Z</time>
      </trkpt>
      <trkpt lat="45.31055" lon="5.84556">
        <ele>1627</ele>
        <time>2012-08-29T06:24:38Z</time>
      </trkpt>
      <trkpt lat="45.31056" lon="5.84556">
        <ele>1627.2</ele>
        <time>2012-08-29T06:24:39Z</time>
      </trkpt>
      <trkpt lat="45.31052" lon="5.84561">
        <ele>1629</ele>
        <time>2012-08-29T06:24:44Z</time>
      </trkpt>
      <trkpt lat="45.3105" lon="5.84562">
        <ele>1629.6</ele>
        <time>2012-08-29T06:24:46Z</time>
      </trkpt>
      <trkpt lat="45.31043" lon="5.84563">
        <ele>1632</ele>
        <time>2012-08-29T06:24:53Z</time>
      </trkpt>
      <trkpt lat="45.31044" lon="5.84567">
        <ele>1633.4</ele>
        <time>2012-08-29T06:24:57Z</time>
      </trkpt>
      <trkpt lat="45.31045" lon="5.84567">
        <ele>1633.8</ele>
        <time>2012-08-29T06:24:59Z</time>
      </trkpt>
      <trkpt lat="45.31049" lon="5.84574">
        <ele>1636</ele>
        <time>2012-08-29T06:25:05Z</time>
      </trkpt>
      <trkpt lat="45.31053" lon="5.84578">
        <ele>1637.6</ele>
        <time>2012-08-29T06:25:10Z</time>
      </trkpt>
      <trkpt lat="45.31057" lon="5.84582">
        <ele>1639.6</ele>
        <time>2012-08-29T06:25:16Z</time>
      </trkpt>
      <trkpt lat="45.31059" lon="5.84583">
        <ele>1640.6</ele>
        <time>2012-08-29T06:25:19Z</time>
      </trkpt>
      <trkpt lat="45.31061" lon="5.84584">
        <ele>1641.4</ele>
        <time>2012-08-29T06:25:20Z</time>
      </trkpt>
      <trkpt lat="45.31064" lon="5.84587">
        <ele>1642.8</ele>
        <time>2012-08-29T06:25:25Z</time>
      </trkpt>
      <trkpt lat="45.31067" lon="5.84589">
        <ele>1644</ele>
        <time>2012-08-29T06:25:27Z</time>
      </trkpt>
      <trkpt lat="45.31072" lon="5.8459">
        <ele>1644.8</ele>
        <time>2012-08-29T06:25:31Z</time>
      </trkpt>
      <trkpt lat="45.31079" lon="5.84594">
        <ele>1646.8</ele>
        <time>2012-08-29T06:25:37Z</time>
      </trkpt>
      <trkpt lat="45.31084" lon="5.84598">
        <ele>1647.8</ele>
        <time>2012-08-29T06:25:41Z</time>
      </trkpt>
      <trkpt lat="45.31087" lon="5.84601">
        <ele>1648.6</ele>
        <time>2012-08-29T06:25:44Z</time>
      </trkpt>
      <trkpt lat="45.31091" lon="5.84604">
        <ele>1649.8</ele>
        <time>2012-08-29T06:25:50Z</time>
      </trkpt>
      <trkpt lat="45.31095" lon="5.84606">
        <ele>1650.8</ele>
        <time>2012-08-29T06:25:53Z</time>
      </trkpt>
      <trkpt lat="45.31105" lon="5.84612">
        <ele>1652</ele>
        <time>2012-08-29T06:26:00Z</time>
      </trkpt>
      <trkpt lat="45.31114" lon="5.84618">
        <ele>1653.6</ele>
        <time>2012-08-29T06:26:06Z</time>
      </trkpt>
      <trkpt lat="45.31117" lon="5.8462">
        <ele>1654</ele>
        <time>2012-08-29T06:26:08Z</time>
      </trkpt>
      <trkpt lat="45.31126" lon="5.84626">
        <ele>1655.4</ele>
        <time>2012-08-29T06:26:15Z</time>
      </trkpt>
      <trkpt lat="45.31132" lon="5.84629">
        <ele>1656.2</ele>
        <time>2012-08-29T06:26:19Z</time>
      </trkpt>
      <trkpt lat="45.31138" lon="5.84637">
        <ele>1656.8</ele>
        <time>2012-08-29T06:26:25Z</time>
      </trkpt>
      <trkpt lat="45.31148" lon="5.84648">
        <ele>1658.4</ele>
        <time>2012-08-29T06:26:33Z</time>
      </trkpt>
      <trkpt lat="45.31155" lon="5.84656">
        <ele>1658.8</ele>
        <time>2012-08-29T06:26:38Z</time>
      </trkpt>
      <trkpt lat="45.31164" lon="5.84663">
        <ele>1659.6</ele>
        <time>2012-08-29T06:26:43Z</time>
      </trkpt>
      <trkpt lat="45.31176" lon="5.8467">
        <ele>1660.6</ele>
        <time>2012-08-29T06:26:50Z</time>
      </trkpt>
      <trkpt lat="45.31179" lon="5.8467">
        <ele>1661.2</ele>
        <time>2012-08-29T06:26:52Z</time>
      </trkpt>
      <trkpt lat="45.31188" lon="5.84664">
        <ele>1662.6</ele>
        <time>2012-08-29T06:26:59Z</time>
      </trkpt>
      <trkpt lat="45.31193" lon="5.84665">
        <ele>1663.8</ele>
        <time>2012-08-29T06:27:04Z</time>
      </trkpt>
      <trkpt lat="45.31195" lon="5.84666">
        <ele>1664.2</ele>
        <time>2012-08-29T06:27:06Z</time>
      </trkpt>
      <trkpt lat="45.31203" lon="5.8467">
        <ele>1666.2</ele>
        <time>2012-08-29T06:27:14Z</time>
      </trkpt>
      <trkpt lat="45.31207" lon="5.84673">
        <ele>1667.8</ele>
        <time>2012-08-29T06:27:19Z</time>
      </trkpt>
      <trkpt lat="45.31212" lon="5.84678">
        <ele>1669.4</ele>
        <time>2012-08-29T06:27:26Z</time>
      </trkpt>
      <trkpt lat="45.31212" lon="5.84678">
        <ele>1669.6</ele>
        <time>2012-08-29T06:27:27Z</time>
      </trkpt>
      <trkpt lat="45.31216" lon="5.8468">
        <ele>1670.6</ele>
        <time>2012-08-29T06:27:32Z</time>
      </trkpt>
      <trkpt lat="45.31218" lon="5.8468">
        <ele>1671.2</ele>
        <time>2012-08-29T06:27:34Z</time>
      </trkpt>
      <trkpt lat="45.31225" lon="5.84682">
        <ele>1672.4</ele>
        <time>2012-08-29T06:27:39Z</time>
      </trkpt>
      <trkpt lat="45.3124" lon="5.84688">
        <ele>1674.4</ele>
        <time>2012-08-29T06:27:47Z</time>
      </trkpt>
      <trkpt lat="45.31246" lon="5.84693">
        <ele>1675</ele>
        <time>2012-08-29T06:27:51Z</time>
      </trkpt>
      <trkpt lat="45.31252" lon="5.84699">
        <ele>1676.4</ele>
        <time>2012-08-29T06:27:56Z</time>
      </trkpt>
      <trkpt lat="45.3126" lon="5.84708">
        <ele>1677.2</ele>
        <time>2012-08-29T06:28:02Z</time>
      </trkpt>
      <trkpt lat="45.3127" lon="5.84716">
        <ele>1678.2</ele>
        <time>2012-08-29T06:28:07Z</time>
      </trkpt>
      <trkpt lat="45.31273" lon="5.84718">
        <ele>1678.4</ele>
        <time>2012-08-29T06:28:08Z</time>
      </trkpt>
      <trkpt lat="45.31282" lon="5.8473">
        <ele>1679.4</ele>
        <time>2012-08-29T06:28:14Z</time>
      </trkpt>
      <trkpt lat="45.31286" lon="5.84739">
        <ele>1680.4</ele>
        <time>2012-08-29T06:28:19Z</time>
      </trkpt>
      <trkpt lat="45.31289" lon="5.84743">
        <ele>1681</ele>
        <time>2012-08-29T06:28:21Z</time>
      </trkpt>
      <trkpt lat="45.31294" lon="5.8475">
        <ele>1681.6</ele>
        <time>2012-08-29T06:28:26Z</time>
      </trkpt>
      <trkpt lat="45.31305" lon="5.84764">
        <ele>1683.2</ele>
        <time>2012-08-29T06:28:33Z</time>
      </trkpt>
      <trkpt lat="45.31312" lon="5.84775">
        <ele>1684.8</ele>
        <time>2012-08-29T06:28:39Z</time>
      </trkpt>
      <trkpt lat="45.31312" lon="5.84779">
        <ele>1685.2</ele>
        <time>2012-08-29T06:28:41Z</time>
      </trkpt>
      <trkpt lat="45.31319" lon="5.84792">
        <ele>1686.8</ele>
        <time>2012-08-29T06:28:48Z</time>
      </trkpt>
      <trkpt lat="45.31323" lon="5.84799">
        <ele>1688</ele>
        <time>2012-08-29T06:28:53Z</time>
      </trkpt>
      <trkpt lat="45.31326" lon="5.84806">
        <ele>1689.2</ele>
        <time>2012-08-29T06:28:57Z</time>
      </trkpt>
      <trkpt lat="45.31329" lon="5.84814">
        <ele>1690.2</ele>
        <time>2012-08-29T06:29:01Z</time>
      </trkpt>
      <trkpt lat="45.31331" lon="5.84823">
        <ele>1691.4</ele>
        <time>2012-08-29T06:29:06Z</time>
      </trkpt>
      <trkpt lat="45.31338" lon="5.8483">
        <ele>1692</ele>
        <time>2012-08-29T06:29:11Z</time>
      </trkpt>
      <trkpt lat="45.31343" lon="5.84834">
        <ele>1692.8</ele>
        <time>2012-08-29T06:29:15Z</time>
      </trkpt>
      <trkpt lat="45.31344" lon="5.84836">
        <ele>1693</ele>
        <time>2012-08-29T06:29:16Z</time>
      </trkpt>
      <trkpt lat="45.31355" lon="5.84847">
        <ele>1694</ele>
        <time>2012-08-29T06:29:22Z</time>
      </trkpt>
      <trkpt lat="45.3136" lon="5.84853">
        <ele>1694.4</ele>
        <time>2012-08-29T06:29:27Z</time>
      </trkpt>
      <trkpt lat="45.31361" lon="5.84854">
        <ele>1694.6</ele>
        <time>2012-08-29T06:29:28Z</time>
      </trkpt>
      <trkpt lat="45.31365" lon="5.8486">
        <ele>1695.2</ele>
        <time>2012-08-29T06:29:32Z</time>
      </trkpt>
      <trkpt lat="45.3137" lon="5.84869">
        <ele>1696</ele>
        <time>2012-08-29T06:29:37Z</time>
      </trkpt>
      <trkpt lat="45.31377" lon="5.84877">
        <ele>1697</ele>
        <time>2012-08-29T06:29:43Z</time>
      </trkpt>
      <trkpt lat="45.31384" lon="5.84886">
        <ele>1698</ele>
        <time>2012-08-29T06:29:49Z</time>
      </trkpt>
      <trkpt lat="45.31393" lon="5.84888">
        <ele>1698.6</ele>
        <time>2012-08-29T06:29:53Z</time>
      </trkpt>
      <trkpt lat="45.31402" lon="5.84895">
        <ele>1700.2</ele>
        <time>2012-08-29T06:30:00Z</time>
      </trkpt>
      <trkpt lat="45.31408" lon="5.84899">
        <ele>1700.4</ele>
        <time>2012-08-29T06:30:03Z</time>
      </trkpt>
      <trkpt lat="45.31417" lon="5.84905">
        <ele>1702</ele>
        <time>2012-08-29T06:30:10Z</time>
      </trkpt>
      <trkpt lat="45.31421" lon="5.84906">
        <ele>1702.2</ele>
        <time>2012-08-29T06:30:12Z</time>
      </trkpt>
      <trkpt lat="45.31426" lon="5.84911">
        <ele>1702.6</ele>
        <time>2012-08-29T06:30:15Z</time>
      </trkpt>
      <trkpt lat="45.31427" lon="5.84912">
        <ele>1702.8</ele>
        <time>2012-08-29T06:30:17Z</time>
      </trkpt>
      <trkpt lat="45.31432" lon="5.84917">
        <ele>1703.8</ele>
        <time>2012-08-29T06:30:22Z</time>
      </trkpt>
      <trkpt lat="45.31438" lon="5.84926">
        <ele>1704.4</ele>
        <time>2012-08-29T06:30:27Z</time>
      </trkpt>
      <trkpt lat="45.31439" lon="5.84928">
        <ele>1704.6</ele>
        <time>2012-08-29T06:30:28Z</time>
      </trkpt>
      <trkpt lat="45.31445" lon="5.84939">
        <ele>1705</ele>
        <time>2012-08-29T06:30:34Z</time>
      </trkpt>
      <trkpt lat="45.3145" lon="5.84943">
        <ele>1705.6</ele>
        <time>2012-08-29T06:30:38Z</time>
      </trkpt>
      <trkpt lat="45.31451" lon="5.84945">
        <ele>1705.8</ele>
        <time>2012-08-29T06:30:39Z</time>
      </trkpt>
      <trkpt lat="45.31458" lon="5.84953">
        <ele>1706.8</ele>
        <time>2012-08-29T06:30:46Z</time>
      </trkpt>
      <trkpt lat="45.3146" lon="5.84955">
        <ele>1707</ele>
        <time>2012-08-29T06:30:48Z</time>
      </trkpt>
      <trkpt lat="45.31469" lon="5.84962">
        <ele>1708.2</ele>
        <time>2012-08-29T06:30:54Z</time>
      </trkpt>
      <trkpt lat="45.31477" lon="5.84968">
        <ele>1709</ele>
        <time>2012-08-29T06:30:59Z</time>
      </trkpt>
      <trkpt lat="45.31481" lon="5.8497">
        <ele>1709.6</ele>
        <time>2012-08-29T06:31:01Z</time>
      </trkpt>
      <trkpt lat="45.31488" lon="5.84983">
        <ele>1710.4</ele>
        <time>2012-08-29T06:31:06Z</time>
      </trkpt>
      <trkpt lat="45.31497" lon="5.84994">
        <ele>1711</ele>
        <time>2012-08-29T06:31:12Z</time>
      </trkpt>
      <trkpt lat="45.31508" lon="5.85">
        <ele>1712</ele>
        <time>2012-08-29T06:31:18Z</time>
      </trkpt>
      <trkpt lat="45.3152" lon="5.85002">
        <ele>1713</ele>
        <time>2012-08-29T06:31:24Z</time>
      </trkpt>
      <trkpt lat="45.31532" lon="5.85006">
        <ele>1714.6</ele>
        <time>2012-08-29T06:31:31Z</time>
      </trkpt>
      <trkpt lat="45.31539" lon="5.85012">
        <ele>1716.2</ele>
        <time>2012-08-29T06:31:37Z</time>
      </trkpt>
      <trkpt lat="45.31539" lon="5.85012">
        <ele>1716.4</ele>
        <time>2012-08-29T06:31:38Z</time>
      </trkpt>
      <trkpt lat="45.31542" lon="5.85014">
        <ele>1716.8</ele>
        <time>2012-08-29T06:31:41Z</time>
      </trkpt>
      <trkpt lat="45.31548" lon="5.85019">
        <ele>1718.4</ele>
        <time>2012-08-29T06:31:48Z</time>
      </trkpt>
      <trkpt lat="45.31552" lon="5.85022">
        <ele>1719</ele>
        <time>2012-08-29T06:31:51Z</time>
      </trkpt>
      <trkpt lat="45.3156" lon="5.8503">
        <ele>1720</ele>
        <time>2012-08-29T06:31:57Z</time>
      </trkpt>
      <trkpt lat="45.31568" lon="5.85037">
        <ele>1721</ele>
        <time>2012-08-29T06:32:02Z</time>
      </trkpt>
      <trkpt lat="45.31569" lon="5.85038">
        <ele>1721.2</ele>
        <time>2012-08-29T06:32:03Z</time>
      </trkpt>
      <trkpt lat="45.31569" lon="5.8504">
        <ele>1721.2</ele>
        <time>2012-08-29T06:32:04Z</time>
      </trkpt>
      <trkpt lat="45.31574" lon="5.85048">
        <ele>1722</ele>
        <time>2012-08-29T06:32:10Z</time>
      </trkpt>
      <trkpt lat="45.31576" lon="5.85053">
        <ele>1722.6</ele>
        <time>2012-08-29T06:32:13Z</time>
      </trkpt>
      <trkpt lat="45.31578" lon="5.85056">
        <ele>1723.2</ele>
        <time>2012-08-29T06:32:17Z</time>
      </trkpt>
      <trkpt lat="45.31579" lon="5.85058">
        <ele>1723.4</ele>
        <time>2012-08-29T06:32:19Z</time>
      </trkpt>
      <trkpt lat="45.31589" lon="5.85063">
        <ele>1724.6</ele>
        <time>2012-08-29T06:32:24Z</time>
      </trkpt>
      <trkpt lat="45.31592" lon="5.85065">
        <ele>1724.8</ele>
        <time>2012-08-29T06:32:25Z</time>
      </trkpt>
      <trkpt lat="45.31593" lon="5.85066">
        <ele>1725</ele>
        <time>2012-08-29T06:32:26Z</time>
      </trkpt>
      <trkpt lat="45.31596" lon="5.85078">
        <ele>1725.6</ele>
        <time>2012-08-29T06:32:32Z</time>
      </trkpt>
      <trkpt lat="45.31599" lon="5.85084">
        <ele>1726</ele>
        <time>2012-08-29T06:32:37Z</time>
      </trkpt>
      <trkpt lat="45.31602" lon="5.85087">
        <ele>1726.6</ele>
        <time>2012-08-29T06:32:41Z</time>
      </trkpt>
      <trkpt lat="45.31605" lon="5.85088">
        <ele>1727.2</ele>
        <time>2012-08-29T06:32:44Z</time>
      </trkpt>
      <trkpt lat="45.31612" lon="5.85092">
        <ele>1728.4</ele>
        <time>2012-08-29T06:32:52Z</time>
      </trkpt>
      <trkpt lat="45.31619" lon="5.85092">
        <ele>1729.2</ele>
        <time>2012-08-29T06:32:56Z</time>
      </trkpt>
      <trkpt lat="45.31622" lon="5.85093">
        <ele>1729.4</ele>
        <time>2012-08-29T06:32:58Z</time>
      </trkpt>
      <trkpt lat="45.31625" lon="5.85095">
        <ele>1730</ele>
        <time>2012-08-29T06:33:03Z</time>
      </trkpt>
      <trkpt lat="45.31625" lon="5.85095">
        <ele>1730</ele>
        <time>2012-08-29T06:33:04Z</time>
      </trkpt>
      <trkpt lat="45.31628" lon="5.85097">
        <ele>1730.4</ele>
        <time>2012-08-29T06:33:10Z</time>
      </trkpt>
      <trkpt lat="45.3163" lon="5.85098">
        <ele>1730.4</ele>
        <time>2012-08-29T06:33:14Z</time>
      </trkpt>
      <trkpt lat="45.31631" lon="5.85096">
        <ele>1730.6</ele>
        <time>2012-08-29T06:33:18Z</time>
      </trkpt>
      <trkpt lat="45.31634" lon="5.85099">
        <ele>1730.6</ele>
        <time>2012-08-29T06:33:25Z</time>
      </trkpt>
      <trkpt lat="45.31637" lon="5.85101">
        <ele>1730.6</ele>
        <time>2012-08-29T06:33:37Z</time>
      </trkpt>
      <trkpt lat="45.31638" lon="5.85099">
        <ele>1730.6</ele>
        <time>2012-08-29T06:33:42Z</time>
      </trkpt>
      <trkpt lat="45.31642" lon="5.85099">
        <ele>1730.6</ele>
        <time>2012-08-29T06:33:47Z</time>
      </trkpt>
      <trkpt lat="45.31645" lon="5.85103">
        <ele>1730.6</ele>
        <time>2012-08-29T06:33:52Z</time>
      </trkpt>
      <trkpt lat="45.31651" lon="5.851">
        <ele>1730.6</ele>
        <time>2012-08-29T06:33:56Z</time>
      </trkpt>
      <trkpt lat="45.31652" lon="5.85101">
        <ele>1730.6</ele>
        <time>2012-08-29T06:33:57Z</time>
      </trkpt>
      <trkpt lat="45.31652" lon="5.85108">
        <ele>1730.6</ele>
        <time>2012-08-29T06:34:00Z</time>
      </trkpt>
      <trkpt lat="45.31652" lon="5.85108">
        <ele>1730.6</ele>
        <time>2012-08-29T06:34:01Z</time>
      </trkpt>
      <trkpt lat="45.31657" lon="5.85107">
        <ele>1730.6</ele>
        <time>2012-08-29T06:34:07Z</time>
      </trkpt>
      <trkpt lat="45.31659" lon="5.85109">
        <ele>1730.6</ele>
        <time>2012-08-29T06:34:08Z</time>
      </trkpt>
      <trkpt lat="45.31663" lon="5.85111">
        <ele>1730.4</ele>
        <time>2012-08-29T06:34:11Z</time>
      </trkpt>
      <trkpt lat="45.31671" lon="5.85113">
        <ele>1729.6</ele>
        <time>2012-08-29T06:34:17Z</time>
      </trkpt>
      <trkpt lat="45.31676" lon="5.85116">
        <ele>1728.6</ele>
        <time>2012-08-29T06:34:21Z</time>
      </trkpt>
      <trkpt lat="45.3168" lon="5.85117">
        <ele>1727.6</ele>
        <time>2012-08-29T06:34:25Z</time>
      </trkpt>
      <trkpt lat="45.31684" lon="5.8512">
        <ele>1726.2</ele>
        <time>2012-08-29T06:34:29Z</time>
      </trkpt>
      <trkpt lat="45.31692" lon="5.85125">
        <ele>1723.4</ele>
        <time>2012-08-29T06:34:37Z</time>
      </trkpt>
      <trkpt lat="45.31694" lon="5.85125">
        <ele>1723</ele>
        <time>2012-08-29T06:34:38Z</time>
      </trkpt>
      <trkpt lat="45.31694" lon="5.85125">
        <ele>1722.8</ele>
        <time>2012-08-29T06:34:39Z</time>
      </trkpt>
      <trkpt lat="45.31706" lon="5.85123">
        <ele>1719.8</ele>
        <time>2012-08-29T06:34:46Z</time>
      </trkpt>
      <trkpt lat="45.31708" lon="5.85124">
        <ele>1719.2</ele>
        <time>2012-08-29T06:34:47Z</time>
      </trkpt>
      <trkpt lat="45.31716" lon="5.85133">
        <ele>1716.6</ele>
        <time>2012-08-29T06:34:53Z</time>
      </trkpt>
      <trkpt lat="45.3172" lon="5.85136">
        <ele>1716</ele>
        <time>2012-08-29T06:34:55Z</time>
      </trkpt>
      <trkpt lat="45.31727" lon="5.85142">
        <ele>1713.8</ele>
        <time>2012-08-29T06:35:00Z</time>
      </trkpt>
      <trkpt lat="45.31731" lon="5.85141">
        <ele>1711.4</ele>
        <time>2012-08-29T06:35:07Z</time>
      </trkpt>
      <trkpt lat="45.3174" lon="5.85143">
        <ele>1709.8</ele>
        <time>2012-08-29T06:35:13Z</time>
      </trkpt>
      <trkpt lat="45.31746" lon="5.85144">
        <ele>1708.6</ele>
        <time>2012-08-29T06:35:17Z</time>
      </trkpt>
      <trkpt lat="45.31752" lon="5.85144">
        <ele>1707.4</ele>
        <time>2012-08-29T06:35:21Z</time>
      </trkpt>
      <trkpt lat="45.31756" lon="5.85143">
        <ele>1706</ele>
        <time>2012-08-29T06:35:25Z</time>
      </trkpt>
      <trkpt lat="45.31758" lon="5.85142">
        <ele>1705.2</ele>
        <time>2012-08-29T06:35:27Z</time>
      </trkpt>
      <trkpt lat="45.31765" lon="5.85142">
        <ele>1703.2</ele>
        <time>2012-08-29T06:35:32Z</time>
      </trkpt>
      <trkpt lat="45.31775" lon="5.85148">
        <ele>1701.2</ele>
        <time>2012-08-29T06:35:37Z</time>
      </trkpt>
      <trkpt lat="45.31776" lon="5.85149">
        <ele>1701</ele>
        <time>2012-08-29T06:35:38Z</time>
      </trkpt>
      <trkpt lat="45.31779" lon="5.85153">
        <ele>1699.8</ele>
        <time>2012-08-29T06:35:42Z</time>
      </trkpt>
      <trkpt lat="45.31782" lon="5.85154">
        <ele>1699.2</ele>
        <time>2012-08-29T06:35:44Z</time>
      </trkpt>
      <trkpt lat="45.31788" lon="5.85156">
        <ele>1697.8</ele>
        <time>2012-08-29T06:35:49Z</time>
      </trkpt>
      <trkpt lat="45.31794" lon="5.85155">
        <ele>1697</ele>
        <time>2012-08-29T06:35:54Z</time>
      </trkpt>
      <trkpt lat="45.31799" lon="5.85155">
        <ele>1696</ele>
        <time>2012-08-29T06:35:59Z</time>
      </trkpt>
      <trkpt lat="45.31801" lon="5.85154">
        <ele>1695.4</ele>
        <time>2012-08-29T06:36:01Z</time>
      </trkpt>
      <trkpt lat="45.3181" lon="5.85154">
        <ele>1694</ele>
        <time>2012-08-29T06:36:07Z</time>
      </trkpt>
      <trkpt lat="45.31812" lon="5.85154">
        <ele>1693.8</ele>
        <time>2012-08-29T06:36:08Z</time>
      </trkpt>
      <trkpt lat="45.31819" lon="5.85158">
        <ele>1692</ele>
        <time>2012-08-29T06:36:15Z</time>
      </trkpt>
      <trkpt lat="45.31823" lon="5.85158">
        <ele>1691.6</ele>
        <time>2012-08-29T06:36:17Z</time>
      </trkpt>
      <trkpt lat="45.31826" lon="5.85157">
        <ele>1691.2</ele>
        <time>2012-08-29T06:36:19Z</time>
      </trkpt>
      <trkpt lat="45.31833" lon="5.85162">
        <ele>1689.6</ele>
        <time>2012-08-29T06:36:24Z</time>
      </trkpt>
      <trkpt lat="45.31841" lon="5.85164">
        <ele>1688.8</ele>
        <time>2012-08-29T06:36:28Z</time>
      </trkpt>
      <trkpt lat="45.31845" lon="5.85166">
        <ele>1688</ele>
        <time>2012-08-29T06:36:30Z</time>
      </trkpt>
      <trkpt lat="45.31849" lon="5.85164">
        <ele>1686.6</ele>
        <time>2012-08-29T06:36:36Z</time>
      </trkpt>
      <trkpt lat="45.31852" lon="5.85162">
        <ele>1685.2</ele>
        <time>2012-08-29T06:36:40Z</time>
      </trkpt>
      <trkpt lat="45.31852" lon="5.85162">
        <ele>1683.8</ele>
        <time>2012-08-29T06:36:46Z</time>
      </trkpt>
      <trkpt lat="45.31854" lon="5.85161">
        <ele>1682.4</ele>
        <time>2012-08-29T06:36:52Z</time>
      </trkpt>
      <trkpt lat="45.31856" lon="5.8516">
        <ele>1680.4</ele>
        <time>2012-08-29T06:36:58Z</time>
      </trkpt>
      <trkpt lat="45.31855" lon="5.85156">
        <ele>1678.6</ele>
        <time>2012-08-29T06:37:03Z</time>
      </trkpt>
      <trkpt lat="45.31859" lon="5.85156">
        <ele>1676.8</ele>
        <time>2012-08-29T06:37:08Z</time>
      </trkpt>
      <trkpt lat="45.3186" lon="5.85153">
        <ele>1675.4</ele>
        <time>2012-08-29T06:37:12Z</time>
      </trkpt>
      <trkpt lat="45.31865" lon="5.85151">
        <ele>1674.2</ele>
        <time>2012-08-29T06:37:16Z</time>
      </trkpt>
      <trkpt lat="45.31869" lon="5.85152">
        <ele>1673.2</ele>
        <time>2012-08-29T06:37:18Z</time>
      </trkpt>
      <trkpt lat="45.31876" lon="5.8515">
        <ele>1670.8</ele>
        <time>2012-08-29T06:37:24Z</time>
      </trkpt>
      <trkpt lat="45.31878" lon="5.8515">
        <ele>1670.2</ele>
        <time>2012-08-29T06:37:27Z</time>
      </trkpt>
      <trkpt lat="45.3188" lon="5.8515">
        <ele>1668.4</ele>
        <time>2012-08-29T06:37:32Z</time>
      </trkpt>
      <trkpt lat="45.31881" lon="5.85149">
        <ele>1664.4</ele>
        <time>2012-08-29T06:37:47Z</time>
      </trkpt>
      <trkpt lat="45.31883" lon="5.85146">
        <ele>1663.2</ele>
        <time>2012-08-29T06:37:52Z</time>
      </trkpt>
      <trkpt lat="45.31884" lon="5.85146">
        <ele>1662.8</ele>
        <time>2012-08-29T06:37:53Z</time>
      </trkpt>
      <trkpt lat="45.31888" lon="5.85148">
        <ele>1662.2</ele>
        <time>2012-08-29T06:37:57Z</time>
      </trkpt>
      <trkpt lat="45.31889" lon="5.85148">
        <ele>1662</ele>
        <time>2012-08-29T06:37:58Z</time>
      </trkpt>
      <trkpt lat="45.31892" lon="5.8515">
        <ele>1661.8</ele>
        <time>2012-08-29T06:38:00Z</time>
      </trkpt>
      <trkpt lat="45.31899" lon="5.8515">
        <ele>1660.6</ele>
        <time>2012-08-29T06:38:05Z</time>
      </trkpt>
      <trkpt lat="45.31901" lon="5.85149">
        <ele>1659.8</ele>
        <time>2012-08-29T06:38:11Z</time>
      </trkpt>
      <trkpt lat="45.31902" lon="5.85149">
        <ele>1659.4</ele>
        <time>2012-08-29T06:38:12Z</time>
      </trkpt>
      <trkpt lat="45.31905" lon="5.85149">
        <ele>1658.2</ele>
        <time>2012-08-29T06:38:17Z</time>
      </trkpt>
      <trkpt lat="45.31906" lon="5.8515">
        <ele>1658.2</ele>
        <time>2012-08-29T06:38:18Z</time>
      </trkpt>
      <trkpt lat="45.31908" lon="5.85153">
        <ele>1656.8</ele>
        <time>2012-08-29T06:38:24Z</time>
      </trkpt>
      <trkpt lat="45.31909" lon="5.85157">
        <ele>1655.6</ele>
        <time>2012-08-29T06:38:31Z</time>
      </trkpt>
      <trkpt lat="45.31908" lon="5.85159">
        <ele>1652.8</ele>
        <time>2012-08-29T06:38:56Z</time>
      </trkpt>
      <trkpt lat="45.31905" lon="5.85161">
        <ele>1652.8</ele>
        <time>2012-08-29T06:39:00Z</time>
      </trkpt>
      <trkpt lat="45.31902" lon="5.85162">
        <ele>1652.8</ele>
        <time>2012-08-29T06:39:04Z</time>
      </trkpt>
      <trkpt lat="45.31901" lon="5.85163">
        <ele>1652.6</ele>
        <time>2012-08-29T06:39:07Z</time>
      </trkpt>
      <trkpt lat="45.31896" lon="5.85165">
        <ele>1652.6</ele>
        <time>2012-08-29T06:39:12Z</time>
      </trkpt>
      <trkpt lat="45.31895" lon="5.85164">
        <ele>1652.6</ele>
        <time>2012-08-29T06:39:13Z</time>
      </trkpt>
      <trkpt lat="45.3189" lon="5.85159">
        <ele>1652.6</ele>
        <time>2012-08-29T06:39:17Z</time>
      </trkpt>
      <trkpt lat="45.31888" lon="5.85159">
        <ele>1652.6</ele>
        <time>2012-08-29T06:39:20Z</time>
      </trkpt>
      <trkpt lat="45.31888" lon="5.85161">
        <ele>1652.6</ele>
        <time>2012-08-29T06:39:23Z</time>
      </trkpt>
      <trkpt lat="45.31885" lon="5.85163">
        <ele>1652.6</ele>
        <time>2012-08-29T06:39:28Z</time>
      </trkpt>
      <trkpt lat="45.31883" lon="5.85165">
        <ele>1652.6</ele>
        <time>2012-08-29T06:39:33Z</time>
      </trkpt>
      <trkpt lat="45.31882" lon="5.85165">
        <ele>1652.6</ele>
        <time>2012-08-29T06:39:34Z</time>
      </trkpt>
      <trkpt lat="45.31879" lon="5.85166">
        <ele>1652.6</ele>
        <time>2012-08-29T06:39:39Z</time>
      </trkpt>
      <trkpt lat="45.31878" lon="5.85167">
        <ele>1652.6</ele>
        <time>2012-08-29T06:39:40Z</time>
      </trkpt>
      <trkpt lat="45.31873" lon="5.85169">
        <ele>1652.6</ele>
        <time>2012-08-29T06:39:45Z</time>
      </trkpt>
      <trkpt lat="45.31873" lon="5.85168">
        <ele>1652.6</ele>
        <time>2012-08-29T06:39:46Z</time>
      </trkpt>
      <trkpt lat="45.31869" lon="5.85167">
        <ele>1652.6</ele>
        <time>2012-08-29T06:39:51Z</time>
      </trkpt>
      <trkpt lat="45.31868" lon="5.85167">
        <ele>1652.6</ele>
        <time>2012-08-29T06:39:52Z</time>
      </trkpt>
      <trkpt lat="45.31866" lon="5.85171">
        <ele>1652.6</ele>
        <time>2012-08-29T06:39:57Z</time>
      </trkpt>
      <trkpt lat="45.31861" lon="5.8517">
        <ele>1652.6</ele>
        <time>2012-08-29T06:40:04Z</time>
      </trkpt>
      <trkpt lat="45.3186" lon="5.85173">
        <ele>1652.6</ele>
        <time>2012-08-29T06:40:08Z</time>
      </trkpt>
      <trkpt lat="45.31857" lon="5.85175">
        <ele>1652.6</ele>
        <time>2012-08-29T06:40:15Z</time>
      </trkpt>
      <trkpt lat="45.31854" lon="5.85178">
        <ele>1653.8</ele>
        <time>2012-08-29T06:40:25Z</time>
      </trkpt>
      <trkpt lat="45.3185" lon="5.85178">
        <ele>1654.2</ele>
        <time>2012-08-29T06:40:32Z</time>
      </trkpt>
      <trkpt lat="45.31843" lon="5.85178">
        <ele>1655</ele>
        <time>2012-08-29T06:40:37Z</time>
      </trkpt>
      <trkpt lat="45.31839" lon="5.85178">
        <ele>1655.6</ele>
        <time>2012-08-29T06:40:41Z</time>
      </trkpt>
      <trkpt lat="45.31838" lon="5.85178">
        <ele>1655.6</ele>
        <time>2012-08-29T06:40:42Z</time>
      </trkpt>
      <trkpt lat="45.31827" lon="5.85178">
        <ele>1656.4</ele>
        <time>2012-08-29T06:40:49Z</time>
      </trkpt>
      <trkpt lat="45.31826" lon="5.85178">
        <ele>1656.6</ele>
        <time>2012-08-29T06:40:50Z</time>
      </trkpt>
      <trkpt lat="45.31826" lon="5.85177">
        <ele>1656.8</ele>
        <time>2012-08-29T06:40:51Z</time>
      </trkpt>
      <trkpt lat="45.31822" lon="5.85175">
        <ele>1657.6</ele>
        <time>2012-08-29T06:40:56Z</time>
      </trkpt>
      <trkpt lat="45.31818" lon="5.8517">
        <ele>1658.2</ele>
        <time>2012-08-29T06:41:00Z</time>
      </trkpt>
      <trkpt lat="45.31812" lon="5.85173">
        <ele>1659.4</ele>
        <time>2012-08-29T06:41:06Z</time>
      </trkpt>
      <trkpt lat="45.31806" lon="5.85173">
        <ele>1660.6</ele>
        <time>2012-08-29T06:41:12Z</time>
      </trkpt>
      <trkpt lat="45.31805" lon="5.85174">
        <ele>1661</ele>
        <time>2012-08-29T06:41:14Z</time>
      </trkpt>
      <trkpt lat="45.318" lon="5.85174">
        <ele>1662.4</ele>
        <time>2012-08-29T06:41:22Z</time>
      </trkpt>
      <trkpt lat="45.31796" lon="5.85177">
        <ele>1663.4</ele>
        <time>2012-08-29T06:41:27Z</time>
      </trkpt>
      <trkpt lat="45.31794" lon="5.85178">
        <ele>1663.8</ele>
        <time>2012-08-29T06:41:30Z</time>
      </trkpt>
      <trkpt lat="45.3179" lon="5.85178">
        <ele>1665</ele>
        <time>2012-08-29T06:41:34Z</time>
      </trkpt>
      <trkpt lat="45.31787" lon="5.85176">
        <ele>1667</ele>
        <time>2012-08-29T06:41:43Z</time>
      </trkpt>
      <trkpt lat="45.31784" lon="5.85175">
        <ele>1668.8</ele>
        <time>2012-08-29T06:41:50Z</time>
      </trkpt>
      <trkpt lat="45.31782" lon="5.85175">
        <ele>1672</ele>
        <time>2012-08-29T06:41:59Z</time>
      </trkpt>
      <trkpt lat="45.31782" lon="5.85177">
        <ele>1674.8</ele>
        <time>2012-08-29T06:42:06Z</time>
      </trkpt>
      <trkpt lat="45.31782" lon="5.85177">
        <ele>1676.6</ele>
        <time>2012-08-29T06:42:11Z</time>
      </trkpt>
      <trkpt lat="45.31783" lon="5.85178">
        <ele>1678.8</ele>
        <time>2012-08-29T06:42:17Z</time>
      </trkpt>
      <trkpt lat="45.31784" lon="5.8518">
        <ele>1680.6</ele>
        <time>2012-08-29T06:42:22Z</time>
      </trkpt>
      <trkpt lat="45.31785" lon="5.85182">
        <ele>1682.2</ele>
        <time>2012-08-29T06:42:28Z</time>
      </trkpt>
      <trkpt lat="45.31788" lon="5.85181">
        <ele>1683.8</ele>
        <time>2012-08-29T06:42:33Z</time>
      </trkpt>
      <trkpt lat="45.31792" lon="5.85182">
        <ele>1684.6</ele>
        <time>2012-08-29T06:42:36Z</time>
      </trkpt>
      <trkpt lat="45.31801" lon="5.85184">
        <ele>1685.8</ele>
        <time>2012-08-29T06:42:41Z</time>
      </trkpt>
      <trkpt lat="45.31806" lon="5.85187">
        <ele>1686.6</ele>
        <time>2012-08-29T06:42:45Z</time>
      </trkpt>
      <trkpt lat="45.31806" lon="5.85188">
        <ele>1686.8</ele>
        <time>2012-08-29T06:42:46Z</time>
      </trkpt>
      <trkpt lat="45.31807" lon="5.85188">
        <ele>1687.2</ele>
        <time>2012-08-29T06:42:49Z</time>
      </trkpt>
      <trkpt lat="45.31812" lon="5.85191">
        <ele>1688.8</ele>
        <time>2012-08-29T06:42:55Z</time>
      </trkpt>
      <trkpt lat="45.31815" lon="5.85192">
        <ele>1689.2</ele>
        <time>2012-08-29T06:42:58Z</time>
      </trkpt>
      <trkpt lat="45.31817" lon="5.85191">
        <ele>1689.8</ele>
        <time>2012-08-29T06:43:02Z</time>
      </trkpt>
      <trkpt lat="45.31823" lon="5.85196">
        <ele>1691.2</ele>
        <time>2012-08-29T06:43:09Z</time>
      </trkpt>
      <trkpt lat="45.31826" lon="5.85196">
        <ele>1691.8</ele>
        <time>2012-08-29T06:43:15Z</time>
      </trkpt>
      <trkpt lat="45.31829" lon="5.85201">
        <ele>1693</ele>
        <time>2012-08-29T06:43:20Z</time>
      </trkpt>
      <trkpt lat="45.3183" lon="5.85205">
        <ele>1693.4</ele>
        <time>2012-08-29T06:43:25Z</time>
      </trkpt>
      <trkpt lat="45.31836" lon="5.85202">
        <ele>1694</ele>
        <time>2012-08-29T06:43:32Z</time>
      </trkpt>
      <trkpt lat="45.31838" lon="5.85203">
        <ele>1694</ele>
        <time>2012-08-29T06:43:35Z</time>
      </trkpt>
      <trkpt lat="45.31838" lon="5.85206">
        <ele>1694.8</ele>
        <time>2012-08-29T06:43:41Z</time>
      </trkpt>
      <trkpt lat="45.31841" lon="5.85206">
        <ele>1696</ele>
        <time>2012-08-29T06:43:53Z</time>
      </trkpt>
      <trkpt lat="45.31844" lon="5.85207">
        <ele>1696.2</ele>
        <time>2012-08-29T06:44:00Z</time>
      </trkpt>
      <trkpt lat="45.31846" lon="5.85207">
        <ele>1697</ele>
        <time>2012-08-29T06:44:05Z</time>
      </trkpt>
      <trkpt lat="45.31848" lon="5.85205">
        <ele>1697.6</ele>
        <time>2012-08-29T06:44:09Z</time>
      </trkpt>
      <trkpt lat="45.3185" lon="5.85204">
        <ele>1698.4</ele>
        <time>2012-08-29T06:44:13Z</time>
      </trkpt>
      <trkpt lat="45.31851" lon="5.85206">
        <ele>1698.8</ele>
        <time>2012-08-29T06:44:15Z</time>
      </trkpt>
      <trkpt lat="45.31855" lon="5.85213">
        <ele>1699.6</ele>
        <time>2012-08-29T06:44:20Z</time>
      </trkpt>
      <trkpt lat="45.31855" lon="5.85215">
        <ele>1700</ele>
        <time>2012-08-29T06:44:22Z</time>
      </trkpt>
      <trkpt lat="45.31856" lon="5.85217">
        <ele>1700.8</ele>
        <time>2012-08-29T06:44:25Z</time>
      </trkpt>
      <trkpt lat="45.31859" lon="5.85216">
        <ele>1701.8</ele>
        <time>2012-08-29T06:44:31Z</time>
      </trkpt>
      <trkpt lat="45.31858" lon="5.85219">
        <ele>1702.6</ele>
        <time>2012-08-29T06:44:35Z</time>
      </trkpt>
      <trkpt lat="45.31858" lon="5.85222">
        <ele>1703.6</ele>
        <time>2012-08-29T06:44:40Z</time>
      </trkpt>
      <trkpt lat="45.31858" lon="5.85225">
        <ele>1704.6</ele>
        <time>2012-08-29T06:44:44Z</time>
      </trkpt>
      <trkpt lat="45.31859" lon="5.85226">
        <ele>1705.4</ele>
        <time>2012-08-29T06:44:48Z</time>
      </trkpt>
      <trkpt lat="45.31861" lon="5.85224">
        <ele>1706.2</ele>
        <time>2012-08-29T06:44:51Z</time>
      </trkpt>
      <trkpt lat="45.31865" lon="5.85225">
        <ele>1708</ele>
        <time>2012-08-29T06:44:57Z</time>
      </trkpt>
      <trkpt lat="45.31866" lon="5.85227">
        <ele>1709.6</ele>
        <time>2012-08-29T06:45:02Z</time>
      </trkpt>
      <trkpt lat="45.31871" lon="5.85235">
        <ele>1711.4</ele>
        <time>2012-08-29T06:45:07Z</time>
      </trkpt>
      <trkpt lat="45.31873" lon="5.85238">
        <ele>1712.6</ele>
        <time>2012-08-29T06:45:10Z</time>
      </trkpt>
      <trkpt lat="45.31874" lon="5.85241">
        <ele>1714.2</ele>
        <time>2012-08-29T06:45:15Z</time>
      </trkpt>
      <trkpt lat="45.31874" lon="5.85244">
        <ele>1715</ele>
        <time>2012-08-29T06:45:17Z</time>
      </trkpt>
      <trkpt lat="45.31873" lon="5.85246">
        <ele>1717</ele>
        <time>2012-08-29T06:45:24Z</time>
      </trkpt>
      <trkpt lat="45.31874" lon="5.85248">
        <ele>1718.2</ele>
        <time>2012-08-29T06:45:28Z</time>
      </trkpt>
      <trkpt lat="45.31873" lon="5.85253">
        <ele>1721</ele>
        <time>2012-08-29T06:45:40Z</time>
      </trkpt>
      <trkpt lat="45.31871" lon="5.85248">
        <ele>1722.6</ele>
        <time>2012-08-29T06:45:45Z</time>
      </trkpt>
      <trkpt lat="45.31868" lon="5.85246">
        <ele>1723.6</ele>
        <time>2012-08-29T06:45:50Z</time>
      </trkpt>
      <trkpt lat="45.31864" lon="5.85242">
        <ele>1725</ele>
        <time>2012-08-29T06:45:56Z</time>
      </trkpt>
      <trkpt lat="45.31862" lon="5.8524">
        <ele>1726</ele>
        <time>2012-08-29T06:46:01Z</time>
      </trkpt>
      <trkpt lat="45.31859" lon="5.85237">
        <ele>1727</ele>
        <time>2012-08-29T06:46:05Z</time>
      </trkpt>
      <trkpt lat="45.31855" lon="5.85235">
        <ele>1728.6</ele>
        <time>2012-08-29T06:46:12Z</time>
      </trkpt>
      <trkpt lat="45.31855" lon="5.85237">
        <ele>1730</ele>
        <time>2012-08-29T06:46:17Z</time>
      </trkpt>
      <trkpt lat="45.3186" lon="5.85241">
        <ele>1731.6</ele>
        <time>2012-08-29T06:46:22Z</time>
      </trkpt>
      <trkpt lat="45.31859" lon="5.85245">
        <ele>1733.6</ele>
        <time>2012-08-29T06:46:28Z</time>
      </trkpt>
      <trkpt lat="45.31868" lon="5.85255">
        <ele>1736.6</ele>
        <time>2012-08-29T06:46:38Z</time>
      </trkpt>
      <trkpt lat="45.31869" lon="5.8526">
        <ele>1737.8</ele>
        <time>2012-08-29T06:46:42Z</time>
      </trkpt>
      <trkpt lat="45.31873" lon="5.85267">
        <ele>1739</ele>
        <time>2012-08-29T06:46:48Z</time>
      </trkpt>
      <trkpt lat="45.31874" lon="5.85269">
        <ele>1739.2</ele>
        <time>2012-08-29T06:46:49Z</time>
      </trkpt>
      <trkpt lat="45.31876" lon="5.85271">
        <ele>1739.8</ele>
        <time>2012-08-29T06:46:51Z</time>
      </trkpt>
      <trkpt lat="45.31878" lon="5.85276">
        <ele>1740.6</ele>
        <time>2012-08-29T06:46:56Z</time>
      </trkpt>
      <trkpt lat="45.31883" lon="5.85282">
        <ele>1741.8</ele>
        <time>2012-08-29T06:47:01Z</time>
      </trkpt>
      <trkpt lat="45.31885" lon="5.85286">
        <ele>1742.4</ele>
        <time>2012-08-29T06:47:05Z</time>
      </trkpt>
      <trkpt lat="45.31886" lon="5.85287">
        <ele>1742.6</ele>
        <time>2012-08-29T06:47:07Z</time>
      </trkpt>
      <trkpt lat="45.31889" lon="5.85291">
        <ele>1743.8</ele>
        <time>2012-08-29T06:47:12Z</time>
      </trkpt>
      <trkpt lat="45.31892" lon="5.85296">
        <ele>1745</ele>
        <time>2012-08-29T06:47:17Z</time>
      </trkpt>
      <trkpt lat="45.31894" lon="5.85299">
        <ele>1746.2</ele>
        <time>2012-08-29T06:47:22Z</time>
      </trkpt>
      <trkpt lat="45.31898" lon="5.85298">
        <ele>1747.2</ele>
        <time>2012-08-29T06:47:26Z</time>
      </trkpt>
      <trkpt lat="45.31902" lon="5.85305">
        <ele>1749</ele>
        <time>2012-08-29T06:47:33Z</time>
      </trkpt>
      <trkpt lat="45.31902" lon="5.85305">
        <ele>1749.4</ele>
        <time>2012-08-29T06:47:34Z</time>
      </trkpt>
      <trkpt lat="45.31903" lon="5.85307">
        <ele>1750</ele>
        <time>2012-08-29T06:47:36Z</time>
      </trkpt>
      <trkpt lat="45.31904" lon="5.85309">
        <ele>1750.4</ele>
        <time>2012-08-29T06:47:38Z</time>
      </trkpt>
      <trkpt lat="45.31907" lon="5.85311">
        <ele>1751.6</ele>
        <time>2012-08-29T06:47:43Z</time>
      </trkpt>
      <trkpt lat="45.31908" lon="5.85315">
        <ele>1753</ele>
        <time>2012-08-29T06:47:49Z</time>
      </trkpt>
      <trkpt lat="45.31908" lon="5.85316">
        <ele>1754.2</ele>
        <time>2012-08-29T06:47:53Z</time>
      </trkpt>
      <trkpt lat="45.31907" lon="5.8532">
        <ele>1755.4</ele>
        <time>2012-08-29T06:47:59Z</time>
      </trkpt>
      <trkpt lat="45.3191" lon="5.85325">
        <ele>1757</ele>
        <time>2012-08-29T06:48:06Z</time>
      </trkpt>
      <trkpt lat="45.31908" lon="5.85328">
        <ele>1757.8</ele>
        <time>2012-08-29T06:48:11Z</time>
      </trkpt>
      <trkpt lat="45.31909" lon="5.8533">
        <ele>1758.8</ele>
        <time>2012-08-29T06:48:15Z</time>
      </trkpt>
      <trkpt lat="45.31915" lon="5.85338">
        <ele>1760.6</ele>
        <time>2012-08-29T06:48:24Z</time>
      </trkpt>
      <trkpt lat="45.31916" lon="5.85342">
        <ele>1761.4</ele>
        <time>2012-08-29T06:48:27Z</time>
      </trkpt>
      <trkpt lat="45.31912" lon="5.85354">
        <ele>1762</ele>
        <time>2012-08-29T06:48:34Z</time>
      </trkpt>
      <trkpt lat="45.31914" lon="5.85358">
        <ele>1762.8</ele>
        <time>2012-08-29T06:48:37Z</time>
      </trkpt>
      <trkpt lat="45.31916" lon="5.85361">
        <ele>1763.4</ele>
        <time>2012-08-29T06:48:40Z</time>
      </trkpt>
      <trkpt lat="45.31918" lon="5.85374">
        <ele>1764.6</ele>
        <time>2012-08-29T06:48:46Z</time>
      </trkpt>
      <trkpt lat="45.31919" lon="5.85379">
        <ele>1765.2</ele>
        <time>2012-08-29T06:48:49Z</time>
      </trkpt>
      <trkpt lat="45.31915" lon="5.85398">
        <ele>1767.2</ele>
        <time>2012-08-29T06:48:57Z</time>
      </trkpt>
      <trkpt lat="45.31912" lon="5.85404">
        <ele>1767.8</ele>
        <time>2012-08-29T06:49:00Z</time>
      </trkpt>
      <trkpt lat="45.31912" lon="5.85418">
        <ele>1769.4</ele>
        <time>2012-08-29T06:49:06Z</time>
      </trkpt>
      <trkpt lat="45.31912" lon="5.8542">
        <ele>1769.6</ele>
        <time>2012-08-29T06:49:07Z</time>
      </trkpt>
      <trkpt lat="45.31913" lon="5.85433">
        <ele>1771</ele>
        <time>2012-08-29T06:49:14Z</time>
      </trkpt>
      <trkpt lat="45.31908" lon="5.85444">
        <ele>1772</ele>
        <time>2012-08-29T06:49:19Z</time>
      </trkpt>
      <trkpt lat="45.31904" lon="5.85455">
        <ele>1773.4</ele>
        <time>2012-08-29T06:49:25Z</time>
      </trkpt>
      <trkpt lat="45.319" lon="5.85466">
        <ele>1775.2</ele>
        <time>2012-08-29T06:49:32Z</time>
      </trkpt>
      <trkpt lat="45.31898" lon="5.85473">
        <ele>1777</ele>
        <time>2012-08-29T06:49:39Z</time>
      </trkpt>
      <trkpt lat="45.319" lon="5.85473">
        <ele>1778.2</ele>
        <time>2012-08-29T06:49:44Z</time>
      </trkpt>
      <trkpt lat="45.31902" lon="5.85475">
        <ele>1778.8</ele>
        <time>2012-08-29T06:49:46Z</time>
      </trkpt>
      <trkpt lat="45.31903" lon="5.85479">
        <ele>1780</ele>
        <time>2012-08-29T06:49:50Z</time>
      </trkpt>
      <trkpt lat="45.31904" lon="5.85478">
        <ele>1780.8</ele>
        <time>2012-08-29T06:49:55Z</time>
      </trkpt>
      <trkpt lat="45.31905" lon="5.85482">
        <ele>1782.6</ele>
        <time>2012-08-29T06:50:03Z</time>
      </trkpt>
      <trkpt lat="45.31904" lon="5.85479">
        <ele>1790.6</ele>
        <time>2012-08-29T06:55:35Z</time>
      </trkpt>
      <trkpt lat="45.31904" lon="5.85476">
        <ele>1790.6</ele>
        <time>2012-08-29T06:55:40Z</time>
      </trkpt>
      <trkpt lat="45.31904" lon="5.85478">
        <ele>1791.4</ele>
        <time>2012-08-29T06:56:37Z</time>
      </trkpt>
      <trkpt lat="45.31905" lon="5.85478">
        <ele>1791.8</ele>
        <time>2012-08-29T06:56:43Z</time>
      </trkpt>
      <trkpt lat="45.31906" lon="5.85478">
        <ele>1792.4</ele>
        <time>2012-08-29T06:57:25Z</time>
      </trkpt>
      <trkpt lat="45.31908" lon="5.85479">
        <ele>1792.4</ele>
        <time>2012-08-29T06:57:35Z</time>
      </trkpt>
      <trkpt lat="45.31909" lon="5.85481">
        <ele>1792.4</ele>
        <time>2012-08-29T06:57:54Z</time>
      </trkpt>
      <trkpt lat="45.31913" lon="5.85483">
        <ele>1792.4</ele>
        <time>2012-08-29T06:58:00Z</time>
      </trkpt>
      <trkpt lat="45.31913" lon="5.85484">
        <ele>1792.4</ele>
        <time>2012-08-29T06:58:06Z</time>
      </trkpt>
      <trkpt lat="45.31913" lon="5.85485">
        <ele>1792.4</ele>
        <time>2012-08-29T06:58:09Z</time>
      </trkpt>
      <trkpt lat="45.31918" lon="5.85492">
        <ele>1792.4</ele>
        <time>2012-08-29T06:58:13Z</time>
      </trkpt>
      <trkpt lat="45.31924" lon="5.85502">
        <ele>1792.4</ele>
        <time>2012-08-29T06:58:18Z</time>
      </trkpt>
      <trkpt lat="45.31931" lon="5.85509">
        <ele>1792.4</ele>
        <time>2012-08-29T06:58:23Z</time>
      </trkpt>
      <trkpt lat="45.31939" lon="5.85517">
        <ele>1792.2</ele>
        <time>2012-08-29T06:58:29Z</time>
      </trkpt>
      <trkpt lat="45.3195" lon="5.85529">
        <ele>1791.4</ele>
        <time>2012-08-29T06:58:35Z</time>
      </trkpt>
      <trkpt lat="45.31959" lon="5.85542">
        <ele>1790.8</ele>
        <time>2012-08-29T06:58:40Z</time>
      </trkpt>
      <trkpt lat="45.31969" lon="5.85549">
        <ele>1789.8</ele>
        <time>2012-08-29T06:58:45Z</time>
      </trkpt>
      <trkpt lat="45.31978" lon="5.85557">
        <ele>1789.2</ele>
        <time>2012-08-29T06:58:50Z</time>
      </trkpt>
      <trkpt lat="45.31989" lon="5.85569">
        <ele>1788.2</ele>
        <time>2012-08-29T06:58:55Z</time>
      </trkpt>
      <trkpt lat="45.31992" lon="5.85571">
        <ele>1787.8</ele>
        <time>2012-08-29T06:58:57Z</time>
      </trkpt>
      <trkpt lat="45.31998" lon="5.8558">
        <ele>1787</ele>
        <time>2012-08-29T06:59:01Z</time>
      </trkpt>
      <trkpt lat="45.32001" lon="5.85583">
        <ele>1786.4</ele>
        <time>2012-08-29T06:59:03Z</time>
      </trkpt>
      <trkpt lat="45.32006" lon="5.85594">
        <ele>1785.2</ele>
        <time>2012-08-29T06:59:07Z</time>
      </trkpt>
      <trkpt lat="45.32012" lon="5.85608">
        <ele>1784.2</ele>
        <time>2012-08-29T06:59:11Z</time>
      </trkpt>
      <trkpt lat="45.3202" lon="5.85617">
        <ele>1782.6</ele>
        <time>2012-08-29T06:59:16Z</time>
      </trkpt>
      <trkpt lat="45.32024" lon="5.85628">
        <ele>1781.8</ele>
        <time>2012-08-29T06:59:19Z</time>
      </trkpt>
      <trkpt lat="45.32029" lon="5.85644">
        <ele>1780.8</ele>
        <time>2012-08-29T06:59:24Z</time>
      </trkpt>
      <trkpt lat="45.32031" lon="5.85646">
        <ele>1780.6</ele>
        <time>2012-08-29T06:59:25Z</time>
      </trkpt>
      <trkpt lat="45.32038" lon="5.85666">
        <ele>1778.6</ele>
        <time>2012-08-29T06:59:32Z</time>
      </trkpt>
      <trkpt lat="45.32037" lon="5.85669">
        <ele>1778.2</ele>
        <time>2012-08-29T06:59:33Z</time>
      </trkpt>
      <trkpt lat="45.32035" lon="5.85672">
        <ele>1777</ele>
        <time>2012-08-29T06:59:37Z</time>
      </trkpt>
      <trkpt lat="45.32036" lon="5.85677">
        <ele>1775.8</ele>
        <time>2012-08-29T06:59:40Z</time>
      </trkpt>
      <trkpt lat="45.32037" lon="5.8568">
        <ele>1773.8</ele>
        <time>2012-08-29T06:59:45Z</time>
      </trkpt>
      <trkpt lat="45.32037" lon="5.85685">
        <ele>1772</ele>
        <time>2012-08-29T06:59:49Z</time>
      </trkpt>
      <trkpt lat="45.32036" lon="5.85687">
        <ele>1771.6</ele>
        <time>2012-08-29T06:59:50Z</time>
      </trkpt>
      <trkpt lat="45.32032" lon="5.85701">
        <ele>1770</ele>
        <time>2012-08-29T06:59:55Z</time>
      </trkpt>
      <trkpt lat="45.32032" lon="5.85704">
        <ele>1769.6</ele>
        <time>2012-08-29T06:59:56Z</time>
      </trkpt>
      <trkpt lat="45.32037" lon="5.85721">
        <ele>1768.2</ele>
        <time>2012-08-29T07:00:01Z</time>
      </trkpt>
      <trkpt lat="45.32041" lon="5.85731">
        <ele>1767.4</ele>
        <time>2012-08-29T07:00:05Z</time>
      </trkpt>
      <trkpt lat="45.32048" lon="5.85743">
        <ele>1766.2</ele>
        <time>2012-08-29T07:00:09Z</time>
      </trkpt>
      <trkpt lat="45.32058" lon="5.85751">
        <ele>1764.6</ele>
        <time>2012-08-29T07:00:14Z</time>
      </trkpt>
      <trkpt lat="45.32064" lon="5.85754">
        <ele>1763.8</ele>
        <time>2012-08-29T07:00:17Z</time>
      </trkpt>
      <trkpt lat="45.32077" lon="5.85755">
        <ele>1761.4</ele>
        <time>2012-08-29T07:00:23Z</time>
      </trkpt>
      <trkpt lat="45.32078" lon="5.85762">
        <ele>1760.2</ele>
        <time>2012-08-29T07:00:26Z</time>
      </trkpt>
      <trkpt lat="45.32081" lon="5.85771">
        <ele>1758.4</ele>
        <time>2012-08-29T07:00:30Z</time>
      </trkpt>
      <trkpt lat="45.32084" lon="5.8578">
        <ele>1757</ele>
        <time>2012-08-29T07:00:33Z</time>
      </trkpt>
      <trkpt lat="45.32085" lon="5.85783">
        <ele>1756.6</ele>
        <time>2012-08-29T07:00:34Z</time>
      </trkpt>
      <trkpt lat="45.32089" lon="5.8579">
        <ele>1754.8</ele>
        <time>2012-08-29T07:00:37Z</time>
      </trkpt>
      <trkpt lat="45.32099" lon="5.85797">
        <ele>1752.8</ele>
        <time>2012-08-29T07:00:42Z</time>
      </trkpt>
      <trkpt lat="45.32099" lon="5.85799">
        <ele>1752.4</ele>
        <time>2012-08-29T07:00:43Z</time>
      </trkpt>
      <trkpt lat="45.32106" lon="5.85809">
        <ele>1750.2</ele>
        <time>2012-08-29T07:00:48Z</time>
      </trkpt>
      <trkpt lat="45.32113" lon="5.85817">
        <ele>1748.2</ele>
        <time>2012-08-29T07:00:53Z</time>
      </trkpt>
      <trkpt lat="45.32127" lon="5.85827">
        <ele>1745.8</ele>
        <time>2012-08-29T07:00:59Z</time>
      </trkpt>
      <trkpt lat="45.32134" lon="5.85834">
        <ele>1744.4</ele>
        <time>2012-08-29T07:01:03Z</time>
      </trkpt>
      <trkpt lat="45.32143" lon="5.85845">
        <ele>1742.6</ele>
        <time>2012-08-29T07:01:08Z</time>
      </trkpt>
      <trkpt lat="45.32149" lon="5.85853">
        <ele>1741.6</ele>
        <time>2012-08-29T07:01:12Z</time>
      </trkpt>
      <trkpt lat="45.32155" lon="5.85867">
        <ele>1739.8</ele>
        <time>2012-08-29T07:01:18Z</time>
      </trkpt>
      <trkpt lat="45.32155" lon="5.85869">
        <ele>1739.6</ele>
        <time>2012-08-29T07:01:19Z</time>
      </trkpt>
      <trkpt lat="45.32161" lon="5.85887">
        <ele>1738.6</ele>
        <time>2012-08-29T07:01:26Z</time>
      </trkpt>
      <trkpt lat="45.32162" lon="5.85889">
        <ele>1738.4</ele>
        <time>2012-08-29T07:01:27Z</time>
      </trkpt>
      <trkpt lat="45.32165" lon="5.8589">
        <ele>1738.2</ele>
        <time>2012-08-29T07:01:29Z</time>
      </trkpt>
      <trkpt lat="45.32166" lon="5.85907">
        <ele>1737</ele>
        <time>2012-08-29T07:01:34Z</time>
      </trkpt>
      <trkpt lat="45.32165" lon="5.85908">
        <ele>1737</ele>
        <time>2012-08-29T07:01:35Z</time>
      </trkpt>
      <trkpt lat="45.32168" lon="5.85914">
        <ele>1736.4</ele>
        <time>2012-08-29T07:01:39Z</time>
      </trkpt>
      <trkpt lat="45.3217" lon="5.85924">
        <ele>1736.2</ele>
        <time>2012-08-29T07:01:43Z</time>
      </trkpt>
      <trkpt lat="45.32173" lon="5.85933">
        <ele>1736</ele>
        <time>2012-08-29T07:01:47Z</time>
      </trkpt>
      <trkpt lat="45.32175" lon="5.85935">
        <ele>1736</ele>
        <time>2012-08-29T07:01:48Z</time>
      </trkpt>
      <trkpt lat="45.32181" lon="5.85946">
        <ele>1735.6</ele>
        <time>2012-08-29T07:01:53Z</time>
      </trkpt>
      <trkpt lat="45.32185" lon="5.85955">
        <ele>1734.8</ele>
        <time>2012-08-29T07:01:58Z</time>
      </trkpt>
      <trkpt lat="45.32189" lon="5.85964">
        <ele>1734.4</ele>
        <time>2012-08-29T07:02:02Z</time>
      </trkpt>
      <trkpt lat="45.32191" lon="5.85971">
        <ele>1734</ele>
        <time>2012-08-29T07:02:05Z</time>
      </trkpt>
      <trkpt lat="45.32195" lon="5.85979">
        <ele>1734</ele>
        <time>2012-08-29T07:02:08Z</time>
      </trkpt>
      <trkpt lat="45.32195" lon="5.85992">
        <ele>1733.8</ele>
        <time>2012-08-29T07:02:14Z</time>
      </trkpt>
      <trkpt lat="45.32194" lon="5.86002">
        <ele>1733.6</ele>
        <time>2012-08-29T07:02:19Z</time>
      </trkpt>
      <trkpt lat="45.32194" lon="5.86005">
        <ele>1733.6</ele>
        <time>2012-08-29T07:02:21Z</time>
      </trkpt>
      <trkpt lat="45.32194" lon="5.86007">
        <ele>1733.6</ele>
        <time>2012-08-29T07:02:23Z</time>
      </trkpt>
      <trkpt lat="45.32195" lon="5.86014">
        <ele>1733.6</ele>
        <time>2012-08-29T07:02:27Z</time>
      </trkpt>
      <trkpt lat="45.32195" lon="5.86021">
        <ele>1733.6</ele>
        <time>2012-08-29T07:02:30Z</time>
      </trkpt>
      <trkpt lat="45.32202" lon="5.8603">
        <ele>1733.6</ele>
        <time>2012-08-29T07:02:34Z</time>
      </trkpt>
      <trkpt lat="45.32208" lon="5.86043">
        <ele>1733.6</ele>
        <time>2012-08-29T07:02:40Z</time>
      </trkpt>
      <trkpt lat="45.32214" lon="5.86056">
        <ele>1733.6</ele>
        <time>2012-08-29T07:02:45Z</time>
      </trkpt>
      <trkpt lat="45.32216" lon="5.8606">
        <ele>1733.6</ele>
        <time>2012-08-29T07:02:49Z</time>
      </trkpt>
      <trkpt lat="45.32223" lon="5.86065">
        <ele>1733.6</ele>
        <time>2012-08-29T07:03:23Z</time>
      </trkpt>
      <trkpt lat="45.32225" lon="5.8608">
        <ele>1733.6</ele>
        <time>2012-08-29T07:03:32Z</time>
      </trkpt>
      <trkpt lat="45.32225" lon="5.86082">
        <ele>1733.6</ele>
        <time>2012-08-29T07:03:33Z</time>
      </trkpt>
      <trkpt lat="45.32226" lon="5.86091">
        <ele>1733.6</ele>
        <time>2012-08-29T07:03:37Z</time>
      </trkpt>
      <trkpt lat="45.32226" lon="5.86097">
        <ele>1733.6</ele>
        <time>2012-08-29T07:03:40Z</time>
      </trkpt>
      <trkpt lat="45.32226" lon="5.86105">
        <ele>1733.8</ele>
        <time>2012-08-29T07:03:44Z</time>
      </trkpt>
      <trkpt lat="45.3223" lon="5.86116">
        <ele>1734.6</ele>
        <time>2012-08-29T07:03:49Z</time>
      </trkpt>
      <trkpt lat="45.32233" lon="5.86127">
        <ele>1735</ele>
        <time>2012-08-29T07:03:54Z</time>
      </trkpt>
      <trkpt lat="45.32233" lon="5.86129">
        <ele>1735</ele>
        <time>2012-08-29T07:03:55Z</time>
      </trkpt>
      <trkpt lat="45.32231" lon="5.86136">
        <ele>1735.2</ele>
        <time>2012-08-29T07:03:59Z</time>
      </trkpt>
      <trkpt lat="45.32232" lon="5.86147">
        <ele>1735.4</ele>
        <time>2012-08-29T07:04:04Z</time>
      </trkpt>
      <trkpt lat="45.32235" lon="5.86162">
        <ele>1736.2</ele>
        <time>2012-08-29T07:04:11Z</time>
      </trkpt>
      <trkpt lat="45.32236" lon="5.86171">
        <ele>1736.6</ele>
        <time>2012-08-29T07:04:15Z</time>
      </trkpt>
      <trkpt lat="45.32237" lon="5.86173">
        <ele>1736.8</ele>
        <time>2012-08-29T07:04:16Z</time>
      </trkpt>
      <trkpt lat="45.32236" lon="5.86179">
        <ele>1737</ele>
        <time>2012-08-29T07:04:20Z</time>
      </trkpt>
      <trkpt lat="45.32235" lon="5.86183">
        <ele>1737.2</ele>
        <time>2012-08-29T07:04:22Z</time>
      </trkpt>
      <trkpt lat="45.32232" lon="5.86191">
        <ele>1737.2</ele>
        <time>2012-08-29T07:04:26Z</time>
      </trkpt>
      <trkpt lat="45.3223" lon="5.86197">
        <ele>1737.4</ele>
        <time>2012-08-29T07:04:30Z</time>
      </trkpt>
      <trkpt lat="45.32229" lon="5.86209">
        <ele>1738.2</ele>
        <time>2012-08-29T07:04:36Z</time>
      </trkpt>
      <trkpt lat="45.3223" lon="5.86219">
        <ele>1738.8</ele>
        <time>2012-08-29T07:04:41Z</time>
      </trkpt>
      <trkpt lat="45.32232" lon="5.86227">
        <ele>1739.6</ele>
        <time>2012-08-29T07:04:45Z</time>
      </trkpt>
      <trkpt lat="45.32233" lon="5.86232">
        <ele>1740</ele>
        <time>2012-08-29T07:04:47Z</time>
      </trkpt>
      <trkpt lat="45.32239" lon="5.86247">
        <ele>1740.8</ele>
        <time>2012-08-29T07:04:53Z</time>
      </trkpt>
      <trkpt lat="45.32239" lon="5.86249">
        <ele>1741</ele>
        <time>2012-08-29T07:04:54Z</time>
      </trkpt>
      <trkpt lat="45.32246" lon="5.86257">
        <ele>1742.2</ele>
        <time>2012-08-29T07:05:00Z</time>
      </trkpt>
      <trkpt lat="45.32247" lon="5.86262">
        <ele>1742.8</ele>
        <time>2012-08-29T07:05:04Z</time>
      </trkpt>
      <trkpt lat="45.32246" lon="5.86263">
        <ele>1743</ele>
        <time>2012-08-29T07:05:06Z</time>
      </trkpt>
      <trkpt lat="45.32244" lon="5.86272">
        <ele>1743.4</ele>
        <time>2012-08-29T07:05:10Z</time>
      </trkpt>
      <trkpt lat="45.32245" lon="5.86279">
        <ele>1744.2</ele>
        <time>2012-08-29T07:05:13Z</time>
      </trkpt>
      <trkpt lat="45.32243" lon="5.86286">
        <ele>1744.4</ele>
        <time>2012-08-29T07:05:15Z</time>
      </trkpt>
      <trkpt lat="45.3224" lon="5.86291">
        <ele>1744.8</ele>
        <time>2012-08-29T07:05:18Z</time>
      </trkpt>
      <trkpt lat="45.32239" lon="5.86292">
        <ele>1745</ele>
        <time>2012-08-29T07:05:19Z</time>
      </trkpt>
      <trkpt lat="45.32239" lon="5.86295">
        <ele>1745.2</ele>
        <time>2012-08-29T07:05:22Z</time>
      </trkpt>
      <trkpt lat="45.32241" lon="5.86302">
        <ele>1745.6</ele>
        <time>2012-08-29T07:05:26Z</time>
      </trkpt>
      <trkpt lat="45.3224" lon="5.86331">
        <ele>1746.8</ele>
        <time>2012-08-29T07:05:33Z</time>
      </trkpt>
      <trkpt lat="45.32239" lon="5.8635">
        <ele>1747.4</ele>
        <time>2012-08-29T07:05:39Z</time>
      </trkpt>
      <trkpt lat="45.3224" lon="5.86353">
        <ele>1747.4</ele>
        <time>2012-08-29T07:05:40Z</time>
      </trkpt>
      <trkpt lat="45.32241" lon="5.86364">
        <ele>1747.6</ele>
        <time>2012-08-29T07:05:43Z</time>
      </trkpt>
      <trkpt lat="45.32243" lon="5.86372">
        <ele>1747.6</ele>
        <time>2012-08-29T07:05:46Z</time>
      </trkpt>
      <trkpt lat="45.3225" lon="5.86385">
        <ele>1748.6</ele>
        <time>2012-08-29T07:05:52Z</time>
      </trkpt>
      <trkpt lat="45.32257" lon="5.86396">
        <ele>1749.2</ele>
        <time>2012-08-29T07:05:57Z</time>
      </trkpt>
      <trkpt lat="45.32265" lon="5.86403">
        <ele>1749.6</ele>
        <time>2012-08-29T07:06:01Z</time>
      </trkpt>
      <trkpt lat="45.32267" lon="5.86405">
        <ele>1749.6</ele>
        <time>2012-08-29T07:06:02Z</time>
      </trkpt>
      <trkpt lat="45.32276" lon="5.86415">
        <ele>1749.8</ele>
        <time>2012-08-29T07:06:07Z</time>
      </trkpt>
      <trkpt lat="45.32277" lon="5.86417">
        <ele>1749.8</ele>
        <time>2012-08-29T07:06:08Z</time>
      </trkpt>
      <trkpt lat="45.32286" lon="5.86422">
        <ele>1750.8</ele>
        <time>2012-08-29T07:06:13Z</time>
      </trkpt>
      <trkpt lat="45.32296" lon="5.86431">
        <ele>1751.2</ele>
        <time>2012-08-29T07:06:17Z</time>
      </trkpt>
      <trkpt lat="45.32299" lon="5.86436">
        <ele>1751.4</ele>
        <time>2012-08-29T07:06:19Z</time>
      </trkpt>
      <trkpt lat="45.32302" lon="5.86437">
        <ele>1751.6</ele>
        <time>2012-08-29T07:06:21Z</time>
      </trkpt>
      <trkpt lat="45.32318" lon="5.86448">
        <ele>1751.8</ele>
        <time>2012-08-29T07:06:28Z</time>
      </trkpt>
      <trkpt lat="45.32324" lon="5.86453">
        <ele>1752</ele>
        <time>2012-08-29T07:06:31Z</time>
      </trkpt>
      <trkpt lat="45.3233" lon="5.86464">
        <ele>1752</ele>
        <time>2012-08-29T07:06:36Z</time>
      </trkpt>
      <trkpt lat="45.32333" lon="5.86463">
        <ele>1752</ele>
        <time>2012-08-29T07:06:40Z</time>
      </trkpt>
      <trkpt lat="45.32345" lon="5.86457">
        <ele>1752</ele>
        <time>2012-08-29T07:06:45Z</time>
      </trkpt>
      <trkpt lat="45.3235" lon="5.8646">
        <ele>1752.2</ele>
        <time>2012-08-29T07:06:48Z</time>
      </trkpt>
      <trkpt lat="45.32354" lon="5.8646">
        <ele>1752.2</ele>
        <time>2012-08-29T07:06:50Z</time>
      </trkpt>
      <trkpt lat="45.3236" lon="5.86454">
        <ele>1752.2</ele>
        <time>2012-08-29T07:06:55Z</time>
      </trkpt>
      <trkpt lat="45.3237" lon="5.86451">
        <ele>1752.2</ele>
        <time>2012-08-29T07:06:59Z</time>
      </trkpt>
      <trkpt lat="45.32375" lon="5.86453">
        <ele>1752.2</ele>
        <time>2012-08-29T07:07:01Z</time>
      </trkpt>
      <trkpt lat="45.32387" lon="5.86457">
        <ele>1751.6</ele>
        <time>2012-08-29T07:07:06Z</time>
      </trkpt>
      <trkpt lat="45.32397" lon="5.86457">
        <ele>1751</ele>
        <time>2012-08-29T07:07:11Z</time>
      </trkpt>
      <trkpt lat="45.32399" lon="5.86457">
        <ele>1750.8</ele>
        <time>2012-08-29T07:07:12Z</time>
      </trkpt>
      <trkpt lat="45.32406" lon="5.86458">
        <ele>1750.6</ele>
        <time>2012-08-29T07:07:17Z</time>
      </trkpt>
      <trkpt lat="45.32412" lon="5.86459">
        <ele>1750.4</ele>
        <time>2012-08-29T07:07:21Z</time>
      </trkpt>
      <trkpt lat="45.32414" lon="5.86459">
        <ele>1750.4</ele>
        <time>2012-08-29T07:07:23Z</time>
      </trkpt>
      <trkpt lat="45.32418" lon="5.86459">
        <ele>1750.2</ele>
        <time>2012-08-29T07:07:28Z</time>
      </trkpt>
      <trkpt lat="45.3242" lon="5.86457">
        <ele>1750.2</ele>
        <time>2012-08-29T07:07:30Z</time>
      </trkpt>
      <trkpt lat="45.32422" lon="5.86456">
        <ele>1750.2</ele>
        <time>2012-08-29T07:07:32Z</time>
      </trkpt>
      <trkpt lat="45.32428" lon="5.86454">
        <ele>1750.2</ele>
        <time>2012-08-29T07:07:38Z</time>
      </trkpt>
      <trkpt lat="45.32433" lon="5.86452">
        <ele>1750</ele>
        <time>2012-08-29T07:07:42Z</time>
      </trkpt>
      <trkpt lat="45.32434" lon="5.86452">
        <ele>1750</ele>
        <time>2012-08-29T07:07:43Z</time>
      </trkpt>
      <trkpt lat="45.32435" lon="5.86452">
        <ele>1750</ele>
        <time>2012-08-29T07:07:44Z</time>
      </trkpt>
      <trkpt lat="45.32439" lon="5.8645">
        <ele>1750</ele>
        <time>2012-08-29T07:07:49Z</time>
      </trkpt>
      <trkpt lat="45.32441" lon="5.86447">
        <ele>1750</ele>
        <time>2012-08-29T07:07:51Z</time>
      </trkpt>
      <trkpt lat="45.32449" lon="5.86443">
        <ele>1750</ele>
        <time>2012-08-29T07:07:55Z</time>
      </trkpt>
      <trkpt lat="45.32459" lon="5.86439">
        <ele>1750</ele>
        <time>2012-08-29T07:08:00Z</time>
      </trkpt>
      <trkpt lat="45.32464" lon="5.86438">
        <ele>1750</ele>
        <time>2012-08-29T07:08:02Z</time>
      </trkpt>
      <trkpt lat="45.32469" lon="5.86441">
        <ele>1750.4</ele>
        <time>2012-08-29T07:08:06Z</time>
      </trkpt>
      <trkpt lat="45.3247" lon="5.86442">
        <ele>1750.8</ele>
        <time>2012-08-29T07:08:08Z</time>
      </trkpt>
      <trkpt lat="45.32474" lon="5.86445">
        <ele>1751.4</ele>
        <time>2012-08-29T07:08:13Z</time>
      </trkpt>
      <trkpt lat="45.32478" lon="5.86446">
        <ele>1751.6</ele>
        <time>2012-08-29T07:08:18Z</time>
      </trkpt>
      <trkpt lat="45.32489" lon="5.86445">
        <ele>1751.8</ele>
        <time>2012-08-29T07:08:22Z</time>
      </trkpt>
      <trkpt lat="45.32506" lon="5.86441">
        <ele>1752</ele>
        <time>2012-08-29T07:08:28Z</time>
      </trkpt>
      <trkpt lat="45.32513" lon="5.86435">
        <ele>1752</ele>
        <time>2012-08-29T07:08:33Z</time>
      </trkpt>
      <trkpt lat="45.32522" lon="5.86434">
        <ele>1752</ele>
        <time>2012-08-29T07:08:37Z</time>
      </trkpt>
      <trkpt lat="45.32537" lon="5.86431">
        <ele>1752</ele>
        <time>2012-08-29T07:08:42Z</time>
      </trkpt>
      <trkpt lat="45.32546" lon="5.8643">
        <ele>1752</ele>
        <time>2012-08-29T07:08:45Z</time>
      </trkpt>
      <trkpt lat="45.3256" lon="5.86427">
        <ele>1752</ele>
        <time>2012-08-29T07:08:50Z</time>
      </trkpt>
      <trkpt lat="45.32566" lon="5.86429">
        <ele>1752</ele>
        <time>2012-08-29T07:08:52Z</time>
      </trkpt>
      <trkpt lat="45.32577" lon="5.86428">
        <ele>1752.2</ele>
        <time>2012-08-29T07:08:57Z</time>
      </trkpt>
      <trkpt lat="45.32592" lon="5.8643">
        <ele>1751.6</ele>
        <time>2012-08-29T07:09:02Z</time>
      </trkpt>
      <trkpt lat="45.326" lon="5.8643">
        <ele>1751.2</ele>
        <time>2012-08-29T07:09:05Z</time>
      </trkpt>
      <trkpt lat="45.32608" lon="5.86431">
        <ele>1750.6</ele>
        <time>2012-08-29T07:09:10Z</time>
      </trkpt>
      <trkpt lat="45.32616" lon="5.86432">
        <ele>1750.6</ele>
        <time>2012-08-29T07:09:13Z</time>
      </trkpt>
      <trkpt lat="45.32632" lon="5.86441">
        <ele>1750</ele>
        <time>2012-08-29T07:09:19Z</time>
      </trkpt>
      <trkpt lat="45.32645" lon="5.86448">
        <ele>1749.2</ele>
        <time>2012-08-29T07:09:24Z</time>
      </trkpt>
      <trkpt lat="45.32661" lon="5.86462">
        <ele>1748.6</ele>
        <time>2012-08-29T07:09:30Z</time>
      </trkpt>
      <trkpt lat="45.32675" lon="5.8647">
        <ele>1747.4</ele>
        <time>2012-08-29T07:09:36Z</time>
      </trkpt>
      <trkpt lat="45.32683" lon="5.86476">
        <ele>1747</ele>
        <time>2012-08-29T07:09:40Z</time>
      </trkpt>
      <trkpt lat="45.32697" lon="5.8648">
        <ele>1746.4</ele>
        <time>2012-08-29T07:09:45Z</time>
      </trkpt>
      <trkpt lat="45.32706" lon="5.86485">
        <ele>1746.2</ele>
        <time>2012-08-29T07:09:49Z</time>
      </trkpt>
      <trkpt lat="45.3272" lon="5.86485">
        <ele>1746</ele>
        <time>2012-08-29T07:09:55Z</time>
      </trkpt>
      <trkpt lat="45.32723" lon="5.86488">
        <ele>1746</ele>
        <time>2012-08-29T07:09:57Z</time>
      </trkpt>
      <trkpt lat="45.32733" lon="5.86493">
        <ele>1745.8</ele>
        <time>2012-08-29T07:10:02Z</time>
      </trkpt>
      <trkpt lat="45.32744" lon="5.86496">
        <ele>1745.2</ele>
        <time>2012-08-29T07:10:06Z</time>
      </trkpt>
      <trkpt lat="45.32754" lon="5.86499">
        <ele>1744.6</ele>
        <time>2012-08-29T07:10:10Z</time>
      </trkpt>
      <trkpt lat="45.32768" lon="5.865">
        <ele>1744.4</ele>
        <time>2012-08-29T07:10:15Z</time>
      </trkpt>
      <trkpt lat="45.32776" lon="5.86505">
        <ele>1744.2</ele>
        <time>2012-08-29T07:10:19Z</time>
      </trkpt>
      <trkpt lat="45.32791" lon="5.86516">
        <ele>1744</ele>
        <time>2012-08-29T07:10:27Z</time>
      </trkpt>
      <trkpt lat="45.32791" lon="5.86517">
        <ele>1744</ele>
        <time>2012-08-29T07:10:28Z</time>
      </trkpt>
      <trkpt lat="45.32792" lon="5.86517">
        <ele>1744.4</ele>
        <time>2012-08-29T07:10:30Z</time>
      </trkpt>
      <trkpt lat="45.32804" lon="5.86519">
        <ele>1745</ele>
        <time>2012-08-29T07:10:36Z</time>
      </trkpt>
      <trkpt lat="45.3281" lon="5.86524">
        <ele>1745.4</ele>
        <time>2012-08-29T07:10:40Z</time>
      </trkpt>
      <trkpt lat="45.32811" lon="5.86525">
        <ele>1745.4</ele>
        <time>2012-08-29T07:10:41Z</time>
      </trkpt>
      <trkpt lat="45.32811" lon="5.86528">
        <ele>1745.6</ele>
        <time>2012-08-29T07:10:46Z</time>
      </trkpt>
      <trkpt lat="45.32812" lon="5.86529">
        <ele>1745.6</ele>
        <time>2012-08-29T07:10:47Z</time>
      </trkpt>
      <trkpt lat="45.32816" lon="5.86532">
        <ele>1745.8</ele>
        <time>2012-08-29T07:10:51Z</time>
      </trkpt>
      <trkpt lat="45.32817" lon="5.86536">
        <ele>1745.8</ele>
        <time>2012-08-29T07:10:56Z</time>
      </trkpt>
      <trkpt lat="45.32818" lon="5.86535">
        <ele>1745.8</ele>
        <time>2012-08-29T07:11:00Z</time>
      </trkpt>
      <trkpt lat="45.32821" lon="5.86533">
        <ele>1745.8</ele>
        <time>2012-08-29T07:11:02Z</time>
      </trkpt>
      <trkpt lat="45.3283" lon="5.8654">
        <ele>1745.8</ele>
        <time>2012-08-29T07:11:07Z</time>
      </trkpt>
      <trkpt lat="45.32836" lon="5.86543">
        <ele>1746</ele>
        <time>2012-08-29T07:11:13Z</time>
      </trkpt>
      <trkpt lat="45.32845" lon="5.86544">
        <ele>1746</ele>
        <time>2012-08-29T07:11:17Z</time>
      </trkpt>
      <trkpt lat="45.3285" lon="5.86544">
        <ele>1746</ele>
        <time>2012-08-29T07:11:21Z</time>
      </trkpt>
      <trkpt lat="45.32853" lon="5.86544">
        <ele>1746</ele>
        <time>2012-08-29T07:11:22Z</time>
      </trkpt>
      <trkpt lat="45.32869" lon="5.86546">
        <ele>1746</ele>
        <time>2012-08-29T07:11:28Z</time>
      </trkpt>
      <trkpt lat="45.32886" lon="5.86543">
        <ele>1746</ele>
        <time>2012-08-29T07:11:35Z</time>
      </trkpt>
      <trkpt lat="45.32902" lon="5.86541">
        <ele>1746</ele>
        <time>2012-08-29T07:11:41Z</time>
      </trkpt>
      <trkpt lat="45.32915" lon="5.8654">
        <ele>1746</ele>
        <time>2012-08-29T07:11:46Z</time>
      </trkpt>
      <trkpt lat="45.32919" lon="5.86541">
        <ele>1746</ele>
        <time>2012-08-29T07:11:48Z</time>
      </trkpt>
      <trkpt lat="45.32926" lon="5.86547">
        <ele>1745.4</ele>
        <time>2012-08-29T07:11:53Z</time>
      </trkpt>
      <trkpt lat="45.32929" lon="5.86548">
        <ele>1745.2</ele>
        <time>2012-08-29T07:11:54Z</time>
      </trkpt>
      <trkpt lat="45.32933" lon="5.86551">
        <ele>1745</ele>
        <time>2012-08-29T07:11:56Z</time>
      </trkpt>
      <trkpt lat="45.32943" lon="5.86552">
        <ele>1744.2</ele>
        <time>2012-08-29T07:12:00Z</time>
      </trkpt>
      <trkpt lat="45.32946" lon="5.86552">
        <ele>1743.8</ele>
        <time>2012-08-29T07:12:01Z</time>
      </trkpt>
      <trkpt lat="45.3296" lon="5.86547">
        <ele>1742.4</ele>
        <time>2012-08-29T07:12:06Z</time>
      </trkpt>
      <trkpt lat="45.32964" lon="5.86546">
        <ele>1741.6</ele>
        <time>2012-08-29T07:12:08Z</time>
      </trkpt>
      <trkpt lat="45.3297" lon="5.86552">
        <ele>1740</ele>
        <time>2012-08-29T07:12:12Z</time>
      </trkpt>
      <trkpt lat="45.32977" lon="5.86563">
        <ele>1737.6</ele>
        <time>2012-08-29T07:12:18Z</time>
      </trkpt>
      <trkpt lat="45.32981" lon="5.86569">
        <ele>1736.4</ele>
        <time>2012-08-29T07:12:21Z</time>
      </trkpt>
      <trkpt lat="45.32983" lon="5.86583">
        <ele>1734.2</ele>
        <time>2012-08-29T07:12:26Z</time>
      </trkpt>
      <trkpt lat="45.32983" lon="5.86589">
        <ele>1733.6</ele>
        <time>2012-08-29T07:12:28Z</time>
      </trkpt>
      <trkpt lat="45.32988" lon="5.86598">
        <ele>1732</ele>
        <time>2012-08-29T07:12:32Z</time>
      </trkpt>
      <trkpt lat="45.32995" lon="5.86603">
        <ele>1730.4</ele>
        <time>2012-08-29T07:12:37Z</time>
      </trkpt>
      <trkpt lat="45.32997" lon="5.86607">
        <ele>1729.6</ele>
        <time>2012-08-29T07:12:39Z</time>
      </trkpt>
      <trkpt lat="45.32998" lon="5.8662">
        <ele>1727.4</ele>
        <time>2012-08-29T07:12:45Z</time>
      </trkpt>
      <trkpt lat="45.32998" lon="5.8662">
        <ele>1727.2</ele>
        <time>2012-08-29T07:12:46Z</time>
      </trkpt>
      <trkpt lat="45.33002" lon="5.86626">
        <ele>1725.8</ele>
        <time>2012-08-29T07:12:49Z</time>
      </trkpt>
      <trkpt lat="45.33" lon="5.86638">
        <ele>1724.2</ele>
        <time>2012-08-29T07:12:53Z</time>
      </trkpt>
      <trkpt lat="45.32999" lon="5.86642">
        <ele>1723.4</ele>
        <time>2012-08-29T07:12:55Z</time>
      </trkpt>
      <trkpt lat="45.32998" lon="5.86658">
        <ele>1721.4</ele>
        <time>2012-08-29T07:13:01Z</time>
      </trkpt>
      <trkpt lat="45.32998" lon="5.8666">
        <ele>1721</ele>
        <time>2012-08-29T07:13:02Z</time>
      </trkpt>
      <trkpt lat="45.33003" lon="5.86667">
        <ele>1719.8</ele>
        <time>2012-08-29T07:13:07Z</time>
      </trkpt>
      <trkpt lat="45.33005" lon="5.86669">
        <ele>1719.6</ele>
        <time>2012-08-29T07:13:08Z</time>
      </trkpt>
      <trkpt lat="45.33006" lon="5.8667">
        <ele>1719.4</ele>
        <time>2012-08-29T07:13:09Z</time>
      </trkpt>
      <trkpt lat="45.3301" lon="5.86673">
        <ele>1718.8</ele>
        <time>2012-08-29T07:13:11Z</time>
      </trkpt>
      <trkpt lat="45.33015" lon="5.86679">
        <ele>1717.6</ele>
        <time>2012-08-29T07:13:15Z</time>
      </trkpt>
      <trkpt lat="45.33026" lon="5.86683">
        <ele>1716.2</ele>
        <time>2012-08-29T07:13:21Z</time>
      </trkpt>
      <trkpt lat="45.33028" lon="5.86684">
        <ele>1716</ele>
        <time>2012-08-29T07:13:22Z</time>
      </trkpt>
      <trkpt lat="45.33029" lon="5.86686">
        <ele>1715.8</ele>
        <time>2012-08-29T07:13:23Z</time>
      </trkpt>
      <trkpt lat="45.33037" lon="5.8669">
        <ele>1715</ele>
        <time>2012-08-29T07:13:27Z</time>
      </trkpt>
      <trkpt lat="45.33044" lon="5.86696">
        <ele>1714.6</ele>
        <time>2012-08-29T07:13:31Z</time>
      </trkpt>
      <trkpt lat="45.33052" lon="5.86702">
        <ele>1714.2</ele>
        <time>2012-08-29T07:13:35Z</time>
      </trkpt>
      <trkpt lat="45.33057" lon="5.86705">
        <ele>1713.4</ele>
        <time>2012-08-29T07:13:39Z</time>
      </trkpt>
      <trkpt lat="45.33058" lon="5.86707">
        <ele>1713.2</ele>
        <time>2012-08-29T07:13:40Z</time>
      </trkpt>
      <trkpt lat="45.33061" lon="5.86712">
        <ele>1712.8</ele>
        <time>2012-08-29T07:13:43Z</time>
      </trkpt>
      <trkpt lat="45.33064" lon="5.86721">
        <ele>1712.2</ele>
        <time>2012-08-29T07:13:50Z</time>
      </trkpt>
      <trkpt lat="45.33067" lon="5.86725">
        <ele>1711.6</ele>
        <time>2012-08-29T07:13:54Z</time>
      </trkpt>
      <trkpt lat="45.33068" lon="5.86727">
        <ele>1711.2</ele>
        <time>2012-08-29T07:13:56Z</time>
      </trkpt>
      <trkpt lat="45.33072" lon="5.86729">
        <ele>1710.8</ele>
        <time>2012-08-29T07:13:59Z</time>
      </trkpt>
      <trkpt lat="45.33076" lon="5.8674">
        <ele>1710.2</ele>
        <time>2012-08-29T07:14:05Z</time>
      </trkpt>
      <trkpt lat="45.33077" lon="5.86743">
        <ele>1710</ele>
        <time>2012-08-29T07:14:07Z</time>
      </trkpt>
      <trkpt lat="45.33084" lon="5.8675">
        <ele>1709.8</ele>
        <time>2012-08-29T07:14:12Z</time>
      </trkpt>
      <trkpt lat="45.33089" lon="5.86754">
        <ele>1709.8</ele>
        <time>2012-08-29T07:14:16Z</time>
      </trkpt>
      <trkpt lat="45.33094" lon="5.86764">
        <ele>1709.6</ele>
        <time>2012-08-29T07:14:22Z</time>
      </trkpt>
      <trkpt lat="45.33099" lon="5.86775">
        <ele>1709.6</ele>
        <time>2012-08-29T07:14:27Z</time>
      </trkpt>
      <trkpt lat="45.33101" lon="5.8678">
        <ele>1709.6</ele>
        <time>2012-08-29T07:14:30Z</time>
      </trkpt>
      <trkpt lat="45.33104" lon="5.86791">
        <ele>1709.6</ele>
        <time>2012-08-29T07:14:35Z</time>
      </trkpt>
      <trkpt lat="45.33106" lon="5.86793">
        <ele>1709.6</ele>
        <time>2012-08-29T07:14:37Z</time>
      </trkpt>
      <trkpt lat="45.33109" lon="5.86797">
        <ele>1709.6</ele>
        <time>2012-08-29T07:14:40Z</time>
      </trkpt>
      <trkpt lat="45.33111" lon="5.86801">
        <ele>1709.6</ele>
        <time>2012-08-29T07:14:44Z</time>
      </trkpt>
      <trkpt lat="45.33112" lon="5.86802">
        <ele>1709.6</ele>
        <time>2012-08-29T07:14:46Z</time>
      </trkpt>
      <trkpt lat="45.33117" lon="5.86814">
        <ele>1709.6</ele>
        <time>2012-08-29T07:14:51Z</time>
      </trkpt>
      <trkpt lat="45.33121" lon="5.86823">
        <ele>1710.4</ele>
        <time>2012-08-29T07:14:55Z</time>
      </trkpt>
      <trkpt lat="45.33125" lon="5.8683">
        <ele>1710.8</ele>
        <time>2012-08-29T07:14:59Z</time>
      </trkpt>
      <trkpt lat="45.33125" lon="5.86834">
        <ele>1711.2</ele>
        <time>2012-08-29T07:15:02Z</time>
      </trkpt>
      <trkpt lat="45.33126" lon="5.86836">
        <ele>1711.8</ele>
        <time>2012-08-29T07:15:04Z</time>
      </trkpt>
      <trkpt lat="45.33128" lon="5.86841">
        <ele>1712.6</ele>
        <time>2012-08-29T07:15:09Z</time>
      </trkpt>
      <trkpt lat="45.33129" lon="5.86842">
        <ele>1712.8</ele>
        <time>2012-08-29T07:15:10Z</time>
      </trkpt>
      <trkpt lat="45.33129" lon="5.86844">
        <ele>1713</ele>
        <time>2012-08-29T07:15:11Z</time>
      </trkpt>
      <trkpt lat="45.33133" lon="5.86848">
        <ele>1713.6</ele>
        <time>2012-08-29T07:15:15Z</time>
      </trkpt>
      <trkpt lat="45.33135" lon="5.86853">
        <ele>1714.2</ele>
        <time>2012-08-29T07:15:18Z</time>
      </trkpt>
      <trkpt lat="45.33134" lon="5.86856">
        <ele>1714.4</ele>
        <time>2012-08-29T07:15:19Z</time>
      </trkpt>
      <trkpt lat="45.33132" lon="5.86859">
        <ele>1714.8</ele>
        <time>2012-08-29T07:15:21Z</time>
      </trkpt>
      <trkpt lat="45.33133" lon="5.86862">
        <ele>1715.4</ele>
        <time>2012-08-29T07:15:27Z</time>
      </trkpt>
      <trkpt lat="45.33133" lon="5.8687">
        <ele>1715.6</ele>
        <time>2012-08-29T07:15:33Z</time>
      </trkpt>
      <trkpt lat="45.33133" lon="5.86873">
        <ele>1716</ele>
        <time>2012-08-29T07:15:35Z</time>
      </trkpt>
      <trkpt lat="45.33136" lon="5.86882">
        <ele>1717</ele>
        <time>2012-08-29T07:15:41Z</time>
      </trkpt>
      <trkpt lat="45.33138" lon="5.86884">
        <ele>1717.2</ele>
        <time>2012-08-29T07:15:43Z</time>
      </trkpt>
      <trkpt lat="45.3314" lon="5.86889">
        <ele>1717.4</ele>
        <time>2012-08-29T07:15:47Z</time>
      </trkpt>
      <trkpt lat="45.33144" lon="5.86896">
        <ele>1717.6</ele>
        <time>2012-08-29T07:15:51Z</time>
      </trkpt>
      <trkpt lat="45.33147" lon="5.86902">
        <ele>1717.8</ele>
        <time>2012-08-29T07:15:54Z</time>
      </trkpt>
      <trkpt lat="45.33152" lon="5.86905">
        <ele>1717.8</ele>
        <time>2012-08-29T07:15:57Z</time>
      </trkpt>
      <trkpt lat="45.33153" lon="5.86907">
        <ele>1717.8</ele>
        <time>2012-08-29T07:15:58Z</time>
      </trkpt>
      <trkpt lat="45.33155" lon="5.86908">
        <ele>1717.8</ele>
        <time>2012-08-29T07:15:59Z</time>
      </trkpt>
      <trkpt lat="45.33164" lon="5.86917">
        <ele>1718</ele>
        <time>2012-08-29T07:16:04Z</time>
      </trkpt>
      <trkpt lat="45.33166" lon="5.86919">
        <ele>1718</ele>
        <time>2012-08-29T07:16:05Z</time>
      </trkpt>
      <trkpt lat="45.33169" lon="5.86922">
        <ele>1718</ele>
        <time>2012-08-29T07:16:07Z</time>
      </trkpt>
      <trkpt lat="45.33175" lon="5.86929">
        <ele>1718</ele>
        <time>2012-08-29T07:16:12Z</time>
      </trkpt>
      <trkpt lat="45.33176" lon="5.86935">
        <ele>1718</ele>
        <time>2012-08-29T07:16:16Z</time>
      </trkpt>
      <trkpt lat="45.33175" lon="5.86936">
        <ele>1718</ele>
        <time>2012-08-29T07:16:17Z</time>
      </trkpt>
      <trkpt lat="45.33175" lon="5.86939">
        <ele>1718</ele>
        <time>2012-08-29T07:16:18Z</time>
      </trkpt>
      <trkpt lat="45.33179" lon="5.86945">
        <ele>1718</ele>
        <time>2012-08-29T07:16:21Z</time>
      </trkpt>
      <trkpt lat="45.33188" lon="5.86954">
        <ele>1718</ele>
        <time>2012-08-29T07:16:30Z</time>
      </trkpt>
      <trkpt lat="45.3319" lon="5.86957">
        <ele>1718</ele>
        <time>2012-08-29T07:16:32Z</time>
      </trkpt>
      <trkpt lat="45.3319" lon="5.86966">
        <ele>1718</ele>
        <time>2012-08-29T07:16:37Z</time>
      </trkpt>
      <trkpt lat="45.33191" lon="5.86967">
        <ele>1718</ele>
        <time>2012-08-29T07:16:38Z</time>
      </trkpt>
      <trkpt lat="45.33191" lon="5.86969">
        <ele>1718</ele>
        <time>2012-08-29T07:16:40Z</time>
      </trkpt>
      <trkpt lat="45.33191" lon="5.86968">
        <ele>1718</ele>
        <time>2012-08-29T07:16:45Z</time>
      </trkpt>
      <trkpt lat="45.33192" lon="5.86969">
        <ele>1718</ele>
        <time>2012-08-29T07:16:50Z</time>
      </trkpt>
      <trkpt lat="45.33194" lon="5.86968">
        <ele>1718</ele>
        <time>2012-08-29T07:16:52Z</time>
      </trkpt>
      <trkpt lat="45.33197" lon="5.86978">
        <ele>1718</ele>
        <time>2012-08-29T07:16:58Z</time>
      </trkpt>
      <trkpt lat="45.33201" lon="5.86985">
        <ele>1718.8</ele>
        <time>2012-08-29T07:17:03Z</time>
      </trkpt>
      <trkpt lat="45.33204" lon="5.8699">
        <ele>1719.2</ele>
        <time>2012-08-29T07:17:06Z</time>
      </trkpt>
      <trkpt lat="45.33205" lon="5.86992">
        <ele>1719.4</ele>
        <time>2012-08-29T07:17:08Z</time>
      </trkpt>
      <trkpt lat="45.3321" lon="5.86998">
        <ele>1719.6</ele>
        <time>2012-08-29T07:17:13Z</time>
      </trkpt>
      <trkpt lat="45.33211" lon="5.87004">
        <ele>1719.8</ele>
        <time>2012-08-29T07:17:17Z</time>
      </trkpt>
      <trkpt lat="45.33212" lon="5.87007">
        <ele>1719.8</ele>
        <time>2012-08-29T07:17:19Z</time>
      </trkpt>
      <trkpt lat="45.33213" lon="5.87009">
        <ele>1719.8</ele>
        <time>2012-08-29T07:17:20Z</time>
      </trkpt>
      <trkpt lat="45.33219" lon="5.87016">
        <ele>1720</ele>
        <time>2012-08-29T07:17:24Z</time>
      </trkpt>
      <trkpt lat="45.33221" lon="5.8702">
        <ele>1720</ele>
        <time>2012-08-29T07:17:27Z</time>
      </trkpt>
      <trkpt lat="45.33222" lon="5.87022">
        <ele>1720</ele>
        <time>2012-08-29T07:17:28Z</time>
      </trkpt>
      <trkpt lat="45.33224" lon="5.87026">
        <ele>1720</ele>
        <time>2012-08-29T07:17:30Z</time>
      </trkpt>
      <trkpt lat="45.33229" lon="5.87029">
        <ele>1720</ele>
        <time>2012-08-29T07:17:33Z</time>
      </trkpt>
      <trkpt lat="45.33234" lon="5.87037">
        <ele>1720</ele>
        <time>2012-08-29T07:17:38Z</time>
      </trkpt>
      <trkpt lat="45.3324" lon="5.87043">
        <ele>1720</ele>
        <time>2012-08-29T07:17:43Z</time>
      </trkpt>
      <trkpt lat="45.33244" lon="5.8705">
        <ele>1720</ele>
        <time>2012-08-29T07:17:47Z</time>
      </trkpt>
      <trkpt lat="45.3325" lon="5.87055">
        <ele>1720</ele>
        <time>2012-08-29T07:17:51Z</time>
      </trkpt>
      <trkpt lat="45.33254" lon="5.87062">
        <ele>1720</ele>
        <time>2012-08-29T07:17:55Z</time>
      </trkpt>
      <trkpt lat="45.33253" lon="5.87068">
        <ele>1720</ele>
        <time>2012-08-29T07:17:59Z</time>
      </trkpt>
      <trkpt lat="45.33253" lon="5.87076">
        <ele>1720</ele>
        <time>2012-08-29T07:18:03Z</time>
      </trkpt>
      <trkpt lat="45.33253" lon="5.87079">
        <ele>1720</ele>
        <time>2012-08-29T07:18:04Z</time>
      </trkpt>
      <trkpt lat="45.33254" lon="5.87082">
        <ele>1720</ele>
        <time>2012-08-29T07:18:05Z</time>
      </trkpt>
      <trkpt lat="45.33258" lon="5.87092">
        <ele>1720</ele>
        <time>2012-08-29T07:18:09Z</time>
      </trkpt>
      <trkpt lat="45.33262" lon="5.87096">
        <ele>1720</ele>
        <time>2012-08-29T07:18:12Z</time>
      </trkpt>
      <trkpt lat="45.33265" lon="5.87104">
        <ele>1720</ele>
        <time>2012-08-29T07:18:17Z</time>
      </trkpt>
      <trkpt lat="45.33267" lon="5.87107">
        <ele>1720</ele>
        <time>2012-08-29T07:18:19Z</time>
      </trkpt>
      <trkpt lat="45.33269" lon="5.8711">
        <ele>1720</ele>
        <time>2012-08-29T07:18:21Z</time>
      </trkpt>
      <trkpt lat="45.3327" lon="5.87119">
        <ele>1720.2</ele>
        <time>2012-08-29T07:18:26Z</time>
      </trkpt>
      <trkpt lat="45.33278" lon="5.87132">
        <ele>1721.4</ele>
        <time>2012-08-29T07:18:34Z</time>
      </trkpt>
      <trkpt lat="45.33278" lon="5.87133">
        <ele>1721.4</ele>
        <time>2012-08-29T07:18:35Z</time>
      </trkpt>
      <trkpt lat="45.33283" lon="5.87143">
        <ele>1722.4</ele>
        <time>2012-08-29T07:18:43Z</time>
      </trkpt>
      <trkpt lat="45.33286" lon="5.87149">
        <ele>1723.2</ele>
        <time>2012-08-29T07:18:48Z</time>
      </trkpt>
      <trkpt lat="45.33289" lon="5.87157">
        <ele>1723.6</ele>
        <time>2012-08-29T07:18:53Z</time>
      </trkpt>
      <trkpt lat="45.33296" lon="5.87169">
        <ele>1723.8</ele>
        <time>2012-08-29T07:18:59Z</time>
      </trkpt>
      <trkpt lat="45.33303" lon="5.87175">
        <ele>1724.8</ele>
        <time>2012-08-29T07:19:04Z</time>
      </trkpt>
      <trkpt lat="45.33304" lon="5.87175">
        <ele>1724.8</ele>
        <time>2012-08-29T07:19:05Z</time>
      </trkpt>
      <trkpt lat="45.33315" lon="5.87185">
        <ele>1725.6</ele>
        <time>2012-08-29T07:19:11Z</time>
      </trkpt>
      <trkpt lat="45.33315" lon="5.87187">
        <ele>1725.6</ele>
        <time>2012-08-29T07:19:12Z</time>
      </trkpt>
      <trkpt lat="45.33321" lon="5.87195">
        <ele>1725.8</ele>
        <time>2012-08-29T07:19:17Z</time>
      </trkpt>
      <trkpt lat="45.33323" lon="5.87196">
        <ele>1726</ele>
        <time>2012-08-29T07:19:18Z</time>
      </trkpt>
      <trkpt lat="45.33334" lon="5.87203">
        <ele>1726.4</ele>
        <time>2012-08-29T07:19:24Z</time>
      </trkpt>
      <trkpt lat="45.33343" lon="5.8721">
        <ele>1727.2</ele>
        <time>2012-08-29T07:19:29Z</time>
      </trkpt>
      <trkpt lat="45.33354" lon="5.87214">
        <ele>1727.8</ele>
        <time>2012-08-29T07:19:34Z</time>
      </trkpt>
      <trkpt lat="45.33366" lon="5.87213">
        <ele>1728</ele>
        <time>2012-08-29T07:19:39Z</time>
      </trkpt>
      <trkpt lat="45.33375" lon="5.87215">
        <ele>1729</ele>
        <time>2012-08-29T07:19:44Z</time>
      </trkpt>
      <trkpt lat="45.3338" lon="5.87216">
        <ele>1729.6</ele>
        <time>2012-08-29T07:19:48Z</time>
      </trkpt>
      <trkpt lat="45.33385" lon="5.87224">
        <ele>1730.4</ele>
        <time>2012-08-29T07:19:55Z</time>
      </trkpt>
      <trkpt lat="45.33386" lon="5.87224">
        <ele>1730.6</ele>
        <time>2012-08-29T07:19:56Z</time>
      </trkpt>
      <trkpt lat="45.33389" lon="5.87224">
        <ele>1731.2</ele>
        <time>2012-08-29T07:19:59Z</time>
      </trkpt>
      <trkpt lat="45.334" lon="5.87217">
        <ele>1731.8</ele>
        <time>2012-08-29T07:20:04Z</time>
      </trkpt>
      <trkpt lat="45.33408" lon="5.8721">
        <ele>1732.2</ele>
        <time>2012-08-29T07:20:09Z</time>
      </trkpt>
      <trkpt lat="45.33413" lon="5.87207">
        <ele>1732.2</ele>
        <time>2012-08-29T07:20:13Z</time>
      </trkpt>
      <trkpt lat="45.33423" lon="5.87202">
        <ele>1732.4</ele>
        <time>2012-08-29T07:20:18Z</time>
      </trkpt>
      <trkpt lat="45.33428" lon="5.87202">
        <ele>1732.4</ele>
        <time>2012-08-29T07:20:21Z</time>
      </trkpt>
      <trkpt lat="45.33434" lon="5.872">
        <ele>1732.6</ele>
        <time>2012-08-29T07:20:27Z</time>
      </trkpt>
      <trkpt lat="45.33445" lon="5.87197">
        <ele>1731.6</ele>
        <time>2012-08-29T07:20:37Z</time>
      </trkpt>
      <trkpt lat="45.33451" lon="5.87198">
        <ele>1730.8</ele>
        <time>2012-08-29T07:20:41Z</time>
      </trkpt>
      <trkpt lat="45.33456" lon="5.87199">
        <ele>1730</ele>
        <time>2012-08-29T07:20:45Z</time>
      </trkpt>
      <trkpt lat="45.33457" lon="5.872">
        <ele>1729.8</ele>
        <time>2012-08-29T07:20:46Z</time>
      </trkpt>
      <trkpt lat="45.33462" lon="5.87204">
        <ele>1728.4</ele>
        <time>2012-08-29T07:20:52Z</time>
      </trkpt>
      <trkpt lat="45.33467" lon="5.87204">
        <ele>1726.8</ele>
        <time>2012-08-29T07:20:58Z</time>
      </trkpt>
      <trkpt lat="45.33469" lon="5.87205">
        <ele>1726.6</ele>
        <time>2012-08-29T07:20:59Z</time>
      </trkpt>
      <trkpt lat="45.33476" lon="5.8721">
        <ele>1726</ele>
        <time>2012-08-29T07:21:02Z</time>
      </trkpt>
      <trkpt lat="45.33479" lon="5.87211">
        <ele>1725.6</ele>
        <time>2012-08-29T07:21:04Z</time>
      </trkpt>
      <trkpt lat="45.33485" lon="5.87206">
        <ele>1725</ele>
        <time>2012-08-29T07:21:09Z</time>
      </trkpt>
      <trkpt lat="45.33493" lon="5.87207">
        <ele>1724</ele>
        <time>2012-08-29T07:21:15Z</time>
      </trkpt>
      <trkpt lat="45.33499" lon="5.87215">
        <ele>1723.2</ele>
        <time>2012-08-29T07:21:20Z</time>
      </trkpt>
      <trkpt lat="45.33503" lon="5.87218">
        <ele>1722.8</ele>
        <time>2012-08-29T07:21:22Z</time>
      </trkpt>
      <trkpt lat="45.33507" lon="5.8722">
        <ele>1722.8</ele>
        <time>2012-08-29T07:21:24Z</time>
      </trkpt>
      <trkpt lat="45.33514" lon="5.87224">
        <ele>1722.4</ele>
        <time>2012-08-29T07:21:29Z</time>
      </trkpt>
      <trkpt lat="45.33516" lon="5.87225">
        <ele>1722.4</ele>
        <time>2012-08-29T07:21:31Z</time>
      </trkpt>
      <trkpt lat="45.3352" lon="5.87226">
        <ele>1722.2</ele>
        <time>2012-08-29T07:21:35Z</time>
      </trkpt>
      <trkpt lat="45.33525" lon="5.87225">
        <ele>1722</ele>
        <time>2012-08-29T07:21:40Z</time>
      </trkpt>
      <trkpt lat="45.33527" lon="5.87225">
        <ele>1722</ele>
        <time>2012-08-29T07:21:41Z</time>
      </trkpt>
      <trkpt lat="45.33529" lon="5.87224">
        <ele>1721.8</ele>
        <time>2012-08-29T07:21:42Z</time>
      </trkpt>
      <trkpt lat="45.33542" lon="5.8723">
        <ele>1720.8</ele>
        <time>2012-08-29T07:21:48Z</time>
      </trkpt>
      <trkpt lat="45.33546" lon="5.87232">
        <ele>1720.6</ele>
        <time>2012-08-29T07:21:51Z</time>
      </trkpt>
      <trkpt lat="45.3355" lon="5.87236">
        <ele>1720.2</ele>
        <time>2012-08-29T07:21:55Z</time>
      </trkpt>
      <trkpt lat="45.33551" lon="5.87236">
        <ele>1720.2</ele>
        <time>2012-08-29T07:21:56Z</time>
      </trkpt>
      <trkpt lat="45.33552" lon="5.87234">
        <ele>1719.8</ele>
        <time>2012-08-29T07:21:58Z</time>
      </trkpt>
      <trkpt lat="45.33559" lon="5.87232">
        <ele>1718.8</ele>
        <time>2012-08-29T07:22:04Z</time>
      </trkpt>
      <trkpt lat="45.33566" lon="5.87234">
        <ele>1718.4</ele>
        <time>2012-08-29T07:22:08Z</time>
      </trkpt>
      <trkpt lat="45.33568" lon="5.87235">
        <ele>1718.2</ele>
        <time>2012-08-29T07:22:10Z</time>
      </trkpt>
      <trkpt lat="45.3357" lon="5.87235">
        <ele>1718.2</ele>
        <time>2012-08-29T07:22:12Z</time>
      </trkpt>
      <trkpt lat="45.33579" lon="5.87237">
        <ele>1718</ele>
        <time>2012-08-29T07:22:17Z</time>
      </trkpt>
      <trkpt lat="45.3358" lon="5.87238">
        <ele>1718</ele>
        <time>2012-08-29T07:22:18Z</time>
      </trkpt>
      <trkpt lat="45.33587" lon="5.87238">
        <ele>1717.8</ele>
        <time>2012-08-29T07:22:23Z</time>
      </trkpt>
      <trkpt lat="45.33597" lon="5.87235">
        <ele>1717.8</ele>
        <time>2012-08-29T07:22:28Z</time>
      </trkpt>
      <trkpt lat="45.33601" lon="5.87234">
        <ele>1717.8</ele>
        <time>2012-08-29T07:22:30Z</time>
      </trkpt>
      <trkpt lat="45.33609" lon="5.87234">
        <ele>1717.2</ele>
        <time>2012-08-29T07:22:35Z</time>
      </trkpt>
      <trkpt lat="45.33611" lon="5.87234">
        <ele>1717</ele>
        <time>2012-08-29T07:22:36Z</time>
      </trkpt>
      <trkpt lat="45.33612" lon="5.87233">
        <ele>1717</ele>
        <time>2012-08-29T07:22:37Z</time>
      </trkpt>
      <trkpt lat="45.3362" lon="5.87234">
        <ele>1716.4</ele>
        <time>2012-08-29T07:22:41Z</time>
      </trkpt>
      <trkpt lat="45.33628" lon="5.87241">
        <ele>1715.4</ele>
        <time>2012-08-29T07:22:46Z</time>
      </trkpt>
      <trkpt lat="45.3363" lon="5.87242">
        <ele>1715.2</ele>
        <time>2012-08-29T07:22:47Z</time>
      </trkpt>
      <trkpt lat="45.33632" lon="5.87243">
        <ele>1715</ele>
        <time>2012-08-29T07:22:49Z</time>
      </trkpt>
      <trkpt lat="45.33639" lon="5.87245">
        <ele>1713.8</ele>
        <time>2012-08-29T07:22:54Z</time>
      </trkpt>
      <trkpt lat="45.33645" lon="5.87244">
        <ele>1712.4</ele>
        <time>2012-08-29T07:22:59Z</time>
      </trkpt>
      <trkpt lat="45.33652" lon="5.87244">
        <ele>1711.4</ele>
        <time>2012-08-29T07:23:03Z</time>
      </trkpt>
      <trkpt lat="45.33654" lon="5.87244">
        <ele>1711.2</ele>
        <time>2012-08-29T07:23:04Z</time>
      </trkpt>
      <trkpt lat="45.33656" lon="5.87244">
        <ele>1711</ele>
        <time>2012-08-29T07:23:05Z</time>
      </trkpt>
      <trkpt lat="45.33659" lon="5.87248">
        <ele>1709.8</ele>
        <time>2012-08-29T07:23:09Z</time>
      </trkpt>
      <trkpt lat="45.3366" lon="5.87249">
        <ele>1709</ele>
        <time>2012-08-29T07:23:11Z</time>
      </trkpt>
      <trkpt lat="45.33661" lon="5.8725">
        <ele>1708.4</ele>
        <time>2012-08-29T07:23:13Z</time>
      </trkpt>
      <trkpt lat="45.33664" lon="5.8725">
        <ele>1707.6</ele>
        <time>2012-08-29T07:23:16Z</time>
      </trkpt>
      <trkpt lat="45.33668" lon="5.87253">
        <ele>1706.4</ele>
        <time>2012-08-29T07:23:20Z</time>
      </trkpt>
      <trkpt lat="45.33673" lon="5.87255">
        <ele>1704.6</ele>
        <time>2012-08-29T07:23:27Z</time>
      </trkpt>
      <trkpt lat="45.3368" lon="5.87253">
        <ele>1703</ele>
        <time>2012-08-29T07:23:34Z</time>
      </trkpt>
      <trkpt lat="45.33685" lon="5.87253">
        <ele>1702</ele>
        <time>2012-08-29T07:23:38Z</time>
      </trkpt>
      <trkpt lat="45.3369" lon="5.87254">
        <ele>1701.4</ele>
        <time>2012-08-29T07:23:40Z</time>
      </trkpt>
      <trkpt lat="45.33697" lon="5.87261">
        <ele>1700.4</ele>
        <time>2012-08-29T07:23:44Z</time>
      </trkpt>
      <trkpt lat="45.33702" lon="5.87267">
        <ele>1699.2</ele>
        <time>2012-08-29T07:23:48Z</time>
      </trkpt>
      <trkpt lat="45.33714" lon="5.87275">
        <ele>1697.4</ele>
        <time>2012-08-29T07:23:54Z</time>
      </trkpt>
      <trkpt lat="45.33721" lon="5.8728">
        <ele>1696.4</ele>
        <time>2012-08-29T07:23:58Z</time>
      </trkpt>
      <trkpt lat="45.33725" lon="5.87285">
        <ele>1695</ele>
        <time>2012-08-29T07:24:02Z</time>
      </trkpt>
      <trkpt lat="45.33726" lon="5.87288">
        <ele>1694.6</ele>
        <time>2012-08-29T07:24:04Z</time>
      </trkpt>
      <trkpt lat="45.33728" lon="5.87289">
        <ele>1694</ele>
        <time>2012-08-29T07:24:06Z</time>
      </trkpt>
      <trkpt lat="45.33734" lon="5.87287">
        <ele>1692.8</ele>
        <time>2012-08-29T07:24:10Z</time>
      </trkpt>
      <trkpt lat="45.3374" lon="5.87286">
        <ele>1691.4</ele>
        <time>2012-08-29T07:24:15Z</time>
      </trkpt>
      <trkpt lat="45.33744" lon="5.87284">
        <ele>1690.6</ele>
        <time>2012-08-29T07:24:18Z</time>
      </trkpt>
      <trkpt lat="45.33748" lon="5.87284">
        <ele>1689.4</ele>
        <time>2012-08-29T07:24:21Z</time>
      </trkpt>
      <trkpt lat="45.33751" lon="5.87285">
        <ele>1687.8</ele>
        <time>2012-08-29T07:24:25Z</time>
      </trkpt>
      <trkpt lat="45.33758" lon="5.87283">
        <ele>1685</ele>
        <time>2012-08-29T07:24:32Z</time>
      </trkpt>
      <trkpt lat="45.33763" lon="5.87285">
        <ele>1683</ele>
        <time>2012-08-29T07:24:36Z</time>
      </trkpt>
      <trkpt lat="45.33778" lon="5.87291">
        <ele>1679.8</ele>
        <time>2012-08-29T07:24:43Z</time>
      </trkpt>
      <trkpt lat="45.33793" lon="5.87297">
        <ele>1676.8</ele>
        <time>2012-08-29T07:24:50Z</time>
      </trkpt>
      <trkpt lat="45.33805" lon="5.87303">
        <ele>1674.6</ele>
        <time>2012-08-29T07:24:56Z</time>
      </trkpt>
      <trkpt lat="45.33807" lon="5.87304">
        <ele>1674.2</ele>
        <time>2012-08-29T07:24:57Z</time>
      </trkpt>
      <trkpt lat="45.33817" lon="5.87307">
        <ele>1672.8</ele>
        <time>2012-08-29T07:25:02Z</time>
      </trkpt>
      <trkpt lat="45.33825" lon="5.87314">
        <ele>1671.8</ele>
        <time>2012-08-29T07:25:06Z</time>
      </trkpt>
      <trkpt lat="45.33834" lon="5.87316">
        <ele>1670.6</ele>
        <time>2012-08-29T07:25:11Z</time>
      </trkpt>
      <trkpt lat="45.3385" lon="5.87324">
        <ele>1669.6</ele>
        <time>2012-08-29T07:25:18Z</time>
      </trkpt>
      <trkpt lat="45.33855" lon="5.87327">
        <ele>1669.4</ele>
        <time>2012-08-29T07:25:21Z</time>
      </trkpt>
      <trkpt lat="45.33872" lon="5.87326">
        <ele>1669</ele>
        <time>2012-08-29T07:25:29Z</time>
      </trkpt>
      <trkpt lat="45.33875" lon="5.87327">
        <ele>1669</ele>
        <time>2012-08-29T07:25:30Z</time>
      </trkpt>
      <trkpt lat="45.33886" lon="5.87335">
        <ele>1668.8</ele>
        <time>2012-08-29T07:25:36Z</time>
      </trkpt>
      <trkpt lat="45.33895" lon="5.87346">
        <ele>1668.8</ele>
        <time>2012-08-29T07:25:42Z</time>
      </trkpt>
      <trkpt lat="45.33901" lon="5.87349">
        <ele>1668.8</ele>
        <time>2012-08-29T07:25:46Z</time>
      </trkpt>
      <trkpt lat="45.33906" lon="5.87349">
        <ele>1668.6</ele>
        <time>2012-08-29T07:25:50Z</time>
      </trkpt>
      <trkpt lat="45.3392" lon="5.87337">
        <ele>1668.6</ele>
        <time>2012-08-29T07:25:57Z</time>
      </trkpt>
      <trkpt lat="45.33931" lon="5.87325">
        <ele>1668.6</ele>
        <time>2012-08-29T07:26:03Z</time>
      </trkpt>
      <trkpt lat="45.33936" lon="5.87316">
        <ele>1668.6</ele>
        <time>2012-08-29T07:26:08Z</time>
      </trkpt>
      <trkpt lat="45.33948" lon="5.87301">
        <ele>1668</ele>
        <time>2012-08-29T07:26:15Z</time>
      </trkpt>
      <trkpt lat="45.33959" lon="5.87292">
        <ele>1667.4</ele>
        <time>2012-08-29T07:26:20Z</time>
      </trkpt>
      <trkpt lat="45.33964" lon="5.87286">
        <ele>1667.2</ele>
        <time>2012-08-29T07:26:23Z</time>
      </trkpt>
      <trkpt lat="45.33974" lon="5.87281">
        <ele>1666.2</ele>
        <time>2012-08-29T07:26:28Z</time>
      </trkpt>
      <trkpt lat="45.33977" lon="5.87277">
        <ele>1666</ele>
        <time>2012-08-29T07:26:30Z</time>
      </trkpt>
      <trkpt lat="45.33991" lon="5.87266">
        <ele>1664.8</ele>
        <time>2012-08-29T07:26:38Z</time>
      </trkpt>
      <trkpt lat="45.34004" lon="5.87268">
        <ele>1663.6</ele>
        <time>2012-08-29T07:26:45Z</time>
      </trkpt>
      <trkpt lat="45.34006" lon="5.87267">
        <ele>1663.4</ele>
        <time>2012-08-29T07:26:46Z</time>
      </trkpt>
      <trkpt lat="45.34018" lon="5.87258">
        <ele>1661.8</ele>
        <time>2012-08-29T07:26:52Z</time>
      </trkpt>
      <trkpt lat="45.34029" lon="5.87248">
        <ele>1660.4</ele>
        <time>2012-08-29T07:26:57Z</time>
      </trkpt>
      <trkpt lat="45.34041" lon="5.87235">
        <ele>1658.6</ele>
        <time>2012-08-29T07:27:03Z</time>
      </trkpt>
      <trkpt lat="45.34051" lon="5.8722">
        <ele>1657</ele>
        <time>2012-08-29T07:27:08Z</time>
      </trkpt>
      <trkpt lat="45.34058" lon="5.87219">
        <ele>1656</ele>
        <time>2012-08-29T07:27:11Z</time>
      </trkpt>
      <trkpt lat="45.34062" lon="5.87218">
        <ele>1654.6</ele>
        <time>2012-08-29T07:27:15Z</time>
      </trkpt>
      <trkpt lat="45.34063" lon="5.87222">
        <ele>1652.4</ele>
        <time>2012-08-29T07:27:21Z</time>
      </trkpt>
      <trkpt lat="45.34063" lon="5.87225">
        <ele>1650.2</ele>
        <time>2012-08-29T07:27:27Z</time>
      </trkpt>
      <trkpt lat="45.34064" lon="5.87222">
        <ele>1648.6</ele>
        <time>2012-08-29T07:27:32Z</time>
      </trkpt>
      <trkpt lat="45.34064" lon="5.87223">
        <ele>1646.8</ele>
        <time>2012-08-29T07:27:39Z</time>
      </trkpt>
      <trkpt lat="45.34063" lon="5.87226">
        <ele>1645.2</ele>
        <time>2012-08-29T07:27:46Z</time>
      </trkpt>
      <trkpt lat="45.34064" lon="5.87226">
        <ele>1642.8</ele>
        <time>2012-08-29T07:27:59Z</time>
      </trkpt>
      <trkpt lat="45.34064" lon="5.87226">
        <ele>1641.8</ele>
        <time>2012-08-29T07:28:07Z</time>
      </trkpt>
      <trkpt lat="45.34063" lon="5.87228">
        <ele>1639.2</ele>
        <time>2012-08-29T07:28:39Z</time>
      </trkpt>
      <trkpt lat="45.34064" lon="5.87229">
        <ele>1639</ele>
        <time>2012-08-29T07:29:39Z</time>
      </trkpt>
      <trkpt lat="45.34065" lon="5.87228">
        <ele>1643</ele>
        <time>2012-08-29T07:31:30Z</time>
      </trkpt>
      <trkpt lat="45.34065" lon="5.87227">
        <ele>1644</ele>
        <time>2012-08-29T07:31:50Z</time>
      </trkpt>
      <trkpt lat="45.34068" lon="5.87222">
        <ele>1645</ele>
        <time>2012-08-29T07:33:15Z</time>
      </trkpt>
      <trkpt lat="45.34072" lon="5.87211">
        <ele>1645</ele>
        <time>2012-08-29T07:33:20Z</time>
      </trkpt>
      <trkpt lat="45.34075" lon="5.87202">
        <ele>1645</ele>
        <time>2012-08-29T07:33:24Z</time>
      </trkpt>
      <trkpt lat="45.34078" lon="5.87203">
        <ele>1645</ele>
        <time>2012-08-29T07:33:29Z</time>
      </trkpt>
      <trkpt lat="45.34078" lon="5.8721">
        <ele>1645</ele>
        <time>2012-08-29T07:33:35Z</time>
      </trkpt>
      <trkpt lat="45.34079" lon="5.87221">
        <ele>1646</ele>
        <time>2012-08-29T07:33:43Z</time>
      </trkpt>
      <trkpt lat="45.34079" lon="5.87222">
        <ele>1646</ele>
        <time>2012-08-29T07:33:44Z</time>
      </trkpt>
      <trkpt lat="45.3408" lon="5.87229">
        <ele>1646.4</ele>
        <time>2012-08-29T07:33:49Z</time>
      </trkpt>
      <trkpt lat="45.3408" lon="5.87238">
        <ele>1647.2</ele>
        <time>2012-08-29T07:33:56Z</time>
      </trkpt>
      <trkpt lat="45.3408" lon="5.8724">
        <ele>1647.4</ele>
        <time>2012-08-29T07:33:57Z</time>
      </trkpt>
      <trkpt lat="45.3408" lon="5.87245">
        <ele>1648</ele>
        <time>2012-08-29T07:34:01Z</time>
      </trkpt>
      <trkpt lat="45.34079" lon="5.87248">
        <ele>1648.2</ele>
        <time>2012-08-29T07:34:03Z</time>
      </trkpt>
      <trkpt lat="45.34079" lon="5.87255">
        <ele>1649</ele>
        <time>2012-08-29T07:34:10Z</time>
      </trkpt>
      <trkpt lat="45.34079" lon="5.87256">
        <ele>1649.2</ele>
        <time>2012-08-29T07:34:11Z</time>
      </trkpt>
      <trkpt lat="45.34078" lon="5.87258">
        <ele>1649.6</ele>
        <time>2012-08-29T07:34:13Z</time>
      </trkpt>
      <trkpt lat="45.34073" lon="5.87268">
        <ele>1650.4</ele>
        <time>2012-08-29T07:34:21Z</time>
      </trkpt>
      <trkpt lat="45.34066" lon="5.87273">
        <ele>1651.6</ele>
        <time>2012-08-29T07:34:27Z</time>
      </trkpt>
      <trkpt lat="45.3406" lon="5.87279">
        <ele>1652.2</ele>
        <time>2012-08-29T07:34:33Z</time>
      </trkpt>
      <trkpt lat="45.34058" lon="5.87283">
        <ele>1652.4</ele>
        <time>2012-08-29T07:34:35Z</time>
      </trkpt>
      <trkpt lat="45.34054" lon="5.87294">
        <ele>1653.8</ele>
        <time>2012-08-29T07:34:43Z</time>
      </trkpt>
      <trkpt lat="45.34052" lon="5.873">
        <ele>1654.2</ele>
        <time>2012-08-29T07:34:46Z</time>
      </trkpt>
      <trkpt lat="45.34045" lon="5.87312">
        <ele>1655.6</ele>
        <time>2012-08-29T07:34:54Z</time>
      </trkpt>
      <trkpt lat="45.34039" lon="5.87318">
        <ele>1656.6</ele>
        <time>2012-08-29T07:34:59Z</time>
      </trkpt>
      <trkpt lat="45.3404" lon="5.87325">
        <ele>1658</ele>
        <time>2012-08-29T07:35:05Z</time>
      </trkpt>
      <trkpt lat="45.34039" lon="5.87328">
        <ele>1659</ele>
        <time>2012-08-29T07:35:08Z</time>
      </trkpt>
      <trkpt lat="45.34038" lon="5.87333">
        <ele>1660</ele>
        <time>2012-08-29T07:35:12Z</time>
      </trkpt>
      <trkpt lat="45.34038" lon="5.87341">
        <ele>1662</ele>
        <time>2012-08-29T07:35:20Z</time>
      </trkpt>
      <trkpt lat="45.34037" lon="5.87347">
        <ele>1663.4</ele>
        <time>2012-08-29T07:35:25Z</time>
      </trkpt>
      <trkpt lat="45.34037" lon="5.87353">
        <ele>1664.2</ele>
        <time>2012-08-29T07:35:29Z</time>
      </trkpt>
      <trkpt lat="45.34035" lon="5.87363">
        <ele>1666.6</ele>
        <time>2012-08-29T07:35:38Z</time>
      </trkpt>
      <trkpt lat="45.34034" lon="5.87365">
        <ele>1667.2</ele>
        <time>2012-08-29T07:35:40Z</time>
      </trkpt>
      <trkpt lat="45.34036" lon="5.87372">
        <ele>1668.8</ele>
        <time>2012-08-29T07:35:47Z</time>
      </trkpt>
      <trkpt lat="45.34036" lon="5.87379">
        <ele>1670.6</ele>
        <time>2012-08-29T07:35:54Z</time>
      </trkpt>
      <trkpt lat="45.34035" lon="5.87384">
        <ele>1672.4</ele>
        <time>2012-08-29T07:36:01Z</time>
      </trkpt>
      <trkpt lat="45.34036" lon="5.87388">
        <ele>1673.8</ele>
        <time>2012-08-29T07:36:07Z</time>
      </trkpt>
      <trkpt lat="45.34037" lon="5.87393">
        <ele>1674.8</ele>
        <time>2012-08-29T07:36:12Z</time>
      </trkpt>
      <trkpt lat="45.34041" lon="5.87394">
        <ele>1676.2</ele>
        <time>2012-08-29T07:36:17Z</time>
      </trkpt>
      <trkpt lat="45.34042" lon="5.87394">
        <ele>1676.4</ele>
        <time>2012-08-29T07:36:18Z</time>
      </trkpt>
      <trkpt lat="45.34049" lon="5.87392">
        <ele>1677.8</ele>
        <time>2012-08-29T07:36:24Z</time>
      </trkpt>
      <trkpt lat="45.34054" lon="5.87391">
        <ele>1678.8</ele>
        <time>2012-08-29T07:36:28Z</time>
      </trkpt>
      <trkpt lat="45.34056" lon="5.87391">
        <ele>1679.2</ele>
        <time>2012-08-29T07:36:30Z</time>
      </trkpt>
      <trkpt lat="45.34064" lon="5.87388">
        <ele>1681.2</ele>
        <time>2012-08-29T07:36:37Z</time>
      </trkpt>
      <trkpt lat="45.34071" lon="5.87388">
        <ele>1683.2</ele>
        <time>2012-08-29T07:36:43Z</time>
      </trkpt>
      <trkpt lat="45.34078" lon="5.87387">
        <ele>1684.8</ele>
        <time>2012-08-29T07:36:49Z</time>
      </trkpt>
      <trkpt lat="45.34084" lon="5.87386">
        <ele>1686.8</ele>
        <time>2012-08-29T07:36:55Z</time>
      </trkpt>
      <trkpt lat="45.34092" lon="5.87383">
        <ele>1689</ele>
        <time>2012-08-29T07:37:02Z</time>
      </trkpt>
      <trkpt lat="45.34094" lon="5.87387">
        <ele>1690.6</ele>
        <time>2012-08-29T07:37:06Z</time>
      </trkpt>
      <trkpt lat="45.34087" lon="5.874">
        <ele>1692.8</ele>
        <time>2012-08-29T07:37:14Z</time>
      </trkpt>
      <trkpt lat="45.34082" lon="5.87409">
        <ele>1694</ele>
        <time>2012-08-29T07:37:20Z</time>
      </trkpt>
      <trkpt lat="45.34077" lon="5.87419">
        <ele>1695.8</ele>
        <time>2012-08-29T07:37:27Z</time>
      </trkpt>
      <trkpt lat="45.34072" lon="5.8743">
        <ele>1697</ele>
        <time>2012-08-29T07:37:35Z</time>
      </trkpt>
      <trkpt lat="45.34068" lon="5.87439">
        <ele>1698.2</ele>
        <time>2012-08-29T07:37:41Z</time>
      </trkpt>
      <trkpt lat="45.34063" lon="5.87449">
        <ele>1699.6</ele>
        <time>2012-08-29T07:37:49Z</time>
      </trkpt>
      <trkpt lat="45.34059" lon="5.87458">
        <ele>1701.4</ele>
        <time>2012-08-29T07:37:56Z</time>
      </trkpt>
      <trkpt lat="45.34055" lon="5.87463">
        <ele>1702.8</ele>
        <time>2012-08-29T07:38:01Z</time>
      </trkpt>
      <trkpt lat="45.3405" lon="5.8747">
        <ele>1705.2</ele>
        <time>2012-08-29T07:38:08Z</time>
      </trkpt>
      <trkpt lat="45.34045" lon="5.87476">
        <ele>1707.4</ele>
        <time>2012-08-29T07:38:14Z</time>
      </trkpt>
      <trkpt lat="45.34042" lon="5.8748">
        <ele>1708.8</ele>
        <time>2012-08-29T07:38:18Z</time>
      </trkpt>
      <trkpt lat="45.34038" lon="5.87493">
        <ele>1712.6</ele>
        <time>2012-08-29T07:38:31Z</time>
      </trkpt>
      <trkpt lat="45.34041" lon="5.875">
        <ele>1715.4</ele>
        <time>2012-08-29T07:38:40Z</time>
      </trkpt>
      <trkpt lat="45.34045" lon="5.87506">
        <ele>1718.6</ele>
        <time>2012-08-29T07:38:49Z</time>
      </trkpt>
      <trkpt lat="45.3405" lon="5.87508">
        <ele>1720.6</ele>
        <time>2012-08-29T07:38:55Z</time>
      </trkpt>
      <trkpt lat="45.34058" lon="5.87507">
        <ele>1723.2</ele>
        <time>2012-08-29T07:39:03Z</time>
      </trkpt>
      <trkpt lat="45.34068" lon="5.87508">
        <ele>1725.6</ele>
        <time>2012-08-29T07:39:11Z</time>
      </trkpt>
      <trkpt lat="45.34076" lon="5.87506">
        <ele>1727.8</ele>
        <time>2012-08-29T07:39:18Z</time>
      </trkpt>
      <trkpt lat="45.34087" lon="5.87497">
        <ele>1730.6</ele>
        <time>2012-08-29T07:39:29Z</time>
      </trkpt>
      <trkpt lat="45.34098" lon="5.87494">
        <ele>1733.4</ele>
        <time>2012-08-29T07:39:39Z</time>
      </trkpt>
      <trkpt lat="45.34108" lon="5.87493">
        <ele>1735.6</ele>
        <time>2012-08-29T07:39:47Z</time>
      </trkpt>
      <trkpt lat="45.34116" lon="5.87493">
        <ele>1737.2</ele>
        <time>2012-08-29T07:39:54Z</time>
      </trkpt>
      <trkpt lat="45.34121" lon="5.87491">
        <ele>1738.4</ele>
        <time>2012-08-29T07:39:58Z</time>
      </trkpt>
      <trkpt lat="45.34128" lon="5.87488">
        <ele>1739.4</ele>
        <time>2012-08-29T07:40:04Z</time>
      </trkpt>
      <trkpt lat="45.3413" lon="5.87488">
        <ele>1740</ele>
        <time>2012-08-29T07:40:06Z</time>
      </trkpt>
      <trkpt lat="45.34135" lon="5.87484">
        <ele>1741.2</ele>
        <time>2012-08-29T07:40:11Z</time>
      </trkpt>
      <trkpt lat="45.34146" lon="5.87477">
        <ele>1743.6</ele>
        <time>2012-08-29T07:40:20Z</time>
      </trkpt>
      <trkpt lat="45.3415" lon="5.87473">
        <ele>1744.8</ele>
        <time>2012-08-29T07:40:24Z</time>
      </trkpt>
      <trkpt lat="45.34155" lon="5.87465">
        <ele>1746.2</ele>
        <time>2012-08-29T07:40:30Z</time>
      </trkpt>
      <trkpt lat="45.3416" lon="5.8746">
        <ele>1747.8</ele>
        <time>2012-08-29T07:40:37Z</time>
      </trkpt>
      <trkpt lat="45.34166" lon="5.8745">
        <ele>1750</ele>
        <time>2012-08-29T07:40:45Z</time>
      </trkpt>
      <trkpt lat="45.34166" lon="5.87449">
        <ele>1750.4</ele>
        <time>2012-08-29T07:40:46Z</time>
      </trkpt>
      <trkpt lat="45.34172" lon="5.87444">
        <ele>1752</ele>
        <time>2012-08-29T07:40:52Z</time>
      </trkpt>
      <trkpt lat="45.34176" lon="5.87442">
        <ele>1753.4</ele>
        <time>2012-08-29T07:40:57Z</time>
      </trkpt>
      <trkpt lat="45.3418" lon="5.87439">
        <ele>1754.8</ele>
        <time>2012-08-29T07:41:01Z</time>
      </trkpt>
      <trkpt lat="45.34181" lon="5.87443">
        <ele>1756.2</ele>
        <time>2012-08-29T07:41:06Z</time>
      </trkpt>
      <trkpt lat="45.34181" lon="5.87444">
        <ele>1756.6</ele>
        <time>2012-08-29T07:41:07Z</time>
      </trkpt>
      <trkpt lat="45.34181" lon="5.87445">
        <ele>1756.8</ele>
        <time>2012-08-29T07:41:08Z</time>
      </trkpt>
      <trkpt lat="45.34177" lon="5.87454">
        <ele>1759</ele>
        <time>2012-08-29T07:41:16Z</time>
      </trkpt>
      <trkpt lat="45.34181" lon="5.87453">
        <ele>1760.2</ele>
        <time>2012-08-29T07:41:21Z</time>
      </trkpt>
      <trkpt lat="45.3419" lon="5.87446">
        <ele>1762.4</ele>
        <time>2012-08-29T07:41:30Z</time>
      </trkpt>
      <trkpt lat="45.34194" lon="5.87439">
        <ele>1764.4</ele>
        <time>2012-08-29T07:41:37Z</time>
      </trkpt>
      <trkpt lat="45.34195" lon="5.87437">
        <ele>1764.6</ele>
        <time>2012-08-29T07:41:38Z</time>
      </trkpt>
      <trkpt lat="45.34198" lon="5.87429">
        <ele>1766.8</ele>
        <time>2012-08-29T07:41:46Z</time>
      </trkpt>
      <trkpt lat="45.34199" lon="5.87427">
        <ele>1767</ele>
        <time>2012-08-29T07:41:47Z</time>
      </trkpt>
      <trkpt lat="45.34203" lon="5.87422">
        <ele>1768.8</ele>
        <time>2012-08-29T07:41:53Z</time>
      </trkpt>
      <trkpt lat="45.34207" lon="5.87418">
        <ele>1770.4</ele>
        <time>2012-08-29T07:41:59Z</time>
      </trkpt>
      <trkpt lat="45.34213" lon="5.87414">
        <ele>1772.4</ele>
        <time>2012-08-29T07:42:06Z</time>
      </trkpt>
      <trkpt lat="45.34214" lon="5.87414">
        <ele>1772.6</ele>
        <time>2012-08-29T07:42:07Z</time>
      </trkpt>
      <trkpt lat="45.34219" lon="5.87412">
        <ele>1773.8</ele>
        <time>2012-08-29T07:42:12Z</time>
      </trkpt>
      <trkpt lat="45.34225" lon="5.8741">
        <ele>1775.2</ele>
        <time>2012-08-29T07:42:18Z</time>
      </trkpt>
      <trkpt lat="45.34226" lon="5.87414">
        <ele>1776.4</ele>
        <time>2012-08-29T07:42:23Z</time>
      </trkpt>
      <trkpt lat="45.34225" lon="5.87417">
        <ele>1777</ele>
        <time>2012-08-29T07:42:25Z</time>
      </trkpt>
      <trkpt lat="45.34224" lon="5.8742">
        <ele>1777.6</ele>
        <time>2012-08-29T07:42:29Z</time>
      </trkpt>
      <trkpt lat="45.34222" lon="5.87428">
        <ele>1779</ele>
        <time>2012-08-29T07:42:35Z</time>
      </trkpt>
      <trkpt lat="45.34222" lon="5.87433">
        <ele>1779.4</ele>
        <time>2012-08-29T07:42:38Z</time>
      </trkpt>
      <trkpt lat="45.34222" lon="5.87444">
        <ele>1780.6</ele>
        <time>2012-08-29T07:42:45Z</time>
      </trkpt>
      <trkpt lat="45.34221" lon="5.87447">
        <ele>1781.2</ele>
        <time>2012-08-29T07:42:48Z</time>
      </trkpt>
      <trkpt lat="45.34218" lon="5.87459">
        <ele>1783</ele>
        <time>2012-08-29T07:42:56Z</time>
      </trkpt>
      <trkpt lat="45.34217" lon="5.87467">
        <ele>1784.4</ele>
        <time>2012-08-29T07:43:02Z</time>
      </trkpt>
      <trkpt lat="45.34215" lon="5.87476">
        <ele>1785.6</ele>
        <time>2012-08-29T07:43:07Z</time>
      </trkpt>
      <trkpt lat="45.34214" lon="5.87481">
        <ele>1786.4</ele>
        <time>2012-08-29T07:43:11Z</time>
      </trkpt>
      <trkpt lat="45.34212" lon="5.87485">
        <ele>1787.2</ele>
        <time>2012-08-29T07:43:14Z</time>
      </trkpt>
      <trkpt lat="45.34208" lon="5.87495">
        <ele>1789</ele>
        <time>2012-08-29T07:43:22Z</time>
      </trkpt>
      <trkpt lat="45.34205" lon="5.87504">
        <ele>1790.6</ele>
        <time>2012-08-29T07:43:29Z</time>
      </trkpt>
      <trkpt lat="45.34201" lon="5.87511">
        <ele>1792.4</ele>
        <time>2012-08-29T07:43:36Z</time>
      </trkpt>
      <trkpt lat="45.34199" lon="5.87516">
        <ele>1793.4</ele>
        <time>2012-08-29T07:43:40Z</time>
      </trkpt>
      <trkpt lat="45.34203" lon="5.87516">
        <ele>1795</ele>
        <time>2012-08-29T07:43:47Z</time>
      </trkpt>
      <trkpt lat="45.34205" lon="5.87515">
        <ele>1795.6</ele>
        <time>2012-08-29T07:43:49Z</time>
      </trkpt>
      <trkpt lat="45.34215" lon="5.8751">
        <ele>1798.2</ele>
        <time>2012-08-29T07:43:59Z</time>
      </trkpt>
      <trkpt lat="45.34221" lon="5.87505">
        <ele>1800.6</ele>
        <time>2012-08-29T07:44:06Z</time>
      </trkpt>
      <trkpt lat="45.34228" lon="5.87501">
        <ele>1803.2</ele>
        <time>2012-08-29T07:44:13Z</time>
      </trkpt>
      <trkpt lat="45.34233" lon="5.87497">
        <ele>1805.4</ele>
        <time>2012-08-29T07:44:19Z</time>
      </trkpt>
      <trkpt lat="45.34234" lon="5.87496">
        <ele>1805.6</ele>
        <time>2012-08-29T07:44:20Z</time>
      </trkpt>
      <trkpt lat="45.34234" lon="5.87502">
        <ele>1807.4</ele>
        <time>2012-08-29T07:44:25Z</time>
      </trkpt>
      <trkpt lat="45.34232" lon="5.87508">
        <ele>1809</ele>
        <time>2012-08-29T07:44:30Z</time>
      </trkpt>
      <trkpt lat="45.34228" lon="5.87514">
        <ele>1811</ele>
        <time>2012-08-29T07:44:36Z</time>
      </trkpt>
      <trkpt lat="45.34226" lon="5.8752">
        <ele>1812.4</ele>
        <time>2012-08-29T07:44:41Z</time>
      </trkpt>
      <trkpt lat="45.34225" lon="5.87524">
        <ele>1813.8</ele>
        <time>2012-08-29T07:44:45Z</time>
      </trkpt>
      <trkpt lat="45.34222" lon="5.8753">
        <ele>1815.6</ele>
        <time>2012-08-29T07:44:51Z</time>
      </trkpt>
      <trkpt lat="45.34222" lon="5.87531">
        <ele>1815.8</ele>
        <time>2012-08-29T07:44:52Z</time>
      </trkpt>
      <trkpt lat="45.34218" lon="5.87537">
        <ele>1817</ele>
        <time>2012-08-29T07:44:57Z</time>
      </trkpt>
      <trkpt lat="45.34214" lon="5.87544">
        <ele>1818.8</ele>
        <time>2012-08-29T07:45:04Z</time>
      </trkpt>
      <trkpt lat="45.34212" lon="5.87549">
        <ele>1819.6</ele>
        <time>2012-08-29T07:45:08Z</time>
      </trkpt>
      <trkpt lat="45.34214" lon="5.87548">
        <ele>1820.8</ele>
        <time>2012-08-29T07:45:13Z</time>
      </trkpt>
      <trkpt lat="45.34215" lon="5.87548">
        <ele>1821</ele>
        <time>2012-08-29T07:45:14Z</time>
      </trkpt>
      <trkpt lat="45.34221" lon="5.87544">
        <ele>1822.4</ele>
        <time>2012-08-29T07:45:20Z</time>
      </trkpt>
      <trkpt lat="45.34228" lon="5.87541">
        <ele>1824.2</ele>
        <time>2012-08-29T07:45:26Z</time>
      </trkpt>
      <trkpt lat="45.34235" lon="5.87537">
        <ele>1826.6</ele>
        <time>2012-08-29T07:45:33Z</time>
      </trkpt>
      <trkpt lat="45.34243" lon="5.87532">
        <ele>1828.8</ele>
        <time>2012-08-29T07:45:41Z</time>
      </trkpt>
      <trkpt lat="45.34249" lon="5.87527">
        <ele>1831.4</ele>
        <time>2012-08-29T07:45:48Z</time>
      </trkpt>
      <trkpt lat="45.34254" lon="5.87524">
        <ele>1833.6</ele>
        <time>2012-08-29T07:45:54Z</time>
      </trkpt>
      <trkpt lat="45.34258" lon="5.87523">
        <ele>1834.8</ele>
        <time>2012-08-29T07:45:57Z</time>
      </trkpt>
      <trkpt lat="45.34267" lon="5.87518">
        <ele>1837.8</ele>
        <time>2012-08-29T07:46:06Z</time>
      </trkpt>
      <trkpt lat="45.34268" lon="5.87518">
        <ele>1838.2</ele>
        <time>2012-08-29T07:46:07Z</time>
      </trkpt>
      <trkpt lat="45.34268" lon="5.87517">
        <ele>1838.6</ele>
        <time>2012-08-29T07:46:08Z</time>
      </trkpt>
      <trkpt lat="45.3427" lon="5.87516">
        <ele>1839.4</ele>
        <time>2012-08-29T07:46:10Z</time>
      </trkpt>
      <trkpt lat="45.34276" lon="5.87514">
        <ele>1841.6</ele>
        <time>2012-08-29T07:46:16Z</time>
      </trkpt>
      <trkpt lat="45.34279" lon="5.87513">
        <ele>1842.6</ele>
        <time>2012-08-29T07:46:19Z</time>
      </trkpt>
      <trkpt lat="45.34282" lon="5.87511">
        <ele>1843.8</ele>
        <time>2012-08-29T07:46:22Z</time>
      </trkpt>
      <trkpt lat="45.34283" lon="5.87514">
        <ele>1845.2</ele>
        <time>2012-08-29T07:46:26Z</time>
      </trkpt>
      <trkpt lat="45.34283" lon="5.87515">
        <ele>1845.6</ele>
        <time>2012-08-29T07:46:27Z</time>
      </trkpt>
      <trkpt lat="45.34278" lon="5.87523">
        <ele>1848</ele>
        <time>2012-08-29T07:46:34Z</time>
      </trkpt>
      <trkpt lat="45.34274" lon="5.87535">
        <ele>1850.4</ele>
        <time>2012-08-29T07:46:43Z</time>
      </trkpt>
      <trkpt lat="45.34271" lon="5.87544">
        <ele>1851.8</ele>
        <time>2012-08-29T07:46:49Z</time>
      </trkpt>
      <trkpt lat="45.34269" lon="5.87548">
        <ele>1852.6</ele>
        <time>2012-08-29T07:46:53Z</time>
      </trkpt>
      <trkpt lat="45.34266" lon="5.87555">
        <ele>1853.6</ele>
        <time>2012-08-29T07:46:58Z</time>
      </trkpt>
      <trkpt lat="45.34266" lon="5.87557">
        <ele>1853.8</ele>
        <time>2012-08-29T07:46:59Z</time>
      </trkpt>
      <trkpt lat="45.34264" lon="5.87563">
        <ele>1855</ele>
        <time>2012-08-29T07:47:05Z</time>
      </trkpt>
      <trkpt lat="45.34269" lon="5.87562">
        <ele>1856.2</ele>
        <time>2012-08-29T07:47:11Z</time>
      </trkpt>
      <trkpt lat="45.34275" lon="5.87559">
        <ele>1858.2</ele>
        <time>2012-08-29T07:47:18Z</time>
      </trkpt>
      <trkpt lat="45.34279" lon="5.87557">
        <ele>1860.4</ele>
        <time>2012-08-29T07:47:24Z</time>
      </trkpt>
      <trkpt lat="45.34286" lon="5.87558">
        <ele>1863.4</ele>
        <time>2012-08-29T07:47:33Z</time>
      </trkpt>
      <trkpt lat="45.34292" lon="5.87555">
        <ele>1865.6</ele>
        <time>2012-08-29T07:47:39Z</time>
      </trkpt>
      <trkpt lat="45.34294" lon="5.87553">
        <ele>1867</ele>
        <time>2012-08-29T07:47:42Z</time>
      </trkpt>
      <trkpt lat="45.34295" lon="5.87556">
        <ele>1868.4</ele>
        <time>2012-08-29T07:47:46Z</time>
      </trkpt>
      <trkpt lat="45.34295" lon="5.87557">
        <ele>1868.8</ele>
        <time>2012-08-29T07:47:47Z</time>
      </trkpt>
      <trkpt lat="45.34295" lon="5.87561">
        <ele>1870</ele>
        <time>2012-08-29T07:47:50Z</time>
      </trkpt>
      <trkpt lat="45.34294" lon="5.87563">
        <ele>1870.4</ele>
        <time>2012-08-29T07:47:52Z</time>
      </trkpt>
      <trkpt lat="45.34293" lon="5.87568">
        <ele>1871.2</ele>
        <time>2012-08-29T07:47:55Z</time>
      </trkpt>
      <trkpt lat="45.3429" lon="5.87576">
        <ele>1873.2</ele>
        <time>2012-08-29T07:48:02Z</time>
      </trkpt>
      <trkpt lat="45.3429" lon="5.87577">
        <ele>1873.4</ele>
        <time>2012-08-29T07:48:03Z</time>
      </trkpt>
      <trkpt lat="45.34288" lon="5.87582">
        <ele>1874</ele>
        <time>2012-08-29T07:48:07Z</time>
      </trkpt>
      <trkpt lat="45.34286" lon="5.87588">
        <ele>1875</ele>
        <time>2012-08-29T07:48:12Z</time>
      </trkpt>
      <trkpt lat="45.34285" lon="5.87592">
        <ele>1875.6</ele>
        <time>2012-08-29T07:48:15Z</time>
      </trkpt>
      <trkpt lat="45.34282" lon="5.87599">
        <ele>1876.8</ele>
        <time>2012-08-29T07:48:21Z</time>
      </trkpt>
      <trkpt lat="45.34282" lon="5.87601">
        <ele>1877</ele>
        <time>2012-08-29T07:48:22Z</time>
      </trkpt>
      <trkpt lat="45.34278" lon="5.87608">
        <ele>1878.6</ele>
        <time>2012-08-29T07:48:29Z</time>
      </trkpt>
      <trkpt lat="45.34277" lon="5.87609">
        <ele>1879</ele>
        <time>2012-08-29T07:48:30Z</time>
      </trkpt>
      <trkpt lat="45.34277" lon="5.87611">
        <ele>1879.4</ele>
        <time>2012-08-29T07:48:32Z</time>
      </trkpt>
      <trkpt lat="45.34276" lon="5.87614">
        <ele>1879.8</ele>
        <time>2012-08-29T07:48:34Z</time>
      </trkpt>
      <trkpt lat="45.34273" lon="5.87625">
        <ele>1882</ele>
        <time>2012-08-29T07:48:42Z</time>
      </trkpt>
      <trkpt lat="45.34269" lon="5.87634">
        <ele>1884.2</ele>
        <time>2012-08-29T07:48:49Z</time>
      </trkpt>
      <trkpt lat="45.34268" lon="5.8764">
        <ele>1885.8</ele>
        <time>2012-08-29T07:48:55Z</time>
      </trkpt>
      <trkpt lat="45.34274" lon="5.87641">
        <ele>1887.8</ele>
        <time>2012-08-29T07:49:01Z</time>
      </trkpt>
      <trkpt lat="45.34277" lon="5.87643">
        <ele>1889.4</ele>
        <time>2012-08-29T07:49:06Z</time>
      </trkpt>
      <trkpt lat="45.34275" lon="5.87648">
        <ele>1890.6</ele>
        <time>2012-08-29T07:49:10Z</time>
      </trkpt>
      <trkpt lat="45.34273" lon="5.8765">
        <ele>1891.2</ele>
        <time>2012-08-29T07:49:12Z</time>
      </trkpt>
      <trkpt lat="45.3427" lon="5.87659">
        <ele>1893.2</ele>
        <time>2012-08-29T07:49:20Z</time>
      </trkpt>
      <trkpt lat="45.3427" lon="5.8766">
        <ele>1893.6</ele>
        <time>2012-08-29T07:49:21Z</time>
      </trkpt>
      <trkpt lat="45.34267" lon="5.87663">
        <ele>1894.8</ele>
        <time>2012-08-29T07:49:25Z</time>
      </trkpt>
      <trkpt lat="45.34264" lon="5.87671">
        <ele>1897.2</ele>
        <time>2012-08-29T07:49:34Z</time>
      </trkpt>
      <trkpt lat="45.34263" lon="5.87672">
        <ele>1897.6</ele>
        <time>2012-08-29T07:49:36Z</time>
      </trkpt>
      <trkpt lat="45.34261" lon="5.87674">
        <ele>1899.4</ele>
        <time>2012-08-29T07:49:42Z</time>
      </trkpt>
      <trkpt lat="45.34257" lon="5.87679">
        <ele>1900.6</ele>
        <time>2012-08-29T07:49:48Z</time>
      </trkpt>
      <trkpt lat="45.3425" lon="5.8769">
        <ele>1901.8</ele>
        <time>2012-08-29T07:49:53Z</time>
      </trkpt>
      <trkpt lat="45.3424" lon="5.87706">
        <ele>1903</ele>
        <time>2012-08-29T07:49:59Z</time>
      </trkpt>
      <trkpt lat="45.34233" lon="5.87718">
        <ele>1904</ele>
        <time>2012-08-29T07:50:04Z</time>
      </trkpt>
      <trkpt lat="45.34226" lon="5.87734">
        <ele>1904.8</ele>
        <time>2012-08-29T07:50:10Z</time>
      </trkpt>
      <trkpt lat="45.34219" lon="5.87749">
        <ele>1905.6</ele>
        <time>2012-08-29T07:50:16Z</time>
      </trkpt>
      <trkpt lat="45.34201" lon="5.87781">
        <ele>1907</ele>
        <time>2012-08-29T07:50:28Z</time>
      </trkpt>
      <trkpt lat="45.34198" lon="5.87783">
        <ele>1907.4</ele>
        <time>2012-08-29T07:50:30Z</time>
      </trkpt>
      <trkpt lat="45.34193" lon="5.87794">
        <ele>1908.6</ele>
        <time>2012-08-29T07:50:37Z</time>
      </trkpt>
      <trkpt lat="45.34191" lon="5.87797">
        <ele>1908.8</ele>
        <time>2012-08-29T07:50:39Z</time>
      </trkpt>
      <trkpt lat="45.34189" lon="5.87806">
        <ele>1910.2</ele>
        <time>2012-08-29T07:50:46Z</time>
      </trkpt>
      <trkpt lat="45.34187" lon="5.87807">
        <ele>1910.4</ele>
        <time>2012-08-29T07:50:48Z</time>
      </trkpt>
      <trkpt lat="45.34186" lon="5.87809">
        <ele>1910.8</ele>
        <time>2012-08-29T07:50:50Z</time>
      </trkpt>
      <trkpt lat="45.34181" lon="5.87813">
        <ele>1912.2</ele>
        <time>2012-08-29T07:50:56Z</time>
      </trkpt>
      <trkpt lat="45.3418" lon="5.87816">
        <ele>1912.6</ele>
        <time>2012-08-29T07:50:59Z</time>
      </trkpt>
      <trkpt lat="45.34179" lon="5.87819">
        <ele>1912.8</ele>
        <time>2012-08-29T07:51:01Z</time>
      </trkpt>
      <trkpt lat="45.34178" lon="5.87829">
        <ele>1914.4</ele>
        <time>2012-08-29T07:51:08Z</time>
      </trkpt>
      <trkpt lat="45.34174" lon="5.87831">
        <ele>1915</ele>
        <time>2012-08-29T07:51:13Z</time>
      </trkpt>
      <trkpt lat="45.34171" lon="5.87837">
        <ele>1916.4</ele>
        <time>2012-08-29T07:51:19Z</time>
      </trkpt>
      <trkpt lat="45.34171" lon="5.87837">
        <ele>1916.6</ele>
        <time>2012-08-29T07:51:20Z</time>
      </trkpt>
      <trkpt lat="45.34171" lon="5.87841">
        <ele>1917</ele>
        <time>2012-08-29T07:51:23Z</time>
      </trkpt>
      <trkpt lat="45.34168" lon="5.87851">
        <ele>1918.8</ele>
        <time>2012-08-29T07:51:31Z</time>
      </trkpt>
      <trkpt lat="45.34164" lon="5.87859">
        <ele>1919.6</ele>
        <time>2012-08-29T07:51:39Z</time>
      </trkpt>
      <trkpt lat="45.3416" lon="5.87867">
        <ele>1921</ele>
        <time>2012-08-29T07:51:47Z</time>
      </trkpt>
      <trkpt lat="45.3416" lon="5.87868">
        <ele>1921.2</ele>
        <time>2012-08-29T07:51:48Z</time>
      </trkpt>
      <trkpt lat="45.34157" lon="5.87872">
        <ele>1921.8</ele>
        <time>2012-08-29T07:51:53Z</time>
      </trkpt>
      <trkpt lat="45.34156" lon="5.87875">
        <ele>1922.4</ele>
        <time>2012-08-29T07:51:56Z</time>
      </trkpt>
      <trkpt lat="45.34152" lon="5.87878">
        <ele>1923.4</ele>
        <time>2012-08-29T07:52:02Z</time>
      </trkpt>
      <trkpt lat="45.34153" lon="5.87883">
        <ele>1924.4</ele>
        <time>2012-08-29T07:52:07Z</time>
      </trkpt>
      <trkpt lat="45.34151" lon="5.87888">
        <ele>1926</ele>
        <time>2012-08-29T07:52:14Z</time>
      </trkpt>
      <trkpt lat="45.34149" lon="5.87896">
        <ele>1929</ele>
        <time>2012-08-29T07:52:26Z</time>
      </trkpt>
      <trkpt lat="45.34147" lon="5.87902">
        <ele>1930.6</ele>
        <time>2012-08-29T07:52:32Z</time>
      </trkpt>
      <trkpt lat="45.34147" lon="5.87905">
        <ele>1932.2</ele>
        <time>2012-08-29T07:52:37Z</time>
      </trkpt>
      <trkpt lat="45.34145" lon="5.87911">
        <ele>1933.8</ele>
        <time>2012-08-29T07:52:43Z</time>
      </trkpt>
      <trkpt lat="45.34144" lon="5.87915">
        <ele>1935.6</ele>
        <time>2012-08-29T07:52:49Z</time>
      </trkpt>
      <trkpt lat="45.34142" lon="5.8792">
        <ele>1937.6</ele>
        <time>2012-08-29T07:52:56Z</time>
      </trkpt>
      <trkpt lat="45.34138" lon="5.87926">
        <ele>1939.8</ele>
        <time>2012-08-29T07:53:03Z</time>
      </trkpt>
      <trkpt lat="45.34136" lon="5.8793">
        <ele>1941.2</ele>
        <time>2012-08-29T07:53:08Z</time>
      </trkpt>
      <trkpt lat="45.34134" lon="5.87937">
        <ele>1943.6</ele>
        <time>2012-08-29T07:53:16Z</time>
      </trkpt>
      <trkpt lat="45.34134" lon="5.8794">
        <ele>1944.8</ele>
        <time>2012-08-29T07:53:20Z</time>
      </trkpt>
      <trkpt lat="45.34134" lon="5.87944">
        <ele>1946.6</ele>
        <time>2012-08-29T07:53:26Z</time>
      </trkpt>
      <trkpt lat="45.34134" lon="5.87949">
        <ele>1949</ele>
        <time>2012-08-29T07:53:33Z</time>
      </trkpt>
      <trkpt lat="45.34134" lon="5.87953">
        <ele>1950.8</ele>
        <time>2012-08-29T07:53:38Z</time>
      </trkpt>
      <trkpt lat="45.34132" lon="5.87958">
        <ele>1953.4</ele>
        <time>2012-08-29T07:53:45Z</time>
      </trkpt>
      <trkpt lat="45.34131" lon="5.87964">
        <ele>1955.4</ele>
        <time>2012-08-29T07:53:50Z</time>
      </trkpt>
      <trkpt lat="45.34128" lon="5.87971">
        <ele>1958.2</ele>
        <time>2012-08-29T07:53:58Z</time>
      </trkpt>
      <trkpt lat="45.34126" lon="5.87978">
        <ele>1960.8</ele>
        <time>2012-08-29T07:54:05Z</time>
      </trkpt>
      <trkpt lat="45.34124" lon="5.87985">
        <ele>1962.8</ele>
        <time>2012-08-29T07:54:11Z</time>
      </trkpt>
      <trkpt lat="45.34124" lon="5.87986">
        <ele>1963.2</ele>
        <time>2012-08-29T07:54:12Z</time>
      </trkpt>
      <trkpt lat="45.34127" lon="5.87994">
        <ele>1966</ele>
        <time>2012-08-29T07:54:20Z</time>
      </trkpt>
      <trkpt lat="45.34131" lon="5.88005">
        <ele>1968.6</ele>
        <time>2012-08-29T07:54:28Z</time>
      </trkpt>
      <trkpt lat="45.34134" lon="5.88011">
        <ele>1970.2</ele>
        <time>2012-08-29T07:54:33Z</time>
      </trkpt>
      <trkpt lat="45.34138" lon="5.88014">
        <ele>1971.4</ele>
        <time>2012-08-29T07:54:38Z</time>
      </trkpt>
      <trkpt lat="45.3414" lon="5.88015">
        <ele>1973.2</ele>
        <time>2012-08-29T07:54:45Z</time>
      </trkpt>
      <trkpt lat="45.34141" lon="5.88015">
        <ele>1975</ele>
        <time>2012-08-29T07:54:56Z</time>
      </trkpt>
      <trkpt lat="45.34139" lon="5.88012">
        <ele>1981.2</ele>
        <time>2012-08-29T07:58:24Z</time>
      </trkpt>
      <trkpt lat="45.34139" lon="5.88012">
        <ele>1981.2</ele>
        <time>2012-08-29T07:58:36Z</time>
      </trkpt>
      <trkpt lat="45.34139" lon="5.88011">
        <ele>1981.2</ele>
        <time>2012-08-29T07:58:59Z</time>
      </trkpt>
      <trkpt lat="45.34139" lon="5.88012">
        <ele>1981.2</ele>
        <time>2012-08-29T07:59:45Z</time>
      </trkpt>
      <trkpt lat="45.34141" lon="5.88013">
        <ele>1981.2</ele>
        <time>2012-08-29T07:59:57Z</time>
      </trkpt>
      <trkpt lat="45.34141" lon="5.88013">
        <ele>1981.2</ele>
        <time>2012-08-29T08:00:04Z</time>
      </trkpt>
      <trkpt lat="45.3414" lon="5.88013">
        <ele>1981.2</ele>
        <time>2012-08-29T08:00:15Z</time>
      </trkpt>
      <trkpt lat="45.34141" lon="5.88013">
        <ele>1981.2</ele>
        <time>2012-08-29T08:01:41Z</time>
      </trkpt>
      <trkpt lat="45.34138" lon="5.88014">
        <ele>1981.2</ele>
        <time>2012-08-29T08:02:31Z</time>
      </trkpt>
      <trkpt lat="45.34134" lon="5.88013">
        <ele>1981.2</ele>
        <time>2012-08-29T08:02:35Z</time>
      </trkpt>
      <trkpt lat="45.34127" lon="5.88001">
        <ele>1981.2</ele>
        <time>2012-08-29T08:02:42Z</time>
      </trkpt>
      <trkpt lat="45.34123" lon="5.87988">
        <ele>1981.2</ele>
        <time>2012-08-29T08:02:47Z</time>
      </trkpt>
      <trkpt lat="45.34122" lon="5.87984">
        <ele>1981.2</ele>
        <time>2012-08-29T08:02:49Z</time>
      </trkpt>
      <trkpt lat="45.34128" lon="5.87964">
        <ele>1979.8</ele>
        <time>2012-08-29T08:02:59Z</time>
      </trkpt>
      <trkpt lat="45.34132" lon="5.87955">
        <ele>1978.8</ele>
        <time>2012-08-29T08:03:03Z</time>
      </trkpt>
      <trkpt lat="45.34133" lon="5.87947">
        <ele>1977.4</ele>
        <time>2012-08-29T08:03:08Z</time>
      </trkpt>
      <trkpt lat="45.34134" lon="5.87941">
        <ele>1976.6</ele>
        <time>2012-08-29T08:03:12Z</time>
      </trkpt>
      <trkpt lat="45.34135" lon="5.87932">
        <ele>1974</ele>
        <time>2012-08-29T08:03:19Z</time>
      </trkpt>
      <trkpt lat="45.34135" lon="5.87931">
        <ele>1973.6</ele>
        <time>2012-08-29T08:03:20Z</time>
      </trkpt>
      <trkpt lat="45.34135" lon="5.87928">
        <ele>1973</ele>
        <time>2012-08-29T08:03:22Z</time>
      </trkpt>
      <trkpt lat="45.34143" lon="5.87911">
        <ele>1967.4</ele>
        <time>2012-08-29T08:03:35Z</time>
      </trkpt>
      <trkpt lat="45.34146" lon="5.87902">
        <ele>1964.8</ele>
        <time>2012-08-29T08:03:41Z</time>
      </trkpt>
      <trkpt lat="45.34146" lon="5.87901">
        <ele>1964.2</ele>
        <time>2012-08-29T08:03:42Z</time>
      </trkpt>
      <trkpt lat="45.34146" lon="5.87894">
        <ele>1961.6</ele>
        <time>2012-08-29T08:03:47Z</time>
      </trkpt>
      <trkpt lat="45.34148" lon="5.8789">
        <ele>1959.6</ele>
        <time>2012-08-29T08:03:51Z</time>
      </trkpt>
      <trkpt lat="45.34149" lon="5.87887">
        <ele>1958.6</ele>
        <time>2012-08-29T08:03:53Z</time>
      </trkpt>
      <trkpt lat="45.34153" lon="5.87877">
        <ele>1955.2</ele>
        <time>2012-08-29T08:03:59Z</time>
      </trkpt>
      <trkpt lat="45.34155" lon="5.87869">
        <ele>1952</ele>
        <time>2012-08-29T08:04:05Z</time>
      </trkpt>
      <trkpt lat="45.34159" lon="5.8786">
        <ele>1949.4</ele>
        <time>2012-08-29T08:04:10Z</time>
      </trkpt>
      <trkpt lat="45.34162" lon="5.87854">
        <ele>1947.6</ele>
        <time>2012-08-29T08:04:13Z</time>
      </trkpt>
      <trkpt lat="45.34167" lon="5.87842">
        <ele>1944.2</ele>
        <time>2012-08-29T08:04:19Z</time>
      </trkpt>
      <trkpt lat="45.34168" lon="5.87832">
        <ele>1941.8</ele>
        <time>2012-08-29T08:04:23Z</time>
      </trkpt>
      <trkpt lat="45.34171" lon="5.87827">
        <ele>1939.8</ele>
        <time>2012-08-29T08:04:26Z</time>
      </trkpt>
      <trkpt lat="45.34179" lon="5.87807">
        <ele>1934.2</ele>
        <time>2012-08-29T08:04:36Z</time>
      </trkpt>
      <trkpt lat="45.34184" lon="5.87805">
        <ele>1932</ele>
        <time>2012-08-29T08:04:40Z</time>
      </trkpt>
      <trkpt lat="45.34192" lon="5.87789">
        <ele>1928.6</ele>
        <time>2012-08-29T08:04:46Z</time>
      </trkpt>
      <trkpt lat="45.34199" lon="5.87776">
        <ele>1926.4</ele>
        <time>2012-08-29T08:04:51Z</time>
      </trkpt>
      <trkpt lat="45.34208" lon="5.87763">
        <ele>1924.4</ele>
        <time>2012-08-29T08:04:55Z</time>
      </trkpt>
      <trkpt lat="45.34215" lon="5.87751">
        <ele>1922.4</ele>
        <time>2012-08-29T08:05:00Z</time>
      </trkpt>
      <trkpt lat="45.3422" lon="5.87739">
        <ele>1920.8</ele>
        <time>2012-08-29T08:05:05Z</time>
      </trkpt>
      <trkpt lat="45.34227" lon="5.87723">
        <ele>1919</ele>
        <time>2012-08-29T08:05:10Z</time>
      </trkpt>
      <trkpt lat="45.34233" lon="5.87708">
        <ele>1918</ele>
        <time>2012-08-29T08:05:15Z</time>
      </trkpt>
      <trkpt lat="45.34242" lon="5.87691">
        <ele>1917</ele>
        <time>2012-08-29T08:05:21Z</time>
      </trkpt>
      <trkpt lat="45.34251" lon="5.87677">
        <ele>1915.8</ele>
        <time>2012-08-29T08:05:27Z</time>
      </trkpt>
      <trkpt lat="45.34259" lon="5.87668">
        <ele>1915.2</ele>
        <time>2012-08-29T08:05:32Z</time>
      </trkpt>
      <trkpt lat="45.3426" lon="5.87667">
        <ele>1915</ele>
        <time>2012-08-29T08:05:33Z</time>
      </trkpt>
      <trkpt lat="45.3426" lon="5.87671">
        <ele>1914.2</ele>
        <time>2012-08-29T08:05:39Z</time>
      </trkpt>
      <trkpt lat="45.34261" lon="5.87674">
        <ele>1913.4</ele>
        <time>2012-08-29T08:05:44Z</time>
      </trkpt>
      <trkpt lat="45.34262" lon="5.87678">
        <ele>1913</ele>
        <time>2012-08-29T08:05:48Z</time>
      </trkpt>
      <trkpt lat="45.34266" lon="5.87679">
        <ele>1912.2</ele>
        <time>2012-08-29T08:05:53Z</time>
      </trkpt>
      <trkpt lat="45.34271" lon="5.87677">
        <ele>1911.2</ele>
        <time>2012-08-29T08:05:58Z</time>
      </trkpt>
      <trkpt lat="45.34273" lon="5.87677">
        <ele>1910.4</ele>
        <time>2012-08-29T08:06:02Z</time>
      </trkpt>
      <trkpt lat="45.34276" lon="5.87677">
        <ele>1908.8</ele>
        <time>2012-08-29T08:06:09Z</time>
      </trkpt>
      <trkpt lat="45.34279" lon="5.87678">
        <ele>1907.6</ele>
        <time>2012-08-29T08:06:14Z</time>
      </trkpt>
      <trkpt lat="45.34283" lon="5.87678">
        <ele>1906.4</ele>
        <time>2012-08-29T08:06:17Z</time>
      </trkpt>
      <trkpt lat="45.34287" lon="5.8768">
        <ele>1904.6</ele>
        <time>2012-08-29T08:06:23Z</time>
      </trkpt>
      <trkpt lat="45.34286" lon="5.87682">
        <ele>1904</ele>
        <time>2012-08-29T08:06:25Z</time>
      </trkpt>
      <trkpt lat="45.34285" lon="5.87685">
        <ele>1903.6</ele>
        <time>2012-08-29T08:06:27Z</time>
      </trkpt>
      <trkpt lat="45.34285" lon="5.87686">
        <ele>1902.6</ele>
        <time>2012-08-29T08:06:29Z</time>
      </trkpt>
      <trkpt lat="45.34289" lon="5.87686">
        <ele>1901.4</ele>
        <time>2012-08-29T08:06:34Z</time>
      </trkpt>
      <trkpt lat="45.34293" lon="5.87686">
        <ele>1899.4</ele>
        <time>2012-08-29T08:06:40Z</time>
      </trkpt>
      <trkpt lat="45.34295" lon="5.87686">
        <ele>1898</ele>
        <time>2012-08-29T08:06:44Z</time>
      </trkpt>
      <trkpt lat="45.34298" lon="5.87686">
        <ele>1897</ele>
        <time>2012-08-29T08:06:48Z</time>
      </trkpt>
      <trkpt lat="45.34299" lon="5.87685">
        <ele>1896.6</ele>
        <time>2012-08-29T08:06:49Z</time>
      </trkpt>
      <trkpt lat="45.34302" lon="5.87685">
        <ele>1895.6</ele>
        <time>2012-08-29T08:06:52Z</time>
      </trkpt>
      <trkpt lat="45.34308" lon="5.87678">
        <ele>1893.6</ele>
        <time>2012-08-29T08:06:58Z</time>
      </trkpt>
      <trkpt lat="45.34313" lon="5.87676">
        <ele>1892.8</ele>
        <time>2012-08-29T08:07:01Z</time>
      </trkpt>
      <trkpt lat="45.34316" lon="5.87673">
        <ele>1891.6</ele>
        <time>2012-08-29T08:07:04Z</time>
      </trkpt>
      <trkpt lat="45.34318" lon="5.8767">
        <ele>1891</ele>
        <time>2012-08-29T08:07:06Z</time>
      </trkpt>
      <trkpt lat="45.34326" lon="5.87668">
        <ele>1889.4</ele>
        <time>2012-08-29T08:07:12Z</time>
      </trkpt>
      <trkpt lat="45.34331" lon="5.87664">
        <ele>1888.4</ele>
        <time>2012-08-29T08:07:16Z</time>
      </trkpt>
      <trkpt lat="45.34332" lon="5.87663">
        <ele>1888.2</ele>
        <time>2012-08-29T08:07:17Z</time>
      </trkpt>
      <trkpt lat="45.34341" lon="5.87654">
        <ele>1886.4</ele>
        <time>2012-08-29T08:07:24Z</time>
      </trkpt>
      <trkpt lat="45.34342" lon="5.87653">
        <ele>1886.2</ele>
        <time>2012-08-29T08:07:25Z</time>
      </trkpt>
      <trkpt lat="45.34352" lon="5.8765">
        <ele>1885.4</ele>
        <time>2012-08-29T08:07:30Z</time>
      </trkpt>
      <trkpt lat="45.34355" lon="5.87652">
        <ele>1884.8</ele>
        <time>2012-08-29T08:07:32Z</time>
      </trkpt>
      <trkpt lat="45.34357" lon="5.87653">
        <ele>1884.4</ele>
        <time>2012-08-29T08:07:34Z</time>
      </trkpt>
      <trkpt lat="45.34362" lon="5.8765">
        <ele>1883.4</ele>
        <time>2012-08-29T08:07:39Z</time>
      </trkpt>
      <trkpt lat="45.34365" lon="5.87649">
        <ele>1882.8</ele>
        <time>2012-08-29T08:07:41Z</time>
      </trkpt>
      <trkpt lat="45.34371" lon="5.87647">
        <ele>1881.4</ele>
        <time>2012-08-29T08:07:46Z</time>
      </trkpt>
      <trkpt lat="45.34372" lon="5.87647">
        <ele>1881.2</ele>
        <time>2012-08-29T08:07:47Z</time>
      </trkpt>
      <trkpt lat="45.34376" lon="5.87648">
        <ele>1880.6</ele>
        <time>2012-08-29T08:07:49Z</time>
      </trkpt>
      <trkpt lat="45.34378" lon="5.87656">
        <ele>1879</ele>
        <time>2012-08-29T08:07:53Z</time>
      </trkpt>
      <trkpt lat="45.34381" lon="5.87661">
        <ele>1877.4</ele>
        <time>2012-08-29T08:07:57Z</time>
      </trkpt>
      <trkpt lat="45.34385" lon="5.87659">
        <ele>1875.2</ele>
        <time>2012-08-29T08:08:02Z</time>
      </trkpt>
      <trkpt lat="45.34385" lon="5.87664">
        <ele>1873.8</ele>
        <time>2012-08-29T08:08:05Z</time>
      </trkpt>
      <trkpt lat="45.34385" lon="5.87665">
        <ele>1872.8</ele>
        <time>2012-08-29T08:08:07Z</time>
      </trkpt>
      <trkpt lat="45.34386" lon="5.87667">
        <ele>1871.8</ele>
        <time>2012-08-29T08:08:09Z</time>
      </trkpt>
      <trkpt lat="45.34387" lon="5.87669">
        <ele>1870.2</ele>
        <time>2012-08-29T08:08:13Z</time>
      </trkpt>
      <trkpt lat="45.34391" lon="5.87672">
        <ele>1868.2</ele>
        <time>2012-08-29T08:08:17Z</time>
      </trkpt>
      <trkpt lat="45.34395" lon="5.87673">
        <ele>1866.8</ele>
        <time>2012-08-29T08:08:20Z</time>
      </trkpt>
      <trkpt lat="45.34396" lon="5.87674">
        <ele>1866</ele>
        <time>2012-08-29T08:08:22Z</time>
      </trkpt>
      <trkpt lat="45.34402" lon="5.87674">
        <ele>1863.8</ele>
        <time>2012-08-29T08:08:27Z</time>
      </trkpt>
      <trkpt lat="45.34403" lon="5.87675">
        <ele>1863.4</ele>
        <time>2012-08-29T08:08:28Z</time>
      </trkpt>
      <trkpt lat="45.34405" lon="5.87675">
        <ele>1862.4</ele>
        <time>2012-08-29T08:08:30Z</time>
      </trkpt>
      <trkpt lat="45.34412" lon="5.87671">
        <ele>1860.2</ele>
        <time>2012-08-29T08:08:36Z</time>
      </trkpt>
      <trkpt lat="45.34416" lon="5.8767">
        <ele>1859</ele>
        <time>2012-08-29T08:08:39Z</time>
      </trkpt>
      <trkpt lat="45.3442" lon="5.87677">
        <ele>1857.2</ele>
        <time>2012-08-29T08:08:44Z</time>
      </trkpt>
      <trkpt lat="45.34426" lon="5.87685">
        <ele>1855</ele>
        <time>2012-08-29T08:08:50Z</time>
      </trkpt>
      <trkpt lat="45.34431" lon="5.87697">
        <ele>1851.4</ele>
        <time>2012-08-29T08:08:57Z</time>
      </trkpt>
      <trkpt lat="45.34432" lon="5.87699">
        <ele>1851</ele>
        <time>2012-08-29T08:08:58Z</time>
      </trkpt>
      <trkpt lat="45.34438" lon="5.87714">
        <ele>1846.8</ele>
        <time>2012-08-29T08:09:05Z</time>
      </trkpt>
      <trkpt lat="45.3444" lon="5.87715">
        <ele>1846.4</ele>
        <time>2012-08-29T08:09:06Z</time>
      </trkpt>
      <trkpt lat="45.34445" lon="5.87726">
        <ele>1842.6</ele>
        <time>2012-08-29T08:09:12Z</time>
      </trkpt>
      <trkpt lat="45.34448" lon="5.8773">
        <ele>1841.4</ele>
        <time>2012-08-29T08:09:14Z</time>
      </trkpt>
      <trkpt lat="45.34449" lon="5.87732">
        <ele>1840</ele>
        <time>2012-08-29T08:09:16Z</time>
      </trkpt>
      <trkpt lat="45.34451" lon="5.87736">
        <ele>1837.2</ele>
        <time>2012-08-29T08:09:22Z</time>
      </trkpt>
      <trkpt lat="45.34451" lon="5.87735">
        <ele>1833.4</ele>
        <time>2012-08-29T08:09:29Z</time>
      </trkpt>
      <trkpt lat="45.34452" lon="5.87736">
        <ele>1830.8</ele>
        <time>2012-08-29T08:09:35Z</time>
      </trkpt>
      <trkpt lat="45.34453" lon="5.87745">
        <ele>1828.8</ele>
        <time>2012-08-29T08:09:40Z</time>
      </trkpt>
      <trkpt lat="45.34454" lon="5.87748">
        <ele>1828.2</ele>
        <time>2012-08-29T08:09:42Z</time>
      </trkpt>
      <trkpt lat="45.34458" lon="5.87756">
        <ele>1826.6</ele>
        <time>2012-08-29T08:09:46Z</time>
      </trkpt>
      <trkpt lat="45.34461" lon="5.87762">
        <ele>1825.4</ele>
        <time>2012-08-29T08:09:49Z</time>
      </trkpt>
      <trkpt lat="45.34462" lon="5.87765">
        <ele>1825</ele>
        <time>2012-08-29T08:09:50Z</time>
      </trkpt>
      <trkpt lat="45.34463" lon="5.87771">
        <ele>1824.2</ele>
        <time>2012-08-29T08:09:52Z</time>
      </trkpt>
      <trkpt lat="45.34465" lon="5.87785">
        <ele>1822</ele>
        <time>2012-08-29T08:09:57Z</time>
      </trkpt>
      <trkpt lat="45.34467" lon="5.87802">
        <ele>1819.4</ele>
        <time>2012-08-29T08:10:03Z</time>
      </trkpt>
      <trkpt lat="45.34472" lon="5.87815">
        <ele>1817.6</ele>
        <time>2012-08-29T08:10:08Z</time>
      </trkpt>
      <trkpt lat="45.34474" lon="5.87829">
        <ele>1815.6</ele>
        <time>2012-08-29T08:10:13Z</time>
      </trkpt>
      <trkpt lat="45.3448" lon="5.87848">
        <ele>1813</ele>
        <time>2012-08-29T08:10:19Z</time>
      </trkpt>
      <trkpt lat="45.34488" lon="5.87859">
        <ele>1811.8</ele>
        <time>2012-08-29T08:10:22Z</time>
      </trkpt>
      <trkpt lat="45.34497" lon="5.87876">
        <ele>1809.6</ele>
        <time>2012-08-29T08:10:27Z</time>
      </trkpt>
      <trkpt lat="45.34508" lon="5.87884">
        <ele>1807.6</ele>
        <time>2012-08-29T08:10:31Z</time>
      </trkpt>
      <trkpt lat="45.34513" lon="5.87886">
        <ele>1806.6</ele>
        <time>2012-08-29T08:10:33Z</time>
      </trkpt>
      <trkpt lat="45.34528" lon="5.87877">
        <ele>1803.4</ele>
        <time>2012-08-29T08:10:40Z</time>
      </trkpt>
      <trkpt lat="45.34539" lon="5.87875">
        <ele>1801.2</ele>
        <time>2012-08-29T08:10:45Z</time>
      </trkpt>
      <trkpt lat="45.34542" lon="5.87875">
        <ele>1800.8</ele>
        <time>2012-08-29T08:10:46Z</time>
      </trkpt>
      <trkpt lat="45.34555" lon="5.87885">
        <ele>1798</ele>
        <time>2012-08-29T08:10:53Z</time>
      </trkpt>
      <trkpt lat="45.34563" lon="5.87896">
        <ele>1796</ele>
        <time>2012-08-29T08:10:58Z</time>
      </trkpt>
      <trkpt lat="45.34569" lon="5.87908">
        <ele>1794.4</ele>
        <time>2012-08-29T08:11:03Z</time>
      </trkpt>
      <trkpt lat="45.34579" lon="5.8792">
        <ele>1792.6</ele>
        <time>2012-08-29T08:11:09Z</time>
      </trkpt>
      <trkpt lat="45.34581" lon="5.87924">
        <ele>1791.8</ele>
        <time>2012-08-29T08:11:11Z</time>
      </trkpt>
      <trkpt lat="45.34592" lon="5.87933">
        <ele>1790.2</ele>
        <time>2012-08-29T08:11:16Z</time>
      </trkpt>
      <trkpt lat="45.34596" lon="5.87938">
        <ele>1789.4</ele>
        <time>2012-08-29T08:11:18Z</time>
      </trkpt>
      <trkpt lat="45.34612" lon="5.87954">
        <ele>1787</ele>
        <time>2012-08-29T08:11:25Z</time>
      </trkpt>
      <trkpt lat="45.34622" lon="5.87957">
        <ele>1785.6</ele>
        <time>2012-08-29T08:11:29Z</time>
      </trkpt>
      <trkpt lat="45.34631" lon="5.87965">
        <ele>1784.2</ele>
        <time>2012-08-29T08:11:33Z</time>
      </trkpt>
      <trkpt lat="45.34637" lon="5.87969">
        <ele>1783.4</ele>
        <time>2012-08-29T08:11:35Z</time>
      </trkpt>
      <trkpt lat="45.3465" lon="5.87976">
        <ele>1781.4</ele>
        <time>2012-08-29T08:11:41Z</time>
      </trkpt>
      <trkpt lat="45.34657" lon="5.87987">
        <ele>1779.8</ele>
        <time>2012-08-29T08:11:45Z</time>
      </trkpt>
      <trkpt lat="45.34669" lon="5.88002">
        <ele>1777.8</ele>
        <time>2012-08-29T08:11:51Z</time>
      </trkpt>
      <trkpt lat="45.34684" lon="5.8801">
        <ele>1775.6</ele>
        <time>2012-08-29T08:11:57Z</time>
      </trkpt>
      <trkpt lat="45.34695" lon="5.88016">
        <ele>1773.8</ele>
        <time>2012-08-29T08:12:02Z</time>
      </trkpt>
      <trkpt lat="45.34704" lon="5.88021">
        <ele>1772.4</ele>
        <time>2012-08-29T08:12:06Z</time>
      </trkpt>
      <trkpt lat="45.34709" lon="5.88028">
        <ele>1771.2</ele>
        <time>2012-08-29T08:12:09Z</time>
      </trkpt>
      <trkpt lat="45.34711" lon="5.88031">
        <ele>1770.8</ele>
        <time>2012-08-29T08:12:10Z</time>
      </trkpt>
      <trkpt lat="45.34726" lon="5.88047">
        <ele>1768.4</ele>
        <time>2012-08-29T08:12:17Z</time>
      </trkpt>
      <trkpt lat="45.34738" lon="5.88056">
        <ele>1766.4</ele>
        <time>2012-08-29T08:12:22Z</time>
      </trkpt>
      <trkpt lat="45.34751" lon="5.88057">
        <ele>1764.6</ele>
        <time>2012-08-29T08:12:27Z</time>
      </trkpt>
      <trkpt lat="45.3476" lon="5.88056">
        <ele>1763.4</ele>
        <time>2012-08-29T08:12:31Z</time>
      </trkpt>
      <trkpt lat="45.34773" lon="5.88051">
        <ele>1761.8</ele>
        <time>2012-08-29T08:12:35Z</time>
      </trkpt>
      <trkpt lat="45.34777" lon="5.8805">
        <ele>1761</ele>
        <time>2012-08-29T08:12:37Z</time>
      </trkpt>
      <trkpt lat="45.34791" lon="5.88046">
        <ele>1758.8</ele>
        <time>2012-08-29T08:12:42Z</time>
      </trkpt>
      <trkpt lat="45.34807" lon="5.88044">
        <ele>1756.6</ele>
        <time>2012-08-29T08:12:47Z</time>
      </trkpt>
      <trkpt lat="45.34813" lon="5.8804">
        <ele>1755.4</ele>
        <time>2012-08-29T08:12:49Z</time>
      </trkpt>
      <trkpt lat="45.34824" lon="5.88043">
        <ele>1753</ele>
        <time>2012-08-29T08:12:54Z</time>
      </trkpt>
      <trkpt lat="45.34835" lon="5.8804">
        <ele>1751.4</ele>
        <time>2012-08-29T08:12:57Z</time>
      </trkpt>
      <trkpt lat="45.34844" lon="5.88043">
        <ele>1749.6</ele>
        <time>2012-08-29T08:13:01Z</time>
      </trkpt>
      <trkpt lat="45.34855" lon="5.88051">
        <ele>1747.8</ele>
        <time>2012-08-29T08:13:05Z</time>
      </trkpt>
      <trkpt lat="45.34858" lon="5.88052">
        <ele>1747.4</ele>
        <time>2012-08-29T08:13:06Z</time>
      </trkpt>
      <trkpt lat="45.34873" lon="5.88058">
        <ele>1745.2</ele>
        <time>2012-08-29T08:13:11Z</time>
      </trkpt>
      <trkpt lat="45.34881" lon="5.88064">
        <ele>1743.4</ele>
        <time>2012-08-29T08:13:15Z</time>
      </trkpt>
      <trkpt lat="45.34887" lon="5.88074">
        <ele>1742</ele>
        <time>2012-08-29T08:13:19Z</time>
      </trkpt>
      <trkpt lat="45.34887" lon="5.88077">
        <ele>1741.4</ele>
        <time>2012-08-29T08:13:20Z</time>
      </trkpt>
      <trkpt lat="45.34897" lon="5.88092">
        <ele>1738.6</ele>
        <time>2012-08-29T08:13:27Z</time>
      </trkpt>
      <trkpt lat="45.349" lon="5.88094">
        <ele>1738</ele>
        <time>2012-08-29T08:13:29Z</time>
      </trkpt>
      <trkpt lat="45.34913" lon="5.88092">
        <ele>1736</ele>
        <time>2012-08-29T08:13:34Z</time>
      </trkpt>
      <trkpt lat="45.34917" lon="5.88092">
        <ele>1735.6</ele>
        <time>2012-08-29T08:13:35Z</time>
      </trkpt>
      <trkpt lat="45.34927" lon="5.88091">
        <ele>1734</ele>
        <time>2012-08-29T08:13:39Z</time>
      </trkpt>
      <trkpt lat="45.34937" lon="5.88094">
        <ele>1732.6</ele>
        <time>2012-08-29T08:13:43Z</time>
      </trkpt>
      <trkpt lat="45.34939" lon="5.88093">
        <ele>1732.2</ele>
        <time>2012-08-29T08:13:44Z</time>
      </trkpt>
      <trkpt lat="45.34949" lon="5.88085">
        <ele>1731</ele>
        <time>2012-08-29T08:13:48Z</time>
      </trkpt>
      <trkpt lat="45.34958" lon="5.88082">
        <ele>1729.4</ele>
        <time>2012-08-29T08:13:52Z</time>
      </trkpt>
      <trkpt lat="45.34966" lon="5.88081">
        <ele>1728.4</ele>
        <time>2012-08-29T08:13:56Z</time>
      </trkpt>
      <trkpt lat="45.34967" lon="5.88081">
        <ele>1728.2</ele>
        <time>2012-08-29T08:13:57Z</time>
      </trkpt>
      <trkpt lat="45.34971" lon="5.88081">
        <ele>1727</ele>
        <time>2012-08-29T08:14:01Z</time>
      </trkpt>
      <trkpt lat="45.34972" lon="5.88082">
        <ele>1726.8</ele>
        <time>2012-08-29T08:14:02Z</time>
      </trkpt>
      <trkpt lat="45.34974" lon="5.88084">
        <ele>1726.2</ele>
        <time>2012-08-29T08:14:05Z</time>
      </trkpt>
      <trkpt lat="45.34976" lon="5.88084">
        <ele>1725.8</ele>
        <time>2012-08-29T08:14:07Z</time>
      </trkpt>
      <trkpt lat="45.34981" lon="5.88083">
        <ele>1725.4</ele>
        <time>2012-08-29T08:14:10Z</time>
      </trkpt>
      <trkpt lat="45.34984" lon="5.88084">
        <ele>1725.2</ele>
        <time>2012-08-29T08:14:12Z</time>
      </trkpt>
      <trkpt lat="45.34985" lon="5.88085">
        <ele>1725.2</ele>
        <time>2012-08-29T08:14:14Z</time>
      </trkpt>
      <trkpt lat="45.34991" lon="5.88084">
        <ele>1724.2</ele>
        <time>2012-08-29T08:14:19Z</time>
      </trkpt>
      <trkpt lat="45.34991" lon="5.88084">
        <ele>1724</ele>
        <time>2012-08-29T08:14:20Z</time>
      </trkpt>
      <trkpt lat="45.35" lon="5.8809">
        <ele>1723.4</ele>
        <time>2012-08-29T08:14:24Z</time>
      </trkpt>
      <trkpt lat="45.35011" lon="5.88096">
        <ele>1723</ele>
        <time>2012-08-29T08:14:30Z</time>
      </trkpt>
      <trkpt lat="45.35017" lon="5.88096">
        <ele>1722.8</ele>
        <time>2012-08-29T08:14:33Z</time>
      </trkpt>
      <trkpt lat="45.35023" lon="5.88101">
        <ele>1722.6</ele>
        <time>2012-08-29T08:14:37Z</time>
      </trkpt>
      <trkpt lat="45.35027" lon="5.88112">
        <ele>1722.4</ele>
        <time>2012-08-29T08:14:42Z</time>
      </trkpt>
      <trkpt lat="45.35032" lon="5.8812">
        <ele>1721.6</ele>
        <time>2012-08-29T08:14:47Z</time>
      </trkpt>
      <trkpt lat="45.35034" lon="5.88119">
        <ele>1721.4</ele>
        <time>2012-08-29T08:14:48Z</time>
      </trkpt>
      <trkpt lat="45.35035" lon="5.8812">
        <ele>1721.4</ele>
        <time>2012-08-29T08:14:49Z</time>
      </trkpt>
      <trkpt lat="45.35039" lon="5.88123">
        <ele>1720.8</ele>
        <time>2012-08-29T08:14:54Z</time>
      </trkpt>
      <trkpt lat="45.35044" lon="5.88125">
        <ele>1720.8</ele>
        <time>2012-08-29T08:14:57Z</time>
      </trkpt>
      <trkpt lat="45.35045" lon="5.88127">
        <ele>1720.6</ele>
        <time>2012-08-29T08:14:58Z</time>
      </trkpt>
      <trkpt lat="45.3505" lon="5.88142">
        <ele>1720.4</ele>
        <time>2012-08-29T08:15:04Z</time>
      </trkpt>
      <trkpt lat="45.35051" lon="5.88145">
        <ele>1720.4</ele>
        <time>2012-08-29T08:15:05Z</time>
      </trkpt>
      <trkpt lat="45.35054" lon="5.88147">
        <ele>1720.4</ele>
        <time>2012-08-29T08:15:07Z</time>
      </trkpt>
      <trkpt lat="45.35063" lon="5.88155">
        <ele>1720.4</ele>
        <time>2012-08-29T08:15:12Z</time>
      </trkpt>
      <trkpt lat="45.35069" lon="5.88165">
        <ele>1720.2</ele>
        <time>2012-08-29T08:15:17Z</time>
      </trkpt>
      <trkpt lat="45.35073" lon="5.88165">
        <ele>1720.2</ele>
        <time>2012-08-29T08:15:20Z</time>
      </trkpt>
      <trkpt lat="45.35074" lon="5.88164">
        <ele>1720.2</ele>
        <time>2012-08-29T08:15:21Z</time>
      </trkpt>
      <trkpt lat="45.35079" lon="5.88156">
        <ele>1720.2</ele>
        <time>2012-08-29T08:15:25Z</time>
      </trkpt>
      <trkpt lat="45.35085" lon="5.88148">
        <ele>1720.2</ele>
        <time>2012-08-29T08:15:30Z</time>
      </trkpt>
      <trkpt lat="45.35088" lon="5.88133">
        <ele>1720.2</ele>
        <time>2012-08-29T08:15:35Z</time>
      </trkpt>
      <trkpt lat="45.35092" lon="5.88128">
        <ele>1720.2</ele>
        <time>2012-08-29T08:15:38Z</time>
      </trkpt>
      <trkpt lat="45.35095" lon="5.88127">
        <ele>1720.2</ele>
        <time>2012-08-29T08:15:40Z</time>
      </trkpt>
      <trkpt lat="45.35101" lon="5.88126">
        <ele>1720.2</ele>
        <time>2012-08-29T08:15:43Z</time>
      </trkpt>
      <trkpt lat="45.35112" lon="5.88121">
        <ele>1720.2</ele>
        <time>2012-08-29T08:15:48Z</time>
      </trkpt>
      <trkpt lat="45.35115" lon="5.88121">
        <ele>1720.2</ele>
        <time>2012-08-29T08:15:50Z</time>
      </trkpt>
      <trkpt lat="45.35123" lon="5.88126">
        <ele>1720.2</ele>
        <time>2012-08-29T08:15:55Z</time>
      </trkpt>
      <trkpt lat="45.35132" lon="5.88133">
        <ele>1720.2</ele>
        <time>2012-08-29T08:16:00Z</time>
      </trkpt>
      <trkpt lat="45.35135" lon="5.88138">
        <ele>1720.2</ele>
        <time>2012-08-29T08:16:02Z</time>
      </trkpt>
      <trkpt lat="45.35148" lon="5.88145">
        <ele>1720.2</ele>
        <time>2012-08-29T08:16:08Z</time>
      </trkpt>
      <trkpt lat="45.35156" lon="5.88149">
        <ele>1720.2</ele>
        <time>2012-08-29T08:16:12Z</time>
      </trkpt>
      <trkpt lat="45.35159" lon="5.8815">
        <ele>1720.2</ele>
        <time>2012-08-29T08:16:13Z</time>
      </trkpt>
      <trkpt lat="45.3517" lon="5.88151">
        <ele>1720.2</ele>
        <time>2012-08-29T08:16:18Z</time>
      </trkpt>
      <trkpt lat="45.35178" lon="5.88151">
        <ele>1720.2</ele>
        <time>2012-08-29T08:16:22Z</time>
      </trkpt>
      <trkpt lat="45.35189" lon="5.8815">
        <ele>1720.2</ele>
        <time>2012-08-29T08:16:27Z</time>
      </trkpt>
      <trkpt lat="45.35192" lon="5.88152">
        <ele>1720.2</ele>
        <time>2012-08-29T08:16:28Z</time>
      </trkpt>
      <trkpt lat="45.35203" lon="5.88156">
        <ele>1720.2</ele>
        <time>2012-08-29T08:16:33Z</time>
      </trkpt>
      <trkpt lat="45.35206" lon="5.88156">
        <ele>1720.2</ele>
        <time>2012-08-29T08:16:34Z</time>
      </trkpt>
      <trkpt lat="45.35208" lon="5.88155">
        <ele>1720.2</ele>
        <time>2012-08-29T08:16:35Z</time>
      </trkpt>
      <trkpt lat="45.35223" lon="5.88157">
        <ele>1720.2</ele>
        <time>2012-08-29T08:16:41Z</time>
      </trkpt>
      <trkpt lat="45.35231" lon="5.88156">
        <ele>1720.2</ele>
        <time>2012-08-29T08:16:46Z</time>
      </trkpt>
      <trkpt lat="45.3524" lon="5.88159">
        <ele>1720.2</ele>
        <time>2012-08-29T08:16:51Z</time>
      </trkpt>
      <trkpt lat="45.35245" lon="5.88156">
        <ele>1719.8</ele>
        <time>2012-08-29T08:16:53Z</time>
      </trkpt>
      <trkpt lat="45.35249" lon="5.88153">
        <ele>1719.6</ele>
        <time>2012-08-29T08:16:55Z</time>
      </trkpt>
      <trkpt lat="45.35255" lon="5.8815">
        <ele>1719.2</ele>
        <time>2012-08-29T08:16:58Z</time>
      </trkpt>
      <trkpt lat="45.35265" lon="5.88155">
        <ele>1718.4</ele>
        <time>2012-08-29T08:17:03Z</time>
      </trkpt>
      <trkpt lat="45.35271" lon="5.8816">
        <ele>1717.6</ele>
        <time>2012-08-29T08:17:07Z</time>
      </trkpt>
      <trkpt lat="45.35274" lon="5.8816">
        <ele>1717.4</ele>
        <time>2012-08-29T08:17:08Z</time>
      </trkpt>
      <trkpt lat="45.35284" lon="5.88162">
        <ele>1716.8</ele>
        <time>2012-08-29T08:17:13Z</time>
      </trkpt>
      <trkpt lat="45.35292" lon="5.88162">
        <ele>1716</ele>
        <time>2012-08-29T08:17:17Z</time>
      </trkpt>
      <trkpt lat="45.35293" lon="5.88161">
        <ele>1715.8</ele>
        <time>2012-08-29T08:17:18Z</time>
      </trkpt>
      <trkpt lat="45.35296" lon="5.8816">
        <ele>1715.2</ele>
        <time>2012-08-29T08:17:22Z</time>
      </trkpt>
      <trkpt lat="45.35303" lon="5.88161">
        <ele>1714.4</ele>
        <time>2012-08-29T08:17:28Z</time>
      </trkpt>
      <trkpt lat="45.35305" lon="5.88159">
        <ele>1714</ele>
        <time>2012-08-29T08:17:29Z</time>
      </trkpt>
      <trkpt lat="45.35319" lon="5.88164">
        <ele>1713.2</ele>
        <time>2012-08-29T08:17:34Z</time>
      </trkpt>
      <trkpt lat="45.3532" lon="5.88165">
        <ele>1713</ele>
        <time>2012-08-29T08:17:35Z</time>
      </trkpt>
      <trkpt lat="45.35328" lon="5.88172">
        <ele>1712.6</ele>
        <time>2012-08-29T08:17:39Z</time>
      </trkpt>
      <trkpt lat="45.35339" lon="5.88185">
        <ele>1711.6</ele>
        <time>2012-08-29T08:17:45Z</time>
      </trkpt>
      <trkpt lat="45.35341" lon="5.88186">
        <ele>1711.4</ele>
        <time>2012-08-29T08:17:46Z</time>
      </trkpt>
      <trkpt lat="45.35351" lon="5.88188">
        <ele>1710.8</ele>
        <time>2012-08-29T08:17:50Z</time>
      </trkpt>
      <trkpt lat="45.35359" lon="5.88194">
        <ele>1710.2</ele>
        <time>2012-08-29T08:17:54Z</time>
      </trkpt>
      <trkpt lat="45.35368" lon="5.882">
        <ele>1709.4</ele>
        <time>2012-08-29T08:17:58Z</time>
      </trkpt>
      <trkpt lat="45.35371" lon="5.88202">
        <ele>1709.2</ele>
        <time>2012-08-29T08:17:59Z</time>
      </trkpt>
      <trkpt lat="45.35381" lon="5.88217">
        <ele>1708.4</ele>
        <time>2012-08-29T08:18:04Z</time>
      </trkpt>
      <trkpt lat="45.35381" lon="5.88221">
        <ele>1708</ele>
        <time>2012-08-29T08:18:05Z</time>
      </trkpt>
      <trkpt lat="45.35382" lon="5.88231">
        <ele>1707.4</ele>
        <time>2012-08-29T08:18:08Z</time>
      </trkpt>
      <trkpt lat="45.3539" lon="5.88247">
        <ele>1706.2</ele>
        <time>2012-08-29T08:18:14Z</time>
      </trkpt>
      <trkpt lat="45.35399" lon="5.88257">
        <ele>1705.2</ele>
        <time>2012-08-29T08:18:18Z</time>
      </trkpt>
      <trkpt lat="45.35414" lon="5.88267">
        <ele>1704</ele>
        <time>2012-08-29T08:18:24Z</time>
      </trkpt>
      <trkpt lat="45.35422" lon="5.88273">
        <ele>1703</ele>
        <time>2012-08-29T08:18:28Z</time>
      </trkpt>
      <trkpt lat="45.35436" lon="5.88284">
        <ele>1701.6</ele>
        <time>2012-08-29T08:18:35Z</time>
      </trkpt>
      <trkpt lat="45.35441" lon="5.88292">
        <ele>1700.6</ele>
        <time>2012-08-29T08:18:39Z</time>
      </trkpt>
      <trkpt lat="45.35451" lon="5.88296">
        <ele>1699.4</ele>
        <time>2012-08-29T08:18:45Z</time>
      </trkpt>
      <trkpt lat="45.35458" lon="5.88298">
        <ele>1698.4</ele>
        <time>2012-08-29T08:18:49Z</time>
      </trkpt>
      <trkpt lat="45.35467" lon="5.88307">
        <ele>1697</ele>
        <time>2012-08-29T08:18:54Z</time>
      </trkpt>
      <trkpt lat="45.35476" lon="5.88313">
        <ele>1696</ele>
        <time>2012-08-29T08:18:58Z</time>
      </trkpt>
      <trkpt lat="45.35478" lon="5.88314">
        <ele>1695.8</ele>
        <time>2012-08-29T08:18:59Z</time>
      </trkpt>
      <trkpt lat="45.35492" lon="5.88331">
        <ele>1694</ele>
        <time>2012-08-29T08:19:05Z</time>
      </trkpt>
      <trkpt lat="45.35506" lon="5.88345">
        <ele>1692.4</ele>
        <time>2012-08-29T08:19:11Z</time>
      </trkpt>
      <trkpt lat="45.35519" lon="5.88357">
        <ele>1691</ele>
        <time>2012-08-29T08:19:16Z</time>
      </trkpt>
      <trkpt lat="45.3553" lon="5.88367">
        <ele>1690</ele>
        <time>2012-08-29T08:19:21Z</time>
      </trkpt>
      <trkpt lat="45.35542" lon="5.88377">
        <ele>1688.4</ele>
        <time>2012-08-29T08:19:26Z</time>
      </trkpt>
      <trkpt lat="45.35553" lon="5.88379">
        <ele>1687.4</ele>
        <time>2012-08-29T08:19:30Z</time>
      </trkpt>
      <trkpt lat="45.35566" lon="5.88392">
        <ele>1686</ele>
        <time>2012-08-29T08:19:36Z</time>
      </trkpt>
      <trkpt lat="45.35578" lon="5.88405">
        <ele>1684.4</ele>
        <time>2012-08-29T08:19:42Z</time>
      </trkpt>
      <trkpt lat="45.35587" lon="5.88415">
        <ele>1683.4</ele>
        <time>2012-08-29T08:19:47Z</time>
      </trkpt>
      <trkpt lat="45.35598" lon="5.88418">
        <ele>1682.4</ele>
        <time>2012-08-29T08:19:51Z</time>
      </trkpt>
      <trkpt lat="45.3561" lon="5.88428">
        <ele>1681.2</ele>
        <time>2012-08-29T08:19:57Z</time>
      </trkpt>
      <trkpt lat="45.35613" lon="5.8843">
        <ele>1681</ele>
        <time>2012-08-29T08:19:58Z</time>
      </trkpt>
      <trkpt lat="45.3563" lon="5.88428">
        <ele>1679.6</ele>
        <time>2012-08-29T08:20:04Z</time>
      </trkpt>
      <trkpt lat="45.35643" lon="5.88433">
        <ele>1678.8</ele>
        <time>2012-08-29T08:20:09Z</time>
      </trkpt>
      <trkpt lat="45.35647" lon="5.88438">
        <ele>1678.4</ele>
        <time>2012-08-29T08:20:11Z</time>
      </trkpt>
      <trkpt lat="45.35661" lon="5.88444">
        <ele>1677</ele>
        <time>2012-08-29T08:20:17Z</time>
      </trkpt>
      <trkpt lat="45.35664" lon="5.88444">
        <ele>1677</ele>
        <time>2012-08-29T08:20:18Z</time>
      </trkpt>
      <trkpt lat="45.35679" lon="5.88456">
        <ele>1676.2</ele>
        <time>2012-08-29T08:20:24Z</time>
      </trkpt>
      <trkpt lat="45.35689" lon="5.88464">
        <ele>1675</ele>
        <time>2012-08-29T08:20:29Z</time>
      </trkpt>
      <trkpt lat="45.35691" lon="5.88465">
        <ele>1675</ele>
        <time>2012-08-29T08:20:30Z</time>
      </trkpt>
      <trkpt lat="45.35706" lon="5.88464">
        <ele>1674.4</ele>
        <time>2012-08-29T08:20:35Z</time>
      </trkpt>
      <trkpt lat="45.3572" lon="5.88466">
        <ele>1673.4</ele>
        <time>2012-08-29T08:20:40Z</time>
      </trkpt>
      <trkpt lat="45.35737" lon="5.8847">
        <ele>1672.6</ele>
        <time>2012-08-29T08:20:46Z</time>
      </trkpt>
      <trkpt lat="45.35755" lon="5.88469">
        <ele>1671.4</ele>
        <time>2012-08-29T08:20:52Z</time>
      </trkpt>
      <trkpt lat="45.35766" lon="5.88462">
        <ele>1670.8</ele>
        <time>2012-08-29T08:20:56Z</time>
      </trkpt>
      <trkpt lat="45.35781" lon="5.88453">
        <ele>1670</ele>
        <time>2012-08-29T08:21:02Z</time>
      </trkpt>
      <trkpt lat="45.35794" lon="5.88451">
        <ele>1669.2</ele>
        <time>2012-08-29T08:21:07Z</time>
      </trkpt>
      <trkpt lat="45.35801" lon="5.88448">
        <ele>1668.8</ele>
        <time>2012-08-29T08:21:09Z</time>
      </trkpt>
      <trkpt lat="45.35815" lon="5.88439">
        <ele>1667.6</ele>
        <time>2012-08-29T08:21:15Z</time>
      </trkpt>
      <trkpt lat="45.35827" lon="5.88431">
        <ele>1666.6</ele>
        <time>2012-08-29T08:21:19Z</time>
      </trkpt>
      <trkpt lat="45.35836" lon="5.88421">
        <ele>1665.6</ele>
        <time>2012-08-29T08:21:23Z</time>
      </trkpt>
      <trkpt lat="45.35849" lon="5.88406">
        <ele>1664.2</ele>
        <time>2012-08-29T08:21:29Z</time>
      </trkpt>
      <trkpt lat="45.35862" lon="5.88398">
        <ele>1663.6</ele>
        <time>2012-08-29T08:21:34Z</time>
      </trkpt>
      <trkpt lat="45.35873" lon="5.88393">
        <ele>1662.6</ele>
        <time>2012-08-29T08:21:38Z</time>
      </trkpt>
      <trkpt lat="45.35887" lon="5.88399">
        <ele>1661.8</ele>
        <time>2012-08-29T08:21:43Z</time>
      </trkpt>
      <trkpt lat="45.35906" lon="5.88405">
        <ele>1660.6</ele>
        <time>2012-08-29T08:21:50Z</time>
      </trkpt>
      <trkpt lat="45.35923" lon="5.884">
        <ele>1659.4</ele>
        <time>2012-08-29T08:21:56Z</time>
      </trkpt>
      <trkpt lat="45.35939" lon="5.88399">
        <ele>1658.2</ele>
        <time>2012-08-29T08:22:01Z</time>
      </trkpt>
      <trkpt lat="45.35959" lon="5.88399">
        <ele>1657</ele>
        <time>2012-08-29T08:22:08Z</time>
      </trkpt>
      <trkpt lat="45.35977" lon="5.88403">
        <ele>1655.8</ele>
        <time>2012-08-29T08:22:14Z</time>
      </trkpt>
      <trkpt lat="45.3599" lon="5.88404">
        <ele>1654.6</ele>
        <time>2012-08-29T08:22:19Z</time>
      </trkpt>
      <trkpt lat="45.36005" lon="5.88406">
        <ele>1653.6</ele>
        <time>2012-08-29T08:22:25Z</time>
      </trkpt>
      <trkpt lat="45.36021" lon="5.88409">
        <ele>1652.2</ele>
        <time>2012-08-29T08:22:30Z</time>
      </trkpt>
      <trkpt lat="45.36033" lon="5.88414">
        <ele>1651.4</ele>
        <time>2012-08-29T08:22:35Z</time>
      </trkpt>
      <trkpt lat="45.36038" lon="5.88414">
        <ele>1650.8</ele>
        <time>2012-08-29T08:22:37Z</time>
      </trkpt>
      <trkpt lat="45.36056" lon="5.88423">
        <ele>1649.4</ele>
        <time>2012-08-29T08:22:44Z</time>
      </trkpt>
      <trkpt lat="45.36061" lon="5.88426">
        <ele>1649.2</ele>
        <time>2012-08-29T08:22:46Z</time>
      </trkpt>
      <trkpt lat="45.36068" lon="5.88431">
        <ele>1648.6</ele>
        <time>2012-08-29T08:22:50Z</time>
      </trkpt>
      <trkpt lat="45.36084" lon="5.88443">
        <ele>1647.4</ele>
        <time>2012-08-29T08:22:56Z</time>
      </trkpt>
      <trkpt lat="45.36103" lon="5.88451">
        <ele>1646.8</ele>
        <time>2012-08-29T08:23:03Z</time>
      </trkpt>
      <trkpt lat="45.36118" lon="5.88461">
        <ele>1645.8</ele>
        <time>2012-08-29T08:23:09Z</time>
      </trkpt>
      <trkpt lat="45.36132" lon="5.88474">
        <ele>1645</ele>
        <time>2012-08-29T08:23:15Z</time>
      </trkpt>
      <trkpt lat="45.36144" lon="5.88482">
        <ele>1644.6</ele>
        <time>2012-08-29T08:23:20Z</time>
      </trkpt>
      <trkpt lat="45.36162" lon="5.88489">
        <ele>1643.2</ele>
        <time>2012-08-29T08:23:27Z</time>
      </trkpt>
      <trkpt lat="45.36172" lon="5.88496">
        <ele>1642.6</ele>
        <time>2012-08-29T08:23:32Z</time>
      </trkpt>
      <trkpt lat="45.36187" lon="5.88504">
        <ele>1642</ele>
        <time>2012-08-29T08:23:38Z</time>
      </trkpt>
      <trkpt lat="45.36199" lon="5.88508">
        <ele>1641.2</ele>
        <time>2012-08-29T08:23:43Z</time>
      </trkpt>
      <trkpt lat="45.36203" lon="5.88509">
        <ele>1640.8</ele>
        <time>2012-08-29T08:23:45Z</time>
      </trkpt>
      <trkpt lat="45.36208" lon="5.88505">
        <ele>1640.8</ele>
        <time>2012-08-29T08:23:47Z</time>
      </trkpt>
      <trkpt lat="45.36218" lon="5.88504">
        <ele>1639.6</ele>
        <time>2012-08-29T08:23:52Z</time>
      </trkpt>
      <trkpt lat="45.3623" lon="5.88503">
        <ele>1638.8</ele>
        <time>2012-08-29T08:23:57Z</time>
      </trkpt>
      <trkpt lat="45.36233" lon="5.88504">
        <ele>1638.8</ele>
        <time>2012-08-29T08:23:58Z</time>
      </trkpt>
      <trkpt lat="45.36246" lon="5.88504">
        <ele>1638.4</ele>
        <time>2012-08-29T08:24:03Z</time>
      </trkpt>
      <trkpt lat="45.36249" lon="5.88504">
        <ele>1638.4</ele>
        <time>2012-08-29T08:24:04Z</time>
      </trkpt>
      <trkpt lat="45.36268" lon="5.8851">
        <ele>1637</ele>
        <time>2012-08-29T08:24:11Z</time>
      </trkpt>
      <trkpt lat="45.36283" lon="5.88517">
        <ele>1636.4</ele>
        <time>2012-08-29T08:24:17Z</time>
      </trkpt>
      <trkpt lat="45.36291" lon="5.8851">
        <ele>1636.2</ele>
        <time>2012-08-29T08:24:21Z</time>
      </trkpt>
      <trkpt lat="45.36301" lon="5.88499">
        <ele>1635.4</ele>
        <time>2012-08-29T08:24:26Z</time>
      </trkpt>
      <trkpt lat="45.36311" lon="5.88495">
        <ele>1634.6</ele>
        <time>2012-08-29T08:24:31Z</time>
      </trkpt>
      <trkpt lat="45.36325" lon="5.8849">
        <ele>1633.4</ele>
        <time>2012-08-29T08:24:37Z</time>
      </trkpt>
      <trkpt lat="45.36348" lon="5.88494">
        <ele>1631.8</ele>
        <time>2012-08-29T08:24:44Z</time>
      </trkpt>
      <trkpt lat="45.36366" lon="5.885">
        <ele>1630.6</ele>
        <time>2012-08-29T08:24:50Z</time>
      </trkpt>
      <trkpt lat="45.36373" lon="5.88502">
        <ele>1629.4</ele>
        <time>2012-08-29T08:24:54Z</time>
      </trkpt>
      <trkpt lat="45.36381" lon="5.88506">
        <ele>1628</ele>
        <time>2012-08-29T08:25:01Z</time>
      </trkpt>
      <trkpt lat="45.3639" lon="5.88511">
        <ele>1626.6</ele>
        <time>2012-08-29T08:25:07Z</time>
      </trkpt>
      <trkpt lat="45.36391" lon="5.88511">
        <ele>1626.4</ele>
        <time>2012-08-29T08:25:08Z</time>
      </trkpt>
      <trkpt lat="45.36396" lon="5.88513">
        <ele>1626.2</ele>
        <time>2012-08-29T08:25:11Z</time>
      </trkpt>
      <trkpt lat="45.36406" lon="5.88515">
        <ele>1624.8</ele>
        <time>2012-08-29T08:25:18Z</time>
      </trkpt>
      <trkpt lat="45.36408" lon="5.88515">
        <ele>1624.6</ele>
        <time>2012-08-29T08:25:19Z</time>
      </trkpt>
      <trkpt lat="45.36414" lon="5.88519">
        <ele>1624</ele>
        <time>2012-08-29T08:25:24Z</time>
      </trkpt>
      <trkpt lat="45.36418" lon="5.88519">
        <ele>1623.8</ele>
        <time>2012-08-29T08:25:27Z</time>
      </trkpt>
      <trkpt lat="45.36421" lon="5.88518">
        <ele>1623.6</ele>
        <time>2012-08-29T08:25:30Z</time>
      </trkpt>
      <trkpt lat="45.36429" lon="5.88523">
        <ele>1623</ele>
        <time>2012-08-29T08:25:38Z</time>
      </trkpt>
      <trkpt lat="45.36434" lon="5.88526">
        <ele>1622.2</ele>
        <time>2012-08-29T08:25:43Z</time>
      </trkpt>
      <trkpt lat="45.36435" lon="5.88527">
        <ele>1622.2</ele>
        <time>2012-08-29T08:25:44Z</time>
      </trkpt>
      <trkpt lat="45.36438" lon="5.88529">
        <ele>1621.8</ele>
        <time>2012-08-29T08:25:48Z</time>
      </trkpt>
      <trkpt lat="45.36445" lon="5.88531">
        <ele>1621.4</ele>
        <time>2012-08-29T08:25:55Z</time>
      </trkpt>
      <trkpt lat="45.36446" lon="5.88532">
        <ele>1621.4</ele>
        <time>2012-08-29T08:25:56Z</time>
      </trkpt>
      <trkpt lat="45.36452" lon="5.8854">
        <ele>1620.8</ele>
        <time>2012-08-29T08:26:04Z</time>
      </trkpt>
      <trkpt lat="45.36459" lon="5.88547">
        <ele>1619.8</ele>
        <time>2012-08-29T08:26:12Z</time>
      </trkpt>
      <trkpt lat="45.36465" lon="5.88553">
        <ele>1619.4</ele>
        <time>2012-08-29T08:26:18Z</time>
      </trkpt>
      <trkpt lat="45.36471" lon="5.88558">
        <ele>1619.4</ele>
        <time>2012-08-29T08:26:24Z</time>
      </trkpt>
      <trkpt lat="45.36474" lon="5.88557">
        <ele>1619.2</ele>
        <time>2012-08-29T08:26:26Z</time>
      </trkpt>
      <trkpt lat="45.36481" lon="5.88557">
        <ele>1618.6</ele>
        <time>2012-08-29T08:26:31Z</time>
      </trkpt>
      <trkpt lat="45.36487" lon="5.88557">
        <ele>1618</ele>
        <time>2012-08-29T08:26:36Z</time>
      </trkpt>
      <trkpt lat="45.36494" lon="5.88559">
        <ele>1617.8</ele>
        <time>2012-08-29T08:26:39Z</time>
      </trkpt>
      <trkpt lat="45.3651" lon="5.88564">
        <ele>1617.4</ele>
        <time>2012-08-29T08:26:45Z</time>
      </trkpt>
      <trkpt lat="45.36527" lon="5.88573">
        <ele>1617.2</ele>
        <time>2012-08-29T08:26:51Z</time>
      </trkpt>
      <trkpt lat="45.36542" lon="5.88584">
        <ele>1617.2</ele>
        <time>2012-08-29T08:26:57Z</time>
      </trkpt>
      <trkpt lat="45.36557" lon="5.88592">
        <ele>1617.2</ele>
        <time>2012-08-29T08:27:02Z</time>
      </trkpt>
      <trkpt lat="45.36571" lon="5.88605">
        <ele>1617.2</ele>
        <time>2012-08-29T08:27:08Z</time>
      </trkpt>
      <trkpt lat="45.36586" lon="5.88615">
        <ele>1617.2</ele>
        <time>2012-08-29T08:27:14Z</time>
      </trkpt>
      <trkpt lat="45.36601" lon="5.88627">
        <ele>1617</ele>
        <time>2012-08-29T08:27:20Z</time>
      </trkpt>
      <trkpt lat="45.36617" lon="5.8864">
        <ele>1617</ele>
        <time>2012-08-29T08:27:27Z</time>
      </trkpt>
      <trkpt lat="45.36634" lon="5.8865">
        <ele>1617</ele>
        <time>2012-08-29T08:27:34Z</time>
      </trkpt>
      <trkpt lat="45.36648" lon="5.88659">
        <ele>1617</ele>
        <time>2012-08-29T08:27:40Z</time>
      </trkpt>
      <trkpt lat="45.36659" lon="5.88667">
        <ele>1617</ele>
        <time>2012-08-29T08:27:45Z</time>
      </trkpt>
      <trkpt lat="45.3667" lon="5.88671">
        <ele>1617</ele>
        <time>2012-08-29T08:27:50Z</time>
      </trkpt>
      <trkpt lat="45.36678" lon="5.88672">
        <ele>1617</ele>
        <time>2012-08-29T08:27:53Z</time>
      </trkpt>
      <trkpt lat="45.36686" lon="5.88684">
        <ele>1617</ele>
        <time>2012-08-29T08:27:58Z</time>
      </trkpt>
      <trkpt lat="45.36697" lon="5.88704">
        <ele>1617</ele>
        <time>2012-08-29T08:28:05Z</time>
      </trkpt>
      <trkpt lat="45.36704" lon="5.88719">
        <ele>1617</ele>
        <time>2012-08-29T08:28:10Z</time>
      </trkpt>
      <trkpt lat="45.36715" lon="5.88727">
        <ele>1616.6</ele>
        <time>2012-08-29T08:28:15Z</time>
      </trkpt>
      <trkpt lat="45.3673" lon="5.88731">
        <ele>1615.8</ele>
        <time>2012-08-29T08:28:21Z</time>
      </trkpt>
      <trkpt lat="45.36732" lon="5.88732">
        <ele>1615.8</ele>
        <time>2012-08-29T08:28:22Z</time>
      </trkpt>
      <trkpt lat="45.36749" lon="5.88745">
        <ele>1615.4</ele>
        <time>2012-08-29T08:28:29Z</time>
      </trkpt>
      <trkpt lat="45.36758" lon="5.88754">
        <ele>1614.6</ele>
        <time>2012-08-29T08:28:33Z</time>
      </trkpt>
      <trkpt lat="45.3677" lon="5.88766">
        <ele>1613.8</ele>
        <time>2012-08-29T08:28:39Z</time>
      </trkpt>
      <trkpt lat="45.36779" lon="5.88777">
        <ele>1613.4</ele>
        <time>2012-08-29T08:28:45Z</time>
      </trkpt>
      <trkpt lat="45.3678" lon="5.88778">
        <ele>1613.4</ele>
        <time>2012-08-29T08:28:46Z</time>
      </trkpt>
      <trkpt lat="45.36788" lon="5.8878">
        <ele>1613.2</ele>
        <time>2012-08-29T08:28:50Z</time>
      </trkpt>
      <trkpt lat="45.36789" lon="5.8878">
        <ele>1613.2</ele>
        <time>2012-08-29T08:28:51Z</time>
      </trkpt>
      <trkpt lat="45.36793" lon="5.88778">
        <ele>1613.2</ele>
        <time>2012-08-29T08:28:53Z</time>
      </trkpt>
      <trkpt lat="45.36801" lon="5.88777">
        <ele>1613</ele>
        <time>2012-08-29T08:28:57Z</time>
      </trkpt>
      <trkpt lat="45.36815" lon="5.88776">
        <ele>1613</ele>
        <time>2012-08-29T08:29:04Z</time>
      </trkpt>
      <trkpt lat="45.36816" lon="5.88775">
        <ele>1613</ele>
        <time>2012-08-29T08:29:05Z</time>
      </trkpt>
      <trkpt lat="45.36823" lon="5.8878">
        <ele>1613</ele>
        <time>2012-08-29T08:29:09Z</time>
      </trkpt>
      <trkpt lat="45.36833" lon="5.88786">
        <ele>1612.6</ele>
        <time>2012-08-29T08:29:14Z</time>
      </trkpt>
      <trkpt lat="45.3684" lon="5.88793">
        <ele>1612</ele>
        <time>2012-08-29T08:29:18Z</time>
      </trkpt>
      <trkpt lat="45.36842" lon="5.88795">
        <ele>1611.8</ele>
        <time>2012-08-29T08:29:20Z</time>
      </trkpt>
      <trkpt lat="45.36852" lon="5.88804">
        <ele>1611.4</ele>
        <time>2012-08-29T08:29:25Z</time>
      </trkpt>
      <trkpt lat="45.36867" lon="5.88808">
        <ele>1611.2</ele>
        <time>2012-08-29T08:29:31Z</time>
      </trkpt>
      <trkpt lat="45.36871" lon="5.88808">
        <ele>1611.2</ele>
        <time>2012-08-29T08:29:33Z</time>
      </trkpt>
      <trkpt lat="45.36884" lon="5.88819">
        <ele>1610.8</ele>
        <time>2012-08-29T08:29:39Z</time>
      </trkpt>
      <trkpt lat="45.36893" lon="5.88826">
        <ele>1610.2</ele>
        <time>2012-08-29T08:29:43Z</time>
      </trkpt>
      <trkpt lat="45.36898" lon="5.88832">
        <ele>1609.8</ele>
        <time>2012-08-29T08:29:46Z</time>
      </trkpt>
      <trkpt lat="45.36905" lon="5.88839">
        <ele>1609.4</ele>
        <time>2012-08-29T08:29:50Z</time>
      </trkpt>
      <trkpt lat="45.36916" lon="5.8884">
        <ele>1609.2</ele>
        <time>2012-08-29T08:29:56Z</time>
      </trkpt>
      <trkpt lat="45.3692" lon="5.88842">
        <ele>1609</ele>
        <time>2012-08-29T08:29:58Z</time>
      </trkpt>
      <trkpt lat="45.36925" lon="5.88848">
        <ele>1608.2</ele>
        <time>2012-08-29T08:30:02Z</time>
      </trkpt>
      <trkpt lat="45.36932" lon="5.88851">
        <ele>1607.6</ele>
        <time>2012-08-29T08:30:06Z</time>
      </trkpt>
      <trkpt lat="45.36935" lon="5.88855">
        <ele>1607.4</ele>
        <time>2012-08-29T08:30:08Z</time>
      </trkpt>
      <trkpt lat="45.36946" lon="5.88862">
        <ele>1606</ele>
        <time>2012-08-29T08:30:14Z</time>
      </trkpt>
      <trkpt lat="45.3696" lon="5.88864">
        <ele>1604.8</ele>
        <time>2012-08-29T08:30:20Z</time>
      </trkpt>
      <trkpt lat="45.36973" lon="5.88865">
        <ele>1603.8</ele>
        <time>2012-08-29T08:30:25Z</time>
      </trkpt>
      <trkpt lat="45.36993" lon="5.88868">
        <ele>1602.8</ele>
        <time>2012-08-29T08:30:33Z</time>
      </trkpt>
      <trkpt lat="45.37003" lon="5.88869">
        <ele>1602</ele>
        <time>2012-08-29T08:30:37Z</time>
      </trkpt>
      <trkpt lat="45.37017" lon="5.88872">
        <ele>1601.4</ele>
        <time>2012-08-29T08:30:42Z</time>
      </trkpt>
      <trkpt lat="45.37028" lon="5.88871">
        <ele>1601</ele>
        <time>2012-08-29T08:30:46Z</time>
      </trkpt>
      <trkpt lat="45.37034" lon="5.88869">
        <ele>1600.6</ele>
        <time>2012-08-29T08:30:48Z</time>
      </trkpt>
      <trkpt lat="45.37043" lon="5.88879">
        <ele>1599.6</ele>
        <time>2012-08-29T08:30:53Z</time>
      </trkpt>
      <trkpt lat="45.37047" lon="5.88892">
        <ele>1599.2</ele>
        <time>2012-08-29T08:30:57Z</time>
      </trkpt>
      <trkpt lat="45.37049" lon="5.88897">
        <ele>1599</ele>
        <time>2012-08-29T08:30:58Z</time>
      </trkpt>
      <trkpt lat="45.37051" lon="5.889">
        <ele>1599</ele>
        <time>2012-08-29T08:30:59Z</time>
      </trkpt>
      <trkpt lat="45.37065" lon="5.88911">
        <ele>1598.6</ele>
        <time>2012-08-29T08:31:04Z</time>
      </trkpt>
      <trkpt lat="45.37077" lon="5.88919">
        <ele>1597.6</ele>
        <time>2012-08-29T08:31:09Z</time>
      </trkpt>
      <trkpt lat="45.37087" lon="5.88928">
        <ele>1597</ele>
        <time>2012-08-29T08:31:14Z</time>
      </trkpt>
      <trkpt lat="45.37094" lon="5.88932">
        <ele>1596.8</ele>
        <time>2012-08-29T08:31:18Z</time>
      </trkpt>
      <trkpt lat="45.37096" lon="5.88933">
        <ele>1596.8</ele>
        <time>2012-08-29T08:31:19Z</time>
      </trkpt>
      <trkpt lat="45.37104" lon="5.88934">
        <ele>1596</ele>
        <time>2012-08-29T08:31:23Z</time>
      </trkpt>
      <trkpt lat="45.37119" lon="5.88931">
        <ele>1595.2</ele>
        <time>2012-08-29T08:31:28Z</time>
      </trkpt>
      <trkpt lat="45.37122" lon="5.88931">
        <ele>1595.2</ele>
        <time>2012-08-29T08:31:29Z</time>
      </trkpt>
      <trkpt lat="45.37137" lon="5.88941">
        <ele>1594.8</ele>
        <time>2012-08-29T08:31:35Z</time>
      </trkpt>
      <trkpt lat="45.37148" lon="5.88956">
        <ele>1594</ele>
        <time>2012-08-29T08:31:40Z</time>
      </trkpt>
      <trkpt lat="45.37159" lon="5.88967">
        <ele>1593.2</ele>
        <time>2012-08-29T08:31:45Z</time>
      </trkpt>
      <trkpt lat="45.37165" lon="5.88977">
        <ele>1592.8</ele>
        <time>2012-08-29T08:31:48Z</time>
      </trkpt>
      <trkpt lat="45.37176" lon="5.88989">
        <ele>1592.4</ele>
        <time>2012-08-29T08:31:53Z</time>
      </trkpt>
      <trkpt lat="45.37184" lon="5.88996">
        <ele>1591.6</ele>
        <time>2012-08-29T08:31:57Z</time>
      </trkpt>
      <trkpt lat="45.37198" lon="5.89012">
        <ele>1590.8</ele>
        <time>2012-08-29T08:32:04Z</time>
      </trkpt>
      <trkpt lat="45.37209" lon="5.89023">
        <ele>1589.6</ele>
        <time>2012-08-29T08:32:09Z</time>
      </trkpt>
      <trkpt lat="45.37222" lon="5.89031">
        <ele>1589</ele>
        <time>2012-08-29T08:32:14Z</time>
      </trkpt>
      <trkpt lat="45.37234" lon="5.89042">
        <ele>1588</ele>
        <time>2012-08-29T08:32:19Z</time>
      </trkpt>
      <trkpt lat="45.37245" lon="5.89054">
        <ele>1587</ele>
        <time>2012-08-29T08:32:24Z</time>
      </trkpt>
      <trkpt lat="45.37257" lon="5.89067">
        <ele>1586.2</ele>
        <time>2012-08-29T08:32:30Z</time>
      </trkpt>
      <trkpt lat="45.37266" lon="5.89072">
        <ele>1585.2</ele>
        <time>2012-08-29T08:32:35Z</time>
      </trkpt>
      <trkpt lat="45.37272" lon="5.89074">
        <ele>1584.8</ele>
        <time>2012-08-29T08:32:39Z</time>
      </trkpt>
      <trkpt lat="45.3728" lon="5.89081">
        <ele>1584.2</ele>
        <time>2012-08-29T08:32:43Z</time>
      </trkpt>
      <trkpt lat="45.37288" lon="5.89085">
        <ele>1583.4</ele>
        <time>2012-08-29T08:32:47Z</time>
      </trkpt>
      <trkpt lat="45.37292" lon="5.89088">
        <ele>1583</ele>
        <time>2012-08-29T08:32:49Z</time>
      </trkpt>
      <trkpt lat="45.373" lon="5.89102">
        <ele>1581.8</ele>
        <time>2012-08-29T08:32:56Z</time>
      </trkpt>
      <trkpt lat="45.37308" lon="5.89107">
        <ele>1581</ele>
        <time>2012-08-29T08:33:00Z</time>
      </trkpt>
      <trkpt lat="45.37318" lon="5.89116">
        <ele>1580.4</ele>
        <time>2012-08-29T08:33:06Z</time>
      </trkpt>
      <trkpt lat="45.37319" lon="5.89116">
        <ele>1580.2</ele>
        <time>2012-08-29T08:33:07Z</time>
      </trkpt>
      <trkpt lat="45.37322" lon="5.89119">
        <ele>1579.8</ele>
        <time>2012-08-29T08:33:09Z</time>
      </trkpt>
      <trkpt lat="45.37331" lon="5.89131">
        <ele>1578.6</ele>
        <time>2012-08-29T08:33:15Z</time>
      </trkpt>
      <trkpt lat="45.37338" lon="5.89143">
        <ele>1577.6</ele>
        <time>2012-08-29T08:33:19Z</time>
      </trkpt>
      <trkpt lat="45.37339" lon="5.89145">
        <ele>1577.2</ele>
        <time>2012-08-29T08:33:21Z</time>
      </trkpt>
      <trkpt lat="45.3734" lon="5.89145">
        <ele>1576</ele>
        <time>2012-08-29T08:33:26Z</time>
      </trkpt>
      <trkpt lat="45.37342" lon="5.8914">
        <ele>1573.8</ele>
        <time>2012-08-29T08:33:36Z</time>
      </trkpt>
      <trkpt lat="45.37344" lon="5.89141">
        <ele>1573.6</ele>
        <time>2012-08-29T08:33:37Z</time>
      </trkpt>
      <trkpt lat="45.37351" lon="5.89144">
        <ele>1572.8</ele>
        <time>2012-08-29T08:33:41Z</time>
      </trkpt>
      <trkpt lat="45.37361" lon="5.89145">
        <ele>1572.2</ele>
        <time>2012-08-29T08:33:46Z</time>
      </trkpt>
      <trkpt lat="45.37364" lon="5.89148">
        <ele>1571.6</ele>
        <time>2012-08-29T08:33:48Z</time>
      </trkpt>
      <trkpt lat="45.37375" lon="5.89162">
        <ele>1570.2</ele>
        <time>2012-08-29T08:33:55Z</time>
      </trkpt>
      <trkpt lat="45.37376" lon="5.89164">
        <ele>1570.2</ele>
        <time>2012-08-29T08:33:56Z</time>
      </trkpt>
      <trkpt lat="45.37382" lon="5.89168">
        <ele>1569.2</ele>
        <time>2012-08-29T08:34:00Z</time>
      </trkpt>
      <trkpt lat="45.3739" lon="5.89171">
        <ele>1568.4</ele>
        <time>2012-08-29T08:34:04Z</time>
      </trkpt>
      <trkpt lat="45.37393" lon="5.89172">
        <ele>1568.4</ele>
        <time>2012-08-29T08:34:05Z</time>
      </trkpt>
      <trkpt lat="45.37396" lon="5.89173">
        <ele>1568</ele>
        <time>2012-08-29T08:34:07Z</time>
      </trkpt>
      <trkpt lat="45.37409" lon="5.89172">
        <ele>1567</ele>
        <time>2012-08-29T08:34:12Z</time>
      </trkpt>
      <trkpt lat="45.3742" lon="5.89172">
        <ele>1566.4</ele>
        <time>2012-08-29T08:34:16Z</time>
      </trkpt>
      <trkpt lat="45.37438" lon="5.89172">
        <ele>1565.6</ele>
        <time>2012-08-29T08:34:22Z</time>
      </trkpt>
      <trkpt lat="45.37451" lon="5.89175">
        <ele>1564.6</ele>
        <time>2012-08-29T08:34:26Z</time>
      </trkpt>
      <trkpt lat="45.37462" lon="5.89178">
        <ele>1563.8</ele>
        <time>2012-08-29T08:34:31Z</time>
      </trkpt>
      <trkpt lat="45.37465" lon="5.89177">
        <ele>1563.8</ele>
        <time>2012-08-29T08:34:32Z</time>
      </trkpt>
      <trkpt lat="45.37469" lon="5.89177">
        <ele>1562.8</ele>
        <time>2012-08-29T08:34:35Z</time>
      </trkpt>
      <trkpt lat="45.37472" lon="5.89179">
        <ele>1562</ele>
        <time>2012-08-29T08:34:39Z</time>
      </trkpt>
      <trkpt lat="45.37477" lon="5.89179">
        <ele>1561</ele>
        <time>2012-08-29T08:34:43Z</time>
      </trkpt>
      <trkpt lat="45.37481" lon="5.89185">
        <ele>1560.2</ele>
        <time>2012-08-29T08:34:46Z</time>
      </trkpt>
      <trkpt lat="45.37483" lon="5.89186">
        <ele>1560</ele>
        <time>2012-08-29T08:34:47Z</time>
      </trkpt>
      <trkpt lat="45.37487" lon="5.89188">
        <ele>1559.4</ele>
        <time>2012-08-29T08:34:50Z</time>
      </trkpt>
      <trkpt lat="45.37494" lon="5.89188">
        <ele>1558.2</ele>
        <time>2012-08-29T08:34:55Z</time>
      </trkpt>
      <trkpt lat="45.37496" lon="5.8919">
        <ele>1558</ele>
        <time>2012-08-29T08:34:56Z</time>
      </trkpt>
      <trkpt lat="45.37504" lon="5.89197">
        <ele>1557.2</ele>
        <time>2012-08-29T08:35:01Z</time>
      </trkpt>
      <trkpt lat="45.37512" lon="5.89199">
        <ele>1557</ele>
        <time>2012-08-29T08:35:05Z</time>
      </trkpt>
      <trkpt lat="45.37513" lon="5.89199">
        <ele>1556.8</ele>
        <time>2012-08-29T08:35:06Z</time>
      </trkpt>
      <trkpt lat="45.37523" lon="5.89207">
        <ele>1556.2</ele>
        <time>2012-08-29T08:35:11Z</time>
      </trkpt>
      <trkpt lat="45.37528" lon="5.89212">
        <ele>1555.6</ele>
        <time>2012-08-29T08:35:15Z</time>
      </trkpt>
      <trkpt lat="45.37533" lon="5.89223">
        <ele>1555.2</ele>
        <time>2012-08-29T08:35:19Z</time>
      </trkpt>
      <trkpt lat="45.3754" lon="5.89228">
        <ele>1554.8</ele>
        <time>2012-08-29T08:35:24Z</time>
      </trkpt>
      <trkpt lat="45.37543" lon="5.89226">
        <ele>1554.8</ele>
        <time>2012-08-29T08:35:26Z</time>
      </trkpt>
      <trkpt lat="45.37551" lon="5.89227">
        <ele>1554.6</ele>
        <time>2012-08-29T08:35:30Z</time>
      </trkpt>
      <trkpt lat="45.37553" lon="5.89229">
        <ele>1554.6</ele>
        <time>2012-08-29T08:35:31Z</time>
      </trkpt>
      <trkpt lat="45.37554" lon="5.89231">
        <ele>1554.6</ele>
        <time>2012-08-29T08:35:32Z</time>
      </trkpt>
      <trkpt lat="45.37565" lon="5.89243">
        <ele>1554.4</ele>
        <time>2012-08-29T08:35:37Z</time>
      </trkpt>
      <trkpt lat="45.37574" lon="5.89249">
        <ele>1554.2</ele>
        <time>2012-08-29T08:35:41Z</time>
      </trkpt>
      <trkpt lat="45.37582" lon="5.89256">
        <ele>1553.6</ele>
        <time>2012-08-29T08:35:45Z</time>
      </trkpt>
      <trkpt lat="45.37591" lon="5.89261">
        <ele>1553.2</ele>
        <time>2012-08-29T08:35:48Z</time>
      </trkpt>
      <trkpt lat="45.37601" lon="5.8927">
        <ele>1552.8</ele>
        <time>2012-08-29T08:35:53Z</time>
      </trkpt>
      <trkpt lat="45.37603" lon="5.89271">
        <ele>1552.8</ele>
        <time>2012-08-29T08:35:54Z</time>
      </trkpt>
      <trkpt lat="45.37617" lon="5.8928">
        <ele>1552.2</ele>
        <time>2012-08-29T08:35:59Z</time>
      </trkpt>
      <trkpt lat="45.37629" lon="5.89286">
        <ele>1551.4</ele>
        <time>2012-08-29T08:36:04Z</time>
      </trkpt>
      <trkpt lat="45.37635" lon="5.89286">
        <ele>1551.2</ele>
        <time>2012-08-29T08:36:06Z</time>
      </trkpt>
      <trkpt lat="45.37644" lon="5.89288">
        <ele>1550.8</ele>
        <time>2012-08-29T08:36:10Z</time>
      </trkpt>
      <trkpt lat="45.37652" lon="5.89288">
        <ele>1550.6</ele>
        <time>2012-08-29T08:36:14Z</time>
      </trkpt>
      <trkpt lat="45.37654" lon="5.89288">
        <ele>1550.4</ele>
        <time>2012-08-29T08:36:15Z</time>
      </trkpt>
      <trkpt lat="45.37656" lon="5.89288">
        <ele>1550.2</ele>
        <time>2012-08-29T08:36:16Z</time>
      </trkpt>
      <trkpt lat="45.37672" lon="5.8929">
        <ele>1549.2</ele>
        <time>2012-08-29T08:36:22Z</time>
      </trkpt>
      <trkpt lat="45.37674" lon="5.89291">
        <ele>1549.2</ele>
        <time>2012-08-29T08:36:23Z</time>
      </trkpt>
      <trkpt lat="45.37682" lon="5.89294">
        <ele>1548.2</ele>
        <time>2012-08-29T08:36:27Z</time>
      </trkpt>
      <trkpt lat="45.37698" lon="5.89298">
        <ele>1547.6</ele>
        <time>2012-08-29T08:36:31Z</time>
      </trkpt>
      <trkpt lat="45.37713" lon="5.89303">
        <ele>1546.8</ele>
        <time>2012-08-29T08:36:35Z</time>
      </trkpt>
      <trkpt lat="45.37724" lon="5.89307">
        <ele>1545.8</ele>
        <time>2012-08-29T08:36:40Z</time>
      </trkpt>
      <trkpt lat="45.37736" lon="5.89314">
        <ele>1544.6</ele>
        <time>2012-08-29T08:36:46Z</time>
      </trkpt>
      <trkpt lat="45.3774" lon="5.89317">
        <ele>1544</ele>
        <time>2012-08-29T08:36:49Z</time>
      </trkpt>
      <trkpt lat="45.37747" lon="5.8932">
        <ele>1543.4</ele>
        <time>2012-08-29T08:36:53Z</time>
      </trkpt>
      <trkpt lat="45.37762" lon="5.89316">
        <ele>1542.4</ele>
        <time>2012-08-29T08:36:59Z</time>
      </trkpt>
      <trkpt lat="45.37767" lon="5.89315">
        <ele>1542</ele>
        <time>2012-08-29T08:37:01Z</time>
      </trkpt>
      <trkpt lat="45.37783" lon="5.89323">
        <ele>1541.2</ele>
        <time>2012-08-29T08:37:06Z</time>
      </trkpt>
      <trkpt lat="45.3779" lon="5.89324">
        <ele>1540.6</ele>
        <time>2012-08-29T08:37:09Z</time>
      </trkpt>
      <trkpt lat="45.37798" lon="5.89328">
        <ele>1539.6</ele>
        <time>2012-08-29T08:37:13Z</time>
      </trkpt>
      <trkpt lat="45.3781" lon="5.89331">
        <ele>1538.6</ele>
        <time>2012-08-29T08:37:18Z</time>
      </trkpt>
      <trkpt lat="45.37817" lon="5.89329">
        <ele>1537.6</ele>
        <time>2012-08-29T08:37:22Z</time>
      </trkpt>
      <trkpt lat="45.37824" lon="5.8933">
        <ele>1537</ele>
        <time>2012-08-29T08:37:26Z</time>
      </trkpt>
      <trkpt lat="45.37829" lon="5.89331">
        <ele>1536.4</ele>
        <time>2012-08-29T08:37:30Z</time>
      </trkpt>
      <trkpt lat="45.37832" lon="5.89333">
        <ele>1535.8</ele>
        <time>2012-08-29T08:37:32Z</time>
      </trkpt>
      <trkpt lat="45.37846" lon="5.89337">
        <ele>1535</ele>
        <time>2012-08-29T08:37:37Z</time>
      </trkpt>
      <trkpt lat="45.37853" lon="5.89337">
        <ele>1534.8</ele>
        <time>2012-08-29T08:37:39Z</time>
      </trkpt>
      <trkpt lat="45.37857" lon="5.89337">
        <ele>1534.6</ele>
        <time>2012-08-29T08:37:41Z</time>
      </trkpt>
      <trkpt lat="45.37874" lon="5.89324">
        <ele>1533</ele>
        <time>2012-08-29T08:37:49Z</time>
      </trkpt>
      <trkpt lat="45.37875" lon="5.89323">
        <ele>1532.8</ele>
        <time>2012-08-29T08:37:50Z</time>
      </trkpt>
      <trkpt lat="45.37889" lon="5.89326">
        <ele>1531.8</ele>
        <time>2012-08-29T08:37:55Z</time>
      </trkpt>
      <trkpt lat="45.37892" lon="5.89328">
        <ele>1531.6</ele>
        <time>2012-08-29T08:37:56Z</time>
      </trkpt>
      <trkpt lat="45.37907" lon="5.89339">
        <ele>1530.6</ele>
        <time>2012-08-29T08:38:01Z</time>
      </trkpt>
      <trkpt lat="45.37922" lon="5.89348">
        <ele>1529.4</ele>
        <time>2012-08-29T08:38:06Z</time>
      </trkpt>
      <trkpt lat="45.37938" lon="5.89355">
        <ele>1528</ele>
        <time>2012-08-29T08:38:12Z</time>
      </trkpt>
      <trkpt lat="45.37945" lon="5.89355">
        <ele>1527.2</ele>
        <time>2012-08-29T08:38:15Z</time>
      </trkpt>
      <trkpt lat="45.37954" lon="5.89361">
        <ele>1526.6</ele>
        <time>2012-08-29T08:38:20Z</time>
      </trkpt>
      <trkpt lat="45.37964" lon="5.89364">
        <ele>1525.6</ele>
        <time>2012-08-29T08:38:24Z</time>
      </trkpt>
      <trkpt lat="45.37977" lon="5.89366">
        <ele>1524.4</ele>
        <time>2012-08-29T08:38:31Z</time>
      </trkpt>
      <trkpt lat="45.37986" lon="5.89367">
        <ele>1523.6</ele>
        <time>2012-08-29T08:38:36Z</time>
      </trkpt>
      <trkpt lat="45.37994" lon="5.89365">
        <ele>1522.8</ele>
        <time>2012-08-29T08:38:40Z</time>
      </trkpt>
      <trkpt lat="45.38003" lon="5.89365">
        <ele>1522.2</ele>
        <time>2012-08-29T08:38:44Z</time>
      </trkpt>
      <trkpt lat="45.38014" lon="5.89362">
        <ele>1521.4</ele>
        <time>2012-08-29T08:38:48Z</time>
      </trkpt>
      <trkpt lat="45.38029" lon="5.89366">
        <ele>1520.4</ele>
        <time>2012-08-29T08:38:53Z</time>
      </trkpt>
      <trkpt lat="45.38045" lon="5.89379">
        <ele>1519.4</ele>
        <time>2012-08-29T08:38:58Z</time>
      </trkpt>
      <trkpt lat="45.38059" lon="5.8939">
        <ele>1518.4</ele>
        <time>2012-08-29T08:39:03Z</time>
      </trkpt>
      <trkpt lat="45.3807" lon="5.89392">
        <ele>1517.6</ele>
        <time>2012-08-29T08:39:08Z</time>
      </trkpt>
      <trkpt lat="45.38083" lon="5.89399">
        <ele>1516.4</ele>
        <time>2012-08-29T08:39:14Z</time>
      </trkpt>
      <trkpt lat="45.38089" lon="5.89403">
        <ele>1516</ele>
        <time>2012-08-29T08:39:16Z</time>
      </trkpt>
      <trkpt lat="45.38104" lon="5.89407">
        <ele>1515.4</ele>
        <time>2012-08-29T08:39:22Z</time>
      </trkpt>
      <trkpt lat="45.38117" lon="5.89412">
        <ele>1514.6</ele>
        <time>2012-08-29T08:39:27Z</time>
      </trkpt>
      <trkpt lat="45.3812" lon="5.89413">
        <ele>1514.6</ele>
        <time>2012-08-29T08:39:28Z</time>
      </trkpt>
      <trkpt lat="45.38129" lon="5.89419">
        <ele>1514</ele>
        <time>2012-08-29T08:39:32Z</time>
      </trkpt>
      <trkpt lat="45.38137" lon="5.89423">
        <ele>1513.6</ele>
        <time>2012-08-29T08:39:35Z</time>
      </trkpt>
      <trkpt lat="45.38149" lon="5.89433">
        <ele>1513</ele>
        <time>2012-08-29T08:39:41Z</time>
      </trkpt>
      <trkpt lat="45.38152" lon="5.89435">
        <ele>1512.8</ele>
        <time>2012-08-29T08:39:42Z</time>
      </trkpt>
      <trkpt lat="45.38167" lon="5.89439">
        <ele>1512</ele>
        <time>2012-08-29T08:39:48Z</time>
      </trkpt>
      <trkpt lat="45.38169" lon="5.89439">
        <ele>1511.8</ele>
        <time>2012-08-29T08:39:49Z</time>
      </trkpt>
      <trkpt lat="45.3818" lon="5.89441">
        <ele>1511</ele>
        <time>2012-08-29T08:39:54Z</time>
      </trkpt>
      <trkpt lat="45.38188" lon="5.89443">
        <ele>1510</ele>
        <time>2012-08-29T08:39:59Z</time>
      </trkpt>
      <trkpt lat="45.38191" lon="5.89443">
        <ele>1509.8</ele>
        <time>2012-08-29T08:40:01Z</time>
      </trkpt>
      <trkpt lat="45.382" lon="5.89448">
        <ele>1509.2</ele>
        <time>2012-08-29T08:40:05Z</time>
      </trkpt>
      <trkpt lat="45.38202" lon="5.89449">
        <ele>1509</ele>
        <time>2012-08-29T08:40:06Z</time>
      </trkpt>
      <trkpt lat="45.38211" lon="5.89455">
        <ele>1508.2</ele>
        <time>2012-08-29T08:40:10Z</time>
      </trkpt>
      <trkpt lat="45.38223" lon="5.89458">
        <ele>1507.6</ele>
        <time>2012-08-29T08:40:15Z</time>
      </trkpt>
      <trkpt lat="45.38233" lon="5.89463">
        <ele>1507.2</ele>
        <time>2012-08-29T08:40:20Z</time>
      </trkpt>
      <trkpt lat="45.38236" lon="5.89464">
        <ele>1507.2</ele>
        <time>2012-08-29T08:40:21Z</time>
      </trkpt>
      <trkpt lat="45.38241" lon="5.89464">
        <ele>1507</ele>
        <time>2012-08-29T08:40:23Z</time>
      </trkpt>
      <trkpt lat="45.38253" lon="5.89468">
        <ele>1506</ele>
        <time>2012-08-29T08:40:28Z</time>
      </trkpt>
      <trkpt lat="45.3826" lon="5.89469">
        <ele>1505.6</ele>
        <time>2012-08-29T08:40:31Z</time>
      </trkpt>
      <trkpt lat="45.38264" lon="5.8947">
        <ele>1505.4</ele>
        <time>2012-08-29T08:40:33Z</time>
      </trkpt>
      <trkpt lat="45.38273" lon="5.89473">
        <ele>1505.2</ele>
        <time>2012-08-29T08:40:37Z</time>
      </trkpt>
      <trkpt lat="45.38281" lon="5.89475">
        <ele>1505</ele>
        <time>2012-08-29T08:40:41Z</time>
      </trkpt>
      <trkpt lat="45.38286" lon="5.89478">
        <ele>1505</ele>
        <time>2012-08-29T08:40:43Z</time>
      </trkpt>
      <trkpt lat="45.38297" lon="5.89481">
        <ele>1504.6</ele>
        <time>2012-08-29T08:40:48Z</time>
      </trkpt>
      <trkpt lat="45.38307" lon="5.89483">
        <ele>1503.8</ele>
        <time>2012-08-29T08:40:54Z</time>
      </trkpt>
      <trkpt lat="45.38321" lon="5.8949">
        <ele>1503.2</ele>
        <time>2012-08-29T08:41:00Z</time>
      </trkpt>
      <trkpt lat="45.38333" lon="5.89498">
        <ele>1502.2</ele>
        <time>2012-08-29T08:41:05Z</time>
      </trkpt>
      <trkpt lat="45.38343" lon="5.89508">
        <ele>1501.6</ele>
        <time>2012-08-29T08:41:10Z</time>
      </trkpt>
      <trkpt lat="45.38344" lon="5.89509">
        <ele>1501.4</ele>
        <time>2012-08-29T08:41:11Z</time>
      </trkpt>
      <trkpt lat="45.38352" lon="5.89513">
        <ele>1500.4</ele>
        <time>2012-08-29T08:41:15Z</time>
      </trkpt>
      <trkpt lat="45.3836" lon="5.89515">
        <ele>1499.8</ele>
        <time>2012-08-29T08:41:19Z</time>
      </trkpt>
      <trkpt lat="45.38364" lon="5.89517">
        <ele>1499.4</ele>
        <time>2012-08-29T08:41:21Z</time>
      </trkpt>
      <trkpt lat="45.38376" lon="5.89525">
        <ele>1499</ele>
        <time>2012-08-29T08:41:27Z</time>
      </trkpt>
      <trkpt lat="45.3838" lon="5.89527">
        <ele>1498.8</ele>
        <time>2012-08-29T08:41:29Z</time>
      </trkpt>
      <trkpt lat="45.38388" lon="5.89533">
        <ele>1498</ele>
        <time>2012-08-29T08:41:34Z</time>
      </trkpt>
      <trkpt lat="45.38397" lon="5.89539">
        <ele>1497.4</ele>
        <time>2012-08-29T08:41:38Z</time>
      </trkpt>
      <trkpt lat="45.38401" lon="5.89544">
        <ele>1497.2</ele>
        <time>2012-08-29T08:41:40Z</time>
      </trkpt>
      <trkpt lat="45.38404" lon="5.89546">
        <ele>1497.2</ele>
        <time>2012-08-29T08:41:42Z</time>
      </trkpt>
      <trkpt lat="45.38415" lon="5.89551">
        <ele>1496.8</ele>
        <time>2012-08-29T08:41:46Z</time>
      </trkpt>
      <trkpt lat="45.38424" lon="5.89557">
        <ele>1496.8</ele>
        <time>2012-08-29T08:41:50Z</time>
      </trkpt>
      <trkpt lat="45.38431" lon="5.89562">
        <ele>1496.2</ele>
        <time>2012-08-29T08:41:54Z</time>
      </trkpt>
      <trkpt lat="45.38435" lon="5.89565">
        <ele>1495.8</ele>
        <time>2012-08-29T08:41:56Z</time>
      </trkpt>
      <trkpt lat="45.38445" lon="5.89569">
        <ele>1495.2</ele>
        <time>2012-08-29T08:42:02Z</time>
      </trkpt>
      <trkpt lat="45.38447" lon="5.8957">
        <ele>1495.2</ele>
        <time>2012-08-29T08:42:03Z</time>
      </trkpt>
      <trkpt lat="45.38453" lon="5.89571">
        <ele>1494.8</ele>
        <time>2012-08-29T08:42:08Z</time>
      </trkpt>
      <trkpt lat="45.38454" lon="5.89571">
        <ele>1494.8</ele>
        <time>2012-08-29T08:42:09Z</time>
      </trkpt>
      <trkpt lat="45.38455" lon="5.89572">
        <ele>1494.8</ele>
        <time>2012-08-29T08:42:10Z</time>
      </trkpt>
      <trkpt lat="45.38459" lon="5.89572">
        <ele>1493.8</ele>
        <time>2012-08-29T08:42:16Z</time>
      </trkpt>
      <trkpt lat="45.38465" lon="5.89575">
        <ele>1492.8</ele>
        <time>2012-08-29T08:42:26Z</time>
      </trkpt>
      <trkpt lat="45.38465" lon="5.89576">
        <ele>1492.8</ele>
        <time>2012-08-29T08:42:27Z</time>
      </trkpt>
      <trkpt lat="45.38469" lon="5.89577">
        <ele>1492.8</ele>
        <time>2012-08-29T08:42:30Z</time>
      </trkpt>
      <trkpt lat="45.38473" lon="5.89575">
        <ele>1492.6</ele>
        <time>2012-08-29T08:42:35Z</time>
      </trkpt>
      <trkpt lat="45.38475" lon="5.89576">
        <ele>1492.6</ele>
        <time>2012-08-29T08:42:36Z</time>
      </trkpt>
      <trkpt lat="45.3848" lon="5.89577">
        <ele>1492.4</ele>
        <time>2012-08-29T08:42:40Z</time>
      </trkpt>
      <trkpt lat="45.38486" lon="5.89578">
        <ele>1492.4</ele>
        <time>2012-08-29T08:42:52Z</time>
      </trkpt>
      <trkpt lat="45.3849" lon="5.89578">
        <ele>1492.4</ele>
        <time>2012-08-29T08:42:55Z</time>
      </trkpt>
      <trkpt lat="45.38496" lon="5.89575">
        <ele>1492.4</ele>
        <time>2012-08-29T08:42:59Z</time>
      </trkpt>
      <trkpt lat="45.38501" lon="5.89578">
        <ele>1492.4</ele>
        <time>2012-08-29T08:43:02Z</time>
      </trkpt>
      <trkpt lat="45.3851" lon="5.89582">
        <ele>1492.4</ele>
        <time>2012-08-29T08:43:07Z</time>
      </trkpt>
      <trkpt lat="45.38512" lon="5.89582">
        <ele>1492.4</ele>
        <time>2012-08-29T08:43:08Z</time>
      </trkpt>
      <trkpt lat="45.38514" lon="5.89583">
        <ele>1492.4</ele>
        <time>2012-08-29T08:43:09Z</time>
      </trkpt>
      <trkpt lat="45.38518" lon="5.89586">
        <ele>1492.4</ele>
        <time>2012-08-29T08:43:11Z</time>
      </trkpt>
      <trkpt lat="45.3852" lon="5.89594">
        <ele>1492.4</ele>
        <time>2012-08-29T08:43:17Z</time>
      </trkpt>
      <trkpt lat="45.38519" lon="5.89597">
        <ele>1492.4</ele>
        <time>2012-08-29T08:43:31Z</time>
      </trkpt>
      <trkpt lat="45.38524" lon="5.89604">
        <ele>1492.4</ele>
        <time>2012-08-29T08:43:35Z</time>
      </trkpt>
      <trkpt lat="45.38533" lon="5.89607">
        <ele>1492.4</ele>
        <time>2012-08-29T08:43:39Z</time>
      </trkpt>
      <trkpt lat="45.38544" lon="5.89616">
        <ele>1492.4</ele>
        <time>2012-08-29T08:43:44Z</time>
      </trkpt>
      <trkpt lat="45.3855" lon="5.89619">
        <ele>1492.4</ele>
        <time>2012-08-29T08:43:48Z</time>
      </trkpt>
      <trkpt lat="45.38554" lon="5.89621">
        <ele>1492.4</ele>
        <time>2012-08-29T08:43:50Z</time>
      </trkpt>
      <trkpt lat="45.38565" lon="5.89625">
        <ele>1492.4</ele>
        <time>2012-08-29T08:43:56Z</time>
      </trkpt>
      <trkpt lat="45.38566" lon="5.89626">
        <ele>1492.4</ele>
        <time>2012-08-29T08:43:57Z</time>
      </trkpt>
      <trkpt lat="45.38573" lon="5.8963">
        <ele>1493</ele>
        <time>2012-08-29T08:44:02Z</time>
      </trkpt>
      <trkpt lat="45.38578" lon="5.89629">
        <ele>1493.4</ele>
        <time>2012-08-29T08:44:05Z</time>
      </trkpt>
      <trkpt lat="45.38585" lon="5.89618">
        <ele>1494</ele>
        <time>2012-08-29T08:44:11Z</time>
      </trkpt>
      <trkpt lat="45.38593" lon="5.89622">
        <ele>1494</ele>
        <time>2012-08-29T08:44:14Z</time>
      </trkpt>
      <trkpt lat="45.38595" lon="5.89624">
        <ele>1494</ele>
        <time>2012-08-29T08:44:15Z</time>
      </trkpt>
      <trkpt lat="45.38602" lon="5.89635">
        <ele>1494.2</ele>
        <time>2012-08-29T08:44:19Z</time>
      </trkpt>
      <trkpt lat="45.38608" lon="5.89637">
        <ele>1494.2</ele>
        <time>2012-08-29T08:44:23Z</time>
      </trkpt>
      <trkpt lat="45.3862" lon="5.89645">
        <ele>1494.4</ele>
        <time>2012-08-29T08:44:29Z</time>
      </trkpt>
      <trkpt lat="45.3862" lon="5.89646">
        <ele>1494.4</ele>
        <time>2012-08-29T08:44:30Z</time>
      </trkpt>
      <trkpt lat="45.38619" lon="5.89653">
        <ele>1493.8</ele>
        <time>2012-08-29T08:44:34Z</time>
      </trkpt>
      <trkpt lat="45.38619" lon="5.89654">
        <ele>1493.6</ele>
        <time>2012-08-29T08:44:35Z</time>
      </trkpt>
      <trkpt lat="45.38619" lon="5.89656">
        <ele>1493.6</ele>
        <time>2012-08-29T08:44:36Z</time>
      </trkpt>
      <trkpt lat="45.38624" lon="5.8966">
        <ele>1493.2</ele>
        <time>2012-08-29T08:44:40Z</time>
      </trkpt>
      <trkpt lat="45.38629" lon="5.89658">
        <ele>1493</ele>
        <time>2012-08-29T08:44:44Z</time>
      </trkpt>
      <trkpt lat="45.38633" lon="5.89658">
        <ele>1492.2</ele>
        <time>2012-08-29T08:44:48Z</time>
      </trkpt>
      <trkpt lat="45.38634" lon="5.89661">
        <ele>1491.8</ele>
        <time>2012-08-29T08:44:50Z</time>
      </trkpt>
      <trkpt lat="45.38635" lon="5.89663">
        <ele>1491.4</ele>
        <time>2012-08-29T08:44:52Z</time>
      </trkpt>
      <trkpt lat="45.38638" lon="5.89666">
        <ele>1491</ele>
        <time>2012-08-29T08:44:56Z</time>
      </trkpt>
      <trkpt lat="45.38642" lon="5.89674">
        <ele>1490.8</ele>
        <time>2012-08-29T08:45:01Z</time>
      </trkpt>
      <trkpt lat="45.38643" lon="5.89677">
        <ele>1490.4</ele>
        <time>2012-08-29T08:45:03Z</time>
      </trkpt>
      <trkpt lat="45.38651" lon="5.89686">
        <ele>1489.2</ele>
        <time>2012-08-29T08:45:10Z</time>
      </trkpt>
      <trkpt lat="45.38662" lon="5.89693">
        <ele>1488.8</ele>
        <time>2012-08-29T08:45:15Z</time>
      </trkpt>
      <trkpt lat="45.3867" lon="5.89698">
        <ele>1488.6</ele>
        <time>2012-08-29T08:45:19Z</time>
      </trkpt>
      <trkpt lat="45.38671" lon="5.89699">
        <ele>1488.6</ele>
        <time>2012-08-29T08:45:20Z</time>
      </trkpt>
      <trkpt lat="45.38676" lon="5.89704">
        <ele>1488.4</ele>
        <time>2012-08-29T08:45:25Z</time>
      </trkpt>
      <trkpt lat="45.38677" lon="5.89704">
        <ele>1488.4</ele>
        <time>2012-08-29T08:45:26Z</time>
      </trkpt>
      <trkpt lat="45.3868" lon="5.89708">
        <ele>1488.4</ele>
        <time>2012-08-29T08:45:29Z</time>
      </trkpt>
      <trkpt lat="45.38691" lon="5.89711">
        <ele>1488.2</ele>
        <time>2012-08-29T08:45:35Z</time>
      </trkpt>
      <trkpt lat="45.38697" lon="5.89719">
        <ele>1488.2</ele>
        <time>2012-08-29T08:45:40Z</time>
      </trkpt>
      <trkpt lat="45.38704" lon="5.89725">
        <ele>1488.2</ele>
        <time>2012-08-29T08:45:45Z</time>
      </trkpt>
      <trkpt lat="45.38705" lon="5.89728">
        <ele>1488.2</ele>
        <time>2012-08-29T08:45:47Z</time>
      </trkpt>
      <trkpt lat="45.38713" lon="5.89739">
        <ele>1488.2</ele>
        <time>2012-08-29T08:45:53Z</time>
      </trkpt>
      <trkpt lat="45.38715" lon="5.89739">
        <ele>1488.2</ele>
        <time>2012-08-29T08:45:54Z</time>
      </trkpt>
      <trkpt lat="45.38722" lon="5.89743">
        <ele>1488.2</ele>
        <time>2012-08-29T08:45:58Z</time>
      </trkpt>
      <trkpt lat="45.38729" lon="5.89749">
        <ele>1488.2</ele>
        <time>2012-08-29T08:46:03Z</time>
      </trkpt>
      <trkpt lat="45.38732" lon="5.89753">
        <ele>1488.2</ele>
        <time>2012-08-29T08:46:08Z</time>
      </trkpt>
      <trkpt lat="45.38737" lon="5.89758">
        <ele>1488.2</ele>
        <time>2012-08-29T08:46:13Z</time>
      </trkpt>
      <trkpt lat="45.38742" lon="5.89761">
        <ele>1488.2</ele>
        <time>2012-08-29T08:46:17Z</time>
      </trkpt>
      <trkpt lat="45.38745" lon="5.89762">
        <ele>1488.2</ele>
        <time>2012-08-29T08:46:19Z</time>
      </trkpt>
      <trkpt lat="45.38749" lon="5.89763">
        <ele>1488.2</ele>
        <time>2012-08-29T08:46:22Z</time>
      </trkpt>
      <trkpt lat="45.38752" lon="5.89766">
        <ele>1488.2</ele>
        <time>2012-08-29T08:46:24Z</time>
      </trkpt>
      <trkpt lat="45.3876" lon="5.89778">
        <ele>1488.8</ele>
        <time>2012-08-29T08:46:30Z</time>
      </trkpt>
      <trkpt lat="45.38765" lon="5.89784">
        <ele>1489.2</ele>
        <time>2012-08-29T08:46:33Z</time>
      </trkpt>
      <trkpt lat="45.38771" lon="5.89787">
        <ele>1489.4</ele>
        <time>2012-08-29T08:46:36Z</time>
      </trkpt>
      <trkpt lat="45.38776" lon="5.89795">
        <ele>1490.4</ele>
        <time>2012-08-29T08:46:41Z</time>
      </trkpt>
      <trkpt lat="45.38778" lon="5.89801">
        <ele>1491</ele>
        <time>2012-08-29T08:46:45Z</time>
      </trkpt>
      <trkpt lat="45.38779" lon="5.89802">
        <ele>1491.2</ele>
        <time>2012-08-29T08:46:46Z</time>
      </trkpt>
      <trkpt lat="45.38785" lon="5.89809">
        <ele>1491.8</ele>
        <time>2012-08-29T08:46:50Z</time>
      </trkpt>
      <trkpt lat="45.38791" lon="5.8982">
        <ele>1492.8</ele>
        <time>2012-08-29T08:46:55Z</time>
      </trkpt>
      <trkpt lat="45.38792" lon="5.89821">
        <ele>1493</ele>
        <time>2012-08-29T08:46:56Z</time>
      </trkpt>
      <trkpt lat="45.388" lon="5.89828">
        <ele>1494</ele>
        <time>2012-08-29T08:47:00Z</time>
      </trkpt>
      <trkpt lat="45.3881" lon="5.89838">
        <ele>1495</ele>
        <time>2012-08-29T08:47:05Z</time>
      </trkpt>
      <trkpt lat="45.38811" lon="5.8984">
        <ele>1495.4</ele>
        <time>2012-08-29T08:47:06Z</time>
      </trkpt>
      <trkpt lat="45.38817" lon="5.89848">
        <ele>1496.4</ele>
        <time>2012-08-29T08:47:10Z</time>
      </trkpt>
      <trkpt lat="45.38819" lon="5.89849">
        <ele>1496.6</ele>
        <time>2012-08-29T08:47:11Z</time>
      </trkpt>
      <trkpt lat="45.38826" lon="5.89855">
        <ele>1497.6</ele>
        <time>2012-08-29T08:47:15Z</time>
      </trkpt>
      <trkpt lat="45.38837" lon="5.89867">
        <ele>1499</ele>
        <time>2012-08-29T08:47:21Z</time>
      </trkpt>
      <trkpt lat="45.38839" lon="5.8987">
        <ele>1499.2</ele>
        <time>2012-08-29T08:47:22Z</time>
      </trkpt>
      <trkpt lat="45.38841" lon="5.8988">
        <ele>1500.6</ele>
        <time>2012-08-29T08:47:28Z</time>
      </trkpt>
      <trkpt lat="45.38842" lon="5.89881">
        <ele>1500.8</ele>
        <time>2012-08-29T08:47:29Z</time>
      </trkpt>
      <trkpt lat="45.38852" lon="5.89884">
        <ele>1501.6</ele>
        <time>2012-08-29T08:47:34Z</time>
      </trkpt>
      <trkpt lat="45.38855" lon="5.89884">
        <ele>1502.2</ele>
        <time>2012-08-29T08:47:37Z</time>
      </trkpt>
      <trkpt lat="45.38859" lon="5.89887">
        <ele>1503</ele>
        <time>2012-08-29T08:47:40Z</time>
      </trkpt>
      <trkpt lat="45.38865" lon="5.89891">
        <ele>1503.6</ele>
        <time>2012-08-29T08:47:44Z</time>
      </trkpt>
      <trkpt lat="45.38866" lon="5.89893">
        <ele>1503.8</ele>
        <time>2012-08-29T08:47:45Z</time>
      </trkpt>
      <trkpt lat="45.38875" lon="5.89895">
        <ele>1504.4</ele>
        <time>2012-08-29T08:47:50Z</time>
      </trkpt>
      <trkpt lat="45.38881" lon="5.89898">
        <ele>1504.4</ele>
        <time>2012-08-29T08:47:53Z</time>
      </trkpt>
      <trkpt lat="45.38893" lon="5.89899">
        <ele>1504.8</ele>
        <time>2012-08-29T08:47:59Z</time>
      </trkpt>
      <trkpt lat="45.38896" lon="5.899">
        <ele>1505.2</ele>
        <time>2012-08-29T08:48:01Z</time>
      </trkpt>
      <trkpt lat="45.38905" lon="5.89898">
        <ele>1505.8</ele>
        <time>2012-08-29T08:48:05Z</time>
      </trkpt>
      <trkpt lat="45.38908" lon="5.89898">
        <ele>1506</ele>
        <time>2012-08-29T08:48:07Z</time>
      </trkpt>
      <trkpt lat="45.38922" lon="5.89905">
        <ele>1506.6</ele>
        <time>2012-08-29T08:48:14Z</time>
      </trkpt>
      <trkpt lat="45.38931" lon="5.8991">
        <ele>1506.8</ele>
        <time>2012-08-29T08:48:19Z</time>
      </trkpt>
      <trkpt lat="45.38938" lon="5.89922">
        <ele>1506.8</ele>
        <time>2012-08-29T08:48:25Z</time>
      </trkpt>
      <trkpt lat="45.38941" lon="5.89928">
        <ele>1507</ele>
        <time>2012-08-29T08:48:28Z</time>
      </trkpt>
      <trkpt lat="45.38951" lon="5.89934">
        <ele>1507</ele>
        <time>2012-08-29T08:48:34Z</time>
      </trkpt>
      <trkpt lat="45.38953" lon="5.89935">
        <ele>1507</ele>
        <time>2012-08-29T08:48:35Z</time>
      </trkpt>
      <trkpt lat="45.38956" lon="5.8994">
        <ele>1507</ele>
        <time>2012-08-29T08:48:37Z</time>
      </trkpt>
      <trkpt lat="45.38961" lon="5.89949">
        <ele>1507</ele>
        <time>2012-08-29T08:48:42Z</time>
      </trkpt>
      <trkpt lat="45.38963" lon="5.89951">
        <ele>1507</ele>
        <time>2012-08-29T08:48:43Z</time>
      </trkpt>
      <trkpt lat="45.38964" lon="5.89954">
        <ele>1507</ele>
        <time>2012-08-29T08:48:45Z</time>
      </trkpt>
      <trkpt lat="45.38967" lon="5.89958">
        <ele>1507</ele>
        <time>2012-08-29T08:48:49Z</time>
      </trkpt>
      <trkpt lat="45.38968" lon="5.89961">
        <ele>1507.2</ele>
        <time>2012-08-29T08:48:51Z</time>
      </trkpt>
      <trkpt lat="45.3897" lon="5.89966">
        <ele>1507.8</ele>
        <time>2012-08-29T08:48:55Z</time>
      </trkpt>
      <trkpt lat="45.38971" lon="5.89967">
        <ele>1508</ele>
        <time>2012-08-29T08:48:56Z</time>
      </trkpt>
      <trkpt lat="45.38973" lon="5.89967">
        <ele>1508.2</ele>
        <time>2012-08-29T08:48:58Z</time>
      </trkpt>
      <trkpt lat="45.38977" lon="5.8997">
        <ele>1508.4</ele>
        <time>2012-08-29T08:49:01Z</time>
      </trkpt>
      <trkpt lat="45.38988" lon="5.89969">
        <ele>1508.6</ele>
        <time>2012-08-29T08:49:06Z</time>
      </trkpt>
      <trkpt lat="45.38995" lon="5.89969">
        <ele>1509</ele>
        <time>2012-08-29T08:49:10Z</time>
      </trkpt>
      <trkpt lat="45.39005" lon="5.89976">
        <ele>1510</ele>
        <time>2012-08-29T08:49:16Z</time>
      </trkpt>
      <trkpt lat="45.39008" lon="5.89976">
        <ele>1510.2</ele>
        <time>2012-08-29T08:49:18Z</time>
      </trkpt>
      <trkpt lat="45.39011" lon="5.89974">
        <ele>1510.4</ele>
        <time>2012-08-29T08:49:20Z</time>
      </trkpt>
      <trkpt lat="45.39022" lon="5.89968">
        <ele>1510.8</ele>
        <time>2012-08-29T08:49:26Z</time>
      </trkpt>
      <trkpt lat="45.39029" lon="5.89961">
        <ele>1511</ele>
        <time>2012-08-29T08:49:30Z</time>
      </trkpt>
      <trkpt lat="45.39043" lon="5.89961">
        <ele>1511.2</ele>
        <time>2012-08-29T08:49:36Z</time>
      </trkpt>
      <trkpt lat="45.39054" lon="5.89965">
        <ele>1512.2</ele>
        <time>2012-08-29T08:49:42Z</time>
      </trkpt>
      <trkpt lat="45.39062" lon="5.89959">
        <ele>1512.6</ele>
        <time>2012-08-29T08:49:46Z</time>
      </trkpt>
      <trkpt lat="45.39068" lon="5.89955">
        <ele>1512.8</ele>
        <time>2012-08-29T08:49:49Z</time>
      </trkpt>
      <trkpt lat="45.39076" lon="5.89953">
        <ele>1513.4</ele>
        <time>2012-08-29T08:49:53Z</time>
      </trkpt>
      <trkpt lat="45.39077" lon="5.89957">
        <ele>1514.2</ele>
        <time>2012-08-29T08:49:59Z</time>
      </trkpt>
      <trkpt lat="45.39075" lon="5.8996">
        <ele>1514.6</ele>
        <time>2012-08-29T08:50:02Z</time>
      </trkpt>
      <trkpt lat="45.39075" lon="5.89967">
        <ele>1514.8</ele>
        <time>2012-08-29T08:50:07Z</time>
      </trkpt>
      <trkpt lat="45.39074" lon="5.89969">
        <ele>1516</ele>
        <time>2012-08-29T08:50:16Z</time>
      </trkpt>
      <trkpt lat="45.39074" lon="5.89969">
        <ele>1516.4</ele>
        <time>2012-08-29T08:50:20Z</time>
      </trkpt>
      <trkpt lat="45.39073" lon="5.89974">
        <ele>1517.2</ele>
        <time>2012-08-29T08:50:44Z</time>
      </trkpt>
      <trkpt lat="45.39072" lon="5.89975">
        <ele>1517.2</ele>
        <time>2012-08-29T08:50:45Z</time>
      </trkpt>
      <trkpt lat="45.39067" lon="5.89982">
        <ele>1517.2</ele>
        <time>2012-08-29T08:50:52Z</time>
      </trkpt>
      <trkpt lat="45.39064" lon="5.89989">
        <ele>1518.2</ele>
        <time>2012-08-29T08:50:59Z</time>
      </trkpt>
      <trkpt lat="45.39064" lon="5.89996">
        <ele>1518.8</ele>
        <time>2012-08-29T08:51:06Z</time>
      </trkpt>
      <trkpt lat="45.3907" lon="5.89995">
        <ele>1519</ele>
        <time>2012-08-29T08:51:12Z</time>
      </trkpt>
      <trkpt lat="45.39071" lon="5.89994">
        <ele>1519</ele>
        <time>2012-08-29T08:51:13Z</time>
      </trkpt>
      <trkpt lat="45.39075" lon="5.89992">
        <ele>1519.2</ele>
        <time>2012-08-29T08:51:20Z</time>
      </trkpt>
      <trkpt lat="45.3908" lon="5.89989">
        <ele>1519.8</ele>
        <time>2012-08-29T08:51:26Z</time>
      </trkpt>
      <trkpt lat="45.39091" lon="5.89982">
        <ele>1520.6</ele>
        <time>2012-08-29T08:51:32Z</time>
      </trkpt>
      <trkpt lat="45.39097" lon="5.89979">
        <ele>1520.8</ele>
        <time>2012-08-29T08:51:37Z</time>
      </trkpt>
      <trkpt lat="45.39102" lon="5.89974">
        <ele>1521.8</ele>
        <time>2012-08-29T08:51:43Z</time>
      </trkpt>
      <trkpt lat="45.39103" lon="5.89972">
        <ele>1522</ele>
        <time>2012-08-29T08:51:44Z</time>
      </trkpt>
      <trkpt lat="45.39109" lon="5.89967">
        <ele>1522.4</ele>
        <time>2012-08-29T08:51:47Z</time>
      </trkpt>
      <trkpt lat="45.39112" lon="5.89965">
        <ele>1522.6</ele>
        <time>2012-08-29T08:51:49Z</time>
      </trkpt>
      <trkpt lat="45.39119" lon="5.89956">
        <ele>1523.2</ele>
        <time>2012-08-29T08:51:54Z</time>
      </trkpt>
      <trkpt lat="45.39129" lon="5.8995">
        <ele>1524.2</ele>
        <time>2012-08-29T08:51:59Z</time>
      </trkpt>
      <trkpt lat="45.39136" lon="5.89945">
        <ele>1524.4</ele>
        <time>2012-08-29T08:52:02Z</time>
      </trkpt>
      <trkpt lat="45.39146" lon="5.89938">
        <ele>1524.8</ele>
        <time>2012-08-29T08:52:07Z</time>
      </trkpt>
      <trkpt lat="45.39156" lon="5.89928">
        <ele>1525.8</ele>
        <time>2012-08-29T08:52:12Z</time>
      </trkpt>
      <trkpt lat="45.3916" lon="5.8992">
        <ele>1526.2</ele>
        <time>2012-08-29T08:52:15Z</time>
      </trkpt>
      <trkpt lat="45.39171" lon="5.8991">
        <ele>1527</ele>
        <time>2012-08-29T08:52:21Z</time>
      </trkpt>
      <trkpt lat="45.39172" lon="5.89909">
        <ele>1527.4</ele>
        <time>2012-08-29T08:52:22Z</time>
      </trkpt>
      <trkpt lat="45.39185" lon="5.89909">
        <ele>1528.2</ele>
        <time>2012-08-29T08:52:27Z</time>
      </trkpt>
      <trkpt lat="45.39205" lon="5.89908">
        <ele>1529</ele>
        <time>2012-08-29T08:52:34Z</time>
      </trkpt>
      <trkpt lat="45.3922" lon="5.89907">
        <ele>1529.2</ele>
        <time>2012-08-29T08:52:40Z</time>
      </trkpt>
      <trkpt lat="45.39233" lon="5.89903">
        <ele>1529.8</ele>
        <time>2012-08-29T08:52:45Z</time>
      </trkpt>
      <trkpt lat="45.39249" lon="5.899">
        <ele>1530.6</ele>
        <time>2012-08-29T08:52:51Z</time>
      </trkpt>
      <trkpt lat="45.39262" lon="5.89899">
        <ele>1531</ele>
        <time>2012-08-29T08:52:57Z</time>
      </trkpt>
      <trkpt lat="45.39274" lon="5.89898">
        <ele>1531.8</ele>
        <time>2012-08-29T08:53:02Z</time>
      </trkpt>
      <trkpt lat="45.39288" lon="5.899">
        <ele>1532.8</ele>
        <time>2012-08-29T08:53:08Z</time>
      </trkpt>
      <trkpt lat="45.393" lon="5.89904">
        <ele>1533.2</ele>
        <time>2012-08-29T08:53:13Z</time>
      </trkpt>
      <trkpt lat="45.39315" lon="5.89909">
        <ele>1533.4</ele>
        <time>2012-08-29T08:53:19Z</time>
      </trkpt>
      <trkpt lat="45.39325" lon="5.89913">
        <ele>1533.4</ele>
        <time>2012-08-29T08:53:23Z</time>
      </trkpt>
      <trkpt lat="45.39332" lon="5.89919">
        <ele>1533.6</ele>
        <time>2012-08-29T08:53:27Z</time>
      </trkpt>
      <trkpt lat="45.39334" lon="5.89922">
        <ele>1533.6</ele>
        <time>2012-08-29T08:53:28Z</time>
      </trkpt>
      <trkpt lat="45.39339" lon="5.89932">
        <ele>1533.6</ele>
        <time>2012-08-29T08:53:31Z</time>
      </trkpt>
      <trkpt lat="45.39344" lon="5.89951">
        <ele>1533.6</ele>
        <time>2012-08-29T08:53:36Z</time>
      </trkpt>
      <trkpt lat="45.39353" lon="5.89976">
        <ele>1533.6</ele>
        <time>2012-08-29T08:53:43Z</time>
      </trkpt>
      <trkpt lat="45.39357" lon="5.89991">
        <ele>1533.6</ele>
        <time>2012-08-29T08:53:48Z</time>
      </trkpt>
      <trkpt lat="45.3936" lon="5.90005">
        <ele>1533.6</ele>
        <time>2012-08-29T08:53:53Z</time>
      </trkpt>
      <trkpt lat="45.39361" lon="5.9002">
        <ele>1533.6</ele>
        <time>2012-08-29T08:53:59Z</time>
      </trkpt>
      <trkpt lat="45.39362" lon="5.90026">
        <ele>1533.6</ele>
        <time>2012-08-29T08:54:02Z</time>
      </trkpt>
      <trkpt lat="45.39364" lon="5.90033">
        <ele>1533.6</ele>
        <time>2012-08-29T08:54:09Z</time>
      </trkpt>
      <trkpt lat="45.39364" lon="5.90034">
        <ele>1533.6</ele>
        <time>2012-08-29T08:54:20Z</time>
      </trkpt>
      <trkpt lat="45.39365" lon="5.90033">
        <ele>1533.6</ele>
        <time>2012-08-29T08:54:32Z</time>
      </trkpt>
      <trkpt lat="45.39365" lon="5.90035">
        <ele>1535.4</ele>
        <time>2012-08-29T08:55:08Z</time>
      </trkpt>
      <trkpt lat="45.39364" lon="5.90043">
        <ele>1535.4</ele>
        <time>2012-08-29T08:55:13Z</time>
      </trkpt>
      <trkpt lat="45.39364" lon="5.90057">
        <ele>1535.6</ele>
        <time>2012-08-29T08:55:18Z</time>
      </trkpt>
      <trkpt lat="45.39361" lon="5.90073">
        <ele>1535.6</ele>
        <time>2012-08-29T08:55:24Z</time>
      </trkpt>
      <trkpt lat="45.39361" lon="5.90076">
        <ele>1535.6</ele>
        <time>2012-08-29T08:55:25Z</time>
      </trkpt>
      <trkpt lat="45.39362" lon="5.90091">
        <ele>1535.6</ele>
        <time>2012-08-29T08:55:31Z</time>
      </trkpt>
      <trkpt lat="45.39364" lon="5.90106">
        <ele>1535.6</ele>
        <time>2012-08-29T08:55:36Z</time>
      </trkpt>
      <trkpt lat="45.39366" lon="5.90121">
        <ele>1535.6</ele>
        <time>2012-08-29T08:55:41Z</time>
      </trkpt>
      <trkpt lat="45.39366" lon="5.90138">
        <ele>1535.6</ele>
        <time>2012-08-29T08:55:46Z</time>
      </trkpt>
      <trkpt lat="45.39365" lon="5.90154">
        <ele>1535.8</ele>
        <time>2012-08-29T08:55:51Z</time>
      </trkpt>
      <trkpt lat="45.39365" lon="5.90166">
        <ele>1536.2</ele>
        <time>2012-08-29T08:55:56Z</time>
      </trkpt>
      <trkpt lat="45.39364" lon="5.9018">
        <ele>1537</ele>
        <time>2012-08-29T08:56:02Z</time>
      </trkpt>
      <trkpt lat="45.39363" lon="5.90187">
        <ele>1537.2</ele>
        <time>2012-08-29T08:56:05Z</time>
      </trkpt>
      <trkpt lat="45.39361" lon="5.90191">
        <ele>1537.8</ele>
        <time>2012-08-29T08:56:07Z</time>
      </trkpt>
      <trkpt lat="45.39356" lon="5.90202">
        <ele>1538.6</ele>
        <time>2012-08-29T08:56:12Z</time>
      </trkpt>
      <trkpt lat="45.39356" lon="5.90204">
        <ele>1538.6</ele>
        <time>2012-08-29T08:56:13Z</time>
      </trkpt>
      <trkpt lat="45.39355" lon="5.90206">
        <ele>1538.8</ele>
        <time>2012-08-29T08:56:14Z</time>
      </trkpt>
      <trkpt lat="45.39347" lon="5.90217">
        <ele>1540</ele>
        <time>2012-08-29T08:56:20Z</time>
      </trkpt>
      <trkpt lat="45.39342" lon="5.9022">
        <ele>1540.6</ele>
        <time>2012-08-29T08:56:24Z</time>
      </trkpt>
      <trkpt lat="45.39336" lon="5.90226">
        <ele>1541.4</ele>
        <time>2012-08-29T08:56:29Z</time>
      </trkpt>
      <trkpt lat="45.39332" lon="5.90227">
        <ele>1542</ele>
        <time>2012-08-29T08:56:32Z</time>
      </trkpt>
      <trkpt lat="45.39321" lon="5.90235">
        <ele>1542.8</ele>
        <time>2012-08-29T08:56:37Z</time>
      </trkpt>
      <trkpt lat="45.39319" lon="5.90236">
        <ele>1543</ele>
        <time>2012-08-29T08:56:38Z</time>
      </trkpt>
      <trkpt lat="45.39318" lon="5.90237">
        <ele>1543</ele>
        <time>2012-08-29T08:56:40Z</time>
      </trkpt>
      <trkpt lat="45.39315" lon="5.90238">
        <ele>1543.4</ele>
        <time>2012-08-29T08:56:46Z</time>
      </trkpt>
      <trkpt lat="45.39311" lon="5.90245">
        <ele>1543.6</ele>
        <time>2012-08-29T08:56:52Z</time>
      </trkpt>
      <trkpt lat="45.3931" lon="5.90248">
        <ele>1543.8</ele>
        <time>2012-08-29T08:56:53Z</time>
      </trkpt>
      <trkpt lat="45.39316" lon="5.90257">
        <ele>1543.8</ele>
        <time>2012-08-29T08:56:56Z</time>
      </trkpt>
      <trkpt lat="45.39317" lon="5.90259">
        <ele>1544</ele>
        <time>2012-08-29T08:56:57Z</time>
      </trkpt>
      <trkpt lat="45.39321" lon="5.90263">
        <ele>1544.4</ele>
        <time>2012-08-29T08:56:59Z</time>
      </trkpt>
      <trkpt lat="45.39327" lon="5.90272">
        <ele>1545</ele>
        <time>2012-08-29T08:57:04Z</time>
      </trkpt>
      <trkpt lat="45.3933" lon="5.90279">
        <ele>1545.2</ele>
        <time>2012-08-29T08:57:07Z</time>
      </trkpt>
      <trkpt lat="45.39333" lon="5.90288">
        <ele>1545.4</ele>
        <time>2012-08-29T08:57:10Z</time>
      </trkpt>
      <trkpt lat="45.39333" lon="5.90293">
        <ele>1545.6</ele>
        <time>2012-08-29T08:57:12Z</time>
      </trkpt>
      <trkpt lat="45.39335" lon="5.90301">
        <ele>1545.6</ele>
        <time>2012-08-29T08:57:16Z</time>
      </trkpt>
      <trkpt lat="45.39335" lon="5.90309">
        <ele>1546</ele>
        <time>2012-08-29T08:57:20Z</time>
      </trkpt>
      <trkpt lat="45.39335" lon="5.90315">
        <ele>1546.4</ele>
        <time>2012-08-29T08:57:22Z</time>
      </trkpt>
      <trkpt lat="45.39338" lon="5.90324">
        <ele>1546.8</ele>
        <time>2012-08-29T08:57:25Z</time>
      </trkpt>
      <trkpt lat="45.39343" lon="5.90339">
        <ele>1547.2</ele>
        <time>2012-08-29T08:57:31Z</time>
      </trkpt>
      <trkpt lat="45.39351" lon="5.90351">
        <ele>1548.4</ele>
        <time>2012-08-29T08:57:37Z</time>
      </trkpt>
      <trkpt lat="45.39353" lon="5.90358">
        <ele>1549</ele>
        <time>2012-08-29T08:57:41Z</time>
      </trkpt>
      <trkpt lat="45.39353" lon="5.90361">
        <ele>1549.6</ele>
        <time>2012-08-29T08:57:43Z</time>
      </trkpt>
      <trkpt lat="45.39356" lon="5.90363">
        <ele>1550</ele>
        <time>2012-08-29T08:57:46Z</time>
      </trkpt>
      <trkpt lat="45.3936" lon="5.90367">
        <ele>1550.8</ele>
        <time>2012-08-29T08:57:49Z</time>
      </trkpt>
      <trkpt lat="45.39363" lon="5.90375">
        <ele>1551.4</ele>
        <time>2012-08-29T08:57:53Z</time>
      </trkpt>
      <trkpt lat="45.39368" lon="5.90377">
        <ele>1552.8</ele>
        <time>2012-08-29T08:57:59Z</time>
      </trkpt>
      <trkpt lat="45.39369" lon="5.90378">
        <ele>1552.8</ele>
        <time>2012-08-29T08:58:00Z</time>
      </trkpt>
      <trkpt lat="45.39377" lon="5.90382">
        <ele>1553.4</ele>
        <time>2012-08-29T08:58:04Z</time>
      </trkpt>
      <trkpt lat="45.39386" lon="5.9039">
        <ele>1553.8</ele>
        <time>2012-08-29T08:58:10Z</time>
      </trkpt>
      <trkpt lat="45.39387" lon="5.9039">
        <ele>1553.8</ele>
        <time>2012-08-29T08:58:11Z</time>
      </trkpt>
      <trkpt lat="45.39391" lon="5.90397">
        <ele>1554</ele>
        <time>2012-08-29T08:58:16Z</time>
      </trkpt>
      <trkpt lat="45.39396" lon="5.90398">
        <ele>1554</ele>
        <time>2012-08-29T08:58:20Z</time>
      </trkpt>
      <trkpt lat="45.39402" lon="5.90401">
        <ele>1554</ele>
        <time>2012-08-29T08:58:23Z</time>
      </trkpt>
      <trkpt lat="45.3941" lon="5.90401">
        <ele>1553.8</ele>
        <time>2012-08-29T08:58:28Z</time>
      </trkpt>
      <trkpt lat="45.39416" lon="5.9041">
        <ele>1553</ele>
        <time>2012-08-29T08:58:33Z</time>
      </trkpt>
      <trkpt lat="45.39418" lon="5.90413">
        <ele>1553</ele>
        <time>2012-08-29T08:58:35Z</time>
      </trkpt>
      <trkpt lat="45.39425" lon="5.90425">
        <ele>1552.6</ele>
        <time>2012-08-29T08:58:40Z</time>
      </trkpt>
      <trkpt lat="45.3943" lon="5.90437">
        <ele>1552</ele>
        <time>2012-08-29T08:58:47Z</time>
      </trkpt>
      <trkpt lat="45.39432" lon="5.90439">
        <ele>1551.8</ele>
        <time>2012-08-29T08:58:48Z</time>
      </trkpt>
      <trkpt lat="45.39433" lon="5.90442">
        <ele>1551.6</ele>
        <time>2012-08-29T08:58:49Z</time>
      </trkpt>
      <trkpt lat="45.39435" lon="5.90453">
        <ele>1551</ele>
        <time>2012-08-29T08:58:53Z</time>
      </trkpt>
      <trkpt lat="45.3944" lon="5.90467">
        <ele>1550.6</ele>
        <time>2012-08-29T08:58:58Z</time>
      </trkpt>
      <trkpt lat="45.39446" lon="5.90478">
        <ele>1550.4</ele>
        <time>2012-08-29T08:59:02Z</time>
      </trkpt>
      <trkpt lat="45.39447" lon="5.90481">
        <ele>1550.4</ele>
        <time>2012-08-29T08:59:03Z</time>
      </trkpt>
      <trkpt lat="45.39451" lon="5.90485">
        <ele>1550.4</ele>
        <time>2012-08-29T08:59:05Z</time>
      </trkpt>
      <trkpt lat="45.39464" lon="5.90489">
        <ele>1550.2</ele>
        <time>2012-08-29T08:59:09Z</time>
      </trkpt>
      <trkpt lat="45.39471" lon="5.90497">
        <ele>1550</ele>
        <time>2012-08-29T08:59:13Z</time>
      </trkpt>
      <trkpt lat="45.39479" lon="5.90511">
        <ele>1549.2</ele>
        <time>2012-08-29T08:59:19Z</time>
      </trkpt>
      <trkpt lat="45.39482" lon="5.90522">
        <ele>1548.8</ele>
        <time>2012-08-29T08:59:23Z</time>
      </trkpt>
      <trkpt lat="45.39483" lon="5.90533">
        <ele>1548.6</ele>
        <time>2012-08-29T08:59:27Z</time>
      </trkpt>
      <trkpt lat="45.39483" lon="5.90535">
        <ele>1548.4</ele>
        <time>2012-08-29T08:59:28Z</time>
      </trkpt>
      <trkpt lat="45.39483" lon="5.9055">
        <ele>1548.2</ele>
        <time>2012-08-29T08:59:34Z</time>
      </trkpt>
      <trkpt lat="45.39484" lon="5.90553">
        <ele>1548.2</ele>
        <time>2012-08-29T08:59:35Z</time>
      </trkpt>
      <trkpt lat="45.39495" lon="5.9057">
        <ele>1548.2</ele>
        <time>2012-08-29T08:59:41Z</time>
      </trkpt>
      <trkpt lat="45.39499" lon="5.90574">
        <ele>1548.2</ele>
        <time>2012-08-29T08:59:43Z</time>
      </trkpt>
      <trkpt lat="45.39499" lon="5.90576">
        <ele>1548.2</ele>
        <time>2012-08-29T08:59:45Z</time>
      </trkpt>
      <trkpt lat="45.39507" lon="5.90585">
        <ele>1549</ele>
        <time>2012-08-29T08:59:50Z</time>
      </trkpt>
      <trkpt lat="45.3951" lon="5.9059">
        <ele>1549.2</ele>
        <time>2012-08-29T08:59:52Z</time>
      </trkpt>
      <trkpt lat="45.39516" lon="5.90598">
        <ele>1549.4</ele>
        <time>2012-08-29T08:59:55Z</time>
      </trkpt>
      <trkpt lat="45.39517" lon="5.90604">
        <ele>1549.6</ele>
        <time>2012-08-29T08:59:58Z</time>
      </trkpt>
      <trkpt lat="45.39523" lon="5.90613">
        <ele>1549.8</ele>
        <time>2012-08-29T09:00:03Z</time>
      </trkpt>
      <trkpt lat="45.39531" lon="5.90619">
        <ele>1549.8</ele>
        <time>2012-08-29T09:00:06Z</time>
      </trkpt>
      <trkpt lat="45.39534" lon="5.90624">
        <ele>1550</ele>
        <time>2012-08-29T09:00:08Z</time>
      </trkpt>
      <trkpt lat="45.39541" lon="5.90642">
        <ele>1550.2</ele>
        <time>2012-08-29T09:00:14Z</time>
      </trkpt>
      <trkpt lat="45.39545" lon="5.90652">
        <ele>1550.8</ele>
        <time>2012-08-29T09:00:18Z</time>
      </trkpt>
      <trkpt lat="45.39552" lon="5.90661">
        <ele>1551.4</ele>
        <time>2012-08-29T09:00:23Z</time>
      </trkpt>
      <trkpt lat="45.39556" lon="5.90665">
        <ele>1551.6</ele>
        <time>2012-08-29T09:00:25Z</time>
      </trkpt>
      <trkpt lat="45.3956" lon="5.90677">
        <ele>1551.8</ele>
        <time>2012-08-29T09:00:30Z</time>
      </trkpt>
      <trkpt lat="45.39565" lon="5.90687">
        <ele>1552</ele>
        <time>2012-08-29T09:00:35Z</time>
      </trkpt>
      <trkpt lat="45.39566" lon="5.9069">
        <ele>1552</ele>
        <time>2012-08-29T09:00:36Z</time>
      </trkpt>
      <trkpt lat="45.3957" lon="5.90696">
        <ele>1552</ele>
        <time>2012-08-29T09:00:39Z</time>
      </trkpt>
      <trkpt lat="45.39584" lon="5.90705">
        <ele>1552</ele>
        <time>2012-08-29T09:00:44Z</time>
      </trkpt>
      <trkpt lat="45.39599" lon="5.90719">
        <ele>1552</ele>
        <time>2012-08-29T09:00:50Z</time>
      </trkpt>
      <trkpt lat="45.39609" lon="5.90729">
        <ele>1552</ele>
        <time>2012-08-29T09:00:55Z</time>
      </trkpt>
      <trkpt lat="45.39616" lon="5.90735">
        <ele>1552</ele>
        <time>2012-08-29T09:00:59Z</time>
      </trkpt>
      <trkpt lat="45.3962" lon="5.90738">
        <ele>1552.2</ele>
        <time>2012-08-29T09:01:02Z</time>
      </trkpt>
      <trkpt lat="45.39627" lon="5.90738">
        <ele>1552.2</ele>
        <time>2012-08-29T09:01:06Z</time>
      </trkpt>
      <trkpt lat="45.39634" lon="5.90735">
        <ele>1552.2</ele>
        <time>2012-08-29T09:01:10Z</time>
      </trkpt>
      <trkpt lat="45.39643" lon="5.90732">
        <ele>1552.2</ele>
        <time>2012-08-29T09:01:14Z</time>
      </trkpt>
      <trkpt lat="45.39652" lon="5.90726">
        <ele>1552.2</ele>
        <time>2012-08-29T09:01:19Z</time>
      </trkpt>
      <trkpt lat="45.39664" lon="5.90723">
        <ele>1552.2</ele>
        <time>2012-08-29T09:01:24Z</time>
      </trkpt>
      <trkpt lat="45.39667" lon="5.90723">
        <ele>1552.2</ele>
        <time>2012-08-29T09:01:25Z</time>
      </trkpt>
      <trkpt lat="45.39672" lon="5.90716">
        <ele>1552.2</ele>
        <time>2012-08-29T09:01:29Z</time>
      </trkpt>
      <trkpt lat="45.39676" lon="5.90713">
        <ele>1552.2</ele>
        <time>2012-08-29T09:01:31Z</time>
      </trkpt>
      <trkpt lat="45.39694" lon="5.90713">
        <ele>1552.2</ele>
        <time>2012-08-29T09:01:37Z</time>
      </trkpt>
      <trkpt lat="45.39704" lon="5.90713">
        <ele>1551.8</ele>
        <time>2012-08-29T09:01:40Z</time>
      </trkpt>
      <trkpt lat="45.39711" lon="5.9072">
        <ele>1551.2</ele>
        <time>2012-08-29T09:01:44Z</time>
      </trkpt>
      <trkpt lat="45.39718" lon="5.90722">
        <ele>1550.8</ele>
        <time>2012-08-29T09:01:48Z</time>
      </trkpt>
      <trkpt lat="45.39725" lon="5.90721">
        <ele>1550.2</ele>
        <time>2012-08-29T09:01:52Z</time>
      </trkpt>
      <trkpt lat="45.39734" lon="5.9072">
        <ele>1549.4</ele>
        <time>2012-08-29T09:01:56Z</time>
      </trkpt>
      <trkpt lat="45.39735" lon="5.90719">
        <ele>1549.2</ele>
        <time>2012-08-29T09:01:57Z</time>
      </trkpt>
      <trkpt lat="45.39752" lon="5.90719">
        <ele>1548.2</ele>
        <time>2012-08-29T09:02:03Z</time>
      </trkpt>
      <trkpt lat="45.39765" lon="5.90723">
        <ele>1547</ele>
        <time>2012-08-29T09:02:08Z</time>
      </trkpt>
      <trkpt lat="45.39775" lon="5.90722">
        <ele>1546.4</ele>
        <time>2012-08-29T09:02:12Z</time>
      </trkpt>
      <trkpt lat="45.39776" lon="5.90722">
        <ele>1546</ele>
        <time>2012-08-29T09:02:13Z</time>
      </trkpt>
      <trkpt lat="45.39784" lon="5.90721">
        <ele>1545</ele>
        <time>2012-08-29T09:02:18Z</time>
      </trkpt>
      <trkpt lat="45.39787" lon="5.90721">
        <ele>1544.8</ele>
        <time>2012-08-29T09:02:20Z</time>
      </trkpt>
      <trkpt lat="45.39789" lon="5.90721">
        <ele>1544.2</ele>
        <time>2012-08-29T09:02:22Z</time>
      </trkpt>
      <trkpt lat="45.39801" lon="5.90717">
        <ele>1543</ele>
        <time>2012-08-29T09:02:27Z</time>
      </trkpt>
      <trkpt lat="45.39809" lon="5.90715">
        <ele>1542.4</ele>
        <time>2012-08-29T09:02:30Z</time>
      </trkpt>
      <trkpt lat="45.39823" lon="5.90724">
        <ele>1540.8</ele>
        <time>2012-08-29T09:02:36Z</time>
      </trkpt>
      <trkpt lat="45.39828" lon="5.90731">
        <ele>1540</ele>
        <time>2012-08-29T09:02:40Z</time>
      </trkpt>
      <trkpt lat="45.39836" lon="5.90735">
        <ele>1539</ele>
        <time>2012-08-29T09:02:44Z</time>
      </trkpt>
      <trkpt lat="45.39841" lon="5.90735">
        <ele>1538.4</ele>
        <time>2012-08-29T09:02:47Z</time>
      </trkpt>
      <trkpt lat="45.39847" lon="5.90735">
        <ele>1538</ele>
        <time>2012-08-29T09:02:50Z</time>
      </trkpt>
      <trkpt lat="45.39857" lon="5.90736">
        <ele>1537.6</ele>
        <time>2012-08-29T09:02:54Z</time>
      </trkpt>
      <trkpt lat="45.39863" lon="5.90733">
        <ele>1537.4</ele>
        <time>2012-08-29T09:02:58Z</time>
      </trkpt>
      <trkpt lat="45.39875" lon="5.90734">
        <ele>1537</ele>
        <time>2012-08-29T09:03:04Z</time>
      </trkpt>
      <trkpt lat="45.39877" lon="5.90735">
        <ele>1536.8</ele>
        <time>2012-08-29T09:03:05Z</time>
      </trkpt>
      <trkpt lat="45.39886" lon="5.90739">
        <ele>1536.2</ele>
        <time>2012-08-29T09:03:09Z</time>
      </trkpt>
      <trkpt lat="45.39898" lon="5.90739">
        <ele>1535.6</ele>
        <time>2012-08-29T09:03:14Z</time>
      </trkpt>
      <trkpt lat="45.39902" lon="5.90737">
        <ele>1535.6</ele>
        <time>2012-08-29T09:03:16Z</time>
      </trkpt>
      <trkpt lat="45.39919" lon="5.90737">
        <ele>1535.4</ele>
        <time>2012-08-29T09:03:21Z</time>
      </trkpt>
      <trkpt lat="45.39922" lon="5.90739">
        <ele>1535.2</ele>
        <time>2012-08-29T09:03:22Z</time>
      </trkpt>
      <trkpt lat="45.39927" lon="5.90741">
        <ele>1535.2</ele>
        <time>2012-08-29T09:03:24Z</time>
      </trkpt>
      <trkpt lat="45.39938" lon="5.90741">
        <ele>1534.8</ele>
        <time>2012-08-29T09:03:28Z</time>
      </trkpt>
      <trkpt lat="45.39945" lon="5.90742">
        <ele>1534</ele>
        <time>2012-08-29T09:03:32Z</time>
      </trkpt>
      <trkpt lat="45.39956" lon="5.90742">
        <ele>1533.6</ele>
        <time>2012-08-29T09:03:37Z</time>
      </trkpt>
      <trkpt lat="45.39962" lon="5.90742">
        <ele>1533.4</ele>
        <time>2012-08-29T09:03:40Z</time>
      </trkpt>
      <trkpt lat="45.39972" lon="5.90747">
        <ele>1533.2</ele>
        <time>2012-08-29T09:03:45Z</time>
      </trkpt>
      <trkpt lat="45.39978" lon="5.90749">
        <ele>1532.6</ele>
        <time>2012-08-29T09:03:48Z</time>
      </trkpt>
      <trkpt lat="45.39987" lon="5.90754">
        <ele>1531.8</ele>
        <time>2012-08-29T09:03:54Z</time>
      </trkpt>
      <trkpt lat="45.39991" lon="5.90756">
        <ele>1531.6</ele>
        <time>2012-08-29T09:03:56Z</time>
      </trkpt>
      <trkpt lat="45.39995" lon="5.90758">
        <ele>1531.4</ele>
        <time>2012-08-29T09:03:58Z</time>
      </trkpt>
      <trkpt lat="45.39998" lon="5.90759">
        <ele>1531.4</ele>
        <time>2012-08-29T09:04:00Z</time>
      </trkpt>
      <trkpt lat="45.40004" lon="5.90757">
        <ele>1530.6</ele>
        <time>2012-08-29T09:04:03Z</time>
      </trkpt>
      <trkpt lat="45.40016" lon="5.90762">
        <ele>1529.8</ele>
        <time>2012-08-29T09:04:08Z</time>
      </trkpt>
      <trkpt lat="45.4002" lon="5.90762">
        <ele>1529.6</ele>
        <time>2012-08-29T09:04:10Z</time>
      </trkpt>
      <trkpt lat="45.40034" lon="5.90764">
        <ele>1528.6</ele>
        <time>2012-08-29T09:04:16Z</time>
      </trkpt>
      <trkpt lat="45.40041" lon="5.90766">
        <ele>1528.2</ele>
        <time>2012-08-29T09:04:19Z</time>
      </trkpt>
      <trkpt lat="45.40043" lon="5.90767">
        <ele>1528</ele>
        <time>2012-08-29T09:04:20Z</time>
      </trkpt>
      <trkpt lat="45.40054" lon="5.90773">
        <ele>1527</ele>
        <time>2012-08-29T09:04:26Z</time>
      </trkpt>
      <trkpt lat="45.40059" lon="5.90775">
        <ele>1526.2</ele>
        <time>2012-08-29T09:04:29Z</time>
      </trkpt>
      <trkpt lat="45.40064" lon="5.90787">
        <ele>1525.2</ele>
        <time>2012-08-29T09:04:34Z</time>
      </trkpt>
      <trkpt lat="45.40073" lon="5.90795">
        <ele>1524.6</ele>
        <time>2012-08-29T09:04:36Z</time>
      </trkpt>
      <trkpt lat="45.40087" lon="5.90807">
        <ele>1523.6</ele>
        <time>2012-08-29T09:04:41Z</time>
      </trkpt>
      <trkpt lat="45.4009" lon="5.90808">
        <ele>1523.6</ele>
        <time>2012-08-29T09:04:42Z</time>
      </trkpt>
      <trkpt lat="45.401" lon="5.90814">
        <ele>1522.6</ele>
        <time>2012-08-29T09:04:46Z</time>
      </trkpt>
      <trkpt lat="45.4011" lon="5.9082">
        <ele>1522</ele>
        <time>2012-08-29T09:04:49Z</time>
      </trkpt>
      <trkpt lat="45.40124" lon="5.90826">
        <ele>1521</ele>
        <time>2012-08-29T09:04:55Z</time>
      </trkpt>
      <trkpt lat="45.40134" lon="5.90832">
        <ele>1520</ele>
        <time>2012-08-29T09:04:59Z</time>
      </trkpt>
      <trkpt lat="45.4014" lon="5.90834">
        <ele>1519.4</ele>
        <time>2012-08-29T09:05:02Z</time>
      </trkpt>
      <trkpt lat="45.40141" lon="5.90835">
        <ele>1519.4</ele>
        <time>2012-08-29T09:05:03Z</time>
      </trkpt>
      <trkpt lat="45.40144" lon="5.90836">
        <ele>1519.2</ele>
        <time>2012-08-29T09:05:04Z</time>
      </trkpt>
      <trkpt lat="45.40152" lon="5.90836">
        <ele>1518.2</ele>
        <time>2012-08-29T09:05:08Z</time>
      </trkpt>
      <trkpt lat="45.40163" lon="5.90843">
        <ele>1517.6</ele>
        <time>2012-08-29T09:05:12Z</time>
      </trkpt>
      <trkpt lat="45.4017" lon="5.90849">
        <ele>1516.8</ele>
        <time>2012-08-29T09:05:16Z</time>
      </trkpt>
      <trkpt lat="45.40184" lon="5.9085">
        <ele>1515.6</ele>
        <time>2012-08-29T09:05:21Z</time>
      </trkpt>
      <trkpt lat="45.40186" lon="5.90852">
        <ele>1515.4</ele>
        <time>2012-08-29T09:05:22Z</time>
      </trkpt>
      <trkpt lat="45.40197" lon="5.9086">
        <ele>1514.6</ele>
        <time>2012-08-29T09:05:26Z</time>
      </trkpt>
      <trkpt lat="45.40208" lon="5.90869">
        <ele>1513.4</ele>
        <time>2012-08-29T09:05:31Z</time>
      </trkpt>
      <trkpt lat="45.40215" lon="5.90876">
        <ele>1513</ele>
        <time>2012-08-29T09:05:34Z</time>
      </trkpt>
      <trkpt lat="45.40225" lon="5.90882">
        <ele>1511.8</ele>
        <time>2012-08-29T09:05:39Z</time>
      </trkpt>
      <trkpt lat="45.40236" lon="5.90891">
        <ele>1511</ele>
        <time>2012-08-29T09:05:44Z</time>
      </trkpt>
      <trkpt lat="45.40236" lon="5.90892">
        <ele>1510.8</ele>
        <time>2012-08-29T09:05:45Z</time>
      </trkpt>
      <trkpt lat="45.40239" lon="5.90897">
        <ele>1510.2</ele>
        <time>2012-08-29T09:05:48Z</time>
      </trkpt>
      <trkpt lat="45.40249" lon="5.90903">
        <ele>1509.2</ele>
        <time>2012-08-29T09:05:53Z</time>
      </trkpt>
      <trkpt lat="45.40251" lon="5.90905">
        <ele>1509</ele>
        <time>2012-08-29T09:05:54Z</time>
      </trkpt>
      <trkpt lat="45.40267" lon="5.90918">
        <ele>1508.4</ele>
        <time>2012-08-29T09:05:59Z</time>
      </trkpt>
      <trkpt lat="45.40272" lon="5.90919">
        <ele>1508</ele>
        <time>2012-08-29T09:06:01Z</time>
      </trkpt>
      <trkpt lat="45.40286" lon="5.90932">
        <ele>1506.8</ele>
        <time>2012-08-29T09:06:07Z</time>
      </trkpt>
      <trkpt lat="45.40289" lon="5.90935">
        <ele>1506.4</ele>
        <time>2012-08-29T09:06:09Z</time>
      </trkpt>
      <trkpt lat="45.40299" lon="5.90945">
        <ele>1506</ele>
        <time>2012-08-29T09:06:14Z</time>
      </trkpt>
      <trkpt lat="45.40302" lon="5.90946">
        <ele>1505.8</ele>
        <time>2012-08-29T09:06:15Z</time>
      </trkpt>
      <trkpt lat="45.40309" lon="5.90947">
        <ele>1504.8</ele>
        <time>2012-08-29T09:06:19Z</time>
      </trkpt>
      <trkpt lat="45.40318" lon="5.90955">
        <ele>1504.4</ele>
        <time>2012-08-29T09:06:22Z</time>
      </trkpt>
      <trkpt lat="45.40327" lon="5.90962">
        <ele>1504</ele>
        <time>2012-08-29T09:06:26Z</time>
      </trkpt>
      <trkpt lat="45.4034" lon="5.90972">
        <ele>1503</ele>
        <time>2012-08-29T09:06:32Z</time>
      </trkpt>
      <trkpt lat="45.40347" lon="5.90977">
        <ele>1502.4</ele>
        <time>2012-08-29T09:06:36Z</time>
      </trkpt>
      <trkpt lat="45.40354" lon="5.90984">
        <ele>1502</ele>
        <time>2012-08-29T09:06:41Z</time>
      </trkpt>
      <trkpt lat="45.40354" lon="5.90986">
        <ele>1501.8</ele>
        <time>2012-08-29T09:06:42Z</time>
      </trkpt>
      <trkpt lat="45.40355" lon="5.90987">
        <ele>1501.8</ele>
        <time>2012-08-29T09:06:44Z</time>
      </trkpt>
      <trkpt lat="45.40366" lon="5.90998">
        <ele>1501.6</ele>
        <time>2012-08-29T09:06:48Z</time>
      </trkpt>
      <trkpt lat="45.40376" lon="5.91004">
        <ele>1501.4</ele>
        <time>2012-08-29T09:06:52Z</time>
      </trkpt>
      <trkpt lat="45.40381" lon="5.91003">
        <ele>1500</ele>
        <time>2012-08-29T09:07:06Z</time>
      </trkpt>
      <trkpt lat="45.40383" lon="5.91004">
        <ele>1499.8</ele>
        <time>2012-08-29T09:07:10Z</time>
      </trkpt>
      <trkpt lat="45.40387" lon="5.91006">
        <ele>1499.4</ele>
        <time>2012-08-29T09:07:14Z</time>
      </trkpt>
      <trkpt lat="45.404" lon="5.91006">
        <ele>1498.4</ele>
        <time>2012-08-29T09:07:20Z</time>
      </trkpt>
      <trkpt lat="45.40409" lon="5.91003">
        <ele>1497.6</ele>
        <time>2012-08-29T09:07:26Z</time>
      </trkpt>
      <trkpt lat="45.40415" lon="5.90998">
        <ele>1496.6</ele>
        <time>2012-08-29T09:07:31Z</time>
      </trkpt>
      <trkpt lat="45.4042" lon="5.90995">
        <ele>1496.2</ele>
        <time>2012-08-29T09:07:35Z</time>
      </trkpt>
      <trkpt lat="45.40425" lon="5.9099">
        <ele>1495</ele>
        <time>2012-08-29T09:07:39Z</time>
      </trkpt>
      <trkpt lat="45.40425" lon="5.90982">
        <ele>1494</ele>
        <time>2012-08-29T09:07:46Z</time>
      </trkpt>
      <trkpt lat="45.40426" lon="5.9098">
        <ele>1494</ele>
        <time>2012-08-29T09:07:47Z</time>
      </trkpt>
      <trkpt lat="45.40437" lon="5.90978">
        <ele>1492.8</ele>
        <time>2012-08-29T09:07:52Z</time>
      </trkpt>
      <trkpt lat="45.40442" lon="5.90979">
        <ele>1492.4</ele>
        <time>2012-08-29T09:07:54Z</time>
      </trkpt>
      <trkpt lat="45.40446" lon="5.90979">
        <ele>1492.2</ele>
        <time>2012-08-29T09:07:56Z</time>
      </trkpt>
      <trkpt lat="45.40447" lon="5.90978">
        <ele>1491.8</ele>
        <time>2012-08-29T09:07:58Z</time>
      </trkpt>
      <trkpt lat="45.40454" lon="5.90977">
        <ele>1490.8</ele>
        <time>2012-08-29T09:08:02Z</time>
      </trkpt>
      <trkpt lat="45.40455" lon="5.90976">
        <ele>1490.6</ele>
        <time>2012-08-29T09:08:03Z</time>
      </trkpt>
      <trkpt lat="45.40456" lon="5.90969">
        <ele>1489.4</ele>
        <time>2012-08-29T09:08:08Z</time>
      </trkpt>
      <trkpt lat="45.40456" lon="5.90969">
        <ele>1489.2</ele>
        <time>2012-08-29T09:08:09Z</time>
      </trkpt>
      <trkpt lat="45.40458" lon="5.90968">
        <ele>1488.8</ele>
        <time>2012-08-29T09:08:10Z</time>
      </trkpt>
      <trkpt lat="45.40461" lon="5.90956">
        <ele>1487.6</ele>
        <time>2012-08-29T09:08:15Z</time>
      </trkpt>
      <trkpt lat="45.40467" lon="5.90938">
        <ele>1486.4</ele>
        <time>2012-08-29T09:08:20Z</time>
      </trkpt>
      <trkpt lat="45.40467" lon="5.90936">
        <ele>1486.4</ele>
        <time>2012-08-29T09:08:21Z</time>
      </trkpt>
      <trkpt lat="45.40473" lon="5.90935">
        <ele>1485</ele>
        <time>2012-08-29T09:08:26Z</time>
      </trkpt>
      <trkpt lat="45.40476" lon="5.90934">
        <ele>1484.4</ele>
        <time>2012-08-29T09:08:28Z</time>
      </trkpt>
      <trkpt lat="45.40476" lon="5.90933">
        <ele>1484.2</ele>
        <time>2012-08-29T09:08:29Z</time>
      </trkpt>
      <trkpt lat="45.40475" lon="5.90931">
        <ele>1484</ele>
        <time>2012-08-29T09:08:31Z</time>
      </trkpt>
      <trkpt lat="45.4048" lon="5.90925">
        <ele>1482.4</ele>
        <time>2012-08-29T09:08:36Z</time>
      </trkpt>
      <trkpt lat="45.40482" lon="5.90923">
        <ele>1481.6</ele>
        <time>2012-08-29T09:08:40Z</time>
      </trkpt>
      <trkpt lat="45.4048" lon="5.90923">
        <ele>1480.2</ele>
        <time>2012-08-29T09:08:45Z</time>
      </trkpt>
      <trkpt lat="45.4048" lon="5.90922">
        <ele>1478.4</ele>
        <time>2012-08-29T09:09:04Z</time>
      </trkpt>
      <trkpt lat="45.40493" lon="5.90928">
        <ele>1475.8</ele>
        <time>2012-08-29T09:09:50Z</time>
      </trkpt>
      <trkpt lat="45.40499" lon="5.90933">
        <ele>1465.8</ele>
        <time>2012-08-29T09:12:27Z</time>
      </trkpt>
      <trkpt lat="45.40502" lon="5.90932">
        <ele>1478</ele>
        <time>2012-08-29T09:14:35Z</time>
      </trkpt>
      <trkpt lat="45.40503" lon="5.90933">
        <ele>1478.2</ele>
        <time>2012-08-29T09:14:41Z</time>
      </trkpt>
      <trkpt lat="45.40505" lon="5.90934">
        <ele>1478.4</ele>
        <time>2012-08-29T09:14:54Z</time>
      </trkpt>
      <trkpt lat="45.40498" lon="5.90931">
        <ele>1498.6</ele>
        <time>2012-08-29T09:18:58Z</time>
      </trkpt>
      <trkpt lat="45.40504" lon="5.90933">
        <ele>1499.6</ele>
        <time>2012-08-29T09:19:07Z</time>
      </trkpt>
      <trkpt lat="45.40495" lon="5.9092">
        <ele>1505.4</ele>
        <time>2012-08-29T09:21:40Z</time>
      </trkpt>
      <trkpt lat="45.40511" lon="5.90913">
        <ele>1511.4</ele>
        <time>2012-08-29T09:22:35Z</time>
      </trkpt>
      <trkpt lat="45.40504" lon="5.90926">
        <ele>1510.2</ele>
        <time>2012-08-29T09:23:55Z</time>
      </trkpt>
      <trkpt lat="45.40502" lon="5.90932">
        <ele>1502.4</ele>
        <time>2012-08-29T09:25:02Z</time>
      </trkpt>
      <trkpt lat="45.405" lon="5.9093">
        <ele>1508.6</ele>
        <time>2012-08-29T09:28:36Z</time>
      </trkpt>
      <trkpt lat="45.40496" lon="5.9092">
        <ele>1506</ele>
        <time>2012-08-29T09:29:44Z</time>
      </trkpt>
      <trkpt lat="45.40499" lon="5.90924">
        <ele>1506.6</ele>
        <time>2012-08-29T09:29:49Z</time>
      </trkpt>
      <trkpt lat="45.405" lon="5.90924">
        <ele>1506.8</ele>
        <time>2012-08-29T09:29:54Z</time>
      </trkpt>
      <trkpt lat="45.40504" lon="5.90927">
        <ele>1505.6</ele>
        <time>2012-08-29T09:30:02Z</time>
      </trkpt>
      <trkpt lat="45.40509" lon="5.90933">
        <ele>1495</ele>
        <time>2012-08-29T09:30:28Z</time>
      </trkpt>
      <trkpt lat="45.40509" lon="5.90934">
        <ele>1492.6</ele>
        <time>2012-08-29T09:30:34Z</time>
      </trkpt>
      <trkpt lat="45.40519" lon="5.90944">
        <ele>1475.8</ele>
        <time>2012-08-29T09:31:41Z</time>
      </trkpt>
      <trkpt lat="45.40524" lon="5.90951">
        <ele>1475</ele>
        <time>2012-08-29T09:31:49Z</time>
      </trkpt>
      <trkpt lat="45.40528" lon="5.90955">
        <ele>1474.8</ele>
        <time>2012-08-29T09:31:53Z</time>
      </trkpt>
      <trkpt lat="45.40532" lon="5.90958">
        <ele>1474.6</ele>
        <time>2012-08-29T09:31:57Z</time>
      </trkpt>
      <trkpt lat="45.4054" lon="5.90968">
        <ele>1473.8</ele>
        <time>2012-08-29T09:32:06Z</time>
      </trkpt>
      <trkpt lat="45.40547" lon="5.90974">
        <ele>1473.2</ele>
        <time>2012-08-29T09:32:11Z</time>
      </trkpt>
      <trkpt lat="45.4055" lon="5.90977">
        <ele>1472.6</ele>
        <time>2012-08-29T09:32:14Z</time>
      </trkpt>
      <trkpt lat="45.40558" lon="5.90986">
        <ele>1471.4</ele>
        <time>2012-08-29T09:32:22Z</time>
      </trkpt>
      <trkpt lat="45.40564" lon="5.90996">
        <ele>1470.8</ele>
        <time>2012-08-29T09:32:29Z</time>
      </trkpt>
      <trkpt lat="45.40565" lon="5.90998">
        <ele>1470.8</ele>
        <time>2012-08-29T09:32:31Z</time>
      </trkpt>
      <trkpt lat="45.40573" lon="5.91004">
        <ele>1470.6</ele>
        <time>2012-08-29T09:32:38Z</time>
      </trkpt>
      <trkpt lat="45.40578" lon="5.91008">
        <ele>1470.6</ele>
        <time>2012-08-29T09:32:44Z</time>
      </trkpt>
      <trkpt lat="45.40582" lon="5.9101">
        <ele>1470.4</ele>
        <time>2012-08-29T09:32:47Z</time>
      </trkpt>
      <trkpt lat="45.40588" lon="5.91013">
        <ele>1470.4</ele>
        <time>2012-08-29T09:32:54Z</time>
      </trkpt>
      <trkpt lat="45.40589" lon="5.91014">
        <ele>1470.4</ele>
        <time>2012-08-29T09:32:55Z</time>
      </trkpt>
      <trkpt lat="45.40593" lon="5.91018">
        <ele>1470.4</ele>
        <time>2012-08-29T09:33:01Z</time>
      </trkpt>
      <trkpt lat="45.40596" lon="5.9102">
        <ele>1470.4</ele>
        <time>2012-08-29T09:33:05Z</time>
      </trkpt>
      <trkpt lat="45.40598" lon="5.91021">
        <ele>1470.6</ele>
        <time>2012-08-29T09:33:07Z</time>
      </trkpt>
      <trkpt lat="45.406" lon="5.91023">
        <ele>1471.2</ele>
        <time>2012-08-29T09:33:11Z</time>
      </trkpt>
      <trkpt lat="45.40601" lon="5.91026">
        <ele>1471.6</ele>
        <time>2012-08-29T09:33:14Z</time>
      </trkpt>
      <trkpt lat="45.40602" lon="5.91028">
        <ele>1471.8</ele>
        <time>2012-08-29T09:33:15Z</time>
      </trkpt>
      <trkpt lat="45.40604" lon="5.91034">
        <ele>1472</ele>
        <time>2012-08-29T09:33:20Z</time>
      </trkpt>
      <trkpt lat="45.40608" lon="5.9104">
        <ele>1472.2</ele>
        <time>2012-08-29T09:33:24Z</time>
      </trkpt>
      <trkpt lat="45.40608" lon="5.91041">
        <ele>1472.2</ele>
        <time>2012-08-29T09:33:26Z</time>
      </trkpt>
      <trkpt lat="45.40608" lon="5.91043">
        <ele>1472.4</ele>
        <time>2012-08-29T09:33:27Z</time>
      </trkpt>
      <trkpt lat="45.40607" lon="5.91046">
        <ele>1473</ele>
        <time>2012-08-29T09:33:30Z</time>
      </trkpt>
      <trkpt lat="45.40615" lon="5.91056">
        <ele>1473.8</ele>
        <time>2012-08-29T09:33:37Z</time>
      </trkpt>
      <trkpt lat="45.40617" lon="5.91062">
        <ele>1474.2</ele>
        <time>2012-08-29T09:33:41Z</time>
      </trkpt>
      <trkpt lat="45.40619" lon="5.91065">
        <ele>1474.2</ele>
        <time>2012-08-29T09:33:42Z</time>
      </trkpt>
      <trkpt lat="45.40624" lon="5.9107">
        <ele>1474.4</ele>
        <time>2012-08-29T09:33:47Z</time>
      </trkpt>
      <trkpt lat="45.40627" lon="5.91073">
        <ele>1474.4</ele>
        <time>2012-08-29T09:33:51Z</time>
      </trkpt>
      <trkpt lat="45.4063" lon="5.91069">
        <ele>1475.2</ele>
        <time>2012-08-29T09:33:58Z</time>
      </trkpt>
      <trkpt lat="45.40633" lon="5.91066">
        <ele>1477</ele>
        <time>2012-08-29T09:34:05Z</time>
      </trkpt>
      <trkpt lat="45.40637" lon="5.91066">
        <ele>1479</ele>
        <time>2012-08-29T09:34:11Z</time>
      </trkpt>
      <trkpt lat="45.4064" lon="5.9107">
        <ele>1480</ele>
        <time>2012-08-29T09:34:16Z</time>
      </trkpt>
      <trkpt lat="45.40641" lon="5.91071">
        <ele>1480</ele>
        <time>2012-08-29T09:34:17Z</time>
      </trkpt>
      <trkpt lat="45.40645" lon="5.91077">
        <ele>1480.6</ele>
        <time>2012-08-29T09:34:22Z</time>
      </trkpt>
      <trkpt lat="45.40649" lon="5.91084">
        <ele>1481</ele>
        <time>2012-08-29T09:34:29Z</time>
      </trkpt>
      <trkpt lat="45.40651" lon="5.91089">
        <ele>1481</ele>
        <time>2012-08-29T09:34:34Z</time>
      </trkpt>
      <trkpt lat="45.40653" lon="5.91092">
        <ele>1481.2</ele>
        <time>2012-08-29T09:34:38Z</time>
      </trkpt>
      <trkpt lat="45.40655" lon="5.911">
        <ele>1481.2</ele>
        <time>2012-08-29T09:34:44Z</time>
      </trkpt>
      <trkpt lat="45.40656" lon="5.91101">
        <ele>1481.2</ele>
        <time>2012-08-29T09:34:45Z</time>
      </trkpt>
      <trkpt lat="45.40657" lon="5.91103">
        <ele>1480.8</ele>
        <time>2012-08-29T09:34:47Z</time>
      </trkpt>
      <trkpt lat="45.4066" lon="5.91111">
        <ele>1480</ele>
        <time>2012-08-29T09:34:53Z</time>
      </trkpt>
      <trkpt lat="45.40662" lon="5.91121">
        <ele>1479.6</ele>
        <time>2012-08-29T09:34:59Z</time>
      </trkpt>
      <trkpt lat="45.40663" lon="5.91122">
        <ele>1479.6</ele>
        <time>2012-08-29T09:35:00Z</time>
      </trkpt>
      <trkpt lat="45.40664" lon="5.91128">
        <ele>1479.4</ele>
        <time>2012-08-29T09:35:04Z</time>
      </trkpt>
      <trkpt lat="45.40664" lon="5.9113">
        <ele>1479.4</ele>
        <time>2012-08-29T09:35:05Z</time>
      </trkpt>
      <trkpt lat="45.40665" lon="5.91134">
        <ele>1479.4</ele>
        <time>2012-08-29T09:35:09Z</time>
      </trkpt>
      <trkpt lat="45.40672" lon="5.91142">
        <ele>1479.2</ele>
        <time>2012-08-29T09:35:14Z</time>
      </trkpt>
      <trkpt lat="45.40676" lon="5.91147">
        <ele>1479.2</ele>
        <time>2012-08-29T09:35:16Z</time>
      </trkpt>
      <trkpt lat="45.40681" lon="5.91153">
        <ele>1479.6</ele>
        <time>2012-08-29T09:35:21Z</time>
      </trkpt>
      <trkpt lat="45.40695" lon="5.91163">
        <ele>1481.2</ele>
        <time>2012-08-29T09:35:30Z</time>
      </trkpt>
      <trkpt lat="45.40696" lon="5.91164">
        <ele>1481.4</ele>
        <time>2012-08-29T09:35:31Z</time>
      </trkpt>
      <trkpt lat="45.40698" lon="5.91167">
        <ele>1481.8</ele>
        <time>2012-08-29T09:35:33Z</time>
      </trkpt>
      <trkpt lat="45.40707" lon="5.91174">
        <ele>1483</ele>
        <time>2012-08-29T09:35:38Z</time>
      </trkpt>
      <trkpt lat="45.40709" lon="5.91187">
        <ele>1484.2</ele>
        <time>2012-08-29T09:35:45Z</time>
      </trkpt>
      <trkpt lat="45.40712" lon="5.91196">
        <ele>1485.2</ele>
        <time>2012-08-29T09:35:50Z</time>
      </trkpt>
      <trkpt lat="45.40717" lon="5.91204">
        <ele>1486</ele>
        <time>2012-08-29T09:35:54Z</time>
      </trkpt>
      <trkpt lat="45.40719" lon="5.91213">
        <ele>1486.6</ele>
        <time>2012-08-29T09:35:59Z</time>
      </trkpt>
      <trkpt lat="45.4072" lon="5.91218">
        <ele>1487.4</ele>
        <time>2012-08-29T09:36:02Z</time>
      </trkpt>
      <trkpt lat="45.40721" lon="5.91219">
        <ele>1487.8</ele>
        <time>2012-08-29T09:36:04Z</time>
      </trkpt>
      <trkpt lat="45.40726" lon="5.91224">
        <ele>1488.6</ele>
        <time>2012-08-29T09:36:09Z</time>
      </trkpt>
      <trkpt lat="45.40728" lon="5.91228">
        <ele>1489</ele>
        <time>2012-08-29T09:36:14Z</time>
      </trkpt>
      <trkpt lat="45.40732" lon="5.91235">
        <ele>1489.2</ele>
        <time>2012-08-29T09:36:19Z</time>
      </trkpt>
      <trkpt lat="45.40736" lon="5.91245">
        <ele>1490.4</ele>
        <time>2012-08-29T09:36:30Z</time>
      </trkpt>
      <trkpt lat="45.40737" lon="5.9125">
        <ele>1491</ele>
        <time>2012-08-29T09:36:37Z</time>
      </trkpt>
      <trkpt lat="45.40739" lon="5.91254">
        <ele>1491.6</ele>
        <time>2012-08-29T09:36:42Z</time>
      </trkpt>
      <trkpt lat="45.40741" lon="5.9125">
        <ele>1492.4</ele>
        <time>2012-08-29T09:36:47Z</time>
      </trkpt>
      <trkpt lat="45.40745" lon="5.91249">
        <ele>1493</ele>
        <time>2012-08-29T09:36:52Z</time>
      </trkpt>
      <trkpt lat="45.40747" lon="5.91252">
        <ele>1493</ele>
        <time>2012-08-29T09:36:55Z</time>
      </trkpt>
      <trkpt lat="45.40751" lon="5.91259">
        <ele>1494.4</ele>
        <time>2012-08-29T09:37:01Z</time>
      </trkpt>
      <trkpt lat="45.40753" lon="5.91261">
        <ele>1494.6</ele>
        <time>2012-08-29T09:37:02Z</time>
      </trkpt>
      <trkpt lat="45.40755" lon="5.91264">
        <ele>1494.8</ele>
        <time>2012-08-29T09:37:05Z</time>
      </trkpt>
      <trkpt lat="45.40758" lon="5.91271">
        <ele>1495.2</ele>
        <time>2012-08-29T09:37:09Z</time>
      </trkpt>
      <trkpt lat="45.40759" lon="5.91273">
        <ele>1495.2</ele>
        <time>2012-08-29T09:37:11Z</time>
      </trkpt>
      <trkpt lat="45.40764" lon="5.91281">
        <ele>1495.4</ele>
        <time>2012-08-29T09:37:15Z</time>
      </trkpt>
      <trkpt lat="45.4077" lon="5.91284">
        <ele>1495.6</ele>
        <time>2012-08-29T09:37:21Z</time>
      </trkpt>
      <trkpt lat="45.40774" lon="5.91284">
        <ele>1496.2</ele>
        <time>2012-08-29T09:37:26Z</time>
      </trkpt>
      <trkpt lat="45.40776" lon="5.91284">
        <ele>1496.4</ele>
        <time>2012-08-29T09:37:27Z</time>
      </trkpt>
      <trkpt lat="45.40777" lon="5.91284">
        <ele>1496.8</ele>
        <time>2012-08-29T09:37:30Z</time>
      </trkpt>
      <trkpt lat="45.40779" lon="5.91288">
        <ele>1498</ele>
        <time>2012-08-29T09:37:37Z</time>
      </trkpt>
      <trkpt lat="45.40781" lon="5.91286">
        <ele>1499</ele>
        <time>2012-08-29T09:37:42Z</time>
      </trkpt>
      <trkpt lat="45.40785" lon="5.91282">
        <ele>1500.6</ele>
        <time>2012-08-29T09:37:49Z</time>
      </trkpt>
      <trkpt lat="45.40787" lon="5.91279">
        <ele>1502.4</ele>
        <time>2012-08-29T09:37:55Z</time>
      </trkpt>
      <trkpt lat="45.40789" lon="5.91278">
        <ele>1503.4</ele>
        <time>2012-08-29T09:37:59Z</time>
      </trkpt>
      <trkpt lat="45.40792" lon="5.91281">
        <ele>1504.8</ele>
        <time>2012-08-29T09:38:04Z</time>
      </trkpt>
      <trkpt lat="45.40794" lon="5.91283">
        <ele>1505.8</ele>
        <time>2012-08-29T09:38:09Z</time>
      </trkpt>
      <trkpt lat="45.40796" lon="5.91284">
        <ele>1507.2</ele>
        <time>2012-08-29T09:38:15Z</time>
      </trkpt>
      <trkpt lat="45.40798" lon="5.91285">
        <ele>1507.4</ele>
        <time>2012-08-29T09:38:17Z</time>
      </trkpt>
      <trkpt lat="45.40801" lon="5.91281">
        <ele>1508.8</ele>
        <time>2012-08-29T09:38:22Z</time>
      </trkpt>
      <trkpt lat="45.40817" lon="5.91302">
        <ele>1510.4</ele>
        <time>2012-08-29T09:38:37Z</time>
      </trkpt>
      <trkpt lat="45.40818" lon="5.91304">
        <ele>1510.4</ele>
        <time>2012-08-29T09:38:39Z</time>
      </trkpt>
      <trkpt lat="45.40826" lon="5.91307">
        <ele>1510.6</ele>
        <time>2012-08-29T09:38:45Z</time>
      </trkpt>
      <trkpt lat="45.40832" lon="5.91303">
        <ele>1510.6</ele>
        <time>2012-08-29T09:38:49Z</time>
      </trkpt>
      <trkpt lat="45.40833" lon="5.91301">
        <ele>1510.6</ele>
        <time>2012-08-29T09:38:50Z</time>
      </trkpt>
      <trkpt lat="45.40834" lon="5.91299">
        <ele>1510.6</ele>
        <time>2012-08-29T09:38:51Z</time>
      </trkpt>
      <trkpt lat="45.40836" lon="5.91293">
        <ele>1510.8</ele>
        <time>2012-08-29T09:38:55Z</time>
      </trkpt>
      <trkpt lat="45.40837" lon="5.91291">
        <ele>1510.8</ele>
        <time>2012-08-29T09:38:57Z</time>
      </trkpt>
      <trkpt lat="45.40839" lon="5.91289">
        <ele>1510.8</ele>
        <time>2012-08-29T09:38:59Z</time>
      </trkpt>
      <trkpt lat="45.4084" lon="5.91282">
        <ele>1511.2</ele>
        <time>2012-08-29T09:39:04Z</time>
      </trkpt>
      <trkpt lat="45.40841" lon="5.91274">
        <ele>1512</ele>
        <time>2012-08-29T09:39:09Z</time>
      </trkpt>
      <trkpt lat="45.40845" lon="5.91266">
        <ele>1513</ele>
        <time>2012-08-29T09:39:15Z</time>
      </trkpt>
      <trkpt lat="45.40845" lon="5.91259">
        <ele>1513.4</ele>
        <time>2012-08-29T09:39:19Z</time>
      </trkpt>
      <trkpt lat="45.40843" lon="5.91246">
        <ele>1514.2</ele>
        <time>2012-08-29T09:39:22Z</time>
      </trkpt>
      <trkpt lat="45.40842" lon="5.9124">
        <ele>1515.4</ele>
        <time>2012-08-29T09:39:27Z</time>
      </trkpt>
      <trkpt lat="45.40842" lon="5.91237">
        <ele>1515.4</ele>
        <time>2012-08-29T09:39:29Z</time>
      </trkpt>
      <trkpt lat="45.40842" lon="5.91236">
        <ele>1515.6</ele>
        <time>2012-08-29T09:39:30Z</time>
      </trkpt>
      <trkpt lat="45.40844" lon="5.9123">
        <ele>1517</ele>
        <time>2012-08-29T09:39:36Z</time>
      </trkpt>
      <trkpt lat="45.40845" lon="5.91225">
        <ele>1518</ele>
        <time>2012-08-29T09:39:41Z</time>
      </trkpt>
      <trkpt lat="45.40844" lon="5.9122">
        <ele>1519</ele>
        <time>2012-08-29T09:39:45Z</time>
      </trkpt>
      <trkpt lat="45.40842" lon="5.91215">
        <ele>1520</ele>
        <time>2012-08-29T09:39:49Z</time>
      </trkpt>
      <trkpt lat="45.4084" lon="5.91207">
        <ele>1521.6</ele>
        <time>2012-08-29T09:39:55Z</time>
      </trkpt>
      <trkpt lat="45.40838" lon="5.91201">
        <ele>1523</ele>
        <time>2012-08-29T09:40:00Z</time>
      </trkpt>
      <trkpt lat="45.40838" lon="5.91197">
        <ele>1524</ele>
        <time>2012-08-29T09:40:04Z</time>
      </trkpt>
      <trkpt lat="45.40835" lon="5.91193">
        <ele>1525.2</ele>
        <time>2012-08-29T09:40:07Z</time>
      </trkpt>
      <trkpt lat="45.40834" lon="5.91191">
        <ele>1525.6</ele>
        <time>2012-08-29T09:40:09Z</time>
      </trkpt>
      <trkpt lat="45.40833" lon="5.91187">
        <ele>1526.6</ele>
        <time>2012-08-29T09:40:12Z</time>
      </trkpt>
      <trkpt lat="45.40835" lon="5.91181">
        <ele>1528</ele>
        <time>2012-08-29T09:40:17Z</time>
      </trkpt>
      <trkpt lat="45.40835" lon="5.91179">
        <ele>1528.4</ele>
        <time>2012-08-29T09:40:19Z</time>
      </trkpt>
      <trkpt lat="45.40836" lon="5.91178">
        <ele>1529</ele>
        <time>2012-08-29T09:40:21Z</time>
      </trkpt>
      <trkpt lat="45.40837" lon="5.91176">
        <ele>1529.6</ele>
        <time>2012-08-29T09:40:22Z</time>
      </trkpt>
      <trkpt lat="45.4084" lon="5.9117">
        <ele>1531.4</ele>
        <time>2012-08-29T09:40:29Z</time>
      </trkpt>
      <trkpt lat="45.40841" lon="5.91167">
        <ele>1532</ele>
        <time>2012-08-29T09:40:32Z</time>
      </trkpt>
      <trkpt lat="45.40843" lon="5.91167">
        <ele>1534</ele>
        <time>2012-08-29T09:40:38Z</time>
      </trkpt>
      <trkpt lat="45.40846" lon="5.91167">
        <ele>1535.8</ele>
        <time>2012-08-29T09:40:45Z</time>
      </trkpt>
      <trkpt lat="45.4085" lon="5.9117">
        <ele>1537.4</ele>
        <time>2012-08-29T09:40:50Z</time>
      </trkpt>
      <trkpt lat="45.40852" lon="5.91171">
        <ele>1538.4</ele>
        <time>2012-08-29T09:40:54Z</time>
      </trkpt>
      <trkpt lat="45.40856" lon="5.91173">
        <ele>1540.4</ele>
        <time>2012-08-29T09:41:00Z</time>
      </trkpt>
      <trkpt lat="45.40858" lon="5.91172">
        <ele>1542.2</ele>
        <time>2012-08-29T09:41:05Z</time>
      </trkpt>
      <trkpt lat="45.40859" lon="5.91172">
        <ele>1543.8</ele>
        <time>2012-08-29T09:41:09Z</time>
      </trkpt>
      <trkpt lat="45.40862" lon="5.9117">
        <ele>1545.6</ele>
        <time>2012-08-29T09:41:17Z</time>
      </trkpt>
      <trkpt lat="45.40865" lon="5.91168">
        <ele>1547.4</ele>
        <time>2012-08-29T09:41:25Z</time>
      </trkpt>
      <trkpt lat="45.40872" lon="5.91164">
        <ele>1549.4</ele>
        <time>2012-08-29T09:41:37Z</time>
      </trkpt>
      <trkpt lat="45.40874" lon="5.91164">
        <ele>1550.6</ele>
        <time>2012-08-29T09:41:42Z</time>
      </trkpt>
      <trkpt lat="45.40877" lon="5.91164">
        <ele>1551.4</ele>
        <time>2012-08-29T09:41:47Z</time>
      </trkpt>
      <trkpt lat="45.4088" lon="5.91162">
        <ele>1552.6</ele>
        <time>2012-08-29T09:41:52Z</time>
      </trkpt>
      <trkpt lat="45.40882" lon="5.91163">
        <ele>1553.8</ele>
        <time>2012-08-29T09:41:57Z</time>
      </trkpt>
      <trkpt lat="45.40883" lon="5.91164">
        <ele>1555.2</ele>
        <time>2012-08-29T09:42:02Z</time>
      </trkpt>
      <trkpt lat="45.40885" lon="5.91167">
        <ele>1556</ele>
        <time>2012-08-29T09:42:06Z</time>
      </trkpt>
      <trkpt lat="45.40889" lon="5.91175">
        <ele>1558.4</ele>
        <time>2012-08-29T09:42:12Z</time>
      </trkpt>
      <trkpt lat="45.4089" lon="5.91176">
        <ele>1558.6</ele>
        <time>2012-08-29T09:42:14Z</time>
      </trkpt>
      <trkpt lat="45.40893" lon="5.91178">
        <ele>1560.6</ele>
        <time>2012-08-29T09:42:20Z</time>
      </trkpt>
      <trkpt lat="45.40897" lon="5.91183">
        <ele>1562.8</ele>
        <time>2012-08-29T09:42:26Z</time>
      </trkpt>
      <trkpt lat="45.40898" lon="5.91184">
        <ele>1563</ele>
        <time>2012-08-29T09:42:27Z</time>
      </trkpt>
      <trkpt lat="45.40901" lon="5.91186">
        <ele>1564.8</ele>
        <time>2012-08-29T09:42:32Z</time>
      </trkpt>
      <trkpt lat="45.40902" lon="5.91186">
        <ele>1565.4</ele>
        <time>2012-08-29T09:42:33Z</time>
      </trkpt>
      <trkpt lat="45.40906" lon="5.91187">
        <ele>1566.8</ele>
        <time>2012-08-29T09:42:37Z</time>
      </trkpt>
      <trkpt lat="45.4091" lon="5.91189">
        <ele>1569</ele>
        <time>2012-08-29T09:42:45Z</time>
      </trkpt>
      <trkpt lat="45.40913" lon="5.9119">
        <ele>1570.6</ele>
        <time>2012-08-29T09:42:51Z</time>
      </trkpt>
      <trkpt lat="45.40915" lon="5.91196">
        <ele>1572.2</ele>
        <time>2012-08-29T09:42:56Z</time>
      </trkpt>
      <trkpt lat="45.40918" lon="5.91199">
        <ele>1573</ele>
        <time>2012-08-29T09:43:00Z</time>
      </trkpt>
      <trkpt lat="45.4092" lon="5.91199">
        <ele>1573.6</ele>
        <time>2012-08-29T09:43:04Z</time>
      </trkpt>
      <trkpt lat="45.40926" lon="5.91205">
        <ele>1575</ele>
        <time>2012-08-29T09:43:11Z</time>
      </trkpt>
      <trkpt lat="45.40928" lon="5.91206">
        <ele>1575.4</ele>
        <time>2012-08-29T09:43:14Z</time>
      </trkpt>
      <trkpt lat="45.40932" lon="5.91211">
        <ele>1576.4</ele>
        <time>2012-08-29T09:43:21Z</time>
      </trkpt>
      <trkpt lat="45.40938" lon="5.91214">
        <ele>1577.6</ele>
        <time>2012-08-29T09:43:27Z</time>
      </trkpt>
      <trkpt lat="45.40938" lon="5.91215">
        <ele>1577.8</ele>
        <time>2012-08-29T09:43:29Z</time>
      </trkpt>
      <trkpt lat="45.40939" lon="5.91217">
        <ele>1578.4</ele>
        <time>2012-08-29T09:43:31Z</time>
      </trkpt>
      <trkpt lat="45.40943" lon="5.9122">
        <ele>1579.4</ele>
        <time>2012-08-29T09:43:36Z</time>
      </trkpt>
      <trkpt lat="45.40944" lon="5.91221">
        <ele>1579.6</ele>
        <time>2012-08-29T09:43:37Z</time>
      </trkpt>
      <trkpt lat="45.40949" lon="5.91225">
        <ele>1581.4</ele>
        <time>2012-08-29T09:43:45Z</time>
      </trkpt>
      <trkpt lat="45.40953" lon="5.91229">
        <ele>1583.4</ele>
        <time>2012-08-29T09:43:51Z</time>
      </trkpt>
      <trkpt lat="45.40958" lon="5.91231">
        <ele>1585.4</ele>
        <time>2012-08-29T09:43:59Z</time>
      </trkpt>
      <trkpt lat="45.40961" lon="5.91233">
        <ele>1587</ele>
        <time>2012-08-29T09:44:04Z</time>
      </trkpt>
      <trkpt lat="45.40962" lon="5.91236">
        <ele>1588.6</ele>
        <time>2012-08-29T09:44:09Z</time>
      </trkpt>
      <trkpt lat="45.40965" lon="5.91239">
        <ele>1590.2</ele>
        <time>2012-08-29T09:44:14Z</time>
      </trkpt>
      <trkpt lat="45.40967" lon="5.91239">
        <ele>1591.6</ele>
        <time>2012-08-29T09:44:19Z</time>
      </trkpt>
      <trkpt lat="45.4097" lon="5.91236">
        <ele>1593.4</ele>
        <time>2012-08-29T09:44:24Z</time>
      </trkpt>
      <trkpt lat="45.40969" lon="5.91235">
        <ele>1595</ele>
        <time>2012-08-29T09:44:30Z</time>
      </trkpt>
      <trkpt lat="45.40966" lon="5.91231">
        <ele>1596.4</ele>
        <time>2012-08-29T09:44:36Z</time>
      </trkpt>
      <trkpt lat="45.40967" lon="5.91227">
        <ele>1597.6</ele>
        <time>2012-08-29T09:44:41Z</time>
      </trkpt>
      <trkpt lat="45.40969" lon="5.91225">
        <ele>1598.6</ele>
        <time>2012-08-29T09:44:46Z</time>
      </trkpt>
      <trkpt lat="45.40969" lon="5.91221">
        <ele>1599.4</ele>
        <time>2012-08-29T09:44:51Z</time>
      </trkpt>
      <trkpt lat="45.40973" lon="5.91221">
        <ele>1600.6</ele>
        <time>2012-08-29T09:44:57Z</time>
      </trkpt>
      <trkpt lat="45.40975" lon="5.9122">
        <ele>1601.4</ele>
        <time>2012-08-29T09:45:01Z</time>
      </trkpt>
      <trkpt lat="45.40976" lon="5.91218">
        <ele>1602.6</ele>
        <time>2012-08-29T09:45:06Z</time>
      </trkpt>
      <trkpt lat="45.4098" lon="5.91217">
        <ele>1603.8</ele>
        <time>2012-08-29T09:45:11Z</time>
      </trkpt>
      <trkpt lat="45.40982" lon="5.91216">
        <ele>1605</ele>
        <time>2012-08-29T09:45:18Z</time>
      </trkpt>
      <trkpt lat="45.40983" lon="5.91213">
        <ele>1606.4</ele>
        <time>2012-08-29T09:45:24Z</time>
      </trkpt>
      <trkpt lat="45.40982" lon="5.91212">
        <ele>1606.8</ele>
        <time>2012-08-29T09:45:26Z</time>
      </trkpt>
      <trkpt lat="45.40985" lon="5.91209">
        <ele>1608.2</ele>
        <time>2012-08-29T09:45:32Z</time>
      </trkpt>
      <trkpt lat="45.40988" lon="5.91211">
        <ele>1609.6</ele>
        <time>2012-08-29T09:45:38Z</time>
      </trkpt>
      <trkpt lat="45.40989" lon="5.91206">
        <ele>1611</ele>
        <time>2012-08-29T09:45:44Z</time>
      </trkpt>
      <trkpt lat="45.40992" lon="5.91202">
        <ele>1612.6</ele>
        <time>2012-08-29T09:45:50Z</time>
      </trkpt>
      <trkpt lat="45.40994" lon="5.91203">
        <ele>1613.2</ele>
        <time>2012-08-29T09:45:54Z</time>
      </trkpt>
      <trkpt lat="45.40995" lon="5.91199">
        <ele>1614.6</ele>
        <time>2012-08-29T09:45:59Z</time>
      </trkpt>
      <trkpt lat="45.40999" lon="5.91197">
        <ele>1615.4</ele>
        <time>2012-08-29T09:46:04Z</time>
      </trkpt>
      <trkpt lat="45.41001" lon="5.91193">
        <ele>1617.2</ele>
        <time>2012-08-29T09:46:10Z</time>
      </trkpt>
      <trkpt lat="45.41003" lon="5.91188">
        <ele>1618</ele>
        <time>2012-08-29T09:46:15Z</time>
      </trkpt>
      <trkpt lat="45.41006" lon="5.91185">
        <ele>1619</ele>
        <time>2012-08-29T09:46:19Z</time>
      </trkpt>
      <trkpt lat="45.41009" lon="5.91181">
        <ele>1620.8</ele>
        <time>2012-08-29T09:46:26Z</time>
      </trkpt>
      <trkpt lat="45.41011" lon="5.91175">
        <ele>1622.4</ele>
        <time>2012-08-29T09:46:31Z</time>
      </trkpt>
      <trkpt lat="45.41013" lon="5.91171">
        <ele>1624.4</ele>
        <time>2012-08-29T09:46:37Z</time>
      </trkpt>
      <trkpt lat="45.41016" lon="5.91165">
        <ele>1627.2</ele>
        <time>2012-08-29T09:46:44Z</time>
      </trkpt>
      <trkpt lat="45.41018" lon="5.91162">
        <ele>1629.8</ele>
        <time>2012-08-29T09:46:51Z</time>
      </trkpt>
      <trkpt lat="45.4102" lon="5.91162">
        <ele>1632.4</ele>
        <time>2012-08-29T09:46:57Z</time>
      </trkpt>
      <trkpt lat="45.41022" lon="5.91161">
        <ele>1634.2</ele>
        <time>2012-08-29T09:47:01Z</time>
      </trkpt>
      <trkpt lat="45.41023" lon="5.91168">
        <ele>1636.4</ele>
        <time>2012-08-29T09:47:06Z</time>
      </trkpt>
      <trkpt lat="45.41024" lon="5.91177">
        <ele>1638.8</ele>
        <time>2012-08-29T09:47:12Z</time>
      </trkpt>
      <trkpt lat="45.41028" lon="5.91186">
        <ele>1641</ele>
        <time>2012-08-29T09:47:17Z</time>
      </trkpt>
      <trkpt lat="45.41033" lon="5.91197">
        <ele>1642.4</ele>
        <time>2012-08-29T09:47:22Z</time>
      </trkpt>
      <trkpt lat="45.41044" lon="5.91208">
        <ele>1644.6</ele>
        <time>2012-08-29T09:47:30Z</time>
      </trkpt>
      <trkpt lat="45.41052" lon="5.91218">
        <ele>1645.8</ele>
        <time>2012-08-29T09:47:36Z</time>
      </trkpt>
      <trkpt lat="45.41058" lon="5.91229">
        <ele>1647</ele>
        <time>2012-08-29T09:47:41Z</time>
      </trkpt>
      <trkpt lat="45.41061" lon="5.91241">
        <ele>1647.6</ele>
        <time>2012-08-29T09:47:45Z</time>
      </trkpt>
      <trkpt lat="45.41065" lon="5.91255">
        <ele>1648.2</ele>
        <time>2012-08-29T09:47:50Z</time>
      </trkpt>
      <trkpt lat="45.4107" lon="5.91265">
        <ele>1649.2</ele>
        <time>2012-08-29T09:47:55Z</time>
      </trkpt>
      <trkpt lat="45.41077" lon="5.91277">
        <ele>1650</ele>
        <time>2012-08-29T09:48:01Z</time>
      </trkpt>
      <trkpt lat="45.41088" lon="5.91283">
        <ele>1651.2</ele>
        <time>2012-08-29T09:48:06Z</time>
      </trkpt>
      <trkpt lat="45.41102" lon="5.91279">
        <ele>1652</ele>
        <time>2012-08-29T09:48:12Z</time>
      </trkpt>
      <trkpt lat="45.41106" lon="5.9128">
        <ele>1652.2</ele>
        <time>2012-08-29T09:48:15Z</time>
      </trkpt>
      <trkpt lat="45.41115" lon="5.91282">
        <ele>1652.4</ele>
        <time>2012-08-29T09:48:19Z</time>
      </trkpt>
      <trkpt lat="45.41128" lon="5.91285">
        <ele>1652.6</ele>
        <time>2012-08-29T09:48:25Z</time>
      </trkpt>
      <trkpt lat="45.41136" lon="5.91289">
        <ele>1652.8</ele>
        <time>2012-08-29T09:48:28Z</time>
      </trkpt>
      <trkpt lat="45.41144" lon="5.91297">
        <ele>1652.8</ele>
        <time>2012-08-29T09:48:32Z</time>
      </trkpt>
      <trkpt lat="45.41152" lon="5.91309">
        <ele>1652.8</ele>
        <time>2012-08-29T09:48:39Z</time>
      </trkpt>
      <trkpt lat="45.41156" lon="5.91315">
        <ele>1652.8</ele>
        <time>2012-08-29T09:48:42Z</time>
      </trkpt>
      <trkpt lat="45.41164" lon="5.91333">
        <ele>1652.8</ele>
        <time>2012-08-29T09:48:47Z</time>
      </trkpt>
      <trkpt lat="45.41169" lon="5.91348">
        <ele>1652.8</ele>
        <time>2012-08-29T09:48:52Z</time>
      </trkpt>
      <trkpt lat="45.41176" lon="5.9136">
        <ele>1653</ele>
        <time>2012-08-29T09:48:57Z</time>
      </trkpt>
      <trkpt lat="45.4118" lon="5.91363">
        <ele>1653</ele>
        <time>2012-08-29T09:49:00Z</time>
      </trkpt>
      <trkpt lat="45.41192" lon="5.91363">
        <ele>1653.6</ele>
        <time>2012-08-29T09:49:07Z</time>
      </trkpt>
      <trkpt lat="45.41193" lon="5.91363">
        <ele>1653.8</ele>
        <time>2012-08-29T09:49:09Z</time>
      </trkpt>
      <trkpt lat="45.41199" lon="5.91357">
        <ele>1654.2</ele>
        <time>2012-08-29T09:49:14Z</time>
      </trkpt>
      <trkpt lat="45.41201" lon="5.91353">
        <ele>1654.4</ele>
        <time>2012-08-29T09:49:17Z</time>
      </trkpt>
      <trkpt lat="45.41203" lon="5.91347">
        <ele>1654.8</ele>
        <time>2012-08-29T09:49:25Z</time>
      </trkpt>
      <trkpt lat="45.41209" lon="5.91345">
        <ele>1654.8</ele>
        <time>2012-08-29T09:49:29Z</time>
      </trkpt>
      <trkpt lat="45.41211" lon="5.91344">
        <ele>1654.8</ele>
        <time>2012-08-29T09:49:30Z</time>
      </trkpt>
      <trkpt lat="45.4122" lon="5.91344">
        <ele>1655.8</ele>
        <time>2012-08-29T09:49:35Z</time>
      </trkpt>
      <trkpt lat="45.41225" lon="5.91352">
        <ele>1656.2</ele>
        <time>2012-08-29T09:49:39Z</time>
      </trkpt>
      <trkpt lat="45.41229" lon="5.91357">
        <ele>1656.6</ele>
        <time>2012-08-29T09:49:47Z</time>
      </trkpt>
      <trkpt lat="45.41234" lon="5.91357">
        <ele>1656.8</ele>
        <time>2012-08-29T09:49:51Z</time>
      </trkpt>
      <trkpt lat="45.41241" lon="5.91359">
        <ele>1656.8</ele>
        <time>2012-08-29T09:49:57Z</time>
      </trkpt>
      <trkpt lat="45.41247" lon="5.91365">
        <ele>1657</ele>
        <time>2012-08-29T09:50:01Z</time>
      </trkpt>
      <trkpt lat="45.41249" lon="5.91368">
        <ele>1657</ele>
        <time>2012-08-29T09:50:04Z</time>
      </trkpt>
      <trkpt lat="45.41253" lon="5.9137">
        <ele>1657</ele>
        <time>2012-08-29T09:50:07Z</time>
      </trkpt>
      <trkpt lat="45.41254" lon="5.91371">
        <ele>1657</ele>
        <time>2012-08-29T09:50:09Z</time>
      </trkpt>
      <trkpt lat="45.41259" lon="5.91372">
        <ele>1657</ele>
        <time>2012-08-29T09:50:15Z</time>
      </trkpt>
      <trkpt lat="45.41261" lon="5.91372">
        <ele>1657</ele>
        <time>2012-08-29T09:50:17Z</time>
      </trkpt>
      <trkpt lat="45.41262" lon="5.91381">
        <ele>1657</ele>
        <time>2012-08-29T09:50:24Z</time>
      </trkpt>
      <trkpt lat="45.41264" lon="5.91378">
        <ele>1657</ele>
        <time>2012-08-29T09:50:29Z</time>
      </trkpt>
      <trkpt lat="45.41267" lon="5.91378">
        <ele>1657</ele>
        <time>2012-08-29T09:50:33Z</time>
      </trkpt>
      <trkpt lat="45.41271" lon="5.9138">
        <ele>1657</ele>
        <time>2012-08-29T09:50:39Z</time>
      </trkpt>
      <trkpt lat="45.41276" lon="5.91383">
        <ele>1657.8</ele>
        <time>2012-08-29T09:50:44Z</time>
      </trkpt>
      <trkpt lat="45.41287" lon="5.91382">
        <ele>1658.4</ele>
        <time>2012-08-29T09:50:50Z</time>
      </trkpt>
      <trkpt lat="45.4129" lon="5.91383">
        <ele>1658.4</ele>
        <time>2012-08-29T09:50:51Z</time>
      </trkpt>
      <trkpt lat="45.41301" lon="5.9138">
        <ele>1658.8</ele>
        <time>2012-08-29T09:50:56Z</time>
      </trkpt>
      <trkpt lat="45.41316" lon="5.91372">
        <ele>1658.8</ele>
        <time>2012-08-29T09:51:02Z</time>
      </trkpt>
      <trkpt lat="45.41325" lon="5.91367">
        <ele>1659.8</ele>
        <time>2012-08-29T09:51:07Z</time>
      </trkpt>
      <trkpt lat="45.41335" lon="5.91359">
        <ele>1660.4</ele>
        <time>2012-08-29T09:51:12Z</time>
      </trkpt>
      <trkpt lat="45.41346" lon="5.91349">
        <ele>1661</ele>
        <time>2012-08-29T09:51:19Z</time>
      </trkpt>
      <trkpt lat="45.41356" lon="5.91349">
        <ele>1661.6</ele>
        <time>2012-08-29T09:51:22Z</time>
      </trkpt>
      <trkpt lat="45.4137" lon="5.91366">
        <ele>1662.6</ele>
        <time>2012-08-29T09:51:30Z</time>
      </trkpt>
      <trkpt lat="45.41376" lon="5.91378">
        <ele>1662.8</ele>
        <time>2012-08-29T09:51:35Z</time>
      </trkpt>
      <trkpt lat="45.41381" lon="5.91385">
        <ele>1662.8</ele>
        <time>2012-08-29T09:51:39Z</time>
      </trkpt>
      <trkpt lat="45.41392" lon="5.91393">
        <ele>1663</ele>
        <time>2012-08-29T09:51:47Z</time>
      </trkpt>
      <trkpt lat="45.414" lon="5.91401">
        <ele>1663.8</ele>
        <time>2012-08-29T09:51:51Z</time>
      </trkpt>
      <trkpt lat="45.41406" lon="5.91407">
        <ele>1664.4</ele>
        <time>2012-08-29T09:51:57Z</time>
      </trkpt>
      <trkpt lat="45.41409" lon="5.91415">
        <ele>1664.8</ele>
        <time>2012-08-29T09:52:04Z</time>
      </trkpt>
      <trkpt lat="45.41412" lon="5.91425">
        <ele>1665</ele>
        <time>2012-08-29T09:52:09Z</time>
      </trkpt>
      <trkpt lat="45.41413" lon="5.91428">
        <ele>1665.2</ele>
        <time>2012-08-29T09:52:11Z</time>
      </trkpt>
      <trkpt lat="45.41418" lon="5.91434">
        <ele>1666</ele>
        <time>2012-08-29T09:52:15Z</time>
      </trkpt>
      <trkpt lat="45.4142" lon="5.91443">
        <ele>1666.6</ele>
        <time>2012-08-29T09:52:21Z</time>
      </trkpt>
      <trkpt lat="45.41421" lon="5.91448">
        <ele>1666.8</ele>
        <time>2012-08-29T09:52:25Z</time>
      </trkpt>
      <trkpt lat="45.41422" lon="5.91451">
        <ele>1666.8</ele>
        <time>2012-08-29T09:52:27Z</time>
      </trkpt>
      <trkpt lat="45.41427" lon="5.91458">
        <ele>1667.2</ele>
        <time>2012-08-29T09:52:32Z</time>
      </trkpt>
      <trkpt lat="45.41434" lon="5.91464">
        <ele>1668.2</ele>
        <time>2012-08-29T09:52:37Z</time>
      </trkpt>
      <trkpt lat="45.41435" lon="5.91465">
        <ele>1668.2</ele>
        <time>2012-08-29T09:52:39Z</time>
      </trkpt>
      <trkpt lat="45.41442" lon="5.91474">
        <ele>1668.6</ele>
        <time>2012-08-29T09:52:44Z</time>
      </trkpt>
      <trkpt lat="45.41451" lon="5.91487">
        <ele>1670</ele>
        <time>2012-08-29T09:52:50Z</time>
      </trkpt>
      <trkpt lat="45.4146" lon="5.91495">
        <ele>1670.6</ele>
        <time>2012-08-29T09:52:56Z</time>
      </trkpt>
      <trkpt lat="45.41463" lon="5.91498">
        <ele>1671.6</ele>
        <time>2012-08-29T09:53:00Z</time>
      </trkpt>
      <trkpt lat="45.41468" lon="5.91491">
        <ele>1672.4</ele>
        <time>2012-08-29T09:53:06Z</time>
      </trkpt>
      <trkpt lat="45.41472" lon="5.91484">
        <ele>1673</ele>
        <time>2012-08-29T09:53:11Z</time>
      </trkpt>
      <trkpt lat="45.41472" lon="5.91481">
        <ele>1673</ele>
        <time>2012-08-29T09:53:12Z</time>
      </trkpt>
      <trkpt lat="45.41479" lon="5.91462">
        <ele>1673.4</ele>
        <time>2012-08-29T09:53:27Z</time>
      </trkpt>
      <trkpt lat="45.41478" lon="5.91458">
        <ele>1672.2</ele>
        <time>2012-08-29T09:53:51Z</time>
      </trkpt>
      <trkpt lat="45.41477" lon="5.91452">
        <ele>1671.8</ele>
        <time>2012-08-29T09:53:57Z</time>
      </trkpt>
      <trkpt lat="45.41476" lon="5.91451">
        <ele>1671.6</ele>
        <time>2012-08-29T09:54:07Z</time>
      </trkpt>
      <trkpt lat="45.41478" lon="5.9145">
        <ele>1672</ele>
        <time>2012-08-29T09:54:22Z</time>
      </trkpt>
      <trkpt lat="45.4148" lon="5.9145">
        <ele>1672.8</ele>
        <time>2012-08-29T09:54:29Z</time>
      </trkpt>
      <trkpt lat="45.41478" lon="5.91451">
        <ele>1673.6</ele>
        <time>2012-08-29T09:54:52Z</time>
      </trkpt>
      <trkpt lat="45.41477" lon="5.91458">
        <ele>1673.6</ele>
        <time>2012-08-29T09:54:57Z</time>
      </trkpt>
      <trkpt lat="45.41478" lon="5.91461">
        <ele>1673.6</ele>
        <time>2012-08-29T09:55:04Z</time>
      </trkpt>
      <trkpt lat="45.41479" lon="5.91463">
        <ele>1673.6</ele>
        <time>2012-08-29T09:55:37Z</time>
      </trkpt>
      <trkpt lat="45.41482" lon="5.91468">
        <ele>1673.6</ele>
        <time>2012-08-29T09:55:49Z</time>
      </trkpt>
      <trkpt lat="45.41482" lon="5.9147">
        <ele>1673.6</ele>
        <time>2012-08-29T09:55:50Z</time>
      </trkpt>
      <trkpt lat="45.41482" lon="5.91476">
        <ele>1673.6</ele>
        <time>2012-08-29T09:55:54Z</time>
      </trkpt>
      <trkpt lat="45.41485" lon="5.91485">
        <ele>1673.6</ele>
        <time>2012-08-29T09:56:00Z</time>
      </trkpt>
      <trkpt lat="45.41486" lon="5.91488">
        <ele>1673.6</ele>
        <time>2012-08-29T09:56:02Z</time>
      </trkpt>
      <trkpt lat="45.41487" lon="5.91488">
        <ele>1673.6</ele>
        <time>2012-08-29T09:56:05Z</time>
      </trkpt>
      <trkpt lat="45.41492" lon="5.91479">
        <ele>1674.4</ele>
        <time>2012-08-29T09:56:12Z</time>
      </trkpt>
      <trkpt lat="45.41497" lon="5.91474">
        <ele>1675</ele>
        <time>2012-08-29T09:56:17Z</time>
      </trkpt>
      <trkpt lat="45.41506" lon="5.91469">
        <ele>1675.2</ele>
        <time>2012-08-29T09:56:24Z</time>
      </trkpt>
      <trkpt lat="45.41518" lon="5.91461">
        <ele>1675.4</ele>
        <time>2012-08-29T09:56:30Z</time>
      </trkpt>
      <trkpt lat="45.41523" lon="5.91459">
        <ele>1675.4</ele>
        <time>2012-08-29T09:56:32Z</time>
      </trkpt>
      <trkpt lat="45.41539" lon="5.91464">
        <ele>1676.6</ele>
        <time>2012-08-29T09:56:39Z</time>
      </trkpt>
      <trkpt lat="45.4155" lon="5.91463">
        <ele>1677</ele>
        <time>2012-08-29T09:56:44Z</time>
      </trkpt>
      <trkpt lat="45.41556" lon="5.91459">
        <ele>1677.2</ele>
        <time>2012-08-29T09:56:49Z</time>
      </trkpt>
      <trkpt lat="45.41566" lon="5.91456">
        <ele>1677.4</ele>
        <time>2012-08-29T09:56:55Z</time>
      </trkpt>
      <trkpt lat="45.41577" lon="5.91454">
        <ele>1677.6</ele>
        <time>2012-08-29T09:57:01Z</time>
      </trkpt>
      <trkpt lat="45.41588" lon="5.91453">
        <ele>1677.6</ele>
        <time>2012-08-29T09:57:06Z</time>
      </trkpt>
      <trkpt lat="45.41602" lon="5.9145">
        <ele>1678</ele>
        <time>2012-08-29T09:57:12Z</time>
      </trkpt>
      <trkpt lat="45.41614" lon="5.91451">
        <ele>1678.8</ele>
        <time>2012-08-29T09:57:17Z</time>
      </trkpt>
      <trkpt lat="45.41624" lon="5.91455">
        <ele>1679.2</ele>
        <time>2012-08-29T09:57:21Z</time>
      </trkpt>
      <trkpt lat="45.41633" lon="5.91464">
        <ele>1679.4</ele>
        <time>2012-08-29T09:57:27Z</time>
      </trkpt>
      <trkpt lat="45.41644" lon="5.91472">
        <ele>1679.4</ele>
        <time>2012-08-29T09:57:32Z</time>
      </trkpt>
      <trkpt lat="45.41653" lon="5.91478">
        <ele>1679.6</ele>
        <time>2012-08-29T09:57:37Z</time>
      </trkpt>
      <trkpt lat="45.41657" lon="5.91481">
        <ele>1679.6</ele>
        <time>2012-08-29T09:57:39Z</time>
      </trkpt>
      <trkpt lat="45.41663" lon="5.91491">
        <ele>1680.4</ele>
        <time>2012-08-29T09:57:43Z</time>
      </trkpt>
      <trkpt lat="45.41668" lon="5.91493">
        <ele>1681</ele>
        <time>2012-08-29T09:57:49Z</time>
      </trkpt>
      <trkpt lat="45.41672" lon="5.9149">
        <ele>1681.2</ele>
        <time>2012-08-29T09:57:51Z</time>
      </trkpt>
      <trkpt lat="45.41679" lon="5.91492">
        <ele>1681.4</ele>
        <time>2012-08-29T09:57:56Z</time>
      </trkpt>
      <trkpt lat="45.41683" lon="5.91493">
        <ele>1681.4</ele>
        <time>2012-08-29T09:57:57Z</time>
      </trkpt>
      <trkpt lat="45.41694" lon="5.91496">
        <ele>1681.6</ele>
        <time>2012-08-29T09:58:03Z</time>
      </trkpt>
      <trkpt lat="45.41706" lon="5.91502">
        <ele>1681.6</ele>
        <time>2012-08-29T09:58:08Z</time>
      </trkpt>
      <trkpt lat="45.4172" lon="5.91506">
        <ele>1681.2</ele>
        <time>2012-08-29T09:58:13Z</time>
      </trkpt>
      <trkpt lat="45.41734" lon="5.9151">
        <ele>1680.6</ele>
        <time>2012-08-29T09:58:18Z</time>
      </trkpt>
      <trkpt lat="45.41741" lon="5.9151">
        <ele>1680.2</ele>
        <time>2012-08-29T09:58:22Z</time>
      </trkpt>
      <trkpt lat="45.41743" lon="5.91509">
        <ele>1680.2</ele>
        <time>2012-08-29T09:58:23Z</time>
      </trkpt>
      <trkpt lat="45.41744" lon="5.91507">
        <ele>1680.2</ele>
        <time>2012-08-29T09:58:25Z</time>
      </trkpt>
      <trkpt lat="45.4175" lon="5.91507">
        <ele>1680</ele>
        <time>2012-08-29T09:58:29Z</time>
      </trkpt>
      <trkpt lat="45.41763" lon="5.91511">
        <ele>1679.4</ele>
        <time>2012-08-29T09:58:36Z</time>
      </trkpt>
      <trkpt lat="45.41766" lon="5.91512">
        <ele>1679.2</ele>
        <time>2012-08-29T09:58:37Z</time>
      </trkpt>
      <trkpt lat="45.41786" lon="5.91522">
        <ele>1678.4</ele>
        <time>2012-08-29T09:58:45Z</time>
      </trkpt>
      <trkpt lat="45.41794" lon="5.91526">
        <ele>1678.2</ele>
        <time>2012-08-29T09:58:48Z</time>
      </trkpt>
      <trkpt lat="45.41815" lon="5.91528">
        <ele>1677.4</ele>
        <time>2012-08-29T09:58:55Z</time>
      </trkpt>
      <trkpt lat="45.41829" lon="5.91534">
        <ele>1676.6</ele>
        <time>2012-08-29T09:59:00Z</time>
      </trkpt>
      <trkpt lat="45.4184" lon="5.91541">
        <ele>1676.2</ele>
        <time>2012-08-29T09:59:05Z</time>
      </trkpt>
      <trkpt lat="45.41852" lon="5.91544">
        <ele>1676</ele>
        <time>2012-08-29T09:59:10Z</time>
      </trkpt>
      <trkpt lat="45.41859" lon="5.91546">
        <ele>1675.4</ele>
        <time>2012-08-29T09:59:14Z</time>
      </trkpt>
      <trkpt lat="45.41869" lon="5.91543">
        <ele>1674.6</ele>
        <time>2012-08-29T09:59:19Z</time>
      </trkpt>
      <trkpt lat="45.41871" lon="5.91543">
        <ele>1674.6</ele>
        <time>2012-08-29T09:59:20Z</time>
      </trkpt>
      <trkpt lat="45.41877" lon="5.91544">
        <ele>1674.4</ele>
        <time>2012-08-29T09:59:21Z</time>
      </trkpt>
      <trkpt lat="45.41888" lon="5.91555">
        <ele>1674</ele>
        <time>2012-08-29T09:59:27Z</time>
      </trkpt>
      <trkpt lat="45.41905" lon="5.91571">
        <ele>1672.8</ele>
        <time>2012-08-29T09:59:33Z</time>
      </trkpt>
      <trkpt lat="45.41921" lon="5.91583">
        <ele>1672.2</ele>
        <time>2012-08-29T09:59:41Z</time>
      </trkpt>
      <trkpt lat="45.41934" lon="5.91589">
        <ele>1671.8</ele>
        <time>2012-08-29T09:59:46Z</time>
      </trkpt>
      <trkpt lat="45.41952" lon="5.91603">
        <ele>1671.6</ele>
        <time>2012-08-29T09:59:53Z</time>
      </trkpt>
      <trkpt lat="45.41965" lon="5.91606">
        <ele>1671.6</ele>
        <time>2012-08-29T09:59:57Z</time>
      </trkpt>
      <trkpt lat="45.41982" lon="5.9161">
        <ele>1671.6</ele>
        <time>2012-08-29T10:00:04Z</time>
      </trkpt>
      <trkpt lat="45.41998" lon="5.91614">
        <ele>1671.6</ele>
        <time>2012-08-29T10:00:10Z</time>
      </trkpt>
      <trkpt lat="45.42011" lon="5.91616">
        <ele>1671.6</ele>
        <time>2012-08-29T10:00:15Z</time>
      </trkpt>
      <trkpt lat="45.42043" lon="5.91627">
        <ele>1670</ele>
        <time>2012-08-29T10:00:28Z</time>
      </trkpt>
      <trkpt lat="45.42062" lon="5.91631">
        <ele>1669.8</ele>
        <time>2012-08-29T10:00:35Z</time>
      </trkpt>
      <trkpt lat="45.42073" lon="5.91633">
        <ele>1669.6</ele>
        <time>2012-08-29T10:00:40Z</time>
      </trkpt>
      <trkpt lat="45.42087" lon="5.91632">
        <ele>1669.6</ele>
        <time>2012-08-29T10:00:45Z</time>
      </trkpt>
      <trkpt lat="45.42101" lon="5.91628">
        <ele>1669.6</ele>
        <time>2012-08-29T10:00:50Z</time>
      </trkpt>
      <trkpt lat="45.42112" lon="5.91628">
        <ele>1669.6</ele>
        <time>2012-08-29T10:00:55Z</time>
      </trkpt>
      <trkpt lat="45.42125" lon="5.91632">
        <ele>1669.4</ele>
        <time>2012-08-29T10:01:00Z</time>
      </trkpt>
      <trkpt lat="45.42137" lon="5.91637">
        <ele>1669.4</ele>
        <time>2012-08-29T10:01:04Z</time>
      </trkpt>
      <trkpt lat="45.42154" lon="5.91644">
        <ele>1669.4</ele>
        <time>2012-08-29T10:01:11Z</time>
      </trkpt>
      <trkpt lat="45.42169" lon="5.91657">
        <ele>1668.4</ele>
        <time>2012-08-29T10:01:18Z</time>
      </trkpt>
      <trkpt lat="45.4218" lon="5.91664">
        <ele>1668</ele>
        <time>2012-08-29T10:01:22Z</time>
      </trkpt>
      <trkpt lat="45.4219" lon="5.91678">
        <ele>1667.2</ele>
        <time>2012-08-29T10:01:27Z</time>
      </trkpt>
      <trkpt lat="45.422" lon="5.91692">
        <ele>1666.4</ele>
        <time>2012-08-29T10:01:33Z</time>
      </trkpt>
      <trkpt lat="45.42213" lon="5.91707">
        <ele>1665.8</ele>
        <time>2012-08-29T10:01:39Z</time>
      </trkpt>
      <trkpt lat="45.4222" lon="5.91714">
        <ele>1664.8</ele>
        <time>2012-08-29T10:01:43Z</time>
      </trkpt>
      <trkpt lat="45.4223" lon="5.91721">
        <ele>1664.4</ele>
        <time>2012-08-29T10:01:47Z</time>
      </trkpt>
      <trkpt lat="45.42242" lon="5.91719">
        <ele>1663</ele>
        <time>2012-08-29T10:01:52Z</time>
      </trkpt>
      <trkpt lat="45.4226" lon="5.91722">
        <ele>1661.6</ele>
        <time>2012-08-29T10:01:59Z</time>
      </trkpt>
      <trkpt lat="45.42269" lon="5.91723">
        <ele>1660.8</ele>
        <time>2012-08-29T10:02:03Z</time>
      </trkpt>
      <trkpt lat="45.42278" lon="5.91728">
        <ele>1660.2</ele>
        <time>2012-08-29T10:02:07Z</time>
      </trkpt>
      <trkpt lat="45.42286" lon="5.91731">
        <ele>1659.4</ele>
        <time>2012-08-29T10:02:10Z</time>
      </trkpt>
      <trkpt lat="45.42301" lon="5.91732">
        <ele>1658.2</ele>
        <time>2012-08-29T10:02:16Z</time>
      </trkpt>
      <trkpt lat="45.42304" lon="5.91733">
        <ele>1658.2</ele>
        <time>2012-08-29T10:02:17Z</time>
      </trkpt>
      <trkpt lat="45.42315" lon="5.9174">
        <ele>1657.4</ele>
        <time>2012-08-29T10:02:23Z</time>
      </trkpt>
      <trkpt lat="45.4233" lon="5.91753">
        <ele>1656.2</ele>
        <time>2012-08-29T10:02:29Z</time>
      </trkpt>
      <trkpt lat="45.4234" lon="5.91764">
        <ele>1655.6</ele>
        <time>2012-08-29T10:02:34Z</time>
      </trkpt>
      <trkpt lat="45.42347" lon="5.91776">
        <ele>1654.6</ele>
        <time>2012-08-29T10:02:39Z</time>
      </trkpt>
      <trkpt lat="45.42351" lon="5.91781">
        <ele>1654.2</ele>
        <time>2012-08-29T10:02:41Z</time>
      </trkpt>
      <trkpt lat="45.42363" lon="5.91784">
        <ele>1653.6</ele>
        <time>2012-08-29T10:02:46Z</time>
      </trkpt>
      <trkpt lat="45.42366" lon="5.91785">
        <ele>1653.4</ele>
        <time>2012-08-29T10:02:47Z</time>
      </trkpt>
      <trkpt lat="45.42367" lon="5.91786">
        <ele>1653.4</ele>
        <time>2012-08-29T10:02:48Z</time>
      </trkpt>
      <trkpt lat="45.42371" lon="5.91786">
        <ele>1653.2</ele>
        <time>2012-08-29T10:02:52Z</time>
      </trkpt>
      <trkpt lat="45.4238" lon="5.91785">
        <ele>1653</ele>
        <time>2012-08-29T10:02:57Z</time>
      </trkpt>
      <trkpt lat="45.42385" lon="5.9179">
        <ele>1652.8</ele>
        <time>2012-08-29T10:03:02Z</time>
      </trkpt>
      <trkpt lat="45.42389" lon="5.91799">
        <ele>1652.6</ele>
        <time>2012-08-29T10:03:07Z</time>
      </trkpt>
      <trkpt lat="45.42391" lon="5.91803">
        <ele>1651.6</ele>
        <time>2012-08-29T10:03:13Z</time>
      </trkpt>
      <trkpt lat="45.42395" lon="5.91813">
        <ele>1651.2</ele>
        <time>2012-08-29T10:03:20Z</time>
      </trkpt>
      <trkpt lat="45.42399" lon="5.9182">
        <ele>1650.8</ele>
        <time>2012-08-29T10:03:23Z</time>
      </trkpt>
      <trkpt lat="45.42405" lon="5.9182">
        <ele>1649.8</ele>
        <time>2012-08-29T10:03:27Z</time>
      </trkpt>
      <trkpt lat="45.42409" lon="5.91821">
        <ele>1649.4</ele>
        <time>2012-08-29T10:03:32Z</time>
      </trkpt>
      <trkpt lat="45.42415" lon="5.91824">
        <ele>1648.8</ele>
        <time>2012-08-29T10:03:36Z</time>
      </trkpt>
      <trkpt lat="45.42423" lon="5.91838">
        <ele>1647.6</ele>
        <time>2012-08-29T10:03:42Z</time>
      </trkpt>
      <trkpt lat="45.42433" lon="5.91847">
        <ele>1647.2</ele>
        <time>2012-08-29T10:03:47Z</time>
      </trkpt>
      <trkpt lat="45.42436" lon="5.91848">
        <ele>1646.8</ele>
        <time>2012-08-29T10:03:48Z</time>
      </trkpt>
      <trkpt lat="45.42453" lon="5.91849">
        <ele>1645.6</ele>
        <time>2012-08-29T10:03:54Z</time>
      </trkpt>
      <trkpt lat="45.4247" lon="5.91848">
        <ele>1644.6</ele>
        <time>2012-08-29T10:04:00Z</time>
      </trkpt>
      <trkpt lat="45.42481" lon="5.91854">
        <ele>1643.8</ele>
        <time>2012-08-29T10:04:04Z</time>
      </trkpt>
      <trkpt lat="45.42486" lon="5.91865">
        <ele>1643.2</ele>
        <time>2012-08-29T10:04:08Z</time>
      </trkpt>
      <trkpt lat="45.42496" lon="5.91882">
        <ele>1641.8</ele>
        <time>2012-08-29T10:04:14Z</time>
      </trkpt>
      <trkpt lat="45.42504" lon="5.91901">
        <ele>1640.4</ele>
        <time>2012-08-29T10:04:19Z</time>
      </trkpt>
      <trkpt lat="45.42512" lon="5.91913">
        <ele>1639.2</ele>
        <time>2012-08-29T10:04:24Z</time>
      </trkpt>
      <trkpt lat="45.42514" lon="5.91914">
        <ele>1639</ele>
        <time>2012-08-29T10:04:25Z</time>
      </trkpt>
      <trkpt lat="45.42521" lon="5.9191">
        <ele>1637.8</ele>
        <time>2012-08-29T10:04:28Z</time>
      </trkpt>
      <trkpt lat="45.42527" lon="5.91911">
        <ele>1636.8</ele>
        <time>2012-08-29T10:04:33Z</time>
      </trkpt>
      <trkpt lat="45.42532" lon="5.91922">
        <ele>1635.8</ele>
        <time>2012-08-29T10:04:37Z</time>
      </trkpt>
      <trkpt lat="45.42536" lon="5.91924">
        <ele>1635.2</ele>
        <time>2012-08-29T10:04:39Z</time>
      </trkpt>
      <trkpt lat="45.42546" lon="5.91927">
        <ele>1633.6</ele>
        <time>2012-08-29T10:04:44Z</time>
      </trkpt>
      <trkpt lat="45.42546" lon="5.91929">
        <ele>1633.4</ele>
        <time>2012-08-29T10:04:45Z</time>
      </trkpt>
      <trkpt lat="45.42548" lon="5.91941">
        <ele>1631.8</ele>
        <time>2012-08-29T10:04:50Z</time>
      </trkpt>
      <trkpt lat="45.4255" lon="5.9195">
        <ele>1630.4</ele>
        <time>2012-08-29T10:04:54Z</time>
      </trkpt>
      <trkpt lat="45.42558" lon="5.91954">
        <ele>1629.2</ele>
        <time>2012-08-29T10:04:57Z</time>
      </trkpt>
      <trkpt lat="45.42562" lon="5.91955">
        <ele>1628.8</ele>
        <time>2012-08-29T10:05:00Z</time>
      </trkpt>
      <trkpt lat="45.42573" lon="5.91962">
        <ele>1627</ele>
        <time>2012-08-29T10:05:06Z</time>
      </trkpt>
      <trkpt lat="45.42577" lon="5.91967">
        <ele>1626.2</ele>
        <time>2012-08-29T10:05:10Z</time>
      </trkpt>
      <trkpt lat="45.42579" lon="5.9197">
        <ele>1625</ele>
        <time>2012-08-29T10:05:14Z</time>
      </trkpt>
      <trkpt lat="45.42589" lon="5.91967">
        <ele>1624</ele>
        <time>2012-08-29T10:05:19Z</time>
      </trkpt>
      <trkpt lat="45.42591" lon="5.91967">
        <ele>1624</ele>
        <time>2012-08-29T10:05:20Z</time>
      </trkpt>
      <trkpt lat="45.42601" lon="5.9198">
        <ele>1622.6</ele>
        <time>2012-08-29T10:05:25Z</time>
      </trkpt>
      <trkpt lat="45.42602" lon="5.91983">
        <ele>1622.4</ele>
        <time>2012-08-29T10:05:26Z</time>
      </trkpt>
      <trkpt lat="45.42615" lon="5.91992">
        <ele>1621.4</ele>
        <time>2012-08-29T10:05:31Z</time>
      </trkpt>
      <trkpt lat="45.42628" lon="5.92">
        <ele>1620</ele>
        <time>2012-08-29T10:05:37Z</time>
      </trkpt>
      <trkpt lat="45.42636" lon="5.92007">
        <ele>1619</ele>
        <time>2012-08-29T10:05:41Z</time>
      </trkpt>
      <trkpt lat="45.42646" lon="5.9201">
        <ele>1618</ele>
        <time>2012-08-29T10:05:45Z</time>
      </trkpt>
      <trkpt lat="45.4266" lon="5.92017">
        <ele>1616.6</ele>
        <time>2012-08-29T10:05:51Z</time>
      </trkpt>
      <trkpt lat="45.42673" lon="5.92023">
        <ele>1615.6</ele>
        <time>2012-08-29T10:05:56Z</time>
      </trkpt>
      <trkpt lat="45.42692" lon="5.92027">
        <ele>1614</ele>
        <time>2012-08-29T10:06:03Z</time>
      </trkpt>
      <trkpt lat="45.42706" lon="5.9203">
        <ele>1613.2</ele>
        <time>2012-08-29T10:06:09Z</time>
      </trkpt>
      <trkpt lat="45.42717" lon="5.92035">
        <ele>1612.6</ele>
        <time>2012-08-29T10:06:13Z</time>
      </trkpt>
      <trkpt lat="45.42719" lon="5.92037">
        <ele>1612.2</ele>
        <time>2012-08-29T10:06:14Z</time>
      </trkpt>
      <trkpt lat="45.42732" lon="5.92043">
        <ele>1611.2</ele>
        <time>2012-08-29T10:06:20Z</time>
      </trkpt>
      <trkpt lat="45.42746" lon="5.92056">
        <ele>1610.6</ele>
        <time>2012-08-29T10:06:27Z</time>
      </trkpt>
      <trkpt lat="45.42772" lon="5.92064">
        <ele>1609.2</ele>
        <time>2012-08-29T10:06:38Z</time>
      </trkpt>
      <trkpt lat="45.42787" lon="5.92068">
        <ele>1608.6</ele>
        <time>2012-08-29T10:06:44Z</time>
      </trkpt>
      <trkpt lat="45.42802" lon="5.92074">
        <ele>1608.2</ele>
        <time>2012-08-29T10:06:50Z</time>
      </trkpt>
      <trkpt lat="45.42813" lon="5.92079">
        <ele>1608.2</ele>
        <time>2012-08-29T10:06:55Z</time>
      </trkpt>
      <trkpt lat="45.42822" lon="5.92083">
        <ele>1608</ele>
        <time>2012-08-29T10:07:00Z</time>
      </trkpt>
      <trkpt lat="45.42831" lon="5.92088">
        <ele>1608</ele>
        <time>2012-08-29T10:07:07Z</time>
      </trkpt>
      <trkpt lat="45.42833" lon="5.92089">
        <ele>1608</ele>
        <time>2012-08-29T10:07:09Z</time>
      </trkpt>
      <trkpt lat="45.4284" lon="5.92093">
        <ele>1608</ele>
        <time>2012-08-29T10:07:15Z</time>
      </trkpt>
      <trkpt lat="45.42842" lon="5.92096">
        <ele>1608</ele>
        <time>2012-08-29T10:07:18Z</time>
      </trkpt>
      <trkpt lat="45.42846" lon="5.92097">
        <ele>1608</ele>
        <time>2012-08-29T10:07:22Z</time>
      </trkpt>
      <trkpt lat="45.42853" lon="5.92101">
        <ele>1608.4</ele>
        <time>2012-08-29T10:07:26Z</time>
      </trkpt>
      <trkpt lat="45.42866" lon="5.92104">
        <ele>1609.4</ele>
        <time>2012-08-29T10:07:34Z</time>
      </trkpt>
      <trkpt lat="45.42867" lon="5.92104">
        <ele>1610.2</ele>
        <time>2012-08-29T10:07:41Z</time>
      </trkpt>
      <trkpt lat="45.42867" lon="5.92107">
        <ele>1611.4</ele>
        <time>2012-08-29T10:07:52Z</time>
      </trkpt>
      <trkpt lat="45.42868" lon="5.92106">
        <ele>1611.8</ele>
        <time>2012-08-29T10:08:02Z</time>
      </trkpt>
      <trkpt lat="45.42869" lon="5.92107">
        <ele>1612</ele>
        <time>2012-08-29T10:08:33Z</time>
      </trkpt>
      <trkpt lat="45.42873" lon="5.92109">
        <ele>1612</ele>
        <time>2012-08-29T10:08:36Z</time>
      </trkpt>
      <trkpt lat="45.42876" lon="5.92099">
        <ele>1612</ele>
        <time>2012-08-29T10:08:41Z</time>
      </trkpt>
      <trkpt lat="45.42879" lon="5.92099">
        <ele>1612</ele>
        <time>2012-08-29T10:08:44Z</time>
      </trkpt>
      <trkpt lat="45.42881" lon="5.921">
        <ele>1611.6</ele>
        <time>2012-08-29T10:08:47Z</time>
      </trkpt>
      <trkpt lat="45.42881" lon="5.9209">
        <ele>1610.8</ele>
        <time>2012-08-29T10:08:54Z</time>
      </trkpt>
      <trkpt lat="45.42888" lon="5.92087">
        <ele>1610</ele>
        <time>2012-08-29T10:08:57Z</time>
      </trkpt>
      <trkpt lat="45.42892" lon="5.92092">
        <ele>1609.6</ele>
        <time>2012-08-29T10:09:00Z</time>
      </trkpt>
      <trkpt lat="45.42903" lon="5.92106">
        <ele>1608.2</ele>
        <time>2012-08-29T10:09:06Z</time>
      </trkpt>
      <trkpt lat="45.42909" lon="5.92123">
        <ele>1607.2</ele>
        <time>2012-08-29T10:09:11Z</time>
      </trkpt>
      <trkpt lat="45.42909" lon="5.92125">
        <ele>1607</ele>
        <time>2012-08-29T10:09:12Z</time>
      </trkpt>
      <trkpt lat="45.42917" lon="5.92137">
        <ele>1605.4</ele>
        <time>2012-08-29T10:09:18Z</time>
      </trkpt>
      <trkpt lat="45.42925" lon="5.92145">
        <ele>1604.8</ele>
        <time>2012-08-29T10:09:22Z</time>
      </trkpt>
      <trkpt lat="45.42926" lon="5.92146">
        <ele>1604.8</ele>
        <time>2012-08-29T10:09:23Z</time>
      </trkpt>
      <trkpt lat="45.42934" lon="5.92149">
        <ele>1604.2</ele>
        <time>2012-08-29T10:09:27Z</time>
      </trkpt>
      <trkpt lat="45.42935" lon="5.9215">
        <ele>1603.8</ele>
        <time>2012-08-29T10:09:29Z</time>
      </trkpt>
      <trkpt lat="45.42947" lon="5.92151">
        <ele>1602.8</ele>
        <time>2012-08-29T10:09:35Z</time>
      </trkpt>
      <trkpt lat="45.42949" lon="5.92149">
        <ele>1602.6</ele>
        <time>2012-08-29T10:09:36Z</time>
      </trkpt>
      <trkpt lat="45.42968" lon="5.92154">
        <ele>1602</ele>
        <time>2012-08-29T10:09:44Z</time>
      </trkpt>
      <trkpt lat="45.4297" lon="5.92156">
        <ele>1602</ele>
        <time>2012-08-29T10:09:45Z</time>
      </trkpt>
      <trkpt lat="45.4298" lon="5.92155">
        <ele>1602</ele>
        <time>2012-08-29T10:09:49Z</time>
      </trkpt>
      <trkpt lat="45.42982" lon="5.92156">
        <ele>1601.8</ele>
        <time>2012-08-29T10:09:50Z</time>
      </trkpt>
      <trkpt lat="45.42991" lon="5.9216">
        <ele>1601.8</ele>
        <time>2012-08-29T10:09:54Z</time>
      </trkpt>
      <trkpt lat="45.43" lon="5.92161">
        <ele>1601.8</ele>
        <time>2012-08-29T10:09:59Z</time>
      </trkpt>
      <trkpt lat="45.43002" lon="5.92161">
        <ele>1601.8</ele>
        <time>2012-08-29T10:10:00Z</time>
      </trkpt>
      <trkpt lat="45.43013" lon="5.92164">
        <ele>1601.4</ele>
        <time>2012-08-29T10:10:04Z</time>
      </trkpt>
      <trkpt lat="45.43013" lon="5.92164">
        <ele>1601.2</ele>
        <time>2012-08-29T10:10:05Z</time>
      </trkpt>
      <trkpt lat="45.43028" lon="5.92164">
        <ele>1600.4</ele>
        <time>2012-08-29T10:10:11Z</time>
      </trkpt>
      <trkpt lat="45.43035" lon="5.9217">
        <ele>1600.2</ele>
        <time>2012-08-29T10:10:15Z</time>
      </trkpt>
      <trkpt lat="45.43045" lon="5.92172">
        <ele>1600</ele>
        <time>2012-08-29T10:10:20Z</time>
      </trkpt>
      <trkpt lat="45.43056" lon="5.92176">
        <ele>1598.8</ele>
        <time>2012-08-29T10:10:27Z</time>
      </trkpt>
      <trkpt lat="45.43064" lon="5.92176">
        <ele>1598.2</ele>
        <time>2012-08-29T10:10:33Z</time>
      </trkpt>
      <trkpt lat="45.43066" lon="5.92176">
        <ele>1598</ele>
        <time>2012-08-29T10:10:34Z</time>
      </trkpt>
      <trkpt lat="45.43069" lon="5.92177">
        <ele>1598</ele>
        <time>2012-08-29T10:10:35Z</time>
      </trkpt>
      <trkpt lat="45.43074" lon="5.92182">
        <ele>1597.4</ele>
        <time>2012-08-29T10:10:38Z</time>
      </trkpt>
      <trkpt lat="45.43077" lon="5.92185">
        <ele>1597</ele>
        <time>2012-08-29T10:10:40Z</time>
      </trkpt>
      <trkpt lat="45.43079" lon="5.92188">
        <ele>1596.8</ele>
        <time>2012-08-29T10:10:42Z</time>
      </trkpt>
      <trkpt lat="45.43086" lon="5.92191">
        <ele>1596.4</ele>
        <time>2012-08-29T10:10:45Z</time>
      </trkpt>
      <trkpt lat="45.43094" lon="5.92194">
        <ele>1595.2</ele>
        <time>2012-08-29T10:10:50Z</time>
      </trkpt>
      <trkpt lat="45.431" lon="5.92194">
        <ele>1594.8</ele>
        <time>2012-08-29T10:10:53Z</time>
      </trkpt>
      <trkpt lat="45.4311" lon="5.92195">
        <ele>1594.2</ele>
        <time>2012-08-29T10:10:57Z</time>
      </trkpt>
      <trkpt lat="45.43119" lon="5.92195">
        <ele>1593.4</ele>
        <time>2012-08-29T10:11:01Z</time>
      </trkpt>
      <trkpt lat="45.43131" lon="5.92198">
        <ele>1592.6</ele>
        <time>2012-08-29T10:11:06Z</time>
      </trkpt>
      <trkpt lat="45.43139" lon="5.92202">
        <ele>1591.8</ele>
        <time>2012-08-29T10:11:10Z</time>
      </trkpt>
      <trkpt lat="45.43141" lon="5.92202">
        <ele>1591.6</ele>
        <time>2012-08-29T10:11:11Z</time>
      </trkpt>
      <trkpt lat="45.4315" lon="5.92199">
        <ele>1590.8</ele>
        <time>2012-08-29T10:11:15Z</time>
      </trkpt>
      <trkpt lat="45.43158" lon="5.92198">
        <ele>1590.2</ele>
        <time>2012-08-29T10:11:19Z</time>
      </trkpt>
      <trkpt lat="45.43159" lon="5.92197">
        <ele>1590.2</ele>
        <time>2012-08-29T10:11:20Z</time>
      </trkpt>
      <trkpt lat="45.43173" lon="5.92196">
        <ele>1589</ele>
        <time>2012-08-29T10:11:26Z</time>
      </trkpt>
      <trkpt lat="45.43198" lon="5.92185">
        <ele>1587.8</ele>
        <time>2012-08-29T10:11:36Z</time>
      </trkpt>
      <trkpt lat="45.43205" lon="5.92179">
        <ele>1587.8</ele>
        <time>2012-08-29T10:11:39Z</time>
      </trkpt>
      <trkpt lat="45.43219" lon="5.92168">
        <ele>1587</ele>
        <time>2012-08-29T10:11:44Z</time>
      </trkpt>
      <trkpt lat="45.4323" lon="5.92154">
        <ele>1586.2</ele>
        <time>2012-08-29T10:11:49Z</time>
      </trkpt>
      <trkpt lat="45.43238" lon="5.92143">
        <ele>1585.8</ele>
        <time>2012-08-29T10:11:54Z</time>
      </trkpt>
      <trkpt lat="45.43241" lon="5.9214">
        <ele>1585.8</ele>
        <time>2012-08-29T10:11:56Z</time>
      </trkpt>
      <trkpt lat="45.43247" lon="5.92133">
        <ele>1585.6</ele>
        <time>2012-08-29T10:12:00Z</time>
      </trkpt>
      <trkpt lat="45.43252" lon="5.92131">
        <ele>1585.6</ele>
        <time>2012-08-29T10:12:02Z</time>
      </trkpt>
      <trkpt lat="45.43259" lon="5.9213">
        <ele>1585.4</ele>
        <time>2012-08-29T10:12:06Z</time>
      </trkpt>
      <trkpt lat="45.43263" lon="5.92127">
        <ele>1585.4</ele>
        <time>2012-08-29T10:12:12Z</time>
      </trkpt>
      <trkpt lat="45.43272" lon="5.92125">
        <ele>1585.4</ele>
        <time>2012-08-29T10:12:16Z</time>
      </trkpt>
      <trkpt lat="45.4328" lon="5.92128">
        <ele>1585.4</ele>
        <time>2012-08-29T10:12:19Z</time>
      </trkpt>
      <trkpt lat="45.43295" lon="5.92136">
        <ele>1586.2</ele>
        <time>2012-08-29T10:12:26Z</time>
      </trkpt>
      <trkpt lat="45.43305" lon="5.92148">
        <ele>1586.6</ele>
        <time>2012-08-29T10:12:31Z</time>
      </trkpt>
      <trkpt lat="45.4331" lon="5.92159">
        <ele>1586.8</ele>
        <time>2012-08-29T10:12:35Z</time>
      </trkpt>
      <trkpt lat="45.43313" lon="5.92174">
        <ele>1587</ele>
        <time>2012-08-29T10:12:40Z</time>
      </trkpt>
      <trkpt lat="45.43319" lon="5.92181">
        <ele>1587</ele>
        <time>2012-08-29T10:12:43Z</time>
      </trkpt>
      <trkpt lat="45.43328" lon="5.92202">
        <ele>1587.2</ele>
        <time>2012-08-29T10:12:50Z</time>
      </trkpt>
      <trkpt lat="45.43331" lon="5.92204">
        <ele>1587</ele>
        <time>2012-08-29T10:12:51Z</time>
      </trkpt>
      <trkpt lat="45.43342" lon="5.9221">
        <ele>1586.2</ele>
        <time>2012-08-29T10:12:56Z</time>
      </trkpt>
      <trkpt lat="45.43345" lon="5.9221">
        <ele>1586</ele>
        <time>2012-08-29T10:12:57Z</time>
      </trkpt>
      <trkpt lat="45.43353" lon="5.92208">
        <ele>1585.8</ele>
        <time>2012-08-29T10:13:03Z</time>
      </trkpt>
      <trkpt lat="45.43357" lon="5.92212">
        <ele>1585.6</ele>
        <time>2012-08-29T10:13:04Z</time>
      </trkpt>
      <trkpt lat="45.43363" lon="5.92226">
        <ele>1585.4</ele>
        <time>2012-08-29T10:13:09Z</time>
      </trkpt>
      <trkpt lat="45.43369" lon="5.92229">
        <ele>1585.4</ele>
        <time>2012-08-29T10:13:13Z</time>
      </trkpt>
      <trkpt lat="45.43377" lon="5.92241">
        <ele>1584.8</ele>
        <time>2012-08-29T10:13:19Z</time>
      </trkpt>
      <trkpt lat="45.43386" lon="5.92254">
        <ele>1584</ele>
        <time>2012-08-29T10:13:24Z</time>
      </trkpt>
      <trkpt lat="45.43387" lon="5.92255">
        <ele>1583.8</ele>
        <time>2012-08-29T10:13:25Z</time>
      </trkpt>
      <trkpt lat="45.43395" lon="5.92257">
        <ele>1582.8</ele>
        <time>2012-08-29T10:13:28Z</time>
      </trkpt>
      <trkpt lat="45.43409" lon="5.92267">
        <ele>1581.2</ele>
        <time>2012-08-29T10:13:35Z</time>
      </trkpt>
      <trkpt lat="45.43416" lon="5.92284">
        <ele>1579.6</ele>
        <time>2012-08-29T10:13:42Z</time>
      </trkpt>
      <trkpt lat="45.43421" lon="5.92289">
        <ele>1579</ele>
        <time>2012-08-29T10:13:44Z</time>
      </trkpt>
      <trkpt lat="45.43422" lon="5.92294">
        <ele>1578.6</ele>
        <time>2012-08-29T10:13:46Z</time>
      </trkpt>
      <trkpt lat="45.43429" lon="5.92309">
        <ele>1577.6</ele>
        <time>2012-08-29T10:13:50Z</time>
      </trkpt>
      <trkpt lat="45.4343" lon="5.92313">
        <ele>1577.4</ele>
        <time>2012-08-29T10:13:51Z</time>
      </trkpt>
      <trkpt lat="45.43434" lon="5.92325">
        <ele>1576.4</ele>
        <time>2012-08-29T10:13:55Z</time>
      </trkpt>
      <trkpt lat="45.43443" lon="5.92337">
        <ele>1575.6</ele>
        <time>2012-08-29T10:13:59Z</time>
      </trkpt>
      <trkpt lat="45.43445" lon="5.9234">
        <ele>1575.2</ele>
        <time>2012-08-29T10:14:00Z</time>
      </trkpt>
      <trkpt lat="45.43458" lon="5.92343">
        <ele>1574.2</ele>
        <time>2012-08-29T10:14:04Z</time>
      </trkpt>
      <trkpt lat="45.43462" lon="5.92343">
        <ele>1574</ele>
        <time>2012-08-29T10:14:06Z</time>
      </trkpt>
      <trkpt lat="45.43474" lon="5.92338">
        <ele>1572.8</ele>
        <time>2012-08-29T10:14:13Z</time>
      </trkpt>
      <trkpt lat="45.43488" lon="5.92334">
        <ele>1571.6</ele>
        <time>2012-08-29T10:14:19Z</time>
      </trkpt>
      <trkpt lat="45.43498" lon="5.92323">
        <ele>1571</ele>
        <time>2012-08-29T10:14:24Z</time>
      </trkpt>
      <trkpt lat="45.43504" lon="5.92319">
        <ele>1570</ele>
        <time>2012-08-29T10:14:28Z</time>
      </trkpt>
      <trkpt lat="45.43522" lon="5.92315">
        <ele>1567.8</ele>
        <time>2012-08-29T10:14:37Z</time>
      </trkpt>
      <trkpt lat="45.4353" lon="5.92304">
        <ele>1566.6</ele>
        <time>2012-08-29T10:14:41Z</time>
      </trkpt>
      <trkpt lat="45.43537" lon="5.92294">
        <ele>1565.2</ele>
        <time>2012-08-29T10:14:45Z</time>
      </trkpt>
      <trkpt lat="45.43542" lon="5.9228">
        <ele>1564</ele>
        <time>2012-08-29T10:14:49Z</time>
      </trkpt>
      <trkpt lat="45.4355" lon="5.92264">
        <ele>1562.2</ele>
        <time>2012-08-29T10:14:54Z</time>
      </trkpt>
      <trkpt lat="45.4356" lon="5.92255">
        <ele>1561</ele>
        <time>2012-08-29T10:14:59Z</time>
      </trkpt>
      <trkpt lat="45.43567" lon="5.92241">
        <ele>1559.6</ele>
        <time>2012-08-29T10:15:04Z</time>
      </trkpt>
      <trkpt lat="45.43573" lon="5.92229">
        <ele>1558.2</ele>
        <time>2012-08-29T10:15:10Z</time>
      </trkpt>
      <trkpt lat="45.43579" lon="5.92218">
        <ele>1557</ele>
        <time>2012-08-29T10:15:15Z</time>
      </trkpt>
      <trkpt lat="45.43589" lon="5.92207">
        <ele>1556.2</ele>
        <time>2012-08-29T10:15:21Z</time>
      </trkpt>
      <trkpt lat="45.43607" lon="5.92196">
        <ele>1555.8</ele>
        <time>2012-08-29T10:15:29Z</time>
      </trkpt>
      <trkpt lat="45.43617" lon="5.92187">
        <ele>1555.6</ele>
        <time>2012-08-29T10:15:33Z</time>
      </trkpt>
      <trkpt lat="45.43629" lon="5.92183">
        <ele>1555.4</ele>
        <time>2012-08-29T10:15:39Z</time>
      </trkpt>
      <trkpt lat="45.43631" lon="5.92186">
        <ele>1555.4</ele>
        <time>2012-08-29T10:15:40Z</time>
      </trkpt>
      <trkpt lat="45.43636" lon="5.92187">
        <ele>1555.4</ele>
        <time>2012-08-29T10:15:43Z</time>
      </trkpt>
      <trkpt lat="45.43639" lon="5.9219">
        <ele>1555.4</ele>
        <time>2012-08-29T10:15:44Z</time>
      </trkpt>
      <trkpt lat="45.43646" lon="5.92195">
        <ele>1555.4</ele>
        <time>2012-08-29T10:15:48Z</time>
      </trkpt>
      <trkpt lat="45.43662" lon="5.92214">
        <ele>1555.4</ele>
        <time>2012-08-29T10:15:55Z</time>
      </trkpt>
      <trkpt lat="45.43671" lon="5.92219">
        <ele>1555.4</ele>
        <time>2012-08-29T10:15:59Z</time>
      </trkpt>
      <trkpt lat="45.43679" lon="5.92227">
        <ele>1554.8</ele>
        <time>2012-08-29T10:16:04Z</time>
      </trkpt>
      <trkpt lat="45.4368" lon="5.92227">
        <ele>1554.6</ele>
        <time>2012-08-29T10:16:05Z</time>
      </trkpt>
      <trkpt lat="45.43687" lon="5.92234">
        <ele>1554</ele>
        <time>2012-08-29T10:16:11Z</time>
      </trkpt>
      <trkpt lat="45.43694" lon="5.92234">
        <ele>1553.8</ele>
        <time>2012-08-29T10:16:15Z</time>
      </trkpt>
      <trkpt lat="45.43696" lon="5.92234">
        <ele>1553.8</ele>
        <time>2012-08-29T10:16:16Z</time>
      </trkpt>
      <trkpt lat="45.43699" lon="5.92235">
        <ele>1553.2</ele>
        <time>2012-08-29T10:16:18Z</time>
      </trkpt>
      <trkpt lat="45.43714" lon="5.92242">
        <ele>1552.4</ele>
        <time>2012-08-29T10:16:24Z</time>
      </trkpt>
      <trkpt lat="45.43727" lon="5.92239">
        <ele>1551.8</ele>
        <time>2012-08-29T10:16:29Z</time>
      </trkpt>
      <trkpt lat="45.4374" lon="5.92235">
        <ele>1551.6</ele>
        <time>2012-08-29T10:16:35Z</time>
      </trkpt>
      <trkpt lat="45.43748" lon="5.92229">
        <ele>1551.2</ele>
        <time>2012-08-29T10:16:39Z</time>
      </trkpt>
      <trkpt lat="45.43751" lon="5.92229">
        <ele>1551</ele>
        <time>2012-08-29T10:16:40Z</time>
      </trkpt>
      <trkpt lat="45.43765" lon="5.92207">
        <ele>1550</ele>
        <time>2012-08-29T10:16:48Z</time>
      </trkpt>
      <trkpt lat="45.43767" lon="5.92197">
        <ele>1549.8</ele>
        <time>2012-08-29T10:16:51Z</time>
      </trkpt>
      <trkpt lat="45.43765" lon="5.92179">
        <ele>1549.6</ele>
        <time>2012-08-29T10:16:56Z</time>
      </trkpt>
      <trkpt lat="45.43766" lon="5.92176">
        <ele>1549.6</ele>
        <time>2012-08-29T10:16:57Z</time>
      </trkpt>
      <trkpt lat="45.43768" lon="5.92164">
        <ele>1548.8</ele>
        <time>2012-08-29T10:17:01Z</time>
      </trkpt>
      <trkpt lat="45.43772" lon="5.92154">
        <ele>1548.4</ele>
        <time>2012-08-29T10:17:04Z</time>
      </trkpt>
      <trkpt lat="45.43784" lon="5.92142">
        <ele>1547.8</ele>
        <time>2012-08-29T10:17:10Z</time>
      </trkpt>
      <trkpt lat="45.43787" lon="5.92142">
        <ele>1547.8</ele>
        <time>2012-08-29T10:17:11Z</time>
      </trkpt>
      <trkpt lat="45.43794" lon="5.92141">
        <ele>1547.6</ele>
        <time>2012-08-29T10:17:15Z</time>
      </trkpt>
      <trkpt lat="45.43804" lon="5.92141">
        <ele>1547.4</ele>
        <time>2012-08-29T10:17:19Z</time>
      </trkpt>
      <trkpt lat="45.43814" lon="5.92149">
        <ele>1546.8</ele>
        <time>2012-08-29T10:17:24Z</time>
      </trkpt>
      <trkpt lat="45.43815" lon="5.9215">
        <ele>1546.6</ele>
        <time>2012-08-29T10:17:25Z</time>
      </trkpt>
      <trkpt lat="45.43828" lon="5.92156">
        <ele>1546</ele>
        <time>2012-08-29T10:17:31Z</time>
      </trkpt>
      <trkpt lat="45.43833" lon="5.92158">
        <ele>1545.8</ele>
        <time>2012-08-29T10:17:33Z</time>
      </trkpt>
      <trkpt lat="45.43839" lon="5.92162">
        <ele>1544.8</ele>
        <time>2012-08-29T10:17:37Z</time>
      </trkpt>
      <trkpt lat="45.43851" lon="5.92168">
        <ele>1543.4</ele>
        <time>2012-08-29T10:17:44Z</time>
      </trkpt>
      <trkpt lat="45.43852" lon="5.92168">
        <ele>1543</ele>
        <time>2012-08-29T10:17:45Z</time>
      </trkpt>
      <trkpt lat="45.43854" lon="5.92171">
        <ele>1542.8</ele>
        <time>2012-08-29T10:17:46Z</time>
      </trkpt>
      <trkpt lat="45.43862" lon="5.92176">
        <ele>1541.8</ele>
        <time>2012-08-29T10:17:50Z</time>
      </trkpt>
      <trkpt lat="45.43876" lon="5.92179">
        <ele>1540.4</ele>
        <time>2012-08-29T10:17:56Z</time>
      </trkpt>
      <trkpt lat="45.43883" lon="5.92183">
        <ele>1539.2</ele>
        <time>2012-08-29T10:18:00Z</time>
      </trkpt>
      <trkpt lat="45.43884" lon="5.92186">
        <ele>1539</ele>
        <time>2012-08-29T10:18:01Z</time>
      </trkpt>
      <trkpt lat="45.43887" lon="5.92191">
        <ele>1538.4</ele>
        <time>2012-08-29T10:18:04Z</time>
      </trkpt>
      <trkpt lat="45.43888" lon="5.92195">
        <ele>1538</ele>
        <time>2012-08-29T10:18:06Z</time>
      </trkpt>
      <trkpt lat="45.4389" lon="5.92201">
        <ele>1537</ele>
        <time>2012-08-29T10:18:09Z</time>
      </trkpt>
      <trkpt lat="45.43893" lon="5.92205">
        <ele>1536.4</ele>
        <time>2012-08-29T10:18:12Z</time>
      </trkpt>
      <trkpt lat="45.43896" lon="5.92209">
        <ele>1535.4</ele>
        <time>2012-08-29T10:18:15Z</time>
      </trkpt>
      <trkpt lat="45.439" lon="5.9222">
        <ele>1533.8</ele>
        <time>2012-08-29T10:18:20Z</time>
      </trkpt>
      <trkpt lat="45.43901" lon="5.9222">
        <ele>1533.4</ele>
        <time>2012-08-29T10:18:21Z</time>
      </trkpt>
      <trkpt lat="45.43907" lon="5.92221">
        <ele>1532.6</ele>
        <time>2012-08-29T10:18:24Z</time>
      </trkpt>
      <trkpt lat="45.43916" lon="5.92225">
        <ele>1530.4</ele>
        <time>2012-08-29T10:18:31Z</time>
      </trkpt>
      <trkpt lat="45.43924" lon="5.92224">
        <ele>1528.6</ele>
        <time>2012-08-29T10:18:36Z</time>
      </trkpt>
      <trkpt lat="45.43935" lon="5.92222">
        <ele>1525.8</ele>
        <time>2012-08-29T10:18:42Z</time>
      </trkpt>
      <trkpt lat="45.43946" lon="5.92208">
        <ele>1523.6</ele>
        <time>2012-08-29T10:18:47Z</time>
      </trkpt>
      <trkpt lat="45.43953" lon="5.92197">
        <ele>1521.4</ele>
        <time>2012-08-29T10:18:52Z</time>
      </trkpt>
      <trkpt lat="45.43954" lon="5.92194">
        <ele>1520.6</ele>
        <time>2012-08-29T10:18:54Z</time>
      </trkpt>
      <trkpt lat="45.43961" lon="5.92184">
        <ele>1518.2</ele>
        <time>2012-08-29T10:19:02Z</time>
      </trkpt>
      <trkpt lat="45.43967" lon="5.92177">
        <ele>1516.4</ele>
        <time>2012-08-29T10:19:09Z</time>
      </trkpt>
      <trkpt lat="45.43972" lon="5.9217">
        <ele>1515.6</ele>
        <time>2012-08-29T10:19:15Z</time>
      </trkpt>
      <trkpt lat="45.43977" lon="5.92162">
        <ele>1514.8</ele>
        <time>2012-08-29T10:19:22Z</time>
      </trkpt>
      <trkpt lat="45.43981" lon="5.92158">
        <ele>1514</ele>
        <time>2012-08-29T10:19:26Z</time>
      </trkpt>
      <trkpt lat="45.43984" lon="5.92156">
        <ele>1513.6</ele>
        <time>2012-08-29T10:19:31Z</time>
      </trkpt>
      <trkpt lat="45.43991" lon="5.92158">
        <ele>1513.2</ele>
        <time>2012-08-29T10:19:35Z</time>
      </trkpt>
      <trkpt lat="45.44002" lon="5.92165">
        <ele>1513</ele>
        <time>2012-08-29T10:19:41Z</time>
      </trkpt>
      <trkpt lat="45.44012" lon="5.92174">
        <ele>1512.2</ele>
        <time>2012-08-29T10:19:47Z</time>
      </trkpt>
      <trkpt lat="45.44019" lon="5.92182">
        <ele>1511.6</ele>
        <time>2012-08-29T10:19:52Z</time>
      </trkpt>
      <trkpt lat="45.44022" lon="5.92187">
        <ele>1511.4</ele>
        <time>2012-08-29T10:19:55Z</time>
      </trkpt>
      <trkpt lat="45.44028" lon="5.92189">
        <ele>1511</ele>
        <time>2012-08-29T10:20:00Z</time>
      </trkpt>
      <trkpt lat="45.44032" lon="5.9219">
        <ele>1511</ele>
        <time>2012-08-29T10:20:04Z</time>
      </trkpt>
      <trkpt lat="45.44038" lon="5.92192">
        <ele>1510.8</ele>
        <time>2012-08-29T10:20:10Z</time>
      </trkpt>
      <trkpt lat="45.44041" lon="5.92192">
        <ele>1510.8</ele>
        <time>2012-08-29T10:20:13Z</time>
      </trkpt>
      <trkpt lat="45.44047" lon="5.9219">
        <ele>1510.8</ele>
        <time>2012-08-29T10:20:20Z</time>
      </trkpt>
      <trkpt lat="45.44049" lon="5.92189">
        <ele>1510.8</ele>
        <time>2012-08-29T10:20:22Z</time>
      </trkpt>
      <trkpt lat="45.44052" lon="5.92189">
        <ele>1510.8</ele>
        <time>2012-08-29T10:20:25Z</time>
      </trkpt>
      <trkpt lat="45.44055" lon="5.92188">
        <ele>1510.8</ele>
        <time>2012-08-29T10:20:30Z</time>
      </trkpt>
      <trkpt lat="45.44057" lon="5.92183">
        <ele>1510.8</ele>
        <time>2012-08-29T10:20:37Z</time>
      </trkpt>
      <trkpt lat="45.44058" lon="5.92179">
        <ele>1511</ele>
        <time>2012-08-29T10:20:43Z</time>
      </trkpt>
      <trkpt lat="45.44061" lon="5.92173">
        <ele>1511.8</ele>
        <time>2012-08-29T10:20:49Z</time>
      </trkpt>
      <trkpt lat="45.44059" lon="5.92161">
        <ele>1513</ele>
        <time>2012-08-29T10:20:57Z</time>
      </trkpt>
      <trkpt lat="45.44061" lon="5.92155">
        <ele>1513.6</ele>
        <time>2012-08-29T10:21:01Z</time>
      </trkpt>
      <trkpt lat="45.44066" lon="5.92143">
        <ele>1514.6</ele>
        <time>2012-08-29T10:21:07Z</time>
      </trkpt>
      <trkpt lat="45.4407" lon="5.92131">
        <ele>1515.6</ele>
        <time>2012-08-29T10:21:13Z</time>
      </trkpt>
      <trkpt lat="45.44074" lon="5.92118">
        <ele>1516.2</ele>
        <time>2012-08-29T10:21:19Z</time>
      </trkpt>
      <trkpt lat="45.4408" lon="5.92101">
        <ele>1517.6</ele>
        <time>2012-08-29T10:21:26Z</time>
      </trkpt>
      <trkpt lat="45.44088" lon="5.92083">
        <ele>1518.8</ele>
        <time>2012-08-29T10:21:34Z</time>
      </trkpt>
      <trkpt lat="45.44096" lon="5.92067">
        <ele>1520</ele>
        <time>2012-08-29T10:21:41Z</time>
      </trkpt>
      <trkpt lat="45.44107" lon="5.92047">
        <ele>1521.2</ele>
        <time>2012-08-29T10:21:49Z</time>
      </trkpt>
      <trkpt lat="45.44115" lon="5.92033">
        <ele>1522.2</ele>
        <time>2012-08-29T10:21:55Z</time>
      </trkpt>
      <trkpt lat="45.44124" lon="5.92021">
        <ele>1523</ele>
        <time>2012-08-29T10:22:01Z</time>
      </trkpt>
      <trkpt lat="45.44134" lon="5.92003">
        <ele>1524.2</ele>
        <time>2012-08-29T10:22:09Z</time>
      </trkpt>
      <trkpt lat="45.44143" lon="5.91982">
        <ele>1525.6</ele>
        <time>2012-08-29T10:22:17Z</time>
      </trkpt>
      <trkpt lat="45.44153" lon="5.91943">
        <ele>1527.4</ele>
        <time>2012-08-29T10:22:31Z</time>
      </trkpt>
      <trkpt lat="45.44159" lon="5.91927">
        <ele>1528.4</ele>
        <time>2012-08-29T10:22:38Z</time>
      </trkpt>
      <trkpt lat="45.44159" lon="5.91925">
        <ele>1528.4</ele>
        <time>2012-08-29T10:22:39Z</time>
      </trkpt>
      <trkpt lat="45.44164" lon="5.91913">
        <ele>1528.8</ele>
        <time>2012-08-29T10:22:44Z</time>
      </trkpt>
      <trkpt lat="45.44169" lon="5.91899">
        <ele>1529.8</ele>
        <time>2012-08-29T10:22:52Z</time>
      </trkpt>
      <trkpt lat="45.44171" lon="5.91896">
        <ele>1530.2</ele>
        <time>2012-08-29T10:22:55Z</time>
      </trkpt>
      <trkpt lat="45.44172" lon="5.91892">
        <ele>1530.6</ele>
        <time>2012-08-29T10:22:59Z</time>
      </trkpt>
      <trkpt lat="45.44178" lon="5.91886">
        <ele>1531.8</ele>
        <time>2012-08-29T10:23:07Z</time>
      </trkpt>
      <trkpt lat="45.44178" lon="5.91887">
        <ele>1533</ele>
        <time>2012-08-29T10:23:17Z</time>
      </trkpt>
      <trkpt lat="45.44178" lon="5.91889">
        <ele>1533.2</ele>
        <time>2012-08-29T10:23:21Z</time>
      </trkpt>
      <trkpt lat="45.44178" lon="5.91885">
        <ele>1533.4</ele>
        <time>2012-08-29T10:23:33Z</time>
      </trkpt>
      <trkpt lat="45.44178" lon="5.91886">
        <ele>1534.4</ele>
        <time>2012-08-29T10:23:42Z</time>
      </trkpt>
      <trkpt lat="45.44178" lon="5.91886">
        <ele>1534.8</ele>
        <time>2012-08-29T10:23:46Z</time>
      </trkpt>
      <trkpt lat="45.44178" lon="5.91886">
        <ele>1537.6</ele>
        <time>2012-08-29T10:25:05Z</time>
      </trkpt>
      <trkpt lat="45.4418" lon="5.91885">
        <ele>1537.6</ele>
        <time>2012-08-29T10:25:15Z</time>
      </trkpt>
      <trkpt lat="45.44181" lon="5.91881">
        <ele>1537.6</ele>
        <time>2012-08-29T10:25:21Z</time>
      </trkpt>
      <trkpt lat="45.44181" lon="5.91879">
        <ele>1537.6</ele>
        <time>2012-08-29T10:25:37Z</time>
      </trkpt>
      <trkpt lat="45.44181" lon="5.91875">
        <ele>1538.6</ele>
        <time>2012-08-29T10:26:06Z</time>
      </trkpt>
      <trkpt lat="45.44182" lon="5.91874">
        <ele>1539.2</ele>
        <time>2012-08-29T10:26:14Z</time>
      </trkpt>
      <trkpt lat="45.44184" lon="5.91873">
        <ele>1539.6</ele>
        <time>2012-08-29T10:26:34Z</time>
      </trkpt>
      <trkpt lat="45.44185" lon="5.91873">
        <ele>1539.6</ele>
        <time>2012-08-29T10:26:44Z</time>
      </trkpt>
      <trkpt lat="45.44186" lon="5.91872">
        <ele>1539.6</ele>
        <time>2012-08-29T10:26:54Z</time>
      </trkpt>
      <trkpt lat="45.44186" lon="5.91875">
        <ele>1539.6</ele>
        <time>2012-08-29T10:26:59Z</time>
      </trkpt>
      <trkpt lat="45.44186" lon="5.91869">
        <ele>1539.6</ele>
        <time>2012-08-29T10:27:29Z</time>
      </trkpt>
      <trkpt lat="45.44188" lon="5.91866">
        <ele>1539.6</ele>
        <time>2012-08-29T10:27:31Z</time>
      </trkpt>
      <trkpt lat="45.44192" lon="5.91865">
        <ele>1539.4</ele>
        <time>2012-08-29T10:27:39Z</time>
      </trkpt>
      <trkpt lat="45.44196" lon="5.91859">
        <ele>1538.4</ele>
        <time>2012-08-29T10:27:47Z</time>
      </trkpt>
      <trkpt lat="45.44197" lon="5.91855">
        <ele>1537</ele>
        <time>2012-08-29T10:27:54Z</time>
      </trkpt>
      <trkpt lat="45.44197" lon="5.91852">
        <ele>1536.6</ele>
        <time>2012-08-29T10:27:56Z</time>
      </trkpt>
      <trkpt lat="45.442" lon="5.91845">
        <ele>1536</ele>
        <time>2012-08-29T10:28:03Z</time>
      </trkpt>
      <trkpt lat="45.44201" lon="5.91844">
        <ele>1535.6</ele>
        <time>2012-08-29T10:28:05Z</time>
      </trkpt>
      <trkpt lat="45.44202" lon="5.91837">
        <ele>1534.8</ele>
        <time>2012-08-29T10:28:09Z</time>
      </trkpt>
      <trkpt lat="45.44205" lon="5.91838">
        <ele>1534.4</ele>
        <time>2012-08-29T10:28:12Z</time>
      </trkpt>
      <trkpt lat="45.44208" lon="5.91837">
        <ele>1533.8</ele>
        <time>2012-08-29T10:28:15Z</time>
      </trkpt>
      <trkpt lat="45.44211" lon="5.91836">
        <ele>1533.2</ele>
        <time>2012-08-29T10:28:18Z</time>
      </trkpt>
      <trkpt lat="45.44212" lon="5.91834">
        <ele>1532.6</ele>
        <time>2012-08-29T10:28:21Z</time>
      </trkpt>
      <trkpt lat="45.44215" lon="5.91828">
        <ele>1531.4</ele>
        <time>2012-08-29T10:28:26Z</time>
      </trkpt>
      <trkpt lat="45.44215" lon="5.91824">
        <ele>1531</ele>
        <time>2012-08-29T10:28:28Z</time>
      </trkpt>
      <trkpt lat="45.44215" lon="5.91823">
        <ele>1530.8</ele>
        <time>2012-08-29T10:28:29Z</time>
      </trkpt>
      <trkpt lat="45.44215" lon="5.91819">
        <ele>1530.2</ele>
        <time>2012-08-29T10:28:33Z</time>
      </trkpt>
      <trkpt lat="45.44218" lon="5.91817">
        <ele>1528.6</ele>
        <time>2012-08-29T10:28:40Z</time>
      </trkpt>
      <trkpt lat="45.44221" lon="5.91815">
        <ele>1527</ele>
        <time>2012-08-29T10:28:46Z</time>
      </trkpt>
      <trkpt lat="45.44223" lon="5.91808">
        <ele>1526.2</ele>
        <time>2012-08-29T10:28:50Z</time>
      </trkpt>
      <trkpt lat="45.44222" lon="5.91806">
        <ele>1526</ele>
        <time>2012-08-29T10:28:51Z</time>
      </trkpt>
      <trkpt lat="45.44221" lon="5.918">
        <ele>1524.8</ele>
        <time>2012-08-29T10:28:56Z</time>
      </trkpt>
      <trkpt lat="45.44221" lon="5.91799">
        <ele>1524.6</ele>
        <time>2012-08-29T10:28:57Z</time>
      </trkpt>
      <trkpt lat="45.44223" lon="5.91797">
        <ele>1524.4</ele>
        <time>2012-08-29T10:28:58Z</time>
      </trkpt>
      <trkpt lat="45.44228" lon="5.91801">
        <ele>1523.4</ele>
        <time>2012-08-29T10:29:02Z</time>
      </trkpt>
      <trkpt lat="45.44232" lon="5.91808">
        <ele>1522.6</ele>
        <time>2012-08-29T10:29:06Z</time>
      </trkpt>
      <trkpt lat="45.44233" lon="5.91809">
        <ele>1522.4</ele>
        <time>2012-08-29T10:29:07Z</time>
      </trkpt>
      <trkpt lat="45.44234" lon="5.91809">
        <ele>1522.2</ele>
        <time>2012-08-29T10:29:08Z</time>
      </trkpt>
      <trkpt lat="45.44234" lon="5.91808">
        <ele>1522</ele>
        <time>2012-08-29T10:29:09Z</time>
      </trkpt>
      <trkpt lat="45.44235" lon="5.91799">
        <ele>1520.6</ele>
        <time>2012-08-29T10:29:14Z</time>
      </trkpt>
      <trkpt lat="45.44235" lon="5.91798">
        <ele>1520.4</ele>
        <time>2012-08-29T10:29:15Z</time>
      </trkpt>
      <trkpt lat="45.44233" lon="5.9179">
        <ele>1519.8</ele>
        <time>2012-08-29T10:29:19Z</time>
      </trkpt>
      <trkpt lat="45.44234" lon="5.91784">
        <ele>1519</ele>
        <time>2012-08-29T10:29:22Z</time>
      </trkpt>
      <trkpt lat="45.44233" lon="5.91775">
        <ele>1517.8</ele>
        <time>2012-08-29T10:29:28Z</time>
      </trkpt>
      <trkpt lat="45.44239" lon="5.9177">
        <ele>1516.8</ele>
        <time>2012-08-29T10:29:32Z</time>
      </trkpt>
      <trkpt lat="45.44242" lon="5.91771">
        <ele>1516</ele>
        <time>2012-08-29T10:29:36Z</time>
      </trkpt>
      <trkpt lat="45.44245" lon="5.91777">
        <ele>1514.8</ele>
        <time>2012-08-29T10:29:40Z</time>
      </trkpt>
      <trkpt lat="45.44246" lon="5.9178">
        <ele>1514.4</ele>
        <time>2012-08-29T10:29:42Z</time>
      </trkpt>
      <trkpt lat="45.44247" lon="5.91781">
        <ele>1513.6</ele>
        <time>2012-08-29T10:29:44Z</time>
      </trkpt>
      <trkpt lat="45.44252" lon="5.91785">
        <ele>1512.2</ele>
        <time>2012-08-29T10:29:49Z</time>
      </trkpt>
      <trkpt lat="45.44258" lon="5.9179">
        <ele>1510.6</ele>
        <time>2012-08-29T10:29:54Z</time>
      </trkpt>
      <trkpt lat="45.44262" lon="5.91795">
        <ele>1509.4</ele>
        <time>2012-08-29T10:29:58Z</time>
      </trkpt>
      <trkpt lat="45.44262" lon="5.91797">
        <ele>1509</ele>
        <time>2012-08-29T10:29:59Z</time>
      </trkpt>
      <trkpt lat="45.44264" lon="5.918">
        <ele>1508.2</ele>
        <time>2012-08-29T10:30:02Z</time>
      </trkpt>
      <trkpt lat="45.44269" lon="5.91806">
        <ele>1506.6</ele>
        <time>2012-08-29T10:30:06Z</time>
      </trkpt>
      <trkpt lat="45.4427" lon="5.91807">
        <ele>1506.4</ele>
        <time>2012-08-29T10:30:07Z</time>
      </trkpt>
      <trkpt lat="45.44273" lon="5.91811">
        <ele>1505</ele>
        <time>2012-08-29T10:30:11Z</time>
      </trkpt>
      <trkpt lat="45.44274" lon="5.91812">
        <ele>1504.8</ele>
        <time>2012-08-29T10:30:12Z</time>
      </trkpt>
      <trkpt lat="45.44275" lon="5.91814">
        <ele>1504.2</ele>
        <time>2012-08-29T10:30:14Z</time>
      </trkpt>
      <trkpt lat="45.44279" lon="5.91822">
        <ele>1502.4</ele>
        <time>2012-08-29T10:30:19Z</time>
      </trkpt>
      <trkpt lat="45.44279" lon="5.91823">
        <ele>1502.2</ele>
        <time>2012-08-29T10:30:20Z</time>
      </trkpt>
      <trkpt lat="45.44279" lon="5.91827">
        <ele>1501.4</ele>
        <time>2012-08-29T10:30:23Z</time>
      </trkpt>
      <trkpt lat="45.44281" lon="5.91831">
        <ele>1500.6</ele>
        <time>2012-08-29T10:30:25Z</time>
      </trkpt>
      <trkpt lat="45.44285" lon="5.91841">
        <ele>1499.2</ele>
        <time>2012-08-29T10:30:30Z</time>
      </trkpt>
      <trkpt lat="45.44287" lon="5.91845">
        <ele>1498.4</ele>
        <time>2012-08-29T10:30:32Z</time>
      </trkpt>
      <trkpt lat="45.4429" lon="5.91847">
        <ele>1497.8</ele>
        <time>2012-08-29T10:30:34Z</time>
      </trkpt>
      <trkpt lat="45.44294" lon="5.91848">
        <ele>1497</ele>
        <time>2012-08-29T10:30:37Z</time>
      </trkpt>
      <trkpt lat="45.44297" lon="5.91845">
        <ele>1495.6</ele>
        <time>2012-08-29T10:30:41Z</time>
      </trkpt>
      <trkpt lat="45.44301" lon="5.9184">
        <ele>1494.2</ele>
        <time>2012-08-29T10:30:45Z</time>
      </trkpt>
      <trkpt lat="45.44307" lon="5.91832">
        <ele>1492.2</ele>
        <time>2012-08-29T10:30:51Z</time>
      </trkpt>
      <trkpt lat="45.44313" lon="5.91822">
        <ele>1490.4</ele>
        <time>2012-08-29T10:30:57Z</time>
      </trkpt>
      <trkpt lat="45.44317" lon="5.91814">
        <ele>1489.2</ele>
        <time>2012-08-29T10:31:01Z</time>
      </trkpt>
      <trkpt lat="45.44322" lon="5.9181">
        <ele>1488</ele>
        <time>2012-08-29T10:31:05Z</time>
      </trkpt>
      <trkpt lat="45.44324" lon="5.91803">
        <ele>1486.8</ele>
        <time>2012-08-29T10:31:09Z</time>
      </trkpt>
      <trkpt lat="45.4433" lon="5.9179">
        <ele>1485.2</ele>
        <time>2012-08-29T10:31:14Z</time>
      </trkpt>
      <trkpt lat="45.44331" lon="5.91788">
        <ele>1485</ele>
        <time>2012-08-29T10:31:15Z</time>
      </trkpt>
      <trkpt lat="45.44332" lon="5.91783">
        <ele>1484.4</ele>
        <time>2012-08-29T10:31:17Z</time>
      </trkpt>
      <trkpt lat="45.44332" lon="5.91776">
        <ele>1483.4</ele>
        <time>2012-08-29T10:31:20Z</time>
      </trkpt>
      <trkpt lat="45.44334" lon="5.91771">
        <ele>1482.8</ele>
        <time>2012-08-29T10:31:22Z</time>
      </trkpt>
      <trkpt lat="45.44337" lon="5.91767">
        <ele>1481.8</ele>
        <time>2012-08-29T10:31:25Z</time>
      </trkpt>
      <trkpt lat="45.4434" lon="5.91758">
        <ele>1480.6</ele>
        <time>2012-08-29T10:31:29Z</time>
      </trkpt>
      <trkpt lat="45.44341" lon="5.91757">
        <ele>1480.4</ele>
        <time>2012-08-29T10:31:30Z</time>
      </trkpt>
      <trkpt lat="45.44342" lon="5.91749">
        <ele>1478.8</ele>
        <time>2012-08-29T10:31:35Z</time>
      </trkpt>
      <trkpt lat="45.44342" lon="5.91748">
        <ele>1478.4</ele>
        <time>2012-08-29T10:31:36Z</time>
      </trkpt>
      <trkpt lat="45.4434" lon="5.91748">
        <ele>1477</ele>
        <time>2012-08-29T10:31:40Z</time>
      </trkpt>
      <trkpt lat="45.44339" lon="5.91748">
        <ele>1476.6</ele>
        <time>2012-08-29T10:31:41Z</time>
      </trkpt>
      <trkpt lat="45.44339" lon="5.91737">
        <ele>1474.6</ele>
        <time>2012-08-29T10:31:46Z</time>
      </trkpt>
      <trkpt lat="45.4434" lon="5.91732">
        <ele>1473.8</ele>
        <time>2012-08-29T10:31:48Z</time>
      </trkpt>
      <trkpt lat="45.44349" lon="5.91728">
        <ele>1471.8</ele>
        <time>2012-08-29T10:31:53Z</time>
      </trkpt>
      <trkpt lat="45.44352" lon="5.91728">
        <ele>1470.6</ele>
        <time>2012-08-29T10:31:56Z</time>
      </trkpt>
      <trkpt lat="45.44355" lon="5.91719">
        <ele>1468.4</ele>
        <time>2012-08-29T10:32:01Z</time>
      </trkpt>
      <trkpt lat="45.44353" lon="5.9171">
        <ele>1466</ele>
        <time>2012-08-29T10:32:06Z</time>
      </trkpt>
      <trkpt lat="45.44352" lon="5.91709">
        <ele>1465.4</ele>
        <time>2012-08-29T10:32:07Z</time>
      </trkpt>
      <trkpt lat="45.44349" lon="5.9171">
        <ele>1463.4</ele>
        <time>2012-08-29T10:32:11Z</time>
      </trkpt>
      <trkpt lat="45.44346" lon="5.91707">
        <ele>1461.4</ele>
        <time>2012-08-29T10:32:15Z</time>
      </trkpt>
      <trkpt lat="45.44343" lon="5.91706">
        <ele>1459.6</ele>
        <time>2012-08-29T10:32:19Z</time>
      </trkpt>
      <trkpt lat="45.44341" lon="5.91697">
        <ele>1457</ele>
        <time>2012-08-29T10:32:25Z</time>
      </trkpt>
      <trkpt lat="45.44342" lon="5.91696">
        <ele>1456.4</ele>
        <time>2012-08-29T10:32:26Z</time>
      </trkpt>
      <trkpt lat="45.44344" lon="5.9169">
        <ele>1454.8</ele>
        <time>2012-08-29T10:32:30Z</time>
      </trkpt>
      <trkpt lat="45.44345" lon="5.91689">
        <ele>1454.2</ele>
        <time>2012-08-29T10:32:32Z</time>
      </trkpt>
      <trkpt lat="45.44344" lon="5.91688">
        <ele>1453.4</ele>
        <time>2012-08-29T10:32:33Z</time>
      </trkpt>
      <trkpt lat="45.44345" lon="5.91683">
        <ele>1451.6</ele>
        <time>2012-08-29T10:32:37Z</time>
      </trkpt>
      <trkpt lat="45.4434" lon="5.91679">
        <ele>1450</ele>
        <time>2012-08-29T10:32:41Z</time>
      </trkpt>
      <trkpt lat="45.44337" lon="5.91676">
        <ele>1448</ele>
        <time>2012-08-29T10:32:45Z</time>
      </trkpt>
      <trkpt lat="45.44332" lon="5.91673">
        <ele>1445.6</ele>
        <time>2012-08-29T10:32:50Z</time>
      </trkpt>
      <trkpt lat="45.44326" lon="5.91674">
        <ele>1443.4</ele>
        <time>2012-08-29T10:32:54Z</time>
      </trkpt>
      <trkpt lat="45.44325" lon="5.91674">
        <ele>1442.8</ele>
        <time>2012-08-29T10:32:55Z</time>
      </trkpt>
      <trkpt lat="45.44324" lon="5.91673">
        <ele>1442.4</ele>
        <time>2012-08-29T10:32:56Z</time>
      </trkpt>
      <trkpt lat="45.4432" lon="5.91667">
        <ele>1440.2</ele>
        <time>2012-08-29T10:33:00Z</time>
      </trkpt>
      <trkpt lat="45.44321" lon="5.91664">
        <ele>1439.6</ele>
        <time>2012-08-29T10:33:01Z</time>
      </trkpt>
      <trkpt lat="45.44321" lon="5.91664">
        <ele>1439</ele>
        <time>2012-08-29T10:33:02Z</time>
      </trkpt>
      <trkpt lat="45.44325" lon="5.91659">
        <ele>1436.8</ele>
        <time>2012-08-29T10:33:06Z</time>
      </trkpt>
      <trkpt lat="45.44328" lon="5.91655">
        <ele>1435.2</ele>
        <time>2012-08-29T10:33:09Z</time>
      </trkpt>
      <trkpt lat="45.44327" lon="5.91653">
        <ele>1434</ele>
        <time>2012-08-29T10:33:11Z</time>
      </trkpt>
      <trkpt lat="45.44325" lon="5.9165">
        <ele>1432.4</ele>
        <time>2012-08-29T10:33:14Z</time>
      </trkpt>
      <trkpt lat="45.44323" lon="5.9165">
        <ele>1431.4</ele>
        <time>2012-08-29T10:33:16Z</time>
      </trkpt>
      <trkpt lat="45.44317" lon="5.91648">
        <ele>1428.8</ele>
        <time>2012-08-29T10:33:21Z</time>
      </trkpt>
      <trkpt lat="45.44315" lon="5.91645">
        <ele>1427.2</ele>
        <time>2012-08-29T10:33:24Z</time>
      </trkpt>
      <trkpt lat="45.44315" lon="5.91643">
        <ele>1426.4</ele>
        <time>2012-08-29T10:33:26Z</time>
      </trkpt>
      <trkpt lat="45.44317" lon="5.91638">
        <ele>1424.8</ele>
        <time>2012-08-29T10:33:29Z</time>
      </trkpt>
      <trkpt lat="45.44322" lon="5.91628">
        <ele>1422</ele>
        <time>2012-08-29T10:33:35Z</time>
      </trkpt>
      <trkpt lat="45.44322" lon="5.91627">
        <ele>1421.6</ele>
        <time>2012-08-29T10:33:36Z</time>
      </trkpt>
      <trkpt lat="45.44313" lon="5.91627">
        <ele>1418.6</ele>
        <time>2012-08-29T10:33:42Z</time>
      </trkpt>
      <trkpt lat="45.44305" lon="5.91627">
        <ele>1416.6</ele>
        <time>2012-08-29T10:33:46Z</time>
      </trkpt>
      <trkpt lat="45.44304" lon="5.91627">
        <ele>1416</ele>
        <time>2012-08-29T10:33:47Z</time>
      </trkpt>
      <trkpt lat="45.44303" lon="5.91626">
        <ele>1415.6</ele>
        <time>2012-08-29T10:33:48Z</time>
      </trkpt>
      <trkpt lat="45.44304" lon="5.91618">
        <ele>1413.6</ele>
        <time>2012-08-29T10:33:52Z</time>
      </trkpt>
      <trkpt lat="45.44299" lon="5.91614">
        <ele>1411</ele>
        <time>2012-08-29T10:33:57Z</time>
      </trkpt>
      <trkpt lat="45.44298" lon="5.91613">
        <ele>1410.4</ele>
        <time>2012-08-29T10:33:58Z</time>
      </trkpt>
      <trkpt lat="45.44296" lon="5.91614">
        <ele>1409.4</ele>
        <time>2012-08-29T10:34:00Z</time>
      </trkpt>
      <trkpt lat="45.44294" lon="5.91613">
        <ele>1407.8</ele>
        <time>2012-08-29T10:34:03Z</time>
      </trkpt>
      <trkpt lat="45.44289" lon="5.9162">
        <ele>1405</ele>
        <time>2012-08-29T10:34:08Z</time>
      </trkpt>
      <trkpt lat="45.44286" lon="5.9162">
        <ele>1404</ele>
        <time>2012-08-29T10:34:10Z</time>
      </trkpt>
      <trkpt lat="45.44281" lon="5.91622">
        <ele>1401.8</ele>
        <time>2012-08-29T10:34:14Z</time>
      </trkpt>
      <trkpt lat="45.44275" lon="5.91625">
        <ele>1398.6</ele>
        <time>2012-08-29T10:34:20Z</time>
      </trkpt>
      <trkpt lat="45.44275" lon="5.91625">
        <ele>1398.2</ele>
        <time>2012-08-29T10:34:21Z</time>
      </trkpt>
      <trkpt lat="45.44274" lon="5.91622">
        <ele>1397.4</ele>
        <time>2012-08-29T10:34:23Z</time>
      </trkpt>
      <trkpt lat="45.4427" lon="5.91618">
        <ele>1395.6</ele>
        <time>2012-08-29T10:34:26Z</time>
      </trkpt>
      <trkpt lat="45.4427" lon="5.91615">
        <ele>1394.8</ele>
        <time>2012-08-29T10:34:28Z</time>
      </trkpt>
      <trkpt lat="45.4427" lon="5.91612">
        <ele>1393.2</ele>
        <time>2012-08-29T10:34:31Z</time>
      </trkpt>
      <trkpt lat="45.44265" lon="5.9161">
        <ele>1390.6</ele>
        <time>2012-08-29T10:34:36Z</time>
      </trkpt>
      <trkpt lat="45.44265" lon="5.91604">
        <ele>1389</ele>
        <time>2012-08-29T10:34:39Z</time>
      </trkpt>
      <trkpt lat="45.4426" lon="5.91593">
        <ele>1386.2</ele>
        <time>2012-08-29T10:34:44Z</time>
      </trkpt>
      <trkpt lat="45.44261" lon="5.91592">
        <ele>1385.6</ele>
        <time>2012-08-29T10:34:45Z</time>
      </trkpt>
      <trkpt lat="45.44263" lon="5.91588">
        <ele>1384.4</ele>
        <time>2012-08-29T10:34:47Z</time>
      </trkpt>
      <trkpt lat="45.44263" lon="5.91577">
        <ele>1382.2</ele>
        <time>2012-08-29T10:34:51Z</time>
      </trkpt>
      <trkpt lat="45.44269" lon="5.91569">
        <ele>1380</ele>
        <time>2012-08-29T10:34:55Z</time>
      </trkpt>
      <trkpt lat="45.44274" lon="5.9156">
        <ele>1377.6</ele>
        <time>2012-08-29T10:34:59Z</time>
      </trkpt>
      <trkpt lat="45.44279" lon="5.91546">
        <ele>1374.8</ele>
        <time>2012-08-29T10:35:04Z</time>
      </trkpt>
      <trkpt lat="45.44284" lon="5.91537">
        <ele>1373</ele>
        <time>2012-08-29T10:35:08Z</time>
      </trkpt>
      <trkpt lat="45.44287" lon="5.9153">
        <ele>1371.6</ele>
        <time>2012-08-29T10:35:11Z</time>
      </trkpt>
      <trkpt lat="45.44289" lon="5.91521">
        <ele>1370</ele>
        <time>2012-08-29T10:35:15Z</time>
      </trkpt>
      <trkpt lat="45.44291" lon="5.91517">
        <ele>1369</ele>
        <time>2012-08-29T10:35:17Z</time>
      </trkpt>
      <trkpt lat="45.44295" lon="5.9151">
        <ele>1366.8</ele>
        <time>2012-08-29T10:35:22Z</time>
      </trkpt>
      <trkpt lat="45.44298" lon="5.91503">
        <ele>1365.2</ele>
        <time>2012-08-29T10:35:26Z</time>
      </trkpt>
      <trkpt lat="45.44302" lon="5.91499">
        <ele>1363.8</ele>
        <time>2012-08-29T10:35:29Z</time>
      </trkpt>
      <trkpt lat="45.44304" lon="5.91496">
        <ele>1363</ele>
        <time>2012-08-29T10:35:31Z</time>
      </trkpt>
      <trkpt lat="45.4431" lon="5.91485">
        <ele>1360</ele>
        <time>2012-08-29T10:35:37Z</time>
      </trkpt>
      <trkpt lat="45.44315" lon="5.91479">
        <ele>1358.2</ele>
        <time>2012-08-29T10:35:41Z</time>
      </trkpt>
      <trkpt lat="45.44317" lon="5.9147">
        <ele>1356.4</ele>
        <time>2012-08-29T10:35:45Z</time>
      </trkpt>
      <trkpt lat="45.44319" lon="5.91465">
        <ele>1355.4</ele>
        <time>2012-08-29T10:35:47Z</time>
      </trkpt>
      <trkpt lat="45.44322" lon="5.91461">
        <ele>1354.8</ele>
        <time>2012-08-29T10:35:49Z</time>
      </trkpt>
      <trkpt lat="45.44327" lon="5.91454">
        <ele>1352.2</ele>
        <time>2012-08-29T10:35:54Z</time>
      </trkpt>
      <trkpt lat="45.44329" lon="5.91444">
        <ele>1349.4</ele>
        <time>2012-08-29T10:35:59Z</time>
      </trkpt>
      <trkpt lat="45.44332" lon="5.91442">
        <ele>1347.8</ele>
        <time>2012-08-29T10:36:02Z</time>
      </trkpt>
      <trkpt lat="45.44332" lon="5.9144">
        <ele>1347.2</ele>
        <time>2012-08-29T10:36:03Z</time>
      </trkpt>
      <trkpt lat="45.44333" lon="5.91433">
        <ele>1345</ele>
        <time>2012-08-29T10:36:07Z</time>
      </trkpt>
      <trkpt lat="45.44335" lon="5.91423">
        <ele>1342.6</ele>
        <time>2012-08-29T10:36:11Z</time>
      </trkpt>
      <trkpt lat="45.44333" lon="5.91418">
        <ele>1340.4</ele>
        <time>2012-08-29T10:36:15Z</time>
      </trkpt>
      <trkpt lat="45.4433" lon="5.9141">
        <ele>1337.2</ele>
        <time>2012-08-29T10:36:20Z</time>
      </trkpt>
      <trkpt lat="45.44331" lon="5.91408">
        <ele>1336.8</ele>
        <time>2012-08-29T10:36:21Z</time>
      </trkpt>
      <trkpt lat="45.4433" lon="5.91406">
        <ele>1336</ele>
        <time>2012-08-29T10:36:22Z</time>
      </trkpt>
      <trkpt lat="45.4433" lon="5.91395">
        <ele>1333</ele>
        <time>2012-08-29T10:36:27Z</time>
      </trkpt>
      <trkpt lat="45.44331" lon="5.91391">
        <ele>1331.8</ele>
        <time>2012-08-29T10:36:29Z</time>
      </trkpt>
      <trkpt lat="45.44338" lon="5.91378">
        <ele>1328.6</ele>
        <time>2012-08-29T10:36:34Z</time>
      </trkpt>
      <trkpt lat="45.44343" lon="5.91367">
        <ele>1325.6</ele>
        <time>2012-08-29T10:36:39Z</time>
      </trkpt>
      <trkpt lat="45.44343" lon="5.91363">
        <ele>1325</ele>
        <time>2012-08-29T10:36:40Z</time>
      </trkpt>
      <trkpt lat="45.44344" lon="5.9136">
        <ele>1324.4</ele>
        <time>2012-08-29T10:36:41Z</time>
      </trkpt>
      <trkpt lat="45.44349" lon="5.91349">
        <ele>1321.2</ele>
        <time>2012-08-29T10:36:46Z</time>
      </trkpt>
      <trkpt lat="45.4435" lon="5.91348">
        <ele>1320.6</ele>
        <time>2012-08-29T10:36:47Z</time>
      </trkpt>
      <trkpt lat="45.44356" lon="5.9134">
        <ele>1317.4</ele>
        <time>2012-08-29T10:36:52Z</time>
      </trkpt>
      <trkpt lat="45.44363" lon="5.91328">
        <ele>1314.4</ele>
        <time>2012-08-29T10:36:57Z</time>
      </trkpt>
      <trkpt lat="45.44364" lon="5.91326">
        <ele>1313.6</ele>
        <time>2012-08-29T10:36:58Z</time>
      </trkpt>
      <trkpt lat="45.4437" lon="5.91311">
        <ele>1309.8</ele>
        <time>2012-08-29T10:37:04Z</time>
      </trkpt>
      <trkpt lat="45.44375" lon="5.91303">
        <ele>1307.4</ele>
        <time>2012-08-29T10:37:08Z</time>
      </trkpt>
      <trkpt lat="45.44381" lon="5.91292">
        <ele>1304.8</ele>
        <time>2012-08-29T10:37:13Z</time>
      </trkpt>
      <trkpt lat="45.44382" lon="5.9129">
        <ele>1304</ele>
        <time>2012-08-29T10:37:14Z</time>
      </trkpt>
      <trkpt lat="45.44385" lon="5.91285">
        <ele>1302.6</ele>
        <time>2012-08-29T10:37:17Z</time>
      </trkpt>
      <trkpt lat="45.44387" lon="5.9128">
        <ele>1300.4</ele>
        <time>2012-08-29T10:37:21Z</time>
      </trkpt>
      <trkpt lat="45.44395" lon="5.91278">
        <ele>1297.6</ele>
        <time>2012-08-29T10:37:26Z</time>
      </trkpt>
      <trkpt lat="45.44397" lon="5.91278">
        <ele>1296.4</ele>
        <time>2012-08-29T10:37:28Z</time>
      </trkpt>
      <trkpt lat="45.44398" lon="5.91269">
        <ele>1293.8</ele>
        <time>2012-08-29T10:37:33Z</time>
      </trkpt>
      <trkpt lat="45.44398" lon="5.91268">
        <ele>1293.2</ele>
        <time>2012-08-29T10:37:34Z</time>
      </trkpt>
      <trkpt lat="45.44397" lon="5.91268">
        <ele>1286</ele>
        <time>2012-08-29T10:37:48Z</time>
      </trkpt>
      <trkpt lat="45.44397" lon="5.9126">
        <ele>1283.8</ele>
        <time>2012-08-29T10:37:52Z</time>
      </trkpt>
      <trkpt lat="45.44398" lon="5.91256">
        <ele>1282.8</ele>
        <time>2012-08-29T10:37:54Z</time>
      </trkpt>
      <trkpt lat="45.4439" lon="5.91248">
        <ele>1279.8</ele>
        <time>2012-08-29T10:37:59Z</time>
      </trkpt>
      <trkpt lat="45.44386" lon="5.91242">
        <ele>1278.2</ele>
        <time>2012-08-29T10:38:02Z</time>
      </trkpt>
      <trkpt lat="45.44385" lon="5.9124">
        <ele>1277.6</ele>
        <time>2012-08-29T10:38:03Z</time>
      </trkpt>
      <trkpt lat="45.44384" lon="5.91238">
        <ele>1277</ele>
        <time>2012-08-29T10:38:04Z</time>
      </trkpt>
      <trkpt lat="45.44379" lon="5.91237">
        <ele>1275.4</ele>
        <time>2012-08-29T10:38:07Z</time>
      </trkpt>
      <trkpt lat="45.44376" lon="5.91234">
        <ele>1274.2</ele>
        <time>2012-08-29T10:38:09Z</time>
      </trkpt>
      <trkpt lat="45.4437" lon="5.91227">
        <ele>1272.2</ele>
        <time>2012-08-29T10:38:13Z</time>
      </trkpt>
      <trkpt lat="45.44367" lon="5.91216">
        <ele>1269.6</ele>
        <time>2012-08-29T10:38:18Z</time>
      </trkpt>
      <trkpt lat="45.44365" lon="5.91211">
        <ele>1268.4</ele>
        <time>2012-08-29T10:38:20Z</time>
      </trkpt>
      <trkpt lat="45.44364" lon="5.912">
        <ele>1265.2</ele>
        <time>2012-08-29T10:38:26Z</time>
      </trkpt>
      <trkpt lat="45.44364" lon="5.91199">
        <ele>1263.2</ele>
        <time>2012-08-29T10:38:30Z</time>
      </trkpt>
      <trkpt lat="45.44354" lon="5.91199">
        <ele>1260</ele>
        <time>2012-08-29T10:38:37Z</time>
      </trkpt>
      <trkpt lat="45.4435" lon="5.91198">
        <ele>1258.2</ele>
        <time>2012-08-29T10:38:41Z</time>
      </trkpt>
      <trkpt lat="45.44345" lon="5.91195">
        <ele>1256.4</ele>
        <time>2012-08-29T10:38:45Z</time>
      </trkpt>
      <trkpt lat="45.44341" lon="5.91193">
        <ele>1254.6</ele>
        <time>2012-08-29T10:38:49Z</time>
      </trkpt>
      <trkpt lat="45.4434" lon="5.91187">
        <ele>1253</ele>
        <time>2012-08-29T10:38:53Z</time>
      </trkpt>
      <trkpt lat="45.44338" lon="5.91182">
        <ele>1251.4</ele>
        <time>2012-08-29T10:38:57Z</time>
      </trkpt>
      <trkpt lat="45.44336" lon="5.91179">
        <ele>1250.4</ele>
        <time>2012-08-29T10:38:59Z</time>
      </trkpt>
      <trkpt lat="45.44335" lon="5.91172">
        <ele>1248.2</ele>
        <time>2012-08-29T10:39:04Z</time>
      </trkpt>
      <trkpt lat="45.44332" lon="5.91163">
        <ele>1245.4</ele>
        <time>2012-08-29T10:39:10Z</time>
      </trkpt>
      <trkpt lat="45.44332" lon="5.91159">
        <ele>1244.8</ele>
        <time>2012-08-29T10:39:12Z</time>
      </trkpt>
      <trkpt lat="45.44331" lon="5.91157">
        <ele>1243.6</ele>
        <time>2012-08-29T10:39:14Z</time>
      </trkpt>
      <trkpt lat="45.44326" lon="5.91147">
        <ele>1241.8</ele>
        <time>2012-08-29T10:39:18Z</time>
      </trkpt>
      <trkpt lat="45.44321" lon="5.91132">
        <ele>1240</ele>
        <time>2012-08-29T10:39:22Z</time>
      </trkpt>
      <trkpt lat="45.44315" lon="5.91113">
        <ele>1237</ele>
        <time>2012-08-29T10:39:28Z</time>
      </trkpt>
      <trkpt lat="45.44317" lon="5.91099">
        <ele>1234.6</ele>
        <time>2012-08-29T10:39:33Z</time>
      </trkpt>
      <trkpt lat="45.44318" lon="5.91091">
        <ele>1233.6</ele>
        <time>2012-08-29T10:39:35Z</time>
      </trkpt>
      <trkpt lat="45.44319" lon="5.91075">
        <ele>1231.8</ele>
        <time>2012-08-29T10:39:39Z</time>
      </trkpt>
      <trkpt lat="45.44322" lon="5.91063">
        <ele>1230</ele>
        <time>2012-08-29T10:39:43Z</time>
      </trkpt>
      <trkpt lat="45.44322" lon="5.91061">
        <ele>1229.6</ele>
        <time>2012-08-29T10:39:44Z</time>
      </trkpt>
      <trkpt lat="45.44321" lon="5.9106">
        <ele>1229.2</ele>
        <time>2012-08-29T10:39:45Z</time>
      </trkpt>
      <trkpt lat="45.44324" lon="5.91056">
        <ele>1227.8</ele>
        <time>2012-08-29T10:39:48Z</time>
      </trkpt>
      <trkpt lat="45.44327" lon="5.91052">
        <ele>1227</ele>
        <time>2012-08-29T10:39:50Z</time>
      </trkpt>
      <trkpt lat="45.44337" lon="5.9104">
        <ele>1224.4</ele>
        <time>2012-08-29T10:39:56Z</time>
      </trkpt>
      <trkpt lat="45.4434" lon="5.91036">
        <ele>1223.4</ele>
        <time>2012-08-29T10:39:58Z</time>
      </trkpt>
      <trkpt lat="45.44345" lon="5.91024">
        <ele>1220.6</ele>
        <time>2012-08-29T10:40:04Z</time>
      </trkpt>
      <trkpt lat="45.44348" lon="5.91016">
        <ele>1219.4</ele>
        <time>2012-08-29T10:40:07Z</time>
      </trkpt>
      <trkpt lat="45.44354" lon="5.91006">
        <ele>1216.6</ele>
        <time>2012-08-29T10:40:13Z</time>
      </trkpt>
      <trkpt lat="45.44355" lon="5.91004">
        <ele>1216.2</ele>
        <time>2012-08-29T10:40:14Z</time>
      </trkpt>
      <trkpt lat="45.44361" lon="5.90987">
        <ele>1213.4</ele>
        <time>2012-08-29T10:40:20Z</time>
      </trkpt>
      <trkpt lat="45.44361" lon="5.90985">
        <ele>1213</ele>
        <time>2012-08-29T10:40:21Z</time>
      </trkpt>
      <trkpt lat="45.44362" lon="5.90979">
        <ele>1211.8</ele>
        <time>2012-08-29T10:40:23Z</time>
      </trkpt>
      <trkpt lat="45.44364" lon="5.90972">
        <ele>1209.8</ele>
        <time>2012-08-29T10:40:27Z</time>
      </trkpt>
      <trkpt lat="45.44365" lon="5.90959">
        <ele>1207</ele>
        <time>2012-08-29T10:40:32Z</time>
      </trkpt>
      <trkpt lat="45.44365" lon="5.90956">
        <ele>1206.6</ele>
        <time>2012-08-29T10:40:33Z</time>
      </trkpt>
      <trkpt lat="45.44365" lon="5.9094">
        <ele>1203.8</ele>
        <time>2012-08-29T10:40:38Z</time>
      </trkpt>
      <trkpt lat="45.44365" lon="5.9093">
        <ele>1201.8</ele>
        <time>2012-08-29T10:40:42Z</time>
      </trkpt>
      <trkpt lat="45.44367" lon="5.90927">
        <ele>1201.2</ele>
        <time>2012-08-29T10:40:43Z</time>
      </trkpt>
      <trkpt lat="45.44371" lon="5.90914">
        <ele>1198.6</ele>
        <time>2012-08-29T10:40:48Z</time>
      </trkpt>
      <trkpt lat="45.44375" lon="5.90902">
        <ele>1197</ele>
        <time>2012-08-29T10:40:51Z</time>
      </trkpt>
      <trkpt lat="45.44378" lon="5.9089">
        <ele>1195</ele>
        <time>2012-08-29T10:40:55Z</time>
      </trkpt>
      <trkpt lat="45.44381" lon="5.90878">
        <ele>1193</ele>
        <time>2012-08-29T10:40:59Z</time>
      </trkpt>
      <trkpt lat="45.44382" lon="5.90875">
        <ele>1192.4</ele>
        <time>2012-08-29T10:41:00Z</time>
      </trkpt>
      <trkpt lat="45.44383" lon="5.90869">
        <ele>1190.8</ele>
        <time>2012-08-29T10:41:03Z</time>
      </trkpt>
      <trkpt lat="45.44383" lon="5.90864">
        <ele>1189.8</ele>
        <time>2012-08-29T10:41:05Z</time>
      </trkpt>
      <trkpt lat="45.44385" lon="5.90848">
        <ele>1187.4</ele>
        <time>2012-08-29T10:41:10Z</time>
      </trkpt>
      <trkpt lat="45.44385" lon="5.90839">
        <ele>1185.8</ele>
        <time>2012-08-29T10:41:13Z</time>
      </trkpt>
      <trkpt lat="45.44384" lon="5.90822">
        <ele>1182.4</ele>
        <time>2012-08-29T10:41:19Z</time>
      </trkpt>
      <trkpt lat="45.44382" lon="5.90813">
        <ele>1181</ele>
        <time>2012-08-29T10:41:22Z</time>
      </trkpt>
      <trkpt lat="45.44387" lon="5.90798">
        <ele>1178.4</ele>
        <time>2012-08-29T10:41:27Z</time>
      </trkpt>
      <trkpt lat="45.44392" lon="5.90783">
        <ele>1175.6</ele>
        <time>2012-08-29T10:41:32Z</time>
      </trkpt>
      <trkpt lat="45.44392" lon="5.90766">
        <ele>1173</ele>
        <time>2012-08-29T10:41:37Z</time>
      </trkpt>
      <trkpt lat="45.44395" lon="5.90754">
        <ele>1170.8</ele>
        <time>2012-08-29T10:41:41Z</time>
      </trkpt>
      <trkpt lat="45.44397" lon="5.9075">
        <ele>1169.8</ele>
        <time>2012-08-29T10:41:43Z</time>
      </trkpt>
      <trkpt lat="45.44402" lon="5.90745">
        <ele>1167.2</ele>
        <time>2012-08-29T10:41:48Z</time>
      </trkpt>
      <trkpt lat="45.44405" lon="5.90741">
        <ele>1164.4</ele>
        <time>2012-08-29T10:41:53Z</time>
      </trkpt>
      <trkpt lat="45.44405" lon="5.9074">
        <ele>1163.8</ele>
        <time>2012-08-29T10:41:54Z</time>
      </trkpt>
      <trkpt lat="45.44406" lon="5.90732">
        <ele>1161.2</ele>
        <time>2012-08-29T10:41:59Z</time>
      </trkpt>
      <trkpt lat="45.44408" lon="5.9073">
        <ele>1160.2</ele>
        <time>2012-08-29T10:42:01Z</time>
      </trkpt>
      <trkpt lat="45.44417" lon="5.90726">
        <ele>1157.8</ele>
        <time>2012-08-29T10:42:05Z</time>
      </trkpt>
      <trkpt lat="45.44419" lon="5.90725">
        <ele>1156.8</ele>
        <time>2012-08-29T10:42:07Z</time>
      </trkpt>
      <trkpt lat="45.44422" lon="5.90719">
        <ele>1154</ele>
        <time>2012-08-29T10:42:12Z</time>
      </trkpt>
      <trkpt lat="45.44423" lon="5.90709">
        <ele>1150.4</ele>
        <time>2012-08-29T10:42:19Z</time>
      </trkpt>
      <trkpt lat="45.44422" lon="5.90708">
        <ele>1147</ele>
        <time>2012-08-29T10:42:26Z</time>
      </trkpt>
      <trkpt lat="45.44419" lon="5.90707">
        <ele>1145.2</ele>
        <time>2012-08-29T10:42:30Z</time>
      </trkpt>
      <trkpt lat="45.44417" lon="5.90705">
        <ele>1144</ele>
        <time>2012-08-29T10:42:32Z</time>
      </trkpt>
      <trkpt lat="45.44408" lon="5.90701">
        <ele>1141.2</ele>
        <time>2012-08-29T10:42:38Z</time>
      </trkpt>
      <trkpt lat="45.44396" lon="5.90695">
        <ele>1139</ele>
        <time>2012-08-29T10:42:43Z</time>
      </trkpt>
      <trkpt lat="45.44392" lon="5.90692">
        <ele>1138.4</ele>
        <time>2012-08-29T10:42:45Z</time>
      </trkpt>
      <trkpt lat="45.44393" lon="5.90683">
        <ele>1136.6</ele>
        <time>2012-08-29T10:42:49Z</time>
      </trkpt>
      <trkpt lat="45.44395" lon="5.90682">
        <ele>1136.2</ele>
        <time>2012-08-29T10:42:50Z</time>
      </trkpt>
      <trkpt lat="45.44408" lon="5.90666">
        <ele>1133.8</ele>
        <time>2012-08-29T10:42:57Z</time>
      </trkpt>
      <trkpt lat="45.44414" lon="5.90649">
        <ele>1132</ele>
        <time>2012-08-29T10:43:02Z</time>
      </trkpt>
      <trkpt lat="45.44419" lon="5.90628">
        <ele>1130</ele>
        <time>2012-08-29T10:43:08Z</time>
      </trkpt>
      <trkpt lat="45.44421" lon="5.90606">
        <ele>1128</ele>
        <time>2012-08-29T10:43:14Z</time>
      </trkpt>
      <trkpt lat="45.44419" lon="5.90583">
        <ele>1126.4</ele>
        <time>2012-08-29T10:43:20Z</time>
      </trkpt>
      <trkpt lat="45.44417" lon="5.90565">
        <ele>1124.8</ele>
        <time>2012-08-29T10:43:25Z</time>
      </trkpt>
      <trkpt lat="45.44414" lon="5.90547">
        <ele>1123.2</ele>
        <time>2012-08-29T10:43:30Z</time>
      </trkpt>
      <trkpt lat="45.44412" lon="5.90521">
        <ele>1120.8</ele>
        <time>2012-08-29T10:43:37Z</time>
      </trkpt>
      <trkpt lat="45.44407" lon="5.90496">
        <ele>1118.4</ele>
        <time>2012-08-29T10:43:44Z</time>
      </trkpt>
      <trkpt lat="45.44404" lon="5.90477">
        <ele>1116.4</ele>
        <time>2012-08-29T10:43:49Z</time>
      </trkpt>
      <trkpt lat="45.44404" lon="5.90458">
        <ele>1114.2</ele>
        <time>2012-08-29T10:43:54Z</time>
      </trkpt>
      <trkpt lat="45.44403" lon="5.90433">
        <ele>1111.8</ele>
        <time>2012-08-29T10:44:00Z</time>
      </trkpt>
      <trkpt lat="45.44401" lon="5.90417">
        <ele>1110.2</ele>
        <time>2012-08-29T10:44:04Z</time>
      </trkpt>
      <trkpt lat="45.44397" lon="5.90389">
        <ele>1107.4</ele>
        <time>2012-08-29T10:44:11Z</time>
      </trkpt>
      <trkpt lat="45.44395" lon="5.90365">
        <ele>1105.2</ele>
        <time>2012-08-29T10:44:17Z</time>
      </trkpt>
      <trkpt lat="45.44397" lon="5.90342">
        <ele>1103</ele>
        <time>2012-08-29T10:44:23Z</time>
      </trkpt>
      <trkpt lat="45.44401" lon="5.90322">
        <ele>1101.4</ele>
        <time>2012-08-29T10:44:28Z</time>
      </trkpt>
      <trkpt lat="45.44407" lon="5.90305">
        <ele>1100</ele>
        <time>2012-08-29T10:44:33Z</time>
      </trkpt>
      <trkpt lat="45.44412" lon="5.90285">
        <ele>1098</ele>
        <time>2012-08-29T10:44:39Z</time>
      </trkpt>
      <trkpt lat="45.44416" lon="5.9026">
        <ele>1095.8</ele>
        <time>2012-08-29T10:44:46Z</time>
      </trkpt>
      <trkpt lat="45.44418" lon="5.90242">
        <ele>1094.2</ele>
        <time>2012-08-29T10:44:51Z</time>
      </trkpt>
      <trkpt lat="45.44419" lon="5.90218">
        <ele>1092.2</ele>
        <time>2012-08-29T10:44:57Z</time>
      </trkpt>
      <trkpt lat="45.4442" lon="5.90191">
        <ele>1090.8</ele>
        <time>2012-08-29T10:45:03Z</time>
      </trkpt>
      <trkpt lat="45.44417" lon="5.90162">
        <ele>1088.8</ele>
        <time>2012-08-29T10:45:10Z</time>
      </trkpt>
      <trkpt lat="45.44414" lon="5.90136">
        <ele>1087.2</ele>
        <time>2012-08-29T10:45:16Z</time>
      </trkpt>
      <trkpt lat="45.44414" lon="5.90109">
        <ele>1086</ele>
        <time>2012-08-29T10:45:22Z</time>
      </trkpt>
      <trkpt lat="45.44418" lon="5.90081">
        <ele>1084.4</ele>
        <time>2012-08-29T10:45:29Z</time>
      </trkpt>
      <trkpt lat="45.44422" lon="5.90061">
        <ele>1083.6</ele>
        <time>2012-08-29T10:45:34Z</time>
      </trkpt>
      <trkpt lat="45.44426" lon="5.90033">
        <ele>1082.2</ele>
        <time>2012-08-29T10:45:41Z</time>
      </trkpt>
      <trkpt lat="45.44429" lon="5.9001">
        <ele>1081.4</ele>
        <time>2012-08-29T10:45:47Z</time>
      </trkpt>
      <trkpt lat="45.44431" lon="5.89988">
        <ele>1080</ele>
        <time>2012-08-29T10:45:53Z</time>
      </trkpt>
      <trkpt lat="45.44435" lon="5.89966">
        <ele>1079.4</ele>
        <time>2012-08-29T10:45:58Z</time>
      </trkpt>
      <trkpt lat="45.44443" lon="5.89949">
        <ele>1079</ele>
        <time>2012-08-29T10:46:03Z</time>
      </trkpt>
      <trkpt lat="45.44452" lon="5.89925">
        <ele>1077.8</ele>
        <time>2012-08-29T10:46:09Z</time>
      </trkpt>
      <trkpt lat="45.4446" lon="5.89903">
        <ele>1077</ele>
        <time>2012-08-29T10:46:15Z</time>
      </trkpt>
      <trkpt lat="45.4447" lon="5.89881">
        <ele>1075.6</ele>
        <time>2012-08-29T10:46:21Z</time>
      </trkpt>
      <trkpt lat="45.44479" lon="5.89859">
        <ele>1074.2</ele>
        <time>2012-08-29T10:46:27Z</time>
      </trkpt>
      <trkpt lat="45.44484" lon="5.89845">
        <ele>1073.4</ele>
        <time>2012-08-29T10:46:31Z</time>
      </trkpt>
      <trkpt lat="45.44492" lon="5.89831">
        <ele>1072.6</ele>
        <time>2012-08-29T10:46:36Z</time>
      </trkpt>
      <trkpt lat="45.445" lon="5.89814">
        <ele>1071.4</ele>
        <time>2012-08-29T10:46:41Z</time>
      </trkpt>
      <trkpt lat="45.44508" lon="5.898">
        <ele>1070.8</ele>
        <time>2012-08-29T10:46:45Z</time>
      </trkpt>
      <trkpt lat="45.44521" lon="5.89782">
        <ele>1069.4</ele>
        <time>2012-08-29T10:46:51Z</time>
      </trkpt>
      <trkpt lat="45.44535" lon="5.89765">
        <ele>1068</ele>
        <time>2012-08-29T10:46:57Z</time>
      </trkpt>
      <trkpt lat="45.44548" lon="5.89747">
        <ele>1067</ele>
        <time>2012-08-29T10:47:03Z</time>
      </trkpt>
      <trkpt lat="45.44559" lon="5.89726">
        <ele>1066.4</ele>
        <time>2012-08-29T10:47:09Z</time>
      </trkpt>
      <trkpt lat="45.44569" lon="5.89705">
        <ele>1065.6</ele>
        <time>2012-08-29T10:47:15Z</time>
      </trkpt>
      <trkpt lat="45.44579" lon="5.8969">
        <ele>1064.6</ele>
        <time>2012-08-29T10:47:21Z</time>
      </trkpt>
      <trkpt lat="45.44592" lon="5.89684">
        <ele>1063.4</ele>
        <time>2012-08-29T10:47:26Z</time>
      </trkpt>
      <trkpt lat="45.44605" lon="5.89686">
        <ele>1061.8</ele>
        <time>2012-08-29T10:47:33Z</time>
      </trkpt>
      <trkpt lat="45.44616" lon="5.89697">
        <ele>1060.4</ele>
        <time>2012-08-29T10:47:40Z</time>
      </trkpt>
      <trkpt lat="45.44625" lon="5.89706">
        <ele>1059.2</ele>
        <time>2012-08-29T10:47:46Z</time>
      </trkpt>
      <trkpt lat="45.44633" lon="5.89713">
        <ele>1058.4</ele>
        <time>2012-08-29T10:47:52Z</time>
      </trkpt>
      <trkpt lat="45.44642" lon="5.89718">
        <ele>1057.8</ele>
        <time>2012-08-29T10:47:58Z</time>
      </trkpt>
      <trkpt lat="45.44643" lon="5.89719">
        <ele>1057.8</ele>
        <time>2012-08-29T10:47:59Z</time>
      </trkpt>
      <trkpt lat="45.44648" lon="5.89721">
        <ele>1057.6</ele>
        <time>2012-08-29T10:48:04Z</time>
      </trkpt>
      <trkpt lat="45.44654" lon="5.89724">
        <ele>1057.4</ele>
        <time>2012-08-29T10:48:10Z</time>
      </trkpt>
      <trkpt lat="45.4466" lon="5.89726">
        <ele>1057.4</ele>
        <time>2012-08-29T10:48:16Z</time>
      </trkpt>
      <trkpt lat="45.4467" lon="5.8973">
        <ele>1057.2</ele>
        <time>2012-08-29T10:48:24Z</time>
      </trkpt>
      <trkpt lat="45.44678" lon="5.89731">
        <ele>1057.2</ele>
        <time>2012-08-29T10:48:31Z</time>
      </trkpt>
      <trkpt lat="45.44684" lon="5.89731">
        <ele>1058</ele>
        <time>2012-08-29T10:48:37Z</time>
      </trkpt>
      <trkpt lat="45.44691" lon="5.89731">
        <ele>1058.6</ele>
        <time>2012-08-29T10:48:43Z</time>
      </trkpt>
      <trkpt lat="45.44697" lon="5.89729">
        <ele>1058.8</ele>
        <time>2012-08-29T10:48:48Z</time>
      </trkpt>
      <trkpt lat="45.44698" lon="5.89729">
        <ele>1058.8</ele>
        <time>2012-08-29T10:48:49Z</time>
      </trkpt>
      <trkpt lat="45.44708" lon="5.89729">
        <ele>1059</ele>
        <time>2012-08-29T10:48:56Z</time>
      </trkpt>
      <trkpt lat="45.44709" lon="5.89729">
        <ele>1059.2</ele>
        <time>2012-08-29T10:48:57Z</time>
      </trkpt>
      <trkpt lat="45.44719" lon="5.89725">
        <ele>1059.6</ele>
        <time>2012-08-29T10:49:04Z</time>
      </trkpt>
      <trkpt lat="45.4472" lon="5.89724">
        <ele>1059.8</ele>
        <time>2012-08-29T10:49:05Z</time>
      </trkpt>
      <trkpt lat="45.44721" lon="5.89723">
        <ele>1060</ele>
        <time>2012-08-29T10:49:06Z</time>
      </trkpt>
      <trkpt lat="45.44727" lon="5.8972">
        <ele>1060.4</ele>
        <time>2012-08-29T10:49:10Z</time>
      </trkpt>
      <trkpt lat="45.44747" lon="5.89718">
        <ele>1061</ele>
        <time>2012-08-29T10:49:19Z</time>
      </trkpt>
      <trkpt lat="45.44757" lon="5.89717">
        <ele>1061.2</ele>
        <time>2012-08-29T10:49:24Z</time>
      </trkpt>
      <trkpt lat="45.44763" lon="5.89716">
        <ele>1061.2</ele>
        <time>2012-08-29T10:49:27Z</time>
      </trkpt>
      <trkpt lat="45.44777" lon="5.89715">
        <ele>1061.4</ele>
        <time>2012-08-29T10:49:33Z</time>
      </trkpt>
      <trkpt lat="45.44791" lon="5.89714">
        <ele>1062.4</ele>
        <time>2012-08-29T10:49:39Z</time>
      </trkpt>
      <trkpt lat="45.44804" lon="5.89716">
        <ele>1063.4</ele>
        <time>2012-08-29T10:49:44Z</time>
      </trkpt>
      <trkpt lat="45.44815" lon="5.89719">
        <ele>1064.2</ele>
        <time>2012-08-29T10:49:49Z</time>
      </trkpt>
      <trkpt lat="45.44824" lon="5.89721">
        <ele>1065.6</ele>
        <time>2012-08-29T10:49:54Z</time>
      </trkpt>
      <trkpt lat="45.44826" lon="5.89722">
        <ele>1065.8</ele>
        <time>2012-08-29T10:49:55Z</time>
      </trkpt>
      <trkpt lat="45.44835" lon="5.89724">
        <ele>1067.2</ele>
        <time>2012-08-29T10:50:00Z</time>
      </trkpt>
      <trkpt lat="45.44842" lon="5.89725">
        <ele>1068</ele>
        <time>2012-08-29T10:50:03Z</time>
      </trkpt>
      <trkpt lat="45.44856" lon="5.89723">
        <ele>1070.2</ele>
        <time>2012-08-29T10:50:10Z</time>
      </trkpt>
      <trkpt lat="45.4487" lon="5.89722">
        <ele>1072.8</ele>
        <time>2012-08-29T10:50:17Z</time>
      </trkpt>
      <trkpt lat="45.44881" lon="5.89722">
        <ele>1075.4</ele>
        <time>2012-08-29T10:50:24Z</time>
      </trkpt>
      <trkpt lat="45.44887" lon="5.89721">
        <ele>1077</ele>
        <time>2012-08-29T10:50:28Z</time>
      </trkpt>
      <trkpt lat="45.44895" lon="5.89722">
        <ele>1078.6</ele>
        <time>2012-08-29T10:50:34Z</time>
      </trkpt>
      <trkpt lat="45.44897" lon="5.89721">
        <ele>1079</ele>
        <time>2012-08-29T10:50:36Z</time>
      </trkpt>
      <trkpt lat="45.44905" lon="5.89716">
        <ele>1080.8</ele>
        <time>2012-08-29T10:50:43Z</time>
      </trkpt>
      <trkpt lat="45.44908" lon="5.89716">
        <ele>1081.2</ele>
        <time>2012-08-29T10:50:45Z</time>
      </trkpt>
      <trkpt lat="45.44918" lon="5.8971">
        <ele>1082.6</ele>
        <time>2012-08-29T10:50:53Z</time>
      </trkpt>
      <trkpt lat="45.44919" lon="5.89709">
        <ele>1082.8</ele>
        <time>2012-08-29T10:50:54Z</time>
      </trkpt>
      <trkpt lat="45.44926" lon="5.89706">
        <ele>1083.6</ele>
        <time>2012-08-29T10:51:00Z</time>
      </trkpt>
      <trkpt lat="45.44927" lon="5.89705">
        <ele>1083.8</ele>
        <time>2012-08-29T10:51:01Z</time>
      </trkpt>
      <trkpt lat="45.44935" lon="5.89703">
        <ele>1084.8</ele>
        <time>2012-08-29T10:51:07Z</time>
      </trkpt>
      <trkpt lat="45.44937" lon="5.89701">
        <ele>1085.2</ele>
        <time>2012-08-29T10:51:09Z</time>
      </trkpt>
      <trkpt lat="45.44943" lon="5.89693">
        <ele>1086.2</ele>
        <time>2012-08-29T10:51:16Z</time>
      </trkpt>
      <trkpt lat="45.44944" lon="5.89693">
        <ele>1086.4</ele>
        <time>2012-08-29T10:51:17Z</time>
      </trkpt>
      <trkpt lat="45.44952" lon="5.8969">
        <ele>1087.4</ele>
        <time>2012-08-29T10:51:23Z</time>
      </trkpt>
      <trkpt lat="45.44962" lon="5.89687">
        <ele>1088.2</ele>
        <time>2012-08-29T10:51:30Z</time>
      </trkpt>
      <trkpt lat="45.44972" lon="5.89682">
        <ele>1088.4</ele>
        <time>2012-08-29T10:51:37Z</time>
      </trkpt>
      <trkpt lat="45.44981" lon="5.8968">
        <ele>1089.8</ele>
        <time>2012-08-29T10:51:44Z</time>
      </trkpt>
      <trkpt lat="45.44985" lon="5.89679">
        <ele>1090</ele>
        <time>2012-08-29T10:51:47Z</time>
      </trkpt>
      <trkpt lat="45.44992" lon="5.89677">
        <ele>1090.4</ele>
        <time>2012-08-29T10:51:53Z</time>
      </trkpt>
      <trkpt lat="45.44996" lon="5.89675">
        <ele>1090.6</ele>
        <time>2012-08-29T10:51:56Z</time>
      </trkpt>
      <trkpt lat="45.45006" lon="5.89672">
        <ele>1091.4</ele>
        <time>2012-08-29T10:52:03Z</time>
      </trkpt>
      <trkpt lat="45.45011" lon="5.8967">
        <ele>1092</ele>
        <time>2012-08-29T10:52:08Z</time>
      </trkpt>
      <trkpt lat="45.45021" lon="5.89669">
        <ele>1092.4</ele>
        <time>2012-08-29T10:52:15Z</time>
      </trkpt>
      <trkpt lat="45.45029" lon="5.89667">
        <ele>1093.6</ele>
        <time>2012-08-29T10:52:21Z</time>
      </trkpt>
      <trkpt lat="45.4504" lon="5.89665">
        <ele>1094.8</ele>
        <time>2012-08-29T10:52:27Z</time>
      </trkpt>
      <trkpt lat="45.45051" lon="5.89661">
        <ele>1095.8</ele>
        <time>2012-08-29T10:52:32Z</time>
      </trkpt>
      <trkpt lat="45.45064" lon="5.89652">
        <ele>1097</ele>
        <time>2012-08-29T10:52:39Z</time>
      </trkpt>
      <trkpt lat="45.45074" lon="5.89642">
        <ele>1098</ele>
        <time>2012-08-29T10:52:45Z</time>
      </trkpt>
      <trkpt lat="45.45081" lon="5.89631">
        <ele>1098.6</ele>
        <time>2012-08-29T10:52:51Z</time>
      </trkpt>
      <trkpt lat="45.45089" lon="5.89621">
        <ele>1098.8</ele>
        <time>2012-08-29T10:52:58Z</time>
      </trkpt>
      <trkpt lat="45.451" lon="5.89612">
        <ele>1099</ele>
        <time>2012-08-29T10:53:05Z</time>
      </trkpt>
      <trkpt lat="45.4511" lon="5.89606">
        <ele>1100</ele>
        <time>2012-08-29T10:53:11Z</time>
      </trkpt>
      <trkpt lat="45.45112" lon="5.89605">
        <ele>1100</ele>
        <time>2012-08-29T10:53:12Z</time>
      </trkpt>
      <trkpt lat="45.45124" lon="5.89603">
        <ele>1100.6</ele>
        <time>2012-08-29T10:53:18Z</time>
      </trkpt>
      <trkpt lat="45.45135" lon="5.89604">
        <ele>1101.8</ele>
        <time>2012-08-29T10:53:24Z</time>
      </trkpt>
      <trkpt lat="45.45144" lon="5.89604">
        <ele>1103.2</ele>
        <time>2012-08-29T10:53:30Z</time>
      </trkpt>
      <trkpt lat="45.45148" lon="5.89606">
        <ele>1104.2</ele>
        <time>2012-08-29T10:53:36Z</time>
      </trkpt>
      <trkpt lat="45.45148" lon="5.89607">
        <ele>1104.2</ele>
        <time>2012-08-29T10:53:37Z</time>
      </trkpt>
      <trkpt lat="45.45148" lon="5.89616">
        <ele>1105.8</ele>
        <time>2012-08-29T10:53:44Z</time>
      </trkpt>
      <trkpt lat="45.45148" lon="5.89619">
        <ele>1106.4</ele>
        <time>2012-08-29T10:53:49Z</time>
      </trkpt>
      <trkpt lat="45.45145" lon="5.89625">
        <ele>1106.8</ele>
        <time>2012-08-29T10:53:55Z</time>
      </trkpt>
      <trkpt lat="45.45138" lon="5.89637">
        <ele>1108.4</ele>
        <time>2012-08-29T10:54:04Z</time>
      </trkpt>
      <trkpt lat="45.45133" lon="5.89644">
        <ele>1108.8</ele>
        <time>2012-08-29T10:54:09Z</time>
      </trkpt>
      <trkpt lat="45.4513" lon="5.89649">
        <ele>1109</ele>
        <time>2012-08-29T10:54:13Z</time>
      </trkpt>
      <trkpt lat="45.45128" lon="5.89653">
        <ele>1109.2</ele>
        <time>2012-08-29T10:54:17Z</time>
      </trkpt>
      <trkpt lat="45.45122" lon="5.89662">
        <ele>1109.8</ele>
        <time>2012-08-29T10:54:25Z</time>
      </trkpt>
      <trkpt lat="45.45118" lon="5.89671">
        <ele>1110.6</ele>
        <time>2012-08-29T10:54:32Z</time>
      </trkpt>
      <trkpt lat="45.45116" lon="5.89676">
        <ele>1110.8</ele>
        <time>2012-08-29T10:54:35Z</time>
      </trkpt>
      <trkpt lat="45.45114" lon="5.89682">
        <ele>1111</ele>
        <time>2012-08-29T10:54:39Z</time>
      </trkpt>
      <trkpt lat="45.45113" lon="5.89695">
        <ele>1112.2</ele>
        <time>2012-08-29T10:54:47Z</time>
      </trkpt>
      <trkpt lat="45.45115" lon="5.8971">
        <ele>1113</ele>
        <time>2012-08-29T10:54:55Z</time>
      </trkpt>
      <trkpt lat="45.45115" lon="5.89711">
        <ele>1113</ele>
        <time>2012-08-29T10:54:56Z</time>
      </trkpt>
      <trkpt lat="45.45117" lon="5.89718">
        <ele>1113.6</ele>
        <time>2012-08-29T10:55:00Z</time>
      </trkpt>
      <trkpt lat="45.45119" lon="5.89725">
        <ele>1114.2</ele>
        <time>2012-08-29T10:55:04Z</time>
      </trkpt>
      <trkpt lat="45.45123" lon="5.89733">
        <ele>1115.2</ele>
        <time>2012-08-29T10:55:09Z</time>
      </trkpt>
      <trkpt lat="45.45125" lon="5.89736">
        <ele>1115.6</ele>
        <time>2012-08-29T10:55:11Z</time>
      </trkpt>
      <trkpt lat="45.45131" lon="5.89748">
        <ele>1117.6</ele>
        <time>2012-08-29T10:55:20Z</time>
      </trkpt>
      <trkpt lat="45.45132" lon="5.89749">
        <ele>1117.8</ele>
        <time>2012-08-29T10:55:21Z</time>
      </trkpt>
      <trkpt lat="45.45134" lon="5.89754">
        <ele>1118.4</ele>
        <time>2012-08-29T10:55:25Z</time>
      </trkpt>
      <trkpt lat="45.45138" lon="5.89761">
        <ele>1119.8</ele>
        <time>2012-08-29T10:55:30Z</time>
      </trkpt>
      <trkpt lat="45.45138" lon="5.89762">
        <ele>1120</ele>
        <time>2012-08-29T10:55:31Z</time>
      </trkpt>
      <trkpt lat="45.45139" lon="5.89765">
        <ele>1120.2</ele>
        <time>2012-08-29T10:55:33Z</time>
      </trkpt>
      <trkpt lat="45.45146" lon="5.89773">
        <ele>1121.8</ele>
        <time>2012-08-29T10:55:40Z</time>
      </trkpt>
      <trkpt lat="45.45151" lon="5.89784">
        <ele>1122.6</ele>
        <time>2012-08-29T10:55:45Z</time>
      </trkpt>
      <trkpt lat="45.45152" lon="5.89788">
        <ele>1122.8</ele>
        <time>2012-08-29T10:55:47Z</time>
      </trkpt>
      <trkpt lat="45.45156" lon="5.89798">
        <ele>1123.8</ele>
        <time>2012-08-29T10:55:51Z</time>
      </trkpt>
      <trkpt lat="45.45165" lon="5.89814">
        <ele>1124.8</ele>
        <time>2012-08-29T10:55:57Z</time>
      </trkpt>
      <trkpt lat="45.45168" lon="5.89826">
        <ele>1125.2</ele>
        <time>2012-08-29T10:56:01Z</time>
      </trkpt>
      <trkpt lat="45.45169" lon="5.89829">
        <ele>1125.4</ele>
        <time>2012-08-29T10:56:02Z</time>
      </trkpt>
      <trkpt lat="45.45178" lon="5.89847">
        <ele>1126.6</ele>
        <time>2012-08-29T10:56:08Z</time>
      </trkpt>
      <trkpt lat="45.45181" lon="5.89854">
        <ele>1126.8</ele>
        <time>2012-08-29T10:56:10Z</time>
      </trkpt>
      <trkpt lat="45.45196" lon="5.89875">
        <ele>1127.4</ele>
        <time>2012-08-29T10:56:16Z</time>
      </trkpt>
      <trkpt lat="45.45204" lon="5.8989">
        <ele>1127.8</ele>
        <time>2012-08-29T10:56:21Z</time>
      </trkpt>
      <trkpt lat="45.45213" lon="5.89906">
        <ele>1127.8</ele>
        <time>2012-08-29T10:56:26Z</time>
      </trkpt>
      <trkpt lat="45.45224" lon="5.89924">
        <ele>1128</ele>
        <time>2012-08-29T10:56:33Z</time>
      </trkpt>
      <trkpt lat="45.45233" lon="5.89939">
        <ele>1128</ele>
        <time>2012-08-29T10:56:39Z</time>
      </trkpt>
      <trkpt lat="45.4524" lon="5.8995">
        <ele>1128.8</ele>
        <time>2012-08-29T10:56:43Z</time>
      </trkpt>
      <trkpt lat="45.45249" lon="5.8996">
        <ele>1129.4</ele>
        <time>2012-08-29T10:56:48Z</time>
      </trkpt>
      <trkpt lat="45.45255" lon="5.89965">
        <ele>1130</ele>
        <time>2012-08-29T10:56:51Z</time>
      </trkpt>
      <trkpt lat="45.45263" lon="5.89973">
        <ele>1131</ele>
        <time>2012-08-29T10:56:56Z</time>
      </trkpt>
      <trkpt lat="45.45264" lon="5.89975">
        <ele>1131.2</ele>
        <time>2012-08-29T10:56:57Z</time>
      </trkpt>
      <trkpt lat="45.45271" lon="5.89985">
        <ele>1131.8</ele>
        <time>2012-08-29T10:57:02Z</time>
      </trkpt>
      <trkpt lat="45.45277" lon="5.89996">
        <ele>1132</ele>
        <time>2012-08-29T10:57:07Z</time>
      </trkpt>
      <trkpt lat="45.45286" lon="5.90006">
        <ele>1132.2</ele>
        <time>2012-08-29T10:57:12Z</time>
      </trkpt>
      <trkpt lat="45.45292" lon="5.90012">
        <ele>1132.4</ele>
        <time>2012-08-29T10:57:15Z</time>
      </trkpt>
      <trkpt lat="45.45301" lon="5.90028">
        <ele>1133</ele>
        <time>2012-08-29T10:57:21Z</time>
      </trkpt>
      <trkpt lat="45.45308" lon="5.90042">
        <ele>1133.6</ele>
        <time>2012-08-29T10:57:26Z</time>
      </trkpt>
      <trkpt lat="45.45311" lon="5.90059">
        <ele>1134</ele>
        <time>2012-08-29T10:57:31Z</time>
      </trkpt>
      <trkpt lat="45.45313" lon="5.90079">
        <ele>1134.2</ele>
        <time>2012-08-29T10:57:37Z</time>
      </trkpt>
      <trkpt lat="45.45315" lon="5.90082">
        <ele>1134.2</ele>
        <time>2012-08-29T10:57:38Z</time>
      </trkpt>
      <trkpt lat="45.45327" lon="5.90092">
        <ele>1134.4</ele>
        <time>2012-08-29T10:57:44Z</time>
      </trkpt>
      <trkpt lat="45.4533" lon="5.90093">
        <ele>1134.4</ele>
        <time>2012-08-29T10:57:45Z</time>
      </trkpt>
      <trkpt lat="45.45343" lon="5.90091">
        <ele>1134.4</ele>
        <time>2012-08-29T10:57:51Z</time>
      </trkpt>
      <trkpt lat="45.45353" lon="5.90094">
        <ele>1134.4</ele>
        <time>2012-08-29T10:57:55Z</time>
      </trkpt>
      <trkpt lat="45.45365" lon="5.901">
        <ele>1134.4</ele>
        <time>2012-08-29T10:58:00Z</time>
      </trkpt>
      <trkpt lat="45.45376" lon="5.90109">
        <ele>1134.4</ele>
        <time>2012-08-29T10:58:05Z</time>
      </trkpt>
      <trkpt lat="45.45384" lon="5.90114">
        <ele>1134.6</ele>
        <time>2012-08-29T10:58:10Z</time>
      </trkpt>
      <trkpt lat="45.45393" lon="5.9012">
        <ele>1134.6</ele>
        <time>2012-08-29T10:58:16Z</time>
      </trkpt>
      <trkpt lat="45.45401" lon="5.90126">
        <ele>1134.6</ele>
        <time>2012-08-29T10:58:21Z</time>
      </trkpt>
      <trkpt lat="45.4541" lon="5.90134">
        <ele>1134.6</ele>
        <time>2012-08-29T10:58:26Z</time>
      </trkpt>
      <trkpt lat="45.45417" lon="5.90141">
        <ele>1134.6</ele>
        <time>2012-08-29T10:58:30Z</time>
      </trkpt>
      <trkpt lat="45.45418" lon="5.90143">
        <ele>1134.6</ele>
        <time>2012-08-29T10:58:32Z</time>
      </trkpt>
      <trkpt lat="45.45419" lon="5.90143">
        <ele>1134.6</ele>
        <time>2012-08-29T10:58:33Z</time>
      </trkpt>
      <trkpt lat="45.45427" lon="5.90143">
        <ele>1134.6</ele>
        <time>2012-08-29T10:58:38Z</time>
      </trkpt>
      <trkpt lat="45.45435" lon="5.90143">
        <ele>1134.6</ele>
        <time>2012-08-29T10:58:42Z</time>
      </trkpt>
      <trkpt lat="45.45437" lon="5.90144">
        <ele>1134.6</ele>
        <time>2012-08-29T10:58:43Z</time>
      </trkpt>
      <trkpt lat="45.45451" lon="5.9015">
        <ele>1135.2</ele>
        <time>2012-08-29T10:58:49Z</time>
      </trkpt>
      <trkpt lat="45.45465" lon="5.90157">
        <ele>1135.8</ele>
        <time>2012-08-29T10:58:55Z</time>
      </trkpt>
      <trkpt lat="45.45469" lon="5.90159">
        <ele>1136</ele>
        <time>2012-08-29T10:58:57Z</time>
      </trkpt>
      <trkpt lat="45.45479" lon="5.90162">
        <ele>1136.2</ele>
        <time>2012-08-29T10:59:02Z</time>
      </trkpt>
      <trkpt lat="45.45489" lon="5.90165">
        <ele>1136.4</ele>
        <time>2012-08-29T10:59:06Z</time>
      </trkpt>
      <trkpt lat="45.45491" lon="5.90165">
        <ele>1136.4</ele>
        <time>2012-08-29T10:59:07Z</time>
      </trkpt>
      <trkpt lat="45.45503" lon="5.90169">
        <ele>1136.4</ele>
        <time>2012-08-29T10:59:12Z</time>
      </trkpt>
      <trkpt lat="45.45519" lon="5.9017">
        <ele>1136.4</ele>
        <time>2012-08-29T10:59:18Z</time>
      </trkpt>
      <trkpt lat="45.45534" lon="5.90169">
        <ele>1136</ele>
        <time>2012-08-29T10:59:24Z</time>
      </trkpt>
      <trkpt lat="45.45548" lon="5.90169">
        <ele>1135.4</ele>
        <time>2012-08-29T10:59:30Z</time>
      </trkpt>
      <trkpt lat="45.45561" lon="5.90169">
        <ele>1135</ele>
        <time>2012-08-29T10:59:36Z</time>
      </trkpt>
      <trkpt lat="45.45575" lon="5.9017">
        <ele>1134.8</ele>
        <time>2012-08-29T10:59:42Z</time>
      </trkpt>
      <trkpt lat="45.45578" lon="5.90172">
        <ele>1134.8</ele>
        <time>2012-08-29T10:59:44Z</time>
      </trkpt>
      <trkpt lat="45.45583" lon="5.90175">
        <ele>1134.6</ele>
        <time>2012-08-29T10:59:49Z</time>
      </trkpt>
      <trkpt lat="45.45585" lon="5.90175">
        <ele>1134.6</ele>
        <time>2012-08-29T11:00:04Z</time>
      </trkpt>
      <trkpt lat="45.45592" lon="5.90175">
        <ele>1134.6</ele>
        <time>2012-08-29T11:00:08Z</time>
      </trkpt>
      <trkpt lat="45.45601" lon="5.90179">
        <ele>1134.6</ele>
        <time>2012-08-29T11:00:13Z</time>
      </trkpt>
      <trkpt lat="45.45611" lon="5.90181">
        <ele>1134.6</ele>
        <time>2012-08-29T11:00:19Z</time>
      </trkpt>
      <trkpt lat="45.45621" lon="5.90181">
        <ele>1134.6</ele>
        <time>2012-08-29T11:00:24Z</time>
      </trkpt>
      <trkpt lat="45.45626" lon="5.9018">
        <ele>1134.6</ele>
        <time>2012-08-29T11:00:27Z</time>
      </trkpt>
      <trkpt lat="45.45637" lon="5.90183">
        <ele>1134.6</ele>
        <time>2012-08-29T11:00:33Z</time>
      </trkpt>
      <trkpt lat="45.45639" lon="5.90184">
        <ele>1134.6</ele>
        <time>2012-08-29T11:00:34Z</time>
      </trkpt>
      <trkpt lat="45.45648" lon="5.90184">
        <ele>1134</ele>
        <time>2012-08-29T11:00:38Z</time>
      </trkpt>
      <trkpt lat="45.45654" lon="5.90185">
        <ele>1133.4</ele>
        <time>2012-08-29T11:00:42Z</time>
      </trkpt>
      <trkpt lat="45.4566" lon="5.90187">
        <ele>1133.2</ele>
        <time>2012-08-29T11:00:45Z</time>
      </trkpt>
      <trkpt lat="45.45668" lon="5.90185">
        <ele>1133</ele>
        <time>2012-08-29T11:00:49Z</time>
      </trkpt>
      <trkpt lat="45.45677" lon="5.90182">
        <ele>1132.8</ele>
        <time>2012-08-29T11:00:53Z</time>
      </trkpt>
      <trkpt lat="45.45686" lon="5.90185">
        <ele>1132.2</ele>
        <time>2012-08-29T11:00:56Z</time>
      </trkpt>
      <trkpt lat="45.45702" lon="5.90193">
        <ele>1131.2</ele>
        <time>2012-08-29T11:01:03Z</time>
      </trkpt>
      <trkpt lat="45.45714" lon="5.90197">
        <ele>1130.8</ele>
        <time>2012-08-29T11:01:08Z</time>
      </trkpt>
      <trkpt lat="45.45726" lon="5.90202">
        <ele>1130.6</ele>
        <time>2012-08-29T11:01:13Z</time>
      </trkpt>
      <trkpt lat="45.45728" lon="5.90203">
        <ele>1130.6</ele>
        <time>2012-08-29T11:01:14Z</time>
      </trkpt>
      <trkpt lat="45.45733" lon="5.90204">
        <ele>1130.6</ele>
        <time>2012-08-29T11:01:16Z</time>
      </trkpt>
      <trkpt lat="45.45746" lon="5.90209">
        <ele>1129.2</ele>
        <time>2012-08-29T11:01:24Z</time>
      </trkpt>
      <trkpt lat="45.45748" lon="5.90209">
        <ele>1129.2</ele>
        <time>2012-08-29T11:01:25Z</time>
      </trkpt>
      <trkpt lat="45.45753" lon="5.9021">
        <ele>1128.4</ele>
        <time>2012-08-29T11:01:29Z</time>
      </trkpt>
      <trkpt lat="45.45755" lon="5.9021">
        <ele>1128.2</ele>
        <time>2012-08-29T11:01:30Z</time>
      </trkpt>
      <trkpt lat="45.45759" lon="5.90211">
        <ele>1127.4</ele>
        <time>2012-08-29T11:01:34Z</time>
      </trkpt>
      <trkpt lat="45.45766" lon="5.90215">
        <ele>1126.4</ele>
        <time>2012-08-29T11:01:38Z</time>
      </trkpt>
      <trkpt lat="45.45766" lon="5.90217">
        <ele>1126.2</ele>
        <time>2012-08-29T11:01:39Z</time>
      </trkpt>
      <trkpt lat="45.4577" lon="5.90226">
        <ele>1124.4</ele>
        <time>2012-08-29T11:01:45Z</time>
      </trkpt>
      <trkpt lat="45.45775" lon="5.90234">
        <ele>1123.2</ele>
        <time>2012-08-29T11:01:49Z</time>
      </trkpt>
      <trkpt lat="45.45776" lon="5.90234">
        <ele>1123</ele>
        <time>2012-08-29T11:01:50Z</time>
      </trkpt>
      <trkpt lat="45.4578" lon="5.9024">
        <ele>1121.8</ele>
        <time>2012-08-29T11:01:54Z</time>
      </trkpt>
      <trkpt lat="45.45782" lon="5.90242">
        <ele>1121.4</ele>
        <time>2012-08-29T11:01:55Z</time>
      </trkpt>
      <trkpt lat="45.45786" lon="5.90246">
        <ele>1120.6</ele>
        <time>2012-08-29T11:01:57Z</time>
      </trkpt>
      <trkpt lat="45.45793" lon="5.90249">
        <ele>1119.2</ele>
        <time>2012-08-29T11:02:01Z</time>
      </trkpt>
      <trkpt lat="45.45797" lon="5.90254">
        <ele>1118.2</ele>
        <time>2012-08-29T11:02:04Z</time>
      </trkpt>
      <trkpt lat="45.45799" lon="5.90258">
        <ele>1117.6</ele>
        <time>2012-08-29T11:02:06Z</time>
      </trkpt>
      <trkpt lat="45.45809" lon="5.90266">
        <ele>1115.8</ele>
        <time>2012-08-29T11:02:11Z</time>
      </trkpt>
      <trkpt lat="45.4581" lon="5.90267">
        <ele>1114.6</ele>
        <time>2012-08-29T11:02:14Z</time>
      </trkpt>
      <trkpt lat="45.45813" lon="5.90261">
        <ele>1112.8</ele>
        <time>2012-08-29T11:02:19Z</time>
      </trkpt>
      <trkpt lat="45.45813" lon="5.90259">
        <ele>1112</ele>
        <time>2012-08-29T11:02:20Z</time>
      </trkpt>
      <trkpt lat="45.45813" lon="5.90255">
        <ele>1111</ele>
        <time>2012-08-29T11:02:23Z</time>
      </trkpt>
      <trkpt lat="45.45815" lon="5.90241">
        <ele>1110.2</ele>
        <time>2012-08-29T11:02:26Z</time>
      </trkpt>
      <trkpt lat="45.45809" lon="5.90228">
        <ele>1108.2</ele>
        <time>2012-08-29T11:02:31Z</time>
      </trkpt>
      <trkpt lat="45.45808" lon="5.90225">
        <ele>1107.8</ele>
        <time>2012-08-29T11:02:32Z</time>
      </trkpt>
      <trkpt lat="45.45807" lon="5.90219">
        <ele>1107</ele>
        <time>2012-08-29T11:02:34Z</time>
      </trkpt>
      <trkpt lat="45.45811" lon="5.90198">
        <ele>1105</ele>
        <time>2012-08-29T11:02:39Z</time>
      </trkpt>
      <trkpt lat="45.45812" lon="5.90194">
        <ele>1104.6</ele>
        <time>2012-08-29T11:02:40Z</time>
      </trkpt>
      <trkpt lat="45.45811" lon="5.90177">
        <ele>1102.6</ele>
        <time>2012-08-29T11:02:46Z</time>
      </trkpt>
      <trkpt lat="45.45811" lon="5.90175">
        <ele>1102.2</ele>
        <time>2012-08-29T11:02:47Z</time>
      </trkpt>
      <trkpt lat="45.45812" lon="5.90165">
        <ele>1101</ele>
        <time>2012-08-29T11:02:51Z</time>
      </trkpt>
      <trkpt lat="45.45811" lon="5.90148">
        <ele>1099.4</ele>
        <time>2012-08-29T11:02:56Z</time>
      </trkpt>
      <trkpt lat="45.45812" lon="5.90138">
        <ele>1098.4</ele>
        <time>2012-08-29T11:03:00Z</time>
      </trkpt>
      <trkpt lat="45.45814" lon="5.90126">
        <ele>1097.2</ele>
        <time>2012-08-29T11:03:04Z</time>
      </trkpt>
      <trkpt lat="45.45815" lon="5.90124">
        <ele>1097</ele>
        <time>2012-08-29T11:03:05Z</time>
      </trkpt>
      <trkpt lat="45.45817" lon="5.9012">
        <ele>1096.6</ele>
        <time>2012-08-29T11:03:07Z</time>
      </trkpt>
      <trkpt lat="45.45819" lon="5.90118">
        <ele>1096.4</ele>
        <time>2012-08-29T11:03:09Z</time>
      </trkpt>
      <trkpt lat="45.45831" lon="5.90117">
        <ele>1095</ele>
        <time>2012-08-29T11:03:14Z</time>
      </trkpt>
      <trkpt lat="45.45839" lon="5.90118">
        <ele>1094.4</ele>
        <time>2012-08-29T11:03:18Z</time>
      </trkpt>
      <trkpt lat="45.45845" lon="5.90121">
        <ele>1094</ele>
        <time>2012-08-29T11:03:21Z</time>
      </trkpt>
      <trkpt lat="45.45847" lon="5.90124">
        <ele>1093.4</ele>
        <time>2012-08-29T11:03:22Z</time>
      </trkpt>
      <trkpt lat="45.45855" lon="5.90127">
        <ele>1092.6</ele>
        <time>2012-08-29T11:03:26Z</time>
      </trkpt>
      <trkpt lat="45.45858" lon="5.90128">
        <ele>1092.4</ele>
        <time>2012-08-29T11:03:27Z</time>
      </trkpt>
      <trkpt lat="45.45873" lon="5.90132">
        <ele>1091</ele>
        <time>2012-08-29T11:03:33Z</time>
      </trkpt>
      <trkpt lat="45.45886" lon="5.90133">
        <ele>1090</ele>
        <time>2012-08-29T11:03:38Z</time>
      </trkpt>
      <trkpt lat="45.45898" lon="5.90134">
        <ele>1088.6</ele>
        <time>2012-08-29T11:03:43Z</time>
      </trkpt>
      <trkpt lat="45.45907" lon="5.90132">
        <ele>1088</ele>
        <time>2012-08-29T11:03:47Z</time>
      </trkpt>
      <trkpt lat="45.45921" lon="5.90135">
        <ele>1086.6</ele>
        <time>2012-08-29T11:03:53Z</time>
      </trkpt>
      <trkpt lat="45.45925" lon="5.90134">
        <ele>1086</ele>
        <time>2012-08-29T11:03:56Z</time>
      </trkpt>
      <trkpt lat="45.45927" lon="5.90133">
        <ele>1085.8</ele>
        <time>2012-08-29T11:03:57Z</time>
      </trkpt>
      <trkpt lat="45.45941" lon="5.90131">
        <ele>1084.8</ele>
        <time>2012-08-29T11:04:03Z</time>
      </trkpt>
      <trkpt lat="45.45944" lon="5.90131">
        <ele>1084.4</ele>
        <time>2012-08-29T11:04:04Z</time>
      </trkpt>
      <trkpt lat="45.45956" lon="5.9013">
        <ele>1083.6</ele>
        <time>2012-08-29T11:04:09Z</time>
      </trkpt>
      <trkpt lat="45.45969" lon="5.90126">
        <ele>1082.4</ele>
        <time>2012-08-29T11:04:15Z</time>
      </trkpt>
      <trkpt lat="45.4597" lon="5.90125">
        <ele>1082.2</ele>
        <time>2012-08-29T11:04:16Z</time>
      </trkpt>
      <trkpt lat="45.45972" lon="5.9012">
        <ele>1081.6</ele>
        <time>2012-08-29T11:04:19Z</time>
      </trkpt>
      <trkpt lat="45.45977" lon="5.90114">
        <ele>1081</ele>
        <time>2012-08-29T11:04:25Z</time>
      </trkpt>
      <trkpt lat="45.45978" lon="5.90114">
        <ele>1080.6</ele>
        <time>2012-08-29T11:04:26Z</time>
      </trkpt>
      <trkpt lat="45.45987" lon="5.9011">
        <ele>1079.8</ele>
        <time>2012-08-29T11:04:30Z</time>
      </trkpt>
      <trkpt lat="45.46002" lon="5.90111">
        <ele>1079.2</ele>
        <time>2012-08-29T11:04:35Z</time>
      </trkpt>
      <trkpt lat="45.46019" lon="5.90119">
        <ele>1078.2</ele>
        <time>2012-08-29T11:04:41Z</time>
      </trkpt>
      <trkpt lat="45.46038" lon="5.90129">
        <ele>1077</ele>
        <time>2012-08-29T11:04:48Z</time>
      </trkpt>
      <trkpt lat="45.46051" lon="5.9014">
        <ele>1076.6</ele>
        <time>2012-08-29T11:04:54Z</time>
      </trkpt>
      <trkpt lat="45.46064" lon="5.90154">
        <ele>1076.4</ele>
        <time>2012-08-29T11:05:00Z</time>
      </trkpt>
      <trkpt lat="45.46074" lon="5.90167">
        <ele>1075.6</ele>
        <time>2012-08-29T11:05:05Z</time>
      </trkpt>
      <trkpt lat="45.46085" lon="5.90179">
        <ele>1075</ele>
        <time>2012-08-29T11:05:10Z</time>
      </trkpt>
      <trkpt lat="45.46097" lon="5.90188">
        <ele>1074.6</ele>
        <time>2012-08-29T11:05:15Z</time>
      </trkpt>
      <trkpt lat="45.46113" lon="5.90197">
        <ele>1073.4</ele>
        <time>2012-08-29T11:05:21Z</time>
      </trkpt>
      <trkpt lat="45.46129" lon="5.90207">
        <ele>1072.8</ele>
        <time>2012-08-29T11:05:27Z</time>
      </trkpt>
      <trkpt lat="45.46147" lon="5.90218">
        <ele>1072.4</ele>
        <time>2012-08-29T11:05:34Z</time>
      </trkpt>
      <trkpt lat="45.46164" lon="5.90225">
        <ele>1072.2</ele>
        <time>2012-08-29T11:05:40Z</time>
      </trkpt>
      <trkpt lat="45.46176" lon="5.90232">
        <ele>1071.4</ele>
        <time>2012-08-29T11:05:45Z</time>
      </trkpt>
      <trkpt lat="45.46189" lon="5.90237">
        <ele>1070.8</ele>
        <time>2012-08-29T11:05:50Z</time>
      </trkpt>
      <trkpt lat="45.46202" lon="5.90244">
        <ele>1070.4</ele>
        <time>2012-08-29T11:05:55Z</time>
      </trkpt>
      <trkpt lat="45.46215" lon="5.90255">
        <ele>1070.2</ele>
        <time>2012-08-29T11:06:01Z</time>
      </trkpt>
      <trkpt lat="45.46226" lon="5.90273">
        <ele>1069.4</ele>
        <time>2012-08-29T11:06:08Z</time>
      </trkpt>
      <trkpt lat="45.46229" lon="5.90278">
        <ele>1069</ele>
        <time>2012-08-29T11:06:11Z</time>
      </trkpt>
      <trkpt lat="45.4623" lon="5.90282">
        <ele>1068.6</ele>
        <time>2012-08-29T11:06:15Z</time>
      </trkpt>
      <trkpt lat="45.4623" lon="5.90283">
        <ele>1068.6</ele>
        <time>2012-08-29T11:06:17Z</time>
      </trkpt>
      <trkpt lat="45.4623" lon="5.9029">
        <ele>1068.4</ele>
        <time>2012-08-29T11:06:21Z</time>
      </trkpt>
      <trkpt lat="45.4623" lon="5.903">
        <ele>1068.2</ele>
        <time>2012-08-29T11:06:24Z</time>
      </trkpt>
      <trkpt lat="45.46228" lon="5.90306">
        <ele>1067.8</ele>
        <time>2012-08-29T11:06:27Z</time>
      </trkpt>
      <trkpt lat="45.46227" lon="5.90308">
        <ele>1067.6</ele>
        <time>2012-08-29T11:06:28Z</time>
      </trkpt>
      <trkpt lat="45.46228" lon="5.90311">
        <ele>1067.2</ele>
        <time>2012-08-29T11:06:30Z</time>
      </trkpt>
      <trkpt lat="45.46229" lon="5.90324">
        <ele>1066.8</ele>
        <time>2012-08-29T11:06:35Z</time>
      </trkpt>
      <trkpt lat="45.46231" lon="5.90328">
        <ele>1066.6</ele>
        <time>2012-08-29T11:06:37Z</time>
      </trkpt>
      <trkpt lat="45.46235" lon="5.90331">
        <ele>1066.4</ele>
        <time>2012-08-29T11:06:39Z</time>
      </trkpt>
      <trkpt lat="45.46242" lon="5.90337">
        <ele>1066.2</ele>
        <time>2012-08-29T11:06:43Z</time>
      </trkpt>
      <trkpt lat="45.4625" lon="5.90351">
        <ele>1066.2</ele>
        <time>2012-08-29T11:06:49Z</time>
      </trkpt>
      <trkpt lat="45.46254" lon="5.9036">
        <ele>1066</ele>
        <time>2012-08-29T11:06:53Z</time>
      </trkpt>
      <trkpt lat="45.46257" lon="5.90365">
        <ele>1066</ele>
        <time>2012-08-29T11:06:55Z</time>
      </trkpt>
      <trkpt lat="45.46264" lon="5.90382">
        <ele>1066</ele>
        <time>2012-08-29T11:07:01Z</time>
      </trkpt>
      <trkpt lat="45.46268" lon="5.90388">
        <ele>1066</ele>
        <time>2012-08-29T11:07:04Z</time>
      </trkpt>
      <trkpt lat="45.46279" lon="5.904">
        <ele>1066</ele>
        <time>2012-08-29T11:07:10Z</time>
      </trkpt>
      <trkpt lat="45.46289" lon="5.90406">
        <ele>1066</ele>
        <time>2012-08-29T11:07:15Z</time>
      </trkpt>
      <trkpt lat="45.46299" lon="5.90412">
        <ele>1066</ele>
        <time>2012-08-29T11:07:19Z</time>
      </trkpt>
      <trkpt lat="45.46312" lon="5.90416">
        <ele>1066</ele>
        <time>2012-08-29T11:07:26Z</time>
      </trkpt>
      <trkpt lat="45.46324" lon="5.90416">
        <ele>1066</ele>
        <time>2012-08-29T11:07:31Z</time>
      </trkpt>
      <trkpt lat="45.46326" lon="5.90415">
        <ele>1066</ele>
        <time>2012-08-29T11:07:32Z</time>
      </trkpt>
      <trkpt lat="45.46334" lon="5.9041">
        <ele>1066</ele>
        <time>2012-08-29T11:07:37Z</time>
      </trkpt>
      <trkpt lat="45.46336" lon="5.90408">
        <ele>1066</ele>
        <time>2012-08-29T11:07:39Z</time>
      </trkpt>
      <trkpt lat="45.46344" lon="5.90405">
        <ele>1066</ele>
        <time>2012-08-29T11:07:44Z</time>
      </trkpt>
      <trkpt lat="45.46347" lon="5.90405">
        <ele>1066</ele>
        <time>2012-08-29T11:07:45Z</time>
      </trkpt>
      <trkpt lat="45.46361" lon="5.90406">
        <ele>1066</ele>
        <time>2012-08-29T11:07:51Z</time>
      </trkpt>
      <trkpt lat="45.46374" lon="5.9041">
        <ele>1066.2</ele>
        <time>2012-08-29T11:07:57Z</time>
      </trkpt>
      <trkpt lat="45.46383" lon="5.90415">
        <ele>1067</ele>
        <time>2012-08-29T11:08:02Z</time>
      </trkpt>
      <trkpt lat="45.46389" lon="5.90418">
        <ele>1067.4</ele>
        <time>2012-08-29T11:08:06Z</time>
      </trkpt>
      <trkpt lat="45.46399" lon="5.90424">
        <ele>1068.2</ele>
        <time>2012-08-29T11:08:12Z</time>
      </trkpt>
      <trkpt lat="45.4641" lon="5.90431">
        <ele>1069</ele>
        <time>2012-08-29T11:08:17Z</time>
      </trkpt>
      <trkpt lat="45.46418" lon="5.90431">
        <ele>1070</ele>
        <time>2012-08-29T11:08:21Z</time>
      </trkpt>
      <trkpt lat="45.46431" lon="5.90427">
        <ele>1071.2</ele>
        <time>2012-08-29T11:08:28Z</time>
      </trkpt>
      <trkpt lat="45.46433" lon="5.90427">
        <ele>1071.4</ele>
        <time>2012-08-29T11:08:29Z</time>
      </trkpt>
      <trkpt lat="45.46434" lon="5.90427">
        <ele>1071.8</ele>
        <time>2012-08-29T11:08:30Z</time>
      </trkpt>
      <trkpt lat="45.4644" lon="5.90433">
        <ele>1072.8</ele>
        <time>2012-08-29T11:08:35Z</time>
      </trkpt>
      <trkpt lat="45.46445" lon="5.90437">
        <ele>1073.4</ele>
        <time>2012-08-29T11:08:40Z</time>
      </trkpt>
      <trkpt lat="45.46447" lon="5.90439">
        <ele>1073.6</ele>
        <time>2012-08-29T11:08:42Z</time>
      </trkpt>
      <trkpt lat="45.46453" lon="5.90444">
        <ele>1073.8</ele>
        <time>2012-08-29T11:08:49Z</time>
      </trkpt>
      <trkpt lat="45.46454" lon="5.9045">
        <ele>1074</ele>
        <time>2012-08-29T11:08:54Z</time>
      </trkpt>
      <trkpt lat="45.46455" lon="5.9045">
        <ele>1074.2</ele>
        <time>2012-08-29T11:09:01Z</time>
      </trkpt>
      <trkpt lat="45.4646" lon="5.90451">
        <ele>1074.2</ele>
        <time>2012-08-29T11:09:12Z</time>
      </trkpt>
      <trkpt lat="45.46466" lon="5.90455">
        <ele>1074.2</ele>
        <time>2012-08-29T11:09:19Z</time>
      </trkpt>
      <trkpt lat="45.46467" lon="5.90455">
        <ele>1074.2</ele>
        <time>2012-08-29T11:09:20Z</time>
      </trkpt>
      <trkpt lat="45.46479" lon="5.9045">
        <ele>1074.2</ele>
        <time>2012-08-29T11:09:27Z</time>
      </trkpt>
      <trkpt lat="45.46486" lon="5.9045">
        <ele>1074.8</ele>
        <time>2012-08-29T11:09:31Z</time>
      </trkpt>
      <trkpt lat="45.46491" lon="5.90455">
        <ele>1075.4</ele>
        <time>2012-08-29T11:09:36Z</time>
      </trkpt>
      <trkpt lat="45.46496" lon="5.90454">
        <ele>1076</ele>
        <time>2012-08-29T11:09:41Z</time>
      </trkpt>
      <trkpt lat="45.46505" lon="5.90447">
        <ele>1077.2</ele>
        <time>2012-08-29T11:09:48Z</time>
      </trkpt>
      <trkpt lat="45.46507" lon="5.90446">
        <ele>1077.4</ele>
        <time>2012-08-29T11:09:49Z</time>
      </trkpt>
      <trkpt lat="45.46518" lon="5.90443">
        <ele>1078.8</ele>
        <time>2012-08-29T11:09:57Z</time>
      </trkpt>
      <trkpt lat="45.46524" lon="5.90442">
        <ele>1079.4</ele>
        <time>2012-08-29T11:10:01Z</time>
      </trkpt>
      <trkpt lat="45.46534" lon="5.9044">
        <ele>1081.2</ele>
        <time>2012-08-29T11:10:09Z</time>
      </trkpt>
      <trkpt lat="45.46537" lon="5.9044">
        <ele>1081.6</ele>
        <time>2012-08-29T11:10:12Z</time>
      </trkpt>
      <trkpt lat="45.46547" lon="5.90441">
        <ele>1083.4</ele>
        <time>2012-08-29T11:10:20Z</time>
      </trkpt>
      <trkpt lat="45.46548" lon="5.90441">
        <ele>1083.4</ele>
        <time>2012-08-29T11:10:21Z</time>
      </trkpt>
      <trkpt lat="45.46556" lon="5.90444">
        <ele>1084.2</ele>
        <time>2012-08-29T11:10:28Z</time>
      </trkpt>
      <trkpt lat="45.46565" lon="5.90451">
        <ele>1085.8</ele>
        <time>2012-08-29T11:10:38Z</time>
      </trkpt>
      <trkpt lat="45.46566" lon="5.90453">
        <ele>1086</ele>
        <time>2012-08-29T11:10:40Z</time>
      </trkpt>
      <trkpt lat="45.4657" lon="5.90456">
        <ele>1086.4</ele>
        <time>2012-08-29T11:10:45Z</time>
      </trkpt>
      <trkpt lat="45.46573" lon="5.9046">
        <ele>1086.4</ele>
        <time>2012-08-29T11:10:48Z</time>
      </trkpt>
      <trkpt lat="45.46579" lon="5.9047">
        <ele>1087.6</ele>
        <time>2012-08-29T11:10:56Z</time>
      </trkpt>
      <trkpt lat="45.46586" lon="5.90478">
        <ele>1088.2</ele>
        <time>2012-08-29T11:11:03Z</time>
      </trkpt>
      <trkpt lat="45.46595" lon="5.90486">
        <ele>1089.4</ele>
        <time>2012-08-29T11:11:11Z</time>
      </trkpt>
      <trkpt lat="45.46602" lon="5.90493">
        <ele>1090.4</ele>
        <time>2012-08-29T11:11:18Z</time>
      </trkpt>
      <trkpt lat="45.46611" lon="5.905">
        <ele>1091.8</ele>
        <time>2012-08-29T11:11:26Z</time>
      </trkpt>
      <trkpt lat="45.4662" lon="5.90507">
        <ele>1093.2</ele>
        <time>2012-08-29T11:11:33Z</time>
      </trkpt>
      <trkpt lat="45.46632" lon="5.90516">
        <ele>1094.8</ele>
        <time>2012-08-29T11:11:40Z</time>
      </trkpt>
      <trkpt lat="45.46637" lon="5.90521">
        <ele>1095.4</ele>
        <time>2012-08-29T11:11:43Z</time>
      </trkpt>
      <trkpt lat="45.46647" lon="5.90537">
        <ele>1097.2</ele>
        <time>2012-08-29T11:11:50Z</time>
      </trkpt>
      <trkpt lat="45.46656" lon="5.90552">
        <ele>1098.4</ele>
        <time>2012-08-29T11:11:57Z</time>
      </trkpt>
      <trkpt lat="45.46663" lon="5.90566">
        <ele>1099.6</ele>
        <time>2012-08-29T11:12:02Z</time>
      </trkpt>
      <trkpt lat="45.4667" lon="5.90582">
        <ele>1100.6</ele>
        <time>2012-08-29T11:12:08Z</time>
      </trkpt>
      <trkpt lat="45.46678" lon="5.90599">
        <ele>1101</ele>
        <time>2012-08-29T11:12:14Z</time>
      </trkpt>
      <trkpt lat="45.46683" lon="5.9061">
        <ele>1101.8</ele>
        <time>2012-08-29T11:12:18Z</time>
      </trkpt>
      <trkpt lat="45.46689" lon="5.90624">
        <ele>1102.6</ele>
        <time>2012-08-29T11:12:23Z</time>
      </trkpt>
      <trkpt lat="45.46698" lon="5.90644">
        <ele>1103</ele>
        <time>2012-08-29T11:12:30Z</time>
      </trkpt>
      <trkpt lat="45.46705" lon="5.90659">
        <ele>1103.2</ele>
        <time>2012-08-29T11:12:36Z</time>
      </trkpt>
      <trkpt lat="45.46713" lon="5.90676">
        <ele>1104</ele>
        <time>2012-08-29T11:12:42Z</time>
      </trkpt>
      <trkpt lat="45.46721" lon="5.90693">
        <ele>1104.8</ele>
        <time>2012-08-29T11:12:48Z</time>
      </trkpt>
      <trkpt lat="45.46728" lon="5.90712">
        <ele>1105.2</ele>
        <time>2012-08-29T11:12:54Z</time>
      </trkpt>
      <trkpt lat="45.46734" lon="5.9073">
        <ele>1105.4</ele>
        <time>2012-08-29T11:13:00Z</time>
      </trkpt>
      <trkpt lat="45.4674" lon="5.90743">
        <ele>1105.4</ele>
        <time>2012-08-29T11:13:04Z</time>
      </trkpt>
      <trkpt lat="45.46747" lon="5.90762">
        <ele>1106.2</ele>
        <time>2012-08-29T11:13:10Z</time>
      </trkpt>
      <trkpt lat="45.46747" lon="5.90765">
        <ele>1106.4</ele>
        <time>2012-08-29T11:13:11Z</time>
      </trkpt>
      <trkpt lat="45.46752" lon="5.9078">
        <ele>1107</ele>
        <time>2012-08-29T11:13:17Z</time>
      </trkpt>
      <trkpt lat="45.46758" lon="5.90796">
        <ele>1107.2</ele>
        <time>2012-08-29T11:13:23Z</time>
      </trkpt>
      <trkpt lat="45.46761" lon="5.9081">
        <ele>1108.2</ele>
        <time>2012-08-29T11:13:28Z</time>
      </trkpt>
      <trkpt lat="45.46762" lon="5.90823">
        <ele>1108.8</ele>
        <time>2012-08-29T11:13:33Z</time>
      </trkpt>
      <trkpt lat="45.46762" lon="5.90825">
        <ele>1109</ele>
        <time>2012-08-29T11:13:34Z</time>
      </trkpt>
      <trkpt lat="45.46764" lon="5.90832">
        <ele>1109.8</ele>
        <time>2012-08-29T11:13:38Z</time>
      </trkpt>
      <trkpt lat="45.46766" lon="5.90834">
        <ele>1110.4</ele>
        <time>2012-08-29T11:13:41Z</time>
      </trkpt>
      <trkpt lat="45.46773" lon="5.90841">
        <ele>1111.2</ele>
        <time>2012-08-29T11:13:49Z</time>
      </trkpt>
      <trkpt lat="45.46778" lon="5.90847">
        <ele>1112.4</ele>
        <time>2012-08-29T11:13:56Z</time>
      </trkpt>
      <trkpt lat="45.46779" lon="5.90848">
        <ele>1112.6</ele>
        <time>2012-08-29T11:13:57Z</time>
      </trkpt>
      <trkpt lat="45.46782" lon="5.90851">
        <ele>1113.2</ele>
        <time>2012-08-29T11:14:02Z</time>
      </trkpt>
      <trkpt lat="45.46787" lon="5.90854">
        <ele>1113.4</ele>
        <time>2012-08-29T11:14:08Z</time>
      </trkpt>
      <trkpt lat="45.46788" lon="5.90854">
        <ele>1113.6</ele>
        <time>2012-08-29T11:14:09Z</time>
      </trkpt>
      <trkpt lat="45.46795" lon="5.90858">
        <ele>1114.4</ele>
        <time>2012-08-29T11:14:15Z</time>
      </trkpt>
      <trkpt lat="45.46803" lon="5.90866">
        <ele>1115.2</ele>
        <time>2012-08-29T11:14:22Z</time>
      </trkpt>
      <trkpt lat="45.46809" lon="5.90869">
        <ele>1115.4</ele>
        <time>2012-08-29T11:14:27Z</time>
      </trkpt>
      <trkpt lat="45.46811" lon="5.90872">
        <ele>1115.6</ele>
        <time>2012-08-29T11:14:31Z</time>
      </trkpt>
      <trkpt lat="45.46812" lon="5.90874">
        <ele>1115.6</ele>
        <time>2012-08-29T11:14:33Z</time>
      </trkpt>
      <trkpt lat="45.46818" lon="5.9088">
        <ele>1115.8</ele>
        <time>2012-08-29T11:14:40Z</time>
      </trkpt>
      <trkpt lat="45.46824" lon="5.90884">
        <ele>1116.6</ele>
        <time>2012-08-29T11:14:45Z</time>
      </trkpt>
      <trkpt lat="45.46829" lon="5.90889">
        <ele>1117.2</ele>
        <time>2012-08-29T11:14:51Z</time>
      </trkpt>
      <trkpt lat="45.4683" lon="5.9089">
        <ele>1117.4</ele>
        <time>2012-08-29T11:14:52Z</time>
      </trkpt>
      <trkpt lat="45.46836" lon="5.90897">
        <ele>1118</ele>
        <time>2012-08-29T11:14:59Z</time>
      </trkpt>
      <trkpt lat="45.46836" lon="5.90899">
        <ele>1118.2</ele>
        <time>2012-08-29T11:15:00Z</time>
      </trkpt>
      <trkpt lat="45.4684" lon="5.90906">
        <ele>1119</ele>
        <time>2012-08-29T11:15:06Z</time>
      </trkpt>
      <trkpt lat="45.46847" lon="5.90916">
        <ele>1120.2</ele>
        <time>2012-08-29T11:15:14Z</time>
      </trkpt>
      <trkpt lat="45.46847" lon="5.90918">
        <ele>1120.4</ele>
        <time>2012-08-29T11:15:15Z</time>
      </trkpt>
      <trkpt lat="45.46847" lon="5.90926">
        <ele>1121.2</ele>
        <time>2012-08-29T11:15:21Z</time>
      </trkpt>
      <trkpt lat="45.46846" lon="5.90931">
        <ele>1122</ele>
        <time>2012-08-29T11:15:25Z</time>
      </trkpt>
      <trkpt lat="45.46849" lon="5.9094">
        <ele>1123</ele>
        <time>2012-08-29T11:15:32Z</time>
      </trkpt>
      <trkpt lat="45.46849" lon="5.90942">
        <ele>1123.2</ele>
        <time>2012-08-29T11:15:33Z</time>
      </trkpt>
      <trkpt lat="45.4685" lon="5.90944">
        <ele>1123.4</ele>
        <time>2012-08-29T11:15:34Z</time>
      </trkpt>
      <trkpt lat="45.46853" lon="5.90952">
        <ele>1124.8</ele>
        <time>2012-08-29T11:15:40Z</time>
      </trkpt>
      <trkpt lat="45.46854" lon="5.90955">
        <ele>1125</ele>
        <time>2012-08-29T11:15:43Z</time>
      </trkpt>
      <trkpt lat="45.46854" lon="5.9096">
        <ele>1125.6</ele>
        <time>2012-08-29T11:15:46Z</time>
      </trkpt>
      <trkpt lat="45.46854" lon="5.90967">
        <ele>1126.6</ele>
        <time>2012-08-29T11:15:50Z</time>
      </trkpt>
      <trkpt lat="45.46861" lon="5.9098">
        <ele>1127.6</ele>
        <time>2012-08-29T11:15:56Z</time>
      </trkpt>
      <trkpt lat="45.46866" lon="5.90991">
        <ele>1128.6</ele>
        <time>2012-08-29T11:16:00Z</time>
      </trkpt>
      <trkpt lat="45.46868" lon="5.90999">
        <ele>1129</ele>
        <time>2012-08-29T11:16:03Z</time>
      </trkpt>
      <trkpt lat="45.46879" lon="5.91016">
        <ele>1130.6</ele>
        <time>2012-08-29T11:16:11Z</time>
      </trkpt>
      <trkpt lat="45.4688" lon="5.91018">
        <ele>1130.8</ele>
        <time>2012-08-29T11:16:12Z</time>
      </trkpt>
      <trkpt lat="45.46888" lon="5.91028">
        <ele>1131.4</ele>
        <time>2012-08-29T11:16:17Z</time>
      </trkpt>
      <trkpt lat="45.46898" lon="5.91036">
        <ele>1132.6</ele>
        <time>2012-08-29T11:16:22Z</time>
      </trkpt>
      <trkpt lat="45.46912" lon="5.91046">
        <ele>1133.4</ele>
        <time>2012-08-29T11:16:28Z</time>
      </trkpt>
      <trkpt lat="45.46922" lon="5.91054">
        <ele>1134.2</ele>
        <time>2012-08-29T11:16:33Z</time>
      </trkpt>
      <trkpt lat="45.46934" lon="5.91064">
        <ele>1135.4</ele>
        <time>2012-08-29T11:16:39Z</time>
      </trkpt>
      <trkpt lat="45.46945" lon="5.91071">
        <ele>1135.8</ele>
        <time>2012-08-29T11:16:44Z</time>
      </trkpt>
      <trkpt lat="45.46954" lon="5.91078">
        <ele>1136.8</ele>
        <time>2012-08-29T11:16:49Z</time>
      </trkpt>
      <trkpt lat="45.46964" lon="5.91086">
        <ele>1137.6</ele>
        <time>2012-08-29T11:16:54Z</time>
      </trkpt>
      <trkpt lat="45.46976" lon="5.911">
        <ele>1138.2</ele>
        <time>2012-08-29T11:17:01Z</time>
      </trkpt>
      <trkpt lat="45.46981" lon="5.91113">
        <ele>1138.4</ele>
        <time>2012-08-29T11:17:06Z</time>
      </trkpt>
      <trkpt lat="45.46991" lon="5.91122">
        <ele>1138.4</ele>
        <time>2012-08-29T11:17:11Z</time>
      </trkpt>
      <trkpt lat="45.46993" lon="5.91124">
        <ele>1138.4</ele>
        <time>2012-08-29T11:17:12Z</time>
      </trkpt>
      <trkpt lat="45.46996" lon="5.91133">
        <ele>1139.4</ele>
        <time>2012-08-29T11:17:17Z</time>
      </trkpt>
      <trkpt lat="45.46998" lon="5.91145">
        <ele>1139.8</ele>
        <time>2012-08-29T11:17:22Z</time>
      </trkpt>
      <trkpt lat="45.46998" lon="5.9115">
        <ele>1140.6</ele>
        <time>2012-08-29T11:17:25Z</time>
      </trkpt>
      <trkpt lat="45.46998" lon="5.91152">
        <ele>1141.2</ele>
        <time>2012-08-29T11:17:28Z</time>
      </trkpt>
      <trkpt lat="45.46998" lon="5.91154">
        <ele>1141.4</ele>
        <time>2012-08-29T11:17:30Z</time>
      </trkpt>
      <trkpt lat="45.46998" lon="5.91164">
        <ele>1142.6</ele>
        <time>2012-08-29T11:17:36Z</time>
      </trkpt>
      <trkpt lat="45.46998" lon="5.91165">
        <ele>1142.8</ele>
        <time>2012-08-29T11:17:37Z</time>
      </trkpt>
      <trkpt lat="45.46998" lon="5.91167">
        <ele>1143.2</ele>
        <time>2012-08-29T11:17:39Z</time>
      </trkpt>
      <trkpt lat="45.47001" lon="5.91168">
        <ele>1144.2</ele>
        <time>2012-08-29T11:17:44Z</time>
      </trkpt>
      <trkpt lat="45.47009" lon="5.91169">
        <ele>1145.4</ele>
        <time>2012-08-29T11:17:49Z</time>
      </trkpt>
      <trkpt lat="45.4701" lon="5.91169">
        <ele>1145.4</ele>
        <time>2012-08-29T11:17:50Z</time>
      </trkpt>
      <trkpt lat="45.47011" lon="5.91173">
        <ele>1146</ele>
        <time>2012-08-29T11:17:53Z</time>
      </trkpt>
      <trkpt lat="45.47013" lon="5.91173">
        <ele>1146.4</ele>
        <time>2012-08-29T11:17:54Z</time>
      </trkpt>
      <trkpt lat="45.47014" lon="5.91173">
        <ele>1146.8</ele>
        <time>2012-08-29T11:17:56Z</time>
      </trkpt>
      <trkpt lat="45.47019" lon="5.91177">
        <ele>1147.8</ele>
        <time>2012-08-29T11:18:03Z</time>
      </trkpt>
      <trkpt lat="45.4702" lon="5.91178">
        <ele>1148.2</ele>
        <time>2012-08-29T11:18:04Z</time>
      </trkpt>
      <trkpt lat="45.47026" lon="5.91182">
        <ele>1149.4</ele>
        <time>2012-08-29T11:18:09Z</time>
      </trkpt>
      <trkpt lat="45.47029" lon="5.91183">
        <ele>1149.8</ele>
        <time>2012-08-29T11:18:13Z</time>
      </trkpt>
      <trkpt lat="45.47031" lon="5.91185">
        <ele>1150.2</ele>
        <time>2012-08-29T11:18:17Z</time>
      </trkpt>
      <trkpt lat="45.47034" lon="5.9119">
        <ele>1150.4</ele>
        <time>2012-08-29T11:18:21Z</time>
      </trkpt>
      <trkpt lat="45.47035" lon="5.91194">
        <ele>1150.6</ele>
        <time>2012-08-29T11:18:23Z</time>
      </trkpt>
      <trkpt lat="45.47037" lon="5.91198">
        <ele>1150.8</ele>
        <time>2012-08-29T11:18:28Z</time>
      </trkpt>
      <trkpt lat="45.47043" lon="5.91195">
        <ele>1150.8</ele>
        <time>2012-08-29T11:18:34Z</time>
      </trkpt>
      <trkpt lat="45.47043" lon="5.91194">
        <ele>1150.8</ele>
        <time>2012-08-29T11:18:36Z</time>
      </trkpt>
      <trkpt lat="45.47047" lon="5.91195">
        <ele>1152</ele>
        <time>2012-08-29T11:18:44Z</time>
      </trkpt>
      <trkpt lat="45.47048" lon="5.912">
        <ele>1154</ele>
        <time>2012-08-29T11:19:00Z</time>
      </trkpt>
      <trkpt lat="45.47049" lon="5.91205">
        <ele>1154.4</ele>
        <time>2012-08-29T11:19:04Z</time>
      </trkpt>
      <trkpt lat="45.47051" lon="5.91207">
        <ele>1154.6</ele>
        <time>2012-08-29T11:19:06Z</time>
      </trkpt>
      <trkpt lat="45.47057" lon="5.91218">
        <ele>1154.8</ele>
        <time>2012-08-29T11:19:13Z</time>
      </trkpt>
      <trkpt lat="45.47062" lon="5.91223">
        <ele>1155</ele>
        <time>2012-08-29T11:19:17Z</time>
      </trkpt>
      <trkpt lat="45.47069" lon="5.91221">
        <ele>1155</ele>
        <time>2012-08-29T11:19:21Z</time>
      </trkpt>
      <trkpt lat="45.47074" lon="5.91219">
        <ele>1155</ele>
        <time>2012-08-29T11:19:24Z</time>
      </trkpt>
      <trkpt lat="45.47081" lon="5.91219">
        <ele>1155.2</ele>
        <time>2012-08-29T11:19:27Z</time>
      </trkpt>
      <trkpt lat="45.47086" lon="5.91217">
        <ele>1155.2</ele>
        <time>2012-08-29T11:19:31Z</time>
      </trkpt>
      <trkpt lat="45.47087" lon="5.91217">
        <ele>1155.2</ele>
        <time>2012-08-29T11:19:32Z</time>
      </trkpt>
      <trkpt lat="45.47094" lon="5.91217">
        <ele>1155.2</ele>
        <time>2012-08-29T11:19:35Z</time>
      </trkpt>
      <trkpt lat="45.47096" lon="5.91216">
        <ele>1155.2</ele>
        <time>2012-08-29T11:19:39Z</time>
      </trkpt>
      <trkpt lat="45.47104" lon="5.91217">
        <ele>1155.2</ele>
        <time>2012-08-29T11:19:43Z</time>
      </trkpt>
      <trkpt lat="45.47104" lon="5.91218">
        <ele>1155.2</ele>
        <time>2012-08-29T11:19:44Z</time>
      </trkpt>
      <trkpt lat="45.47112" lon="5.9122">
        <ele>1155.2</ele>
        <time>2012-08-29T11:19:48Z</time>
      </trkpt>
      <trkpt lat="45.47117" lon="5.91221">
        <ele>1155.2</ele>
        <time>2012-08-29T11:19:51Z</time>
      </trkpt>
      <trkpt lat="45.47119" lon="5.91222">
        <ele>1155.2</ele>
        <time>2012-08-29T11:19:53Z</time>
      </trkpt>
      <trkpt lat="45.47123" lon="5.91229">
        <ele>1155</ele>
        <time>2012-08-29T11:19:57Z</time>
      </trkpt>
      <trkpt lat="45.47124" lon="5.91231">
        <ele>1154.8</ele>
        <time>2012-08-29T11:19:58Z</time>
      </trkpt>
      <trkpt lat="45.47127" lon="5.91237">
        <ele>1154.4</ele>
        <time>2012-08-29T11:20:00Z</time>
      </trkpt>
      <trkpt lat="45.47132" lon="5.91243">
        <ele>1154</ele>
        <time>2012-08-29T11:20:03Z</time>
      </trkpt>
      <trkpt lat="45.47143" lon="5.91252">
        <ele>1153.6</ele>
        <time>2012-08-29T11:20:08Z</time>
      </trkpt>
      <trkpt lat="45.47147" lon="5.91258">
        <ele>1152.8</ele>
        <time>2012-08-29T11:20:12Z</time>
      </trkpt>
      <trkpt lat="45.47148" lon="5.9126">
        <ele>1152.6</ele>
        <time>2012-08-29T11:20:13Z</time>
      </trkpt>
      <trkpt lat="45.47149" lon="5.91262">
        <ele>1152.6</ele>
        <time>2012-08-29T11:20:14Z</time>
      </trkpt>
      <trkpt lat="45.47151" lon="5.91271">
        <ele>1152</ele>
        <time>2012-08-29T11:20:18Z</time>
      </trkpt>
      <trkpt lat="45.47151" lon="5.91273">
        <ele>1151.8</ele>
        <time>2012-08-29T11:20:20Z</time>
      </trkpt>
      <trkpt lat="45.47153" lon="5.91274">
        <ele>1151.6</ele>
        <time>2012-08-29T11:20:21Z</time>
      </trkpt>
      <trkpt lat="45.47158" lon="5.9128">
        <ele>1151.4</ele>
        <time>2012-08-29T11:20:25Z</time>
      </trkpt>
      <trkpt lat="45.4716" lon="5.91284">
        <ele>1151.4</ele>
        <time>2012-08-29T11:20:27Z</time>
      </trkpt>
      <trkpt lat="45.47163" lon="5.9129">
        <ele>1151.2</ele>
        <time>2012-08-29T11:20:30Z</time>
      </trkpt>
      <trkpt lat="45.47172" lon="5.913">
        <ele>1151.2</ele>
        <time>2012-08-29T11:20:34Z</time>
      </trkpt>
      <trkpt lat="45.47177" lon="5.91309">
        <ele>1151</ele>
        <time>2012-08-29T11:20:38Z</time>
      </trkpt>
      <trkpt lat="45.47184" lon="5.91319">
        <ele>1151</ele>
        <time>2012-08-29T11:20:42Z</time>
      </trkpt>
      <trkpt lat="45.47187" lon="5.91324">
        <ele>1151</ele>
        <time>2012-08-29T11:20:44Z</time>
      </trkpt>
      <trkpt lat="45.47195" lon="5.91329">
        <ele>1151</ele>
        <time>2012-08-29T11:20:49Z</time>
      </trkpt>
      <trkpt lat="45.47201" lon="5.91334">
        <ele>1151</ele>
        <time>2012-08-29T11:20:55Z</time>
      </trkpt>
      <trkpt lat="45.47202" lon="5.91337">
        <ele>1151.6</ele>
        <time>2012-08-29T11:21:00Z</time>
      </trkpt>
      <trkpt lat="45.47202" lon="5.9134">
        <ele>1152.2</ele>
        <time>2012-08-29T11:21:06Z</time>
      </trkpt>
      <trkpt lat="45.47203" lon="5.91349">
        <ele>1152.6</ele>
        <time>2012-08-29T11:21:10Z</time>
      </trkpt>
      <trkpt lat="45.47206" lon="5.91354">
        <ele>1152.6</ele>
        <time>2012-08-29T11:21:13Z</time>
      </trkpt>
      <trkpt lat="45.47211" lon="5.91361">
        <ele>1153</ele>
        <time>2012-08-29T11:21:19Z</time>
      </trkpt>
      <trkpt lat="45.47213" lon="5.91366">
        <ele>1153.4</ele>
        <time>2012-08-29T11:21:21Z</time>
      </trkpt>
      <trkpt lat="45.47217" lon="5.9137">
        <ele>1153.8</ele>
        <time>2012-08-29T11:21:23Z</time>
      </trkpt>
      <trkpt lat="45.47221" lon="5.91378">
        <ele>1154.2</ele>
        <time>2012-08-29T11:21:26Z</time>
      </trkpt>
      <trkpt lat="45.47224" lon="5.91381">
        <ele>1154.4</ele>
        <time>2012-08-29T11:21:28Z</time>
      </trkpt>
      <trkpt lat="45.47229" lon="5.9139">
        <ele>1155.4</ele>
        <time>2012-08-29T11:21:35Z</time>
      </trkpt>
      <trkpt lat="45.47239" lon="5.91402">
        <ele>1156.2</ele>
        <time>2012-08-29T11:21:40Z</time>
      </trkpt>
      <trkpt lat="45.47242" lon="5.91404">
        <ele>1156.4</ele>
        <time>2012-08-29T11:21:41Z</time>
      </trkpt>
      <trkpt lat="45.47252" lon="5.91416">
        <ele>1157.2</ele>
        <time>2012-08-29T11:21:46Z</time>
      </trkpt>
      <trkpt lat="45.47253" lon="5.91417">
        <ele>1157.4</ele>
        <time>2012-08-29T11:21:47Z</time>
      </trkpt>
      <trkpt lat="45.47265" lon="5.91424">
        <ele>1158.2</ele>
        <time>2012-08-29T11:21:52Z</time>
      </trkpt>
      <trkpt lat="45.47271" lon="5.91435">
        <ele>1158.8</ele>
        <time>2012-08-29T11:21:57Z</time>
      </trkpt>
      <trkpt lat="45.47274" lon="5.91441">
        <ele>1159</ele>
        <time>2012-08-29T11:22:01Z</time>
      </trkpt>
      <trkpt lat="45.47275" lon="5.91443">
        <ele>1159</ele>
        <time>2012-08-29T11:22:03Z</time>
      </trkpt>
      <trkpt lat="45.47277" lon="5.9145">
        <ele>1159.6</ele>
        <time>2012-08-29T11:22:08Z</time>
      </trkpt>
      <trkpt lat="45.47277" lon="5.91452">
        <ele>1159.8</ele>
        <time>2012-08-29T11:22:09Z</time>
      </trkpt>
      <trkpt lat="45.47279" lon="5.91455">
        <ele>1160.2</ele>
        <time>2012-08-29T11:22:12Z</time>
      </trkpt>
      <trkpt lat="45.47283" lon="5.91461">
        <ele>1160.6</ele>
        <time>2012-08-29T11:22:16Z</time>
      </trkpt>
      <trkpt lat="45.47283" lon="5.91463">
        <ele>1160.8</ele>
        <time>2012-08-29T11:22:18Z</time>
      </trkpt>
      <trkpt lat="45.47286" lon="5.91467">
        <ele>1161</ele>
        <time>2012-08-29T11:22:21Z</time>
      </trkpt>
      <trkpt lat="45.47287" lon="5.91469">
        <ele>1161</ele>
        <time>2012-08-29T11:22:22Z</time>
      </trkpt>
      <trkpt lat="45.4729" lon="5.91475">
        <ele>1161.2</ele>
        <time>2012-08-29T11:22:27Z</time>
      </trkpt>
      <trkpt lat="45.47291" lon="5.91479">
        <ele>1161.8</ele>
        <time>2012-08-29T11:22:30Z</time>
      </trkpt>
      <trkpt lat="45.47294" lon="5.91485">
        <ele>1162.4</ele>
        <time>2012-08-29T11:22:34Z</time>
      </trkpt>
      <trkpt lat="45.47295" lon="5.91487">
        <ele>1162.6</ele>
        <time>2012-08-29T11:22:36Z</time>
      </trkpt>
      <trkpt lat="45.47295" lon="5.91489">
        <ele>1162.8</ele>
        <time>2012-08-29T11:22:39Z</time>
      </trkpt>
      <trkpt lat="45.47297" lon="5.91499">
        <ele>1163</ele>
        <time>2012-08-29T11:22:43Z</time>
      </trkpt>
      <trkpt lat="45.47297" lon="5.91501">
        <ele>1163</ele>
        <time>2012-08-29T11:22:44Z</time>
      </trkpt>
      <trkpt lat="45.47299" lon="5.91507">
        <ele>1163.2</ele>
        <time>2012-08-29T11:22:47Z</time>
      </trkpt>
      <trkpt lat="45.47303" lon="5.91517">
        <ele>1163.4</ele>
        <time>2012-08-29T11:22:52Z</time>
      </trkpt>
      <trkpt lat="45.47305" lon="5.91528">
        <ele>1163.4</ele>
        <time>2012-08-29T11:22:57Z</time>
      </trkpt>
      <trkpt lat="45.47307" lon="5.91537">
        <ele>1163.4</ele>
        <time>2012-08-29T11:23:01Z</time>
      </trkpt>
      <trkpt lat="45.47309" lon="5.9154">
        <ele>1163.4</ele>
        <time>2012-08-29T11:23:02Z</time>
      </trkpt>
      <trkpt lat="45.47314" lon="5.91544">
        <ele>1163.4</ele>
        <time>2012-08-29T11:23:04Z</time>
      </trkpt>
      <trkpt lat="45.47317" lon="5.91548">
        <ele>1163.4</ele>
        <time>2012-08-29T11:23:06Z</time>
      </trkpt>
      <trkpt lat="45.47326" lon="5.91558">
        <ele>1163.4</ele>
        <time>2012-08-29T11:23:11Z</time>
      </trkpt>
      <trkpt lat="45.47329" lon="5.91563">
        <ele>1163.6</ele>
        <time>2012-08-29T11:23:14Z</time>
      </trkpt>
      <trkpt lat="45.47331" lon="5.91566">
        <ele>1164</ele>
        <time>2012-08-29T11:23:16Z</time>
      </trkpt>
      <trkpt lat="45.47334" lon="5.91572">
        <ele>1164.8</ele>
        <time>2012-08-29T11:23:22Z</time>
      </trkpt>
      <trkpt lat="45.47336" lon="5.91575">
        <ele>1165</ele>
        <time>2012-08-29T11:23:24Z</time>
      </trkpt>
      <trkpt lat="45.47339" lon="5.9158">
        <ele>1165.8</ele>
        <time>2012-08-29T11:23:28Z</time>
      </trkpt>
      <trkpt lat="45.4734" lon="5.91582">
        <ele>1166.2</ele>
        <time>2012-08-29T11:23:30Z</time>
      </trkpt>
      <trkpt lat="45.4735" lon="5.91581">
        <ele>1167</ele>
        <time>2012-08-29T11:23:35Z</time>
      </trkpt>
      <trkpt lat="45.47353" lon="5.9158">
        <ele>1167.6</ele>
        <time>2012-08-29T11:23:37Z</time>
      </trkpt>
      <trkpt lat="45.4736" lon="5.91581">
        <ele>1168.2</ele>
        <time>2012-08-29T11:23:40Z</time>
      </trkpt>
      <trkpt lat="45.47368" lon="5.91578">
        <ele>1168.6</ele>
        <time>2012-08-29T11:23:43Z</time>
      </trkpt>
      <trkpt lat="45.47374" lon="5.91577">
        <ele>1169.6</ele>
        <time>2012-08-29T11:23:46Z</time>
      </trkpt>
      <trkpt lat="45.47378" lon="5.91577">
        <ele>1170</ele>
        <time>2012-08-29T11:23:48Z</time>
      </trkpt>
      <trkpt lat="45.47379" lon="5.91579">
        <ele>1170.4</ele>
        <time>2012-08-29T11:23:50Z</time>
      </trkpt>
      <trkpt lat="45.47378" lon="5.91585">
        <ele>1170.8</ele>
        <time>2012-08-29T11:23:54Z</time>
      </trkpt>
      <trkpt lat="45.47386" lon="5.91594">
        <ele>1172.2</ele>
        <time>2012-08-29T11:24:01Z</time>
      </trkpt>
      <trkpt lat="45.4739" lon="5.91598">
        <ele>1172.8</ele>
        <time>2012-08-29T11:24:04Z</time>
      </trkpt>
      <trkpt lat="45.47397" lon="5.91608">
        <ele>1173.2</ele>
        <time>2012-08-29T11:24:09Z</time>
      </trkpt>
      <trkpt lat="45.47398" lon="5.91608">
        <ele>1173.2</ele>
        <time>2012-08-29T11:24:10Z</time>
      </trkpt>
      <trkpt lat="45.47405" lon="5.91606">
        <ele>1173.6</ele>
        <time>2012-08-29T11:24:14Z</time>
      </trkpt>
      <trkpt lat="45.47412" lon="5.91604">
        <ele>1173.6</ele>
        <time>2012-08-29T11:24:18Z</time>
      </trkpt>
      <trkpt lat="45.47415" lon="5.91602">
        <ele>1173.8</ele>
        <time>2012-08-29T11:24:20Z</time>
      </trkpt>
      <trkpt lat="45.4742" lon="5.916">
        <ele>1173.8</ele>
        <time>2012-08-29T11:24:23Z</time>
      </trkpt>
      <trkpt lat="45.47425" lon="5.91594">
        <ele>1173.8</ele>
        <time>2012-08-29T11:24:27Z</time>
      </trkpt>
      <trkpt lat="45.47427" lon="5.91594">
        <ele>1173.8</ele>
        <time>2012-08-29T11:24:29Z</time>
      </trkpt>
      <trkpt lat="45.47429" lon="5.91593">
        <ele>1173.8</ele>
        <time>2012-08-29T11:24:31Z</time>
      </trkpt>
      <trkpt lat="45.47434" lon="5.91596">
        <ele>1173.8</ele>
        <time>2012-08-29T11:24:36Z</time>
      </trkpt>
      <trkpt lat="45.47435" lon="5.91596">
        <ele>1173.8</ele>
        <time>2012-08-29T11:24:37Z</time>
      </trkpt>
      <trkpt lat="45.47438" lon="5.91597">
        <ele>1174</ele>
        <time>2012-08-29T11:24:43Z</time>
      </trkpt>
      <trkpt lat="45.47444" lon="5.91597">
        <ele>1174</ele>
        <time>2012-08-29T11:24:48Z</time>
      </trkpt>
      <trkpt lat="45.47447" lon="5.91599">
        <ele>1173.4</ele>
        <time>2012-08-29T11:24:52Z</time>
      </trkpt>
      <trkpt lat="45.47449" lon="5.916">
        <ele>1173</ele>
        <time>2012-08-29T11:24:54Z</time>
      </trkpt>
      <trkpt lat="45.47456" lon="5.91599">
        <ele>1172.6</ele>
        <time>2012-08-29T11:25:00Z</time>
      </trkpt>
      <trkpt lat="45.47456" lon="5.91599">
        <ele>1172.4</ele>
        <time>2012-08-29T11:25:01Z</time>
      </trkpt>
      <trkpt lat="45.47457" lon="5.91599">
        <ele>1172.4</ele>
        <time>2012-08-29T11:25:02Z</time>
      </trkpt>
      <trkpt lat="45.47462" lon="5.91597">
        <ele>1171.6</ele>
        <time>2012-08-29T11:25:06Z</time>
      </trkpt>
      <trkpt lat="45.47465" lon="5.91595">
        <ele>1170.6</ele>
        <time>2012-08-29T11:25:12Z</time>
      </trkpt>
      <trkpt lat="45.47466" lon="5.91594">
        <ele>1169.6</ele>
        <time>2012-08-29T11:25:16Z</time>
      </trkpt>
      <trkpt lat="45.47468" lon="5.91593">
        <ele>1168.4</ele>
        <time>2012-08-29T11:25:21Z</time>
      </trkpt>
      <trkpt lat="45.47469" lon="5.91596">
        <ele>1167.6</ele>
        <time>2012-08-29T11:25:24Z</time>
      </trkpt>
      <trkpt lat="45.47471" lon="5.91597">
        <ele>1167</ele>
        <time>2012-08-29T11:25:27Z</time>
      </trkpt>
      <trkpt lat="45.4748" lon="5.91601">
        <ele>1165.8</ele>
        <time>2012-08-29T11:25:32Z</time>
      </trkpt>
      <trkpt lat="45.47483" lon="5.91601">
        <ele>1164.8</ele>
        <time>2012-08-29T11:25:36Z</time>
      </trkpt>
      <trkpt lat="45.47485" lon="5.91597">
        <ele>1163.8</ele>
        <time>2012-08-29T11:25:41Z</time>
      </trkpt>
      <trkpt lat="45.47485" lon="5.91596">
        <ele>1163.6</ele>
        <time>2012-08-29T11:25:42Z</time>
      </trkpt>
      <trkpt lat="45.47488" lon="5.91594">
        <ele>1162.8</ele>
        <time>2012-08-29T11:25:46Z</time>
      </trkpt>
      <trkpt lat="45.47492" lon="5.91592">
        <ele>1162.4</ele>
        <time>2012-08-29T11:25:49Z</time>
      </trkpt>
      <trkpt lat="45.47491" lon="5.91591">
        <ele>1161.6</ele>
        <time>2012-08-29T11:25:52Z</time>
      </trkpt>
      <trkpt lat="45.47498" lon="5.9159">
        <ele>1160.6</ele>
        <time>2012-08-29T11:25:57Z</time>
      </trkpt>
      <trkpt lat="45.47504" lon="5.91592">
        <ele>1160.2</ele>
        <time>2012-08-29T11:26:00Z</time>
      </trkpt>
      <trkpt lat="45.47505" lon="5.91586">
        <ele>1159.8</ele>
        <time>2012-08-29T11:26:05Z</time>
      </trkpt>
      <trkpt lat="45.47505" lon="5.91585">
        <ele>1159.8</ele>
        <time>2012-08-29T11:26:06Z</time>
      </trkpt>
      <trkpt lat="45.47506" lon="5.91585">
        <ele>1159.8</ele>
        <time>2012-08-29T11:26:07Z</time>
      </trkpt>
      <trkpt lat="45.47517" lon="5.91583">
        <ele>1158.8</ele>
        <time>2012-08-29T11:26:11Z</time>
      </trkpt>
      <trkpt lat="45.47519" lon="5.91581">
        <ele>1158.6</ele>
        <time>2012-08-29T11:26:12Z</time>
      </trkpt>
      <trkpt lat="45.4752" lon="5.91581">
        <ele>1158.4</ele>
        <time>2012-08-29T11:26:13Z</time>
      </trkpt>
      <trkpt lat="45.47522" lon="5.91581">
        <ele>1158.4</ele>
        <time>2012-08-29T11:26:14Z</time>
      </trkpt>
      <trkpt lat="45.4753" lon="5.91575">
        <ele>1157.8</ele>
        <time>2012-08-29T11:26:19Z</time>
      </trkpt>
      <trkpt lat="45.47531" lon="5.91572">
        <ele>1157.4</ele>
        <time>2012-08-29T11:26:24Z</time>
      </trkpt>
      <trkpt lat="45.47531" lon="5.91573">
        <ele>1157.4</ele>
        <time>2012-08-29T11:26:25Z</time>
      </trkpt>
      <trkpt lat="45.47539" lon="5.91568">
        <ele>1156.4</ele>
        <time>2012-08-29T11:26:31Z</time>
      </trkpt>
      <trkpt lat="45.47546" lon="5.91564">
        <ele>1155.8</ele>
        <time>2012-08-29T11:26:35Z</time>
      </trkpt>
      <trkpt lat="45.47549" lon="5.91563">
        <ele>1155.8</ele>
        <time>2012-08-29T11:26:37Z</time>
      </trkpt>
      <trkpt lat="45.47556" lon="5.91561">
        <ele>1155.4</ele>
        <time>2012-08-29T11:26:42Z</time>
      </trkpt>
      <trkpt lat="45.47555" lon="5.91556">
        <ele>1155.2</ele>
        <time>2012-08-29T11:26:46Z</time>
      </trkpt>
      <trkpt lat="45.47553" lon="5.91552">
        <ele>1155.2</ele>
        <time>2012-08-29T11:26:50Z</time>
      </trkpt>
      <trkpt lat="45.47551" lon="5.91549">
        <ele>1155</ele>
        <time>2012-08-29T11:26:54Z</time>
      </trkpt>
      <trkpt lat="45.47549" lon="5.91548">
        <ele>1155</ele>
        <time>2012-08-29T11:26:56Z</time>
      </trkpt>
      <trkpt lat="45.47548" lon="5.91543">
        <ele>1155</ele>
        <time>2012-08-29T11:27:04Z</time>
      </trkpt>
      <trkpt lat="45.47549" lon="5.9154">
        <ele>1155</ele>
        <time>2012-08-29T11:27:10Z</time>
      </trkpt>
      <trkpt lat="45.4755" lon="5.91542">
        <ele>1155</ele>
        <time>2012-08-29T11:27:11Z</time>
      </trkpt>
      <trkpt lat="45.47556" lon="5.91551">
        <ele>1155</ele>
        <time>2012-08-29T11:27:15Z</time>
      </trkpt>
      <trkpt lat="45.47559" lon="5.91555">
        <ele>1155</ele>
        <time>2012-08-29T11:27:18Z</time>
      </trkpt>
      <trkpt lat="45.47563" lon="5.91559">
        <ele>1155</ele>
        <time>2012-08-29T11:27:20Z</time>
      </trkpt>
      <trkpt lat="45.4757" lon="5.91559">
        <ele>1155</ele>
        <time>2012-08-29T11:27:25Z</time>
      </trkpt>
      <trkpt lat="45.47575" lon="5.9156">
        <ele>1154.2</ele>
        <time>2012-08-29T11:27:29Z</time>
      </trkpt>
      <trkpt lat="45.47583" lon="5.91569">
        <ele>1153.6</ele>
        <time>2012-08-29T11:27:35Z</time>
      </trkpt>
      <trkpt lat="45.47587" lon="5.91571">
        <ele>1153.4</ele>
        <time>2012-08-29T11:27:38Z</time>
      </trkpt>
      <trkpt lat="45.47589" lon="5.91571">
        <ele>1153.4</ele>
        <time>2012-08-29T11:27:40Z</time>
      </trkpt>
      <trkpt lat="45.47589" lon="5.9157">
        <ele>1153.4</ele>
        <time>2012-08-29T11:27:41Z</time>
      </trkpt>
      <trkpt lat="45.47591" lon="5.91571">
        <ele>1153.2</ele>
        <time>2012-08-29T11:27:43Z</time>
      </trkpt>
      <trkpt lat="45.47593" lon="5.91572">
        <ele>1153.2</ele>
        <time>2012-08-29T11:27:45Z</time>
      </trkpt>
      <trkpt lat="45.476" lon="5.91575">
        <ele>1153</ele>
        <time>2012-08-29T11:27:50Z</time>
      </trkpt>
      <trkpt lat="45.47606" lon="5.91571">
        <ele>1152.6</ele>
        <time>2012-08-29T11:27:55Z</time>
      </trkpt>
      <trkpt lat="45.47606" lon="5.91569">
        <ele>1152.4</ele>
        <time>2012-08-29T11:27:56Z</time>
      </trkpt>
      <trkpt lat="45.47608" lon="5.91568">
        <ele>1152.2</ele>
        <time>2012-08-29T11:27:58Z</time>
      </trkpt>
      <trkpt lat="45.47609" lon="5.91567">
        <ele>1152</ele>
        <time>2012-08-29T11:27:59Z</time>
      </trkpt>
      <trkpt lat="45.47613" lon="5.91566">
        <ele>1151.6</ele>
        <time>2012-08-29T11:28:03Z</time>
      </trkpt>
      <trkpt lat="45.47614" lon="5.91564">
        <ele>1151.4</ele>
        <time>2012-08-29T11:28:07Z</time>
      </trkpt>
      <trkpt lat="45.47615" lon="5.91562">
        <ele>1151.4</ele>
        <time>2012-08-29T11:28:08Z</time>
      </trkpt>
      <trkpt lat="45.47623" lon="5.91555">
        <ele>1151.2</ele>
        <time>2012-08-29T11:28:12Z</time>
      </trkpt>
      <trkpt lat="45.47629" lon="5.9155">
        <ele>1151</ele>
        <time>2012-08-29T11:28:16Z</time>
      </trkpt>
      <trkpt lat="45.47628" lon="5.91549">
        <ele>1151</ele>
        <time>2012-08-29T11:28:17Z</time>
      </trkpt>
      <trkpt lat="45.47628" lon="5.91547">
        <ele>1151</ele>
        <time>2012-08-29T11:28:18Z</time>
      </trkpt>
      <trkpt lat="45.47627" lon="5.91539">
        <ele>1151</ele>
        <time>2012-08-29T11:28:23Z</time>
      </trkpt>
      <trkpt lat="45.47628" lon="5.91532">
        <ele>1151</ele>
        <time>2012-08-29T11:28:26Z</time>
      </trkpt>
      <trkpt lat="45.47629" lon="5.91527">
        <ele>1151</ele>
        <time>2012-08-29T11:28:29Z</time>
      </trkpt>
      <trkpt lat="45.4763" lon="5.91523">
        <ele>1151</ele>
        <time>2012-08-29T11:28:33Z</time>
      </trkpt>
      <trkpt lat="45.47628" lon="5.91515">
        <ele>1151</ele>
        <time>2012-08-29T11:28:37Z</time>
      </trkpt>
      <trkpt lat="45.47628" lon="5.91512">
        <ele>1151</ele>
        <time>2012-08-29T11:28:39Z</time>
      </trkpt>
      <trkpt lat="45.47629" lon="5.9151">
        <ele>1150.8</ele>
        <time>2012-08-29T11:28:41Z</time>
      </trkpt>
      <trkpt lat="45.47637" lon="5.91508">
        <ele>1150.8</ele>
        <time>2012-08-29T11:28:44Z</time>
      </trkpt>
      <trkpt lat="45.47641" lon="5.91505">
        <ele>1150.8</ele>
        <time>2012-08-29T11:28:47Z</time>
      </trkpt>
      <trkpt lat="45.47644" lon="5.91497">
        <ele>1150.8</ele>
        <time>2012-08-29T11:28:51Z</time>
      </trkpt>
      <trkpt lat="45.47645" lon="5.91496">
        <ele>1150.8</ele>
        <time>2012-08-29T11:28:52Z</time>
      </trkpt>
      <trkpt lat="45.47647" lon="5.91487">
        <ele>1150.6</ele>
        <time>2012-08-29T11:28:56Z</time>
      </trkpt>
      <trkpt lat="45.47647" lon="5.91484">
        <ele>1150.4</ele>
        <time>2012-08-29T11:28:58Z</time>
      </trkpt>
      <trkpt lat="45.47649" lon="5.91477">
        <ele>1149.8</ele>
        <time>2012-08-29T11:29:02Z</time>
      </trkpt>
      <trkpt lat="45.47648" lon="5.91472">
        <ele>1148.6</ele>
        <time>2012-08-29T11:29:15Z</time>
      </trkpt>
      <trkpt lat="45.47649" lon="5.9147">
        <ele>1148.4</ele>
        <time>2012-08-29T11:29:16Z</time>
      </trkpt>
      <trkpt lat="45.47651" lon="5.91465">
        <ele>1148</ele>
        <time>2012-08-29T11:29:19Z</time>
      </trkpt>
      <trkpt lat="45.47652" lon="5.91461">
        <ele>1147.8</ele>
        <time>2012-08-29T11:29:21Z</time>
      </trkpt>
      <trkpt lat="45.47657" lon="5.9145">
        <ele>1146.4</ele>
        <time>2012-08-29T11:29:27Z</time>
      </trkpt>
      <trkpt lat="45.47661" lon="5.91447">
        <ele>1146</ele>
        <time>2012-08-29T11:29:29Z</time>
      </trkpt>
      <trkpt lat="45.47667" lon="5.91425">
        <ele>1144.4</ele>
        <time>2012-08-29T11:29:37Z</time>
      </trkpt>
      <trkpt lat="45.47667" lon="5.91421">
        <ele>1144</ele>
        <time>2012-08-29T11:29:39Z</time>
      </trkpt>
      <trkpt lat="45.47665" lon="5.91409">
        <ele>1142.6</ele>
        <time>2012-08-29T11:29:44Z</time>
      </trkpt>
      <trkpt lat="45.47667" lon="5.914">
        <ele>1141.8</ele>
        <time>2012-08-29T11:29:48Z</time>
      </trkpt>
      <trkpt lat="45.47675" lon="5.91398">
        <ele>1140.8</ele>
        <time>2012-08-29T11:29:52Z</time>
      </trkpt>
      <trkpt lat="45.47678" lon="5.91396">
        <ele>1140.6</ele>
        <time>2012-08-29T11:29:53Z</time>
      </trkpt>
      <trkpt lat="45.47683" lon="5.91382">
        <ele>1139.4</ele>
        <time>2012-08-29T11:29:58Z</time>
      </trkpt>
      <trkpt lat="45.47684" lon="5.9138">
        <ele>1139</ele>
        <time>2012-08-29T11:29:59Z</time>
      </trkpt>
      <trkpt lat="45.47686" lon="5.91374">
        <ele>1138.2</ele>
        <time>2012-08-29T11:30:02Z</time>
      </trkpt>
      <trkpt lat="45.47689" lon="5.91366">
        <ele>1137.8</ele>
        <time>2012-08-29T11:30:05Z</time>
      </trkpt>
      <trkpt lat="45.47695" lon="5.91354">
        <ele>1136.4</ele>
        <time>2012-08-29T11:30:10Z</time>
      </trkpt>
      <trkpt lat="45.47702" lon="5.91355">
        <ele>1135.6</ele>
        <time>2012-08-29T11:30:14Z</time>
      </trkpt>
      <trkpt lat="45.47703" lon="5.91355">
        <ele>1135.4</ele>
        <time>2012-08-29T11:30:15Z</time>
      </trkpt>
      <trkpt lat="45.4771" lon="5.91354">
        <ele>1134.4</ele>
        <time>2012-08-29T11:30:20Z</time>
      </trkpt>
      <trkpt lat="45.47712" lon="5.91354">
        <ele>1133.2</ele>
        <time>2012-08-29T11:30:26Z</time>
      </trkpt>
      <trkpt lat="45.47717" lon="5.91355">
        <ele>1132.4</ele>
        <time>2012-08-29T11:30:31Z</time>
      </trkpt>
      <trkpt lat="45.47717" lon="5.91361">
        <ele>1131.4</ele>
        <time>2012-08-29T11:30:35Z</time>
      </trkpt>
      <trkpt lat="45.47719" lon="5.91365">
        <ele>1131.2</ele>
        <time>2012-08-29T11:30:37Z</time>
      </trkpt>
      <trkpt lat="45.47731" lon="5.91379">
        <ele>1130.6</ele>
        <time>2012-08-29T11:30:42Z</time>
      </trkpt>
      <trkpt lat="45.4774" lon="5.91388">
        <ele>1129.8</ele>
        <time>2012-08-29T11:30:46Z</time>
      </trkpt>
      <trkpt lat="45.47747" lon="5.91398">
        <ele>1129</ele>
        <time>2012-08-29T11:30:51Z</time>
      </trkpt>
      <trkpt lat="45.47757" lon="5.91408">
        <ele>1128.6</ele>
        <time>2012-08-29T11:30:55Z</time>
      </trkpt>
      <trkpt lat="45.47759" lon="5.91413">
        <ele>1128.4</ele>
        <time>2012-08-29T11:30:57Z</time>
      </trkpt>
      <trkpt lat="45.47762" lon="5.91418">
        <ele>1128.2</ele>
        <time>2012-08-29T11:30:59Z</time>
      </trkpt>
      <trkpt lat="45.47765" lon="5.91425">
        <ele>1128</ele>
        <time>2012-08-29T11:31:02Z</time>
      </trkpt>
      <trkpt lat="45.47774" lon="5.91439">
        <ele>1127</ele>
        <time>2012-08-29T11:31:09Z</time>
      </trkpt>
      <trkpt lat="45.47782" lon="5.91444">
        <ele>1126.6</ele>
        <time>2012-08-29T11:31:13Z</time>
      </trkpt>
      <trkpt lat="45.47787" lon="5.91447">
        <ele>1125.6</ele>
        <time>2012-08-29T11:31:18Z</time>
      </trkpt>
      <trkpt lat="45.47795" lon="5.91446">
        <ele>1124.8</ele>
        <time>2012-08-29T11:31:24Z</time>
      </trkpt>
      <trkpt lat="45.47801" lon="5.91442">
        <ele>1124.4</ele>
        <time>2012-08-29T11:31:28Z</time>
      </trkpt>
      <trkpt lat="45.47809" lon="5.91438">
        <ele>1124</ele>
        <time>2012-08-29T11:31:33Z</time>
      </trkpt>
      <trkpt lat="45.47821" lon="5.91441">
        <ele>1123.8</ele>
        <time>2012-08-29T11:31:40Z</time>
      </trkpt>
      <trkpt lat="45.4783" lon="5.91441">
        <ele>1123.8</ele>
        <time>2012-08-29T11:31:45Z</time>
      </trkpt>
      <trkpt lat="45.47831" lon="5.9144">
        <ele>1123.8</ele>
        <time>2012-08-29T11:31:46Z</time>
      </trkpt>
      <trkpt lat="45.47838" lon="5.91428">
        <ele>1123.8</ele>
        <time>2012-08-29T11:31:51Z</time>
      </trkpt>
      <trkpt lat="45.47841" lon="5.91416">
        <ele>1123.8</ele>
        <time>2012-08-29T11:31:55Z</time>
      </trkpt>
      <trkpt lat="45.4784" lon="5.9141">
        <ele>1123.8</ele>
        <time>2012-08-29T11:31:58Z</time>
      </trkpt>
      <trkpt lat="45.47841" lon="5.91408">
        <ele>1123.6</ele>
        <time>2012-08-29T11:31:59Z</time>
      </trkpt>
      <trkpt lat="45.47841" lon="5.91401">
        <ele>1123.6</ele>
        <time>2012-08-29T11:32:01Z</time>
      </trkpt>
      <trkpt lat="45.47845" lon="5.91385">
        <ele>1124</ele>
        <time>2012-08-29T11:32:05Z</time>
      </trkpt>
      <trkpt lat="45.47847" lon="5.91375">
        <ele>1124.6</ele>
        <time>2012-08-29T11:32:09Z</time>
      </trkpt>
      <trkpt lat="45.47849" lon="5.91362">
        <ele>1125</ele>
        <time>2012-08-29T11:32:13Z</time>
      </trkpt>
      <trkpt lat="45.4785" lon="5.9136">
        <ele>1125</ele>
        <time>2012-08-29T11:32:14Z</time>
      </trkpt>
      <trkpt lat="45.47853" lon="5.91348">
        <ele>1125.8</ele>
        <time>2012-08-29T11:32:18Z</time>
      </trkpt>
      <trkpt lat="45.47858" lon="5.91342">
        <ele>1126.4</ele>
        <time>2012-08-29T11:32:22Z</time>
      </trkpt>
      <trkpt lat="45.47864" lon="5.91344">
        <ele>1127.6</ele>
        <time>2012-08-29T11:32:27Z</time>
      </trkpt>
      <trkpt lat="45.47875" lon="5.91351">
        <ele>1128.6</ele>
        <time>2012-08-29T11:32:32Z</time>
      </trkpt>
      <trkpt lat="45.47885" lon="5.91351">
        <ele>1129.8</ele>
        <time>2012-08-29T11:32:36Z</time>
      </trkpt>
      <trkpt lat="45.47895" lon="5.91349">
        <ele>1130.6</ele>
        <time>2012-08-29T11:32:40Z</time>
      </trkpt>
      <trkpt lat="45.47908" lon="5.91352">
        <ele>1131.4</ele>
        <time>2012-08-29T11:32:45Z</time>
      </trkpt>
      <trkpt lat="45.4791" lon="5.91352">
        <ele>1131.8</ele>
        <time>2012-08-29T11:32:46Z</time>
      </trkpt>
      <trkpt lat="45.47917" lon="5.91357">
        <ele>1132.8</ele>
        <time>2012-08-29T11:32:51Z</time>
      </trkpt>
      <trkpt lat="45.47928" lon="5.91364">
        <ele>1133.4</ele>
        <time>2012-08-29T11:32:56Z</time>
      </trkpt>
      <trkpt lat="45.47936" lon="5.91376">
        <ele>1134.4</ele>
        <time>2012-08-29T11:33:01Z</time>
      </trkpt>
      <trkpt lat="45.47938" lon="5.91377">
        <ele>1134.6</ele>
        <time>2012-08-29T11:33:02Z</time>
      </trkpt>
      <trkpt lat="45.47941" lon="5.91383">
        <ele>1135.4</ele>
        <time>2012-08-29T11:33:09Z</time>
      </trkpt>
      <trkpt lat="45.47947" lon="5.9139">
        <ele>1135.8</ele>
        <time>2012-08-29T11:33:13Z</time>
      </trkpt>
      <trkpt lat="45.47949" lon="5.91392">
        <ele>1135.8</ele>
        <time>2012-08-29T11:33:14Z</time>
      </trkpt>
      <trkpt lat="45.47959" lon="5.91394">
        <ele>1136</ele>
        <time>2012-08-29T11:33:19Z</time>
      </trkpt>
      <trkpt lat="45.47966" lon="5.91392">
        <ele>1136</ele>
        <time>2012-08-29T11:33:22Z</time>
      </trkpt>
      <trkpt lat="45.4797" lon="5.91396">
        <ele>1136.2</ele>
        <time>2012-08-29T11:33:24Z</time>
      </trkpt>
      <trkpt lat="45.47978" lon="5.91404">
        <ele>1136.2</ele>
        <time>2012-08-29T11:33:30Z</time>
      </trkpt>
      <trkpt lat="45.4798" lon="5.91408">
        <ele>1136.2</ele>
        <time>2012-08-29T11:33:33Z</time>
      </trkpt>
      <trkpt lat="45.47987" lon="5.91417">
        <ele>1136.2</ele>
        <time>2012-08-29T11:33:40Z</time>
      </trkpt>
      <trkpt lat="45.4799" lon="5.91424">
        <ele>1136.6</ele>
        <time>2012-08-29T11:33:44Z</time>
      </trkpt>
      <trkpt lat="45.47995" lon="5.91433">
        <ele>1137.6</ele>
        <time>2012-08-29T11:33:51Z</time>
      </trkpt>
      <trkpt lat="45.48001" lon="5.91443">
        <ele>1138</ele>
        <time>2012-08-29T11:33:58Z</time>
      </trkpt>
      <trkpt lat="45.48005" lon="5.91449">
        <ele>1138</ele>
        <time>2012-08-29T11:34:03Z</time>
      </trkpt>
      <trkpt lat="45.4801" lon="5.91457">
        <ele>1138.2</ele>
        <time>2012-08-29T11:34:09Z</time>
      </trkpt>
      <trkpt lat="45.48015" lon="5.91464">
        <ele>1138.2</ele>
        <time>2012-08-29T11:34:17Z</time>
      </trkpt>
      <trkpt lat="45.4802" lon="5.9147">
        <ele>1138.2</ele>
        <time>2012-08-29T11:34:23Z</time>
      </trkpt>
      <trkpt lat="45.48028" lon="5.9148">
        <ele>1138.4</ele>
        <time>2012-08-29T11:34:33Z</time>
      </trkpt>
      <trkpt lat="45.48031" lon="5.91483">
        <ele>1138.4</ele>
        <time>2012-08-29T11:34:36Z</time>
      </trkpt>
    </trkseg>
  </trk>
</gpx>